GFSMA_sfc_wetblb_000.txt.gz
Wetbulb
65.51 64.87 63.94 63.23 62.98 63.40 63.16 62.87 62.22 60.35 57.04 56.10 57.22 57.17 56.45 57.07 58.21 58.20 58.84 54.12 54.90 55.64 57.34 58.19 59.05 59.74 60.72 61.89 63.03 64.29 64.63 65.07 65.70 66.30 66.27 65.73 65.55 65.68 65.93 66.07 66.05 66.21 66.07
64.58 63.01 61.82 61.02 61.06 61.41 62.12 62.01 60.94 58.91 57.11 56.36 56.33 57.01 56.16 56.44 56.83 57.10 57.09 56.64 53.56 55.60 57.21 57.99 59.21 59.94 60.12 60.78 61.67 62.21 62.84 64.13 64.55 65.00 65.78 65.44 65.09 65.16 65.11 65.18 65.45 65.70 65.92
63.02 62.53 61.02 60.86 61.02 61.51 62.16 62.37 61.34 59.35 57.54 56.12 55.59 56.13 56.02 56.10 55.64 55.65 55.60 56.13 54.94 54.87 55.60 56.04 57.35 57.36 57.31 57.92 58.45 59.23 60.68 62.07 62.78 63.83 64.85 65.02 65.03 64.92 64.69 64.38 64.68 65.25 65.47
63.11 62.30 60.95 60.75 61.42 61.47 60.88 60.59 60.18 58.63 57.41 55.78 55.13 55.34 55.55 55.51 55.12 55.35 55.48 55.10 55.16 55.23 54.61 55.21 55.38 55.04 55.39 56.06 56.34 57.06 58.26 59.42 60.50 61.45 63.89 64.34 64.48 64.81 64.70 64.52 64.50 64.65 64.88
61.80 61.63 60.53 60.60 61.53 60.66 60.14 59.88 59.33 58.77 57.12 55.88 54.78 55.11 55.57 55.18 55.11 54.26 54.74 54.98 55.25 54.81 55.02 53.71 54.19 53.70 53.35 53.48 53.23 54.59 56.58 58.84 59.77 60.56 61.87 63.66 63.49 64.17 64.17 64.52 64.43 64.41 64.28
59.60 59.91 59.77 60.52 61.07 60.08 59.39 58.94 58.89 58.69 57.33 56.15 53.94 53.57 54.71 55.34 55.34 54.71 54.41 54.13 54.33 55.24 55.14 55.30 55.73 54.87 52.89 51.19 51.20 51.81 54.27 55.56 56.58 59.60 59.49 60.59 61.23 62.89 63.62 63.50 63.97 64.39 64.46
58.36 58.37 58.15 58.54 59.12 58.62 58.82 59.16 58.74 57.82 57.07 57.11 54.33 53.63 54.13 55.19 55.28 54.49 54.71 54.26 53.81 54.62 55.32 55.33 54.51 54.23 53.80 51.32 49.86 51.54 52.71 54.24 54.99 55.59 57.64 57.85 57.17 58.88 60.03 62.62 62.93 63.58 63.65
56.24 56.07 56.64 56.58 56.95 56.55 57.13 57.60 57.59 56.48 56.99 57.41 53.55 52.53 49.48 51.84 53.91 54.15 54.25 53.68 54.02 54.15 54.05 54.36 52.55 51.68 51.72 52.09 52.57 49.96 51.10 51.90 53.22 55.27 55.30 57.46 55.41 56.53 57.00 58.53 61.27 62.18 62.96
54.72 55.06 55.32 55.37 55.65 55.42 54.41 55.27 55.73 55.28 53.67 55.95 57.01 52.60 49.13 47.55 51.04 53.59 53.26 53.27 53.45 53.15 53.64 52.20 50.68 49.92 50.09 51.48 50.54 51.66 49.42 49.88 51.45 53.45 53.47 56.03 55.71 54.98 55.47 56.89 58.95 60.87 61.73
53.82 53.73 53.85 54.34 54.31 54.14 53.57 53.54 53.43 53.76 53.52 51.96 54.10 54.89 55.20 53.43 48.51 46.74 51.44 52.17 52.64 52.00 52.17 50.77 50.08 50.06 50.03 49.82 48.54 49.17 48.53 48.71 50.11 52.48 52.33 52.54 54.52 55.25 55.24 56.34 57.16 57.25 59.48
52.97 52.79 52.67 52.79 53.01 52.80 52.61 52.69 52.54 52.48 52.55 51.87 51.52 51.43 50.55 51.52 51.34 47.53 46.63 47.14 50.06 50.40 49.70 49.47 49.98 49.65 50.18 49.51 49.58 49.50 48.01 48.21 48.74 51.31 52.08 52.67 54.17 55.08 55.29 55.21 56.02 55.98 56.32
51.10 51.66 51.27 51.69 51.60 50.99 50.71 50.51 50.73 49.89 49.71 49.01 48.46 47.17 46.41 41.82 43.48 44.83 44.86 46.45 47.37 47.69 48.44 48.91 48.29 48.89 49.78 49.52 48.80 45.54 47.06 46.24 46.56 48.45 49.88 51.57 52.30 54.06 53.73 53.66 54.22 55.55 55.37
49.15 50.12 50.19 50.17 49.98 49.80 49.34 50.10 49.86 48.38 45.17 43.75 42.91 41.60 40.69 39.62 39.62 39.66 41.02 41.37 41.04 45.16 46.09 47.51 48.02 48.46 48.27 49.17 48.36 45.93 47.00 43.59 45.09 46.71 47.24 49.25 49.87 50.85 51.85 52.75 53.20 53.72 53.84
48.85 49.68 49.14 49.26 49.10 49.16 48.94 48.72 45.74 43.73 44.50 44.11 43.40 41.81 41.14 41.88 40.17 38.26 37.12 36.92 36.10 39.24 42.39 43.61 47.90 47.45 47.52 47.64 47.46 45.05 46.34 43.03 43.81 45.79 45.56 47.39 46.95 46.17 46.91 47.74 49.44 50.12 49.96
48.11 48.23 48.38 47.42 45.97 45.98 45.79 45.17 43.57 42.10 42.25 41.68 42.39 42.32 42.12 41.78 40.58 39.96 39.68 38.82 36.26 34.86 35.67 41.75 43.06 47.15 46.47 46.71 46.32 46.54 46.90 45.24 44.12 45.36 44.13 45.39 45.22 44.58 44.56 45.20 46.33 47.64 49.13
47.91 46.65 45.50 44.88 44.52 44.67 44.61 43.85 42.78 41.41 40.92 40.85 39.74 39.58 40.36 41.31 41.54 41.14 40.10 39.52 39.21 37.13 34.07 38.99 40.70 42.85 44.18 43.56 44.95 44.69 44.84 44.45 43.33 43.55 44.28 43.41 43.85 44.12 44.01 44.19 44.56 44.97 46.42
45.54 44.95 44.32 43.96 43.15 41.70 41.32 40.68 40.74 40.97 40.24 39.85 40.00 40.06 39.48 40.37 39.75 39.84 40.27 39.95 38.89 38.58 35.59 37.97 40.44 41.96 42.15 42.56 43.14 44.14 44.10 44.33 44.64 42.21 42.43 42.30 42.02 42.20 42.53 42.72 43.21 43.94 44.49
44.53 44.15 42.92 41.54 41.31 40.97 40.47 39.57 39.56 39.79 39.02 38.31 38.65 38.89 38.12 37.91 38.03 38.61 38.42 37.93 37.97 38.80 36.99 35.39 38.55 39.38 40.35 41.99 42.54 42.33 42.25 42.87 43.67 42.60 42.37 42.00 41.67 41.14 41.13 41.02 41.46 42.54 42.96
41.84 41.64 41.43 40.85 40.25 40.07 40.29 39.52 38.80 38.65 38.58 38.56 38.11 37.10 36.76 36.85 36.34 36.89 36.98 36.55 36.87 36.86 37.11 35.73 35.54 38.40 39.20 40.31 40.00 40.96 41.16 41.99 41.97 41.66 40.71 40.77 41.08 41.55 41.23 41.04 41.39 42.16 42.79
41.09 40.83 40.39 39.88 39.54 38.68 38.19 38.11 37.82 37.53 37.11 36.63 36.33 36.13 35.74 35.27 34.92 34.92 34.86 34.72 34.86 34.83 35.02 34.47 34.49 35.11 36.48 38.12 38.38 37.05 36.99 39.48 39.38 40.57 40.22 38.67 39.16 40.51 40.79 40.69 40.73 41.54 42.26
38.88 38.57 37.87 37.73 37.79 37.18 36.61 36.04 35.93 36.26 35.99 35.56 35.39 35.38 35.44 34.86 32.74 32.54 32.43 32.93 33.33 33.35 33.82 33.86 33.60 34.44 34.62 34.96 34.88 36.71 35.69 36.95 38.27 39.57 39.19 40.34 40.83 41.10 41.42 39.37 39.87 40.91 40.89
37.41 37.40 36.87 36.67 36.14 35.96 32.64 32.18 32.79 34.39 34.36 34.21 33.98 34.64 34.57 33.64 33.20 32.22 31.49 30.92 31.40 31.08 31.42 31.14 30.65 30.27 32.14 32.74 34.34 33.01 33.10 31.75 30.19 39.27 37.36 36.86 39.45 38.69 40.64 41.73 39.70 39.50 40.23
36.95 36.20 35.88 35.70 35.01 35.30 30.14 29.98 29.63 31.91 32.37 32.65 32.93 32.88 32.23 32.51 32.12 32.53 31.76 31.47 30.76 30.21 28.86 29.56 27.98 29.14 29.36 31.59 32.21 31.56 31.86 31.50 31.08 35.38 35.99 34.23 37.66 36.59 39.22 39.86 38.41 38.89 39.32
35.59 35.25 34.93 34.49 33.89 33.58 29.96 28.66 27.93 30.32 31.70 31.87 31.97 31.98 31.44 31.58 32.17 30.47 29.74 28.86 29.56 30.94 31.82 31.43 30.78 30.75 31.98 32.44 33.18 33.34 33.15 32.91 33.56 34.20 35.50 30.88 35.48 35.22 37.68 38.33 38.12 38.49 39.05
35.01 34.45 33.78 32.96 32.33 32.20 29.85 27.71 27.59 29.22 29.31 29.52 30.49 31.22 30.26 29.04 29.36 29.63 29.08 28.77 29.07 29.98 32.13 32.33 31.97 31.87 31.91 32.14 32.45 32.45 31.00 29.96 29.97 30.82 34.56 32.40 33.73 34.07 35.84 36.93 39.47 37.31 37.49
34.09 33.59 32.10 32.31 30.55 30.17 28.60 27.12 27.24 27.98 27.00 27.30 28.50 29.07 29.02 29.71 29.35 28.93 29.17 29.19 27.50 28.44 30.18 31.52 32.22 32.62 32.50 32.64 31.47 32.60 32.73 29.14 29.37 28.96 32.89 31.10 31.15 31.80 30.16 37.77 38.27 39.47 39.91

GFSMA_sfc_wetblb_003.txt.gz
Wetbulb
64.71 63.89 63.10 62.06 61.71 61.73 61.82 61.82 61.50 60.85 59.47 57.79 56.93 57.35 57.08 57.11 57.46 57.30 57.49 56.01 55.29 55.93 57.05 57.77 58.56 59.19 59.54 60.13 61.06 62.27 63.68 63.88 64.63 65.34 65.91 66.05 65.79 65.62 65.27 65.38 65.11 65.21 66.11
64.32 62.63 61.94 61.16 61.04 61.22 61.28 61.18 61.09 60.58 58.93 57.79 57.03 57.17 57.18 56.54 56.90 57.70 56.69 56.14 55.28 56.43 57.35 57.80 59.14 59.62 59.37 59.30 59.73 60.56 61.47 62.35 63.36 64.17 64.72 65.47 65.45 65.38 64.85 64.89 64.97 65.27 65.62
63.34 63.01 61.84 61.32 61.30 62.23 62.47 61.92 61.29 60.91 59.77 58.63 57.31 56.73 56.85 56.89 56.42 56.47 56.33 55.92 54.96 55.85 56.89 57.18 58.09 57.20 56.93 57.06 56.90 57.15 58.28 59.64 61.34 62.69 63.90 64.41 64.72 64.83 64.68 64.56 64.61 64.98 65.11
63.07 62.86 61.40 61.32 62.21 62.44 61.19 60.94 59.88 59.36 59.12 58.63 58.27 56.74 56.53 56.67 56.48 56.19 56.09 55.90 55.57 55.29 55.44 56.62 56.37 55.90 55.91 55.26 54.71 55.17 56.55 58.10 59.09 60.24 62.07 63.71 63.80 64.26 64.54 64.28 64.46 64.45 64.83
61.61 61.50 60.85 61.78 64.16 61.95 62.32 61.96 60.85 60.99 59.31 59.04 58.32 58.32 57.41 56.54 57.29 55.66 55.55 56.76 57.17 55.72 55.90 56.59 56.38 55.98 55.23 54.20 52.66 52.79 54.41 55.51 57.98 59.65 61.15 62.43 63.83 63.94 64.21 64.21 64.38 64.45 64.39
60.97 60.90 60.50 62.16 62.23 61.16 61.37 61.67 62.26 61.08 60.75 59.80 57.57 57.41 58.88 58.03 57.65 57.59 56.32 55.81 55.86 56.88 55.85 55.65 54.27 53.58 55.06 53.94 52.65 52.00 52.89 54.77 55.57 56.64 58.88 60.21 60.84 60.98 63.59 63.90 64.06 64.20 64.48
59.10 59.08 58.50 59.48 60.22 59.11 60.54 60.94 60.31 59.64 59.22 60.25 58.80 58.16 58.32 58.52 58.26 56.96 57.88 56.90 56.36 56.31 56.65 56.53 56.31 55.20 53.46 54.37 52.49 51.65 52.19 53.25 54.82 55.70 56.47 57.59 59.35 58.22 59.52 60.72 63.58 63.39 63.79
57.68 56.95 57.23 56.71 57.81 56.59 58.70 59.10 59.21 57.64 57.82 58.98 56.21 55.82 51.58 54.26 57.00 57.28 56.91 56.98 56.89 56.50 55.66 56.20 56.41 55.74 54.27 53.00 52.97 52.35 50.71 51.19 52.22 54.24 55.72 55.88 58.85 57.28 57.69 57.54 58.44 61.13 63.07
56.03 55.83 55.64 56.11 57.02 56.90 55.80 57.49 56.91 56.20 53.82 56.12 57.71 54.07 49.20 48.25 53.05 56.25 57.04 56.09 56.31 56.51 56.05 55.88 55.68 53.73 52.86 52.28 51.77 51.50 51.43 50.11 50.39 52.85 55.12 54.87 56.50 56.44 56.42 56.48 56.94 59.08 60.41
54.59 54.06 54.24 54.49 55.07 55.32 55.36 55.15 53.62 54.91 53.75 51.45 54.00 53.27 54.38 52.13 48.85 48.06 54.12 54.09 55.28 53.21 56.18 55.73 54.91 52.13 51.45 51.34 52.68 49.40 48.28 48.29 50.11 53.17 53.57 54.19 53.79 56.27 56.05 56.23 56.94 57.90 58.23
53.76 53.13 53.26 53.24 53.47 52.94 53.65 53.64 53.37 51.40 50.82 50.53 49.29 49.75 49.87 49.84 49.93 46.01 44.04 49.43 52.66 52.94 51.56 52.49 53.07 51.30 51.37 51.40 51.21 50.39 48.42 48.61 49.40 51.46 53.13 52.77 53.13 53.79 55.35 56.06 56.38 57.19 56.86
51.55 52.22 51.44 51.96 52.66 52.47 51.05 50.86 50.90 50.16 48.17 47.84 46.86 45.75 44.12 42.41 41.75 41.68 41.21 44.56 46.48 48.70 49.74 50.50 49.40 50.13 50.92 51.06 51.02 47.92 47.43 47.15 46.95 48.82 49.70 51.01 52.11 53.41 55.54 56.37 56.00 55.55 56.15
49.36 50.41 50.92 50.81 49.85 50.22 50.31 50.29 48.88 46.12 43.70 41.99 42.71 42.90 43.54 41.37 41.08 39.96 37.97 37.84 39.29 43.49 44.97 47.85 47.55 48.49 49.21 50.74 50.48 48.31 47.16 44.46 45.08 47.84 48.02 49.52 49.30 50.67 52.46 53.66 54.53 54.97 55.47
49.28 49.78 49.63 49.56 49.36 49.04 48.54 48.02 46.68 46.34 44.75 44.31 42.50 41.80 42.02 41.65 41.28 39.87 38.28 37.78 36.34 37.79 40.20 41.47 46.81 47.49 47.56 49.13 47.98 45.72 47.12 44.20 44.78 46.46 46.21 48.33 46.62 44.96 46.10 47.47 48.78 49.90 50.59
48.17 48.80 48.72 47.89 47.62 47.14 45.82 45.49 44.55 43.23 43.89 43.40 42.60 42.39 41.73 42.30 41.78 41.23 40.65 39.97 36.69 33.74 36.17 41.36 41.73 46.89 47.28 47.98 47.67 47.45 47.31 45.10 44.56 44.96 45.05 45.35 45.51 44.61 44.39 44.84 45.57 46.61 47.38
47.77 47.42 47.04 45.68 44.73 44.48 43.99 42.45 42.68 42.98 42.02 42.29 41.77 41.41 40.36 40.71 40.99 40.92 40.53 40.73 39.92 36.84 33.68 39.40 40.22 43.20 44.88 44.50 46.81 47.13 46.40 45.30 44.01 43.08 43.35 44.54 44.68 44.93 45.05 44.91 45.33 46.03 46.16
45.84 44.92 44.48 43.59 42.80 41.79 41.74 41.56 41.31 41.15 40.45 40.67 41.01 40.76 40.35 40.81 39.94 39.68 40.64 40.07 39.17 38.98 35.93 38.51 40.62 42.93 43.41 43.98 44.11 45.98 45.92 45.67 45.39 41.70 41.45 41.85 42.63 43.10 43.03 42.87 43.03 44.01 45.19
44.63 43.96 42.75 41.94 41.48 41.48 40.97 40.37 39.99 39.34 38.94 38.44 38.77 38.85 38.61 39.26 39.25 39.16 38.92 38.01 38.19 38.72 36.80 35.38 38.49 39.88 41.35 43.29 44.08 44.20 43.19 43.46 44.19 43.31 42.07 41.73 41.97 41.22 40.88 41.01 41.54 42.02 42.64
42.94 42.67 42.24 41.16 40.42 40.14 39.60 39.24 38.98 38.80 38.42 38.07 37.74 37.44 36.95 36.87 36.24 37.32 37.27 37.16 37.11 37.29 37.55 36.28 35.86 38.96 40.04 41.16 40.97 42.37 42.60 43.75 42.78 43.17 42.04 41.46 41.64 41.58 41.27 40.81 41.32 41.63 42.31
40.71 39.82 39.58 39.13 38.86 38.50 38.33 38.16 37.80 36.99 36.42 36.90 37.33 37.02 36.60 36.07 35.57 35.30 35.19 35.40 35.50 35.07 35.17 34.97 35.10 35.82 37.24 38.71 39.43 38.27 38.49 41.14 40.80 41.10 40.91 39.33 40.81 41.23 40.75 40.67 40.91 41.21 41.52
39.43 39.19 38.69 38.57 38.45 37.92 36.93 36.15 35.73 34.81 34.36 34.80 36.35 36.39 37.07 36.72 34.44 34.10 33.23 32.89 32.48 32.29 32.74 32.94 33.42 34.60 35.76 36.35 35.77 38.13 37.28 38.82 40.04 41.21 40.57 41.48 42.38 42.08 41.41 40.13 41.02 41.06 40.83
38.51 38.40 37.80 37.53 37.05 36.68 31.92 31.13 31.11 32.33 31.89 32.06 32.48 34.10 35.15 35.35 35.18 34.35 33.65 33.43 32.33 29.75 29.23 30.62 31.41 31.55 32.89 34.16 35.63 35.37 34.85 33.72 32.00 39.56 37.43 37.91 40.64 39.56 41.11 42.20 40.30 38.94 39.34
37.93 37.07 36.93 36.74 35.82 35.74 30.55 30.00 29.35 30.82 30.19 30.67 31.64 32.50 32.62 33.69 33.59 33.29 32.67 32.52 31.94 31.66 29.64 29.47 27.42 28.46 29.37 32.00 33.16 32.45 32.72 32.71 32.46 35.37 35.95 34.56 38.59 37.50 40.08 39.30 38.99 38.68 38.31
36.94 36.22 35.93 35.88 34.88 34.36 31.71 29.35 28.26 29.40 29.52 30.01 30.85 31.24 31.42 31.54 32.59 31.72 30.72 30.51 30.51 30.59 31.03 31.16 30.87 30.89 32.06 32.88 32.83 32.68 32.33 32.79 33.99 35.06 36.17 31.40 37.30 36.69 38.35 39.21 38.21 38.10 38.21
36.48 35.88 35.57 34.51 32.98 32.39 31.44 29.38 28.14 28.13 27.63 27.82 29.05 29.76 30.30 29.72 30.13 30.15 28.80 28.05 28.46 29.49 32.12 32.76 32.61 32.45 32.28 32.33 32.75 32.60 30.82 30.17 29.76 30.90 34.74 33.07 34.10 34.46 36.39 37.14 38.55 37.45 37.24
35.92 35.42 34.19 33.19 31.72 31.04 31.17 28.95 28.12 27.83 26.29 26.90 28.43 28.78 29.37 29.64 29.66 29.69 29.50 28.63 27.39 28.45 29.41 30.48 31.57 32.22 33.74 33.69 31.99 32.01 31.26 28.43 29.09 29.03 33.54 31.90 32.27 32.92 31.05 36.56 37.01 37.79 38.45

GFSMA_sfc_wetblb_006.txt.gz
Wetbulb
62.26 61.94 60.56 59.80 59.38 59.07 58.34 58.08 57.58 57.77 57.54 56.37 55.24 54.00 54.42 54.40 54.25 53.88 53.63 56.54 56.90 56.55 57.31 59.12 60.29 61.15 61.42 61.72 62.28 62.96 63.99 64.22 64.87 65.51 65.01 65.20 65.52 65.97 65.87 65.51 64.89 64.87 65.14
61.53 60.95 59.64 59.54 58.78 58.78 58.20 57.33 56.99 57.50 57.24 56.33 54.96 54.52 53.89 54.09 53.51 53.91 53.43 52.42 56.31 57.02 57.89 58.91 59.75 60.48 60.95 61.27 61.36 61.64 62.38 63.16 64.28 64.97 65.20 64.85 64.94 65.12 65.36 65.31 65.17 64.98 65.35
60.57 60.61 59.69 59.40 59.37 59.63 58.80 58.36 58.30 57.35 56.94 57.31 55.38 55.06 54.25 54.25 53.90 53.58 53.81 53.25 51.90 56.27 58.11 59.29 59.42 60.22 60.12 59.43 59.20 59.24 59.72 60.76 62.07 62.94 64.45 64.54 64.38 64.65 64.92 64.72 64.98 64.85 65.20
60.89 59.96 59.39 59.15 59.74 59.96 58.52 57.94 57.00 56.11 55.61 55.44 54.87 54.85 53.43 53.44 53.40 53.53 53.26 52.85 52.08 52.15 55.47 58.40 59.59 59.40 58.47 58.48 58.11 57.70 57.89 58.60 59.38 60.63 62.39 63.99 63.99 64.05 64.22 64.34 64.50 64.30 64.28
60.69 59.23 58.45 58.99 59.60 58.39 57.69 57.89 56.76 56.06 55.16 54.98 55.34 54.54 54.10 53.11 52.56 54.55 52.74 52.49 52.31 52.77 51.69 55.46 57.61 57.56 58.31 58.43 57.46 57.00 57.14 57.08 58.04 59.38 60.73 62.29 63.57 63.48 63.32 63.47 64.05 64.14 64.32
58.77 58.08 57.20 57.64 59.00 57.03 56.01 56.21 56.30 55.22 55.04 54.82 56.30 55.77 54.81 55.12 54.67 52.27 52.71 53.84 52.78 52.88 52.45 52.12 53.61 53.94 56.28 57.44 56.42 56.01 56.19 56.29 56.62 57.05 57.86 59.80 62.18 62.98 63.24 62.96 63.13 63.74 63.96
56.73 55.59 54.95 55.41 54.92 53.83 53.94 53.94 53.16 52.19 52.51 53.40 52.75 52.46 52.68 53.52 54.25 54.63 54.45 53.32 52.99 52.75 52.45 52.34 52.16 51.10 51.67 56.05 56.59 55.46 55.44 55.52 55.99 56.28 56.66 57.47 58.64 60.72 61.06 61.08 63.21 63.35 63.49
55.52 54.28 54.10 53.52 53.17 52.18 51.75 52.23 52.29 50.62 50.39 50.96 49.55 49.10 45.68 48.03 50.73 52.11 53.37 54.20 53.64 53.59 52.77 52.50 52.25 51.40 51.40 50.77 51.36 55.63 54.68 55.12 55.20 55.37 55.31 56.36 57.98 60.05 58.80 58.85 59.32 60.39 62.91
54.58 54.07 53.10 53.36 52.73 50.94 49.52 49.63 49.73 48.60 47.44 48.16 48.35 46.24 42.95 41.95 45.72 48.84 50.02 51.44 51.64 53.28 53.69 53.96 53.10 53.10 51.78 49.79 51.35 52.02 53.37 53.13 53.74 53.58 54.07 55.15 56.64 57.07 58.66 57.77 57.21 57.79 59.39
53.22 52.13 51.56 51.55 51.08 50.11 48.89 49.10 49.68 48.37 47.16 44.93 46.30 48.07 45.18 43.08 40.70 40.64 45.74 47.60 49.47 50.63 52.47 52.69 52.87 52.52 51.66 49.99 51.02 50.41 50.41 49.82 51.43 52.17 53.02 54.12 55.20 55.81 57.58 56.64 56.72 57.21 58.21
50.92 50.91 50.01 48.84 49.22 48.34 48.25 48.51 47.12 46.80 46.30 44.38 43.30 41.99 40.96 41.02 41.41 38.12 37.47 39.16 42.73 44.95 48.26 50.13 50.52 50.46 50.31 47.84 48.99 47.75 48.39 47.76 49.18 51.74 53.28 53.40 54.32 54.65 55.20 56.56 56.57 56.91 57.34
48.23 48.82 49.27 48.42 48.56 47.93 47.09 47.08 45.95 44.73 42.78 42.91 42.82 41.74 39.69 39.52 38.37 37.38 36.36 36.44 37.08 40.36 42.98 44.93 48.47 48.11 48.51 48.90 49.91 48.62 47.98 47.52 48.35 49.55 50.91 52.91 53.67 53.81 53.98 54.76 55.82 56.53 56.71
46.18 46.18 47.50 46.85 46.85 46.82 47.10 46.92 46.24 44.79 43.38 40.94 39.79 40.46 40.29 39.01 38.93 38.43 36.49 35.41 35.15 37.80 39.21 42.43 46.18 47.05 47.79 48.12 47.53 47.82 47.21 45.80 45.57 47.36 48.68 50.02 50.58 51.83 54.03 55.21 55.91 56.32 55.96
45.58 46.40 46.64 46.64 45.93 45.09 44.00 44.05 42.69 43.41 41.84 41.81 41.83 41.48 39.49 39.10 39.49 39.16 37.76 35.46 32.59 34.72 37.16 37.88 43.47 44.92 46.25 47.67 47.47 46.39 45.53 43.92 44.54 46.05 46.54 47.55 48.71 46.27 47.29 49.17 51.07 51.89 52.71
46.01 45.16 44.84 44.36 44.49 43.67 43.08 41.94 40.90 40.33 40.47 40.30 40.29 40.38 39.31 39.36 39.90 39.57 38.34 38.26 35.62 31.78 31.43 34.84 40.35 43.59 45.15 45.47 46.18 45.05 45.16 44.27 43.48 44.29 44.94 44.91 46.51 46.34 46.13 45.66 46.09 46.93 48.11
44.36 44.00 43.61 43.14 42.87 42.62 42.15 41.35 40.15 40.66 40.22 39.74 40.30 39.80 39.36 39.76 39.46 39.24 38.88 38.44 37.97 35.52 32.20 36.03 37.07 39.57 41.62 43.16 44.79 44.74 44.40 45.59 43.56 42.82 42.96 42.61 43.57 44.50 45.00 45.01 45.07 45.44 45.99
42.87 41.99 42.30 42.07 41.51 40.91 40.91 40.63 39.50 39.50 38.31 37.21 38.04 38.62 38.40 38.74 38.11 38.22 37.98 37.16 35.69 35.03 32.27 34.38 37.06 38.14 38.34 39.87 41.03 41.32 43.08 42.33 41.85 42.18 41.49 41.92 41.96 42.47 43.28 43.09 42.56 42.61 43.12
42.17 41.27 40.95 40.21 40.08 39.58 39.55 38.82 38.49 38.53 37.71 36.64 36.67 36.40 36.63 38.13 36.08 35.88 36.04 35.23 34.88 34.94 32.63 30.72 33.00 35.01 34.30 36.12 37.55 38.78 41.61 42.67 41.58 42.83 42.07 41.57 41.34 41.05 41.40 41.13 40.93 40.96 41.35
40.65 39.90 38.54 37.38 36.96 36.76 36.20 35.70 35.40 35.69 34.24 33.18 33.40 33.45 34.00 34.10 32.52 32.61 33.23 32.91 33.66 34.97 33.41 31.68 30.53 32.35 33.22 34.22 34.67 36.33 37.40 37.86 40.99 42.71 41.50 40.92 41.06 41.39 41.21 40.51 40.55 40.61 40.87
38.31 37.46 37.36 37.21 37.01 36.51 36.35 35.19 34.70 33.16 32.35 32.21 32.18 31.73 32.11 32.79 32.95 32.79 32.59 31.11 31.86 29.47 29.80 29.39 29.26 30.09 30.88 32.83 33.26 32.08 31.98 34.10 34.65 39.32 39.76 39.00 40.33 41.11 41.28 40.81 40.37 40.50 40.77
37.86 37.16 36.57 36.18 36.20 35.97 33.55 31.83 31.40 30.36 29.81 29.68 29.94 30.85 31.52 33.38 35.43 33.65 32.56 30.33 28.97 27.41 26.98 27.39 27.15 28.44 29.45 29.99 30.11 33.16 32.41 32.81 33.70 35.89 34.34 34.18 35.20 37.64 38.96 40.58 40.39 40.61 40.53
36.75 36.04 35.40 35.17 34.32 35.66 31.90 31.07 29.68 27.53 28.83 28.12 26.80 28.09 29.52 32.33 32.54 34.24 34.20 33.76 31.38 26.80 25.94 25.68 25.50 25.01 26.17 28.02 29.71 29.07 28.27 27.22 25.96 32.87 31.24 29.98 34.02 33.29 35.58 37.29 39.77 38.22 38.15
35.40 34.91 34.53 34.54 33.37 32.88 32.37 31.24 29.62 27.49 26.67 26.09 26.00 26.68 27.93 30.96 31.02 30.92 31.54 31.63 31.55 32.62 29.56 27.67 25.63 25.78 25.42 26.73 27.72 26.77 25.97 26.11 26.14 29.54 29.52 25.33 27.56 29.62 33.77 37.36 38.52 38.33 37.77
34.44 33.79 33.75 33.37 32.05 32.46 32.83 32.40 29.89 26.18 25.46 25.31 25.75 25.76 26.06 26.77 28.64 29.55 28.60 27.21 27.39 28.31 29.34 29.60 28.53 28.19 28.98 29.28 29.11 29.52 28.97 29.40 28.30 29.40 30.46 26.82 25.88 27.83 28.42 31.18 37.54 38.24 37.77
33.80 33.29 33.52 32.10 30.40 30.06 32.65 31.69 29.61 25.52 25.42 24.70 25.80 26.61 27.30 26.61 28.72 30.04 27.19 25.89 25.91 27.10 31.22 32.46 32.79 32.72 32.85 33.01 32.58 29.56 26.80 26.75 25.45 26.80 28.42 26.80 25.15 25.53 27.66 28.46 30.61 37.32 37.38
33.79 32.82 31.53 30.82 31.74 29.20 32.07 31.14 28.53 25.15 22.83 24.07 25.53 26.21 27.64 28.10 27.90 28.29 27.24 26.98 25.90 27.29 27.67 28.05 27.12 27.98 29.73 31.20 32.74 31.53 29.05 24.89 24.14 23.23 27.68 28.13 27.07 27.03 25.27 27.22 30.24 31.93 27.90

GFSMA_sfc_wetblb_009.txt.gz
Wetbulb
57.09 56.88 56.75 55.81 55.23 55.17 54.63 54.23 54.16 54.92 55.45 55.16 54.06 52.52 51.63 52.09 52.24 51.75 50.62 57.34 57.48 58.56 58.46 58.93 60.07 61.15 61.94 63.10 63.75 63.65 64.16 64.86 65.33 66.12 65.80 65.58 66.06 65.84 65.91 65.80 65.35 65.01 64.94
56.84 56.67 55.68 56.25 55.15 55.33 55.40 54.44 53.90 53.84 54.32 54.77 54.25 53.33 51.67 51.23 51.67 51.79 51.67 51.68 57.09 57.82 58.65 58.35 59.50 60.67 61.48 61.92 62.97 62.61 62.88 63.75 64.89 65.26 65.60 65.10 65.21 65.14 65.12 65.38 65.25 65.00 64.99
56.40 56.43 55.64 55.98 56.34 56.33 56.19 54.97 55.04 54.81 53.82 54.75 54.16 53.80 52.83 52.03 51.73 51.70 51.13 51.19 51.98 56.62 57.26 59.11 59.76 59.91 60.65 61.33 61.82 61.68 61.94 62.85 63.06 63.88 65.07 64.66 65.07 64.79 64.59 64.90 64.88 64.96 65.07
56.90 55.47 54.54 54.39 55.83 56.22 55.74 54.63 54.50 54.00 53.48 52.99 52.43 52.89 52.88 51.94 51.32 51.53 51.51 50.90 50.61 51.31 54.77 57.60 59.30 60.28 61.10 60.81 60.60 60.35 60.25 60.52 60.75 61.86 63.20 64.66 64.19 64.49 64.39 64.46 64.54 64.79 65.03
55.65 53.65 53.54 53.20 54.14 54.73 54.33 54.15 53.93 53.12 52.42 51.87 52.46 52.36 51.70 51.39 51.57 52.77 51.33 51.08 50.37 50.31 49.91 54.29 57.13 58.00 59.95 60.48 59.07 59.61 59.40 59.15 59.70 60.26 61.01 62.40 63.68 64.14 63.91 63.78 64.10 64.16 64.54
53.56 51.96 51.54 51.98 52.11 51.60 50.80 50.77 49.78 50.47 49.76 49.97 52.41 52.61 51.05 51.76 51.98 50.90 50.84 51.79 51.15 51.43 50.11 50.14 52.17 54.10 57.22 58.96 59.31 58.56 58.96 58.82 58.51 58.83 59.96 60.48 62.30 63.05 63.30 63.67 63.37 63.48 63.78
52.64 51.40 50.38 51.13 50.14 49.48 48.47 48.55 48.59 47.89 48.22 48.59 47.16 47.49 47.59 48.76 48.28 48.90 49.76 50.21 50.57 50.88 51.26 50.34 49.97 51.20 52.54 57.06 58.38 58.01 58.28 58.33 58.19 57.97 58.08 58.91 59.57 62.00 62.12 62.96 63.16 63.20 63.31
51.69 51.67 49.50 49.27 48.94 47.92 46.93 46.17 46.19 46.05 45.63 46.18 43.77 43.50 41.00 43.84 45.21 47.39 47.58 48.89 48.44 50.75 51.75 52.54 51.27 51.98 50.63 51.17 52.90 57.53 57.67 57.73 57.34 57.40 57.96 58.53 58.78 58.84 60.85 60.25 60.51 61.26 62.37
50.09 48.62 48.00 47.52 47.48 47.02 45.41 44.95 45.72 44.77 43.58 44.34 44.30 42.73 38.95 37.94 39.54 43.26 43.82 44.16 43.33 45.21 47.00 49.37 51.19 51.88 51.26 50.57 51.19 53.14 54.42 54.76 56.95 56.91 56.73 56.91 57.16 57.73 59.08 59.30 58.76 58.31 58.72
47.94 48.38 47.35 46.29 46.29 45.67 44.80 45.10 47.37 44.20 43.62 41.84 42.95 44.25 41.22 39.89 37.52 34.70 39.11 40.83 41.13 41.68 43.08 46.07 48.02 50.24 51.30 50.05 50.40 50.34 50.04 50.72 52.93 55.11 54.26 54.11 55.03 56.21 56.94 58.56 58.08 57.48 57.56
46.48 46.92 46.56 45.35 45.15 45.46 44.45 44.11 43.33 42.21 42.11 41.08 40.35 39.94 39.21 38.50 39.23 36.71 32.69 35.03 38.48 39.68 41.21 42.32 44.33 47.14 49.06 49.05 49.84 49.76 48.93 48.92 49.51 52.02 52.12 53.01 53.72 54.87 55.42 57.46 57.19 57.20 57.16
44.83 44.88 45.78 44.75 44.72 44.10 43.72 43.08 43.02 41.24 40.56 42.11 42.79 42.02 40.58 36.99 35.34 34.35 34.10 34.53 35.20 36.69 38.98 40.31 42.44 44.80 46.03 48.95 49.16 48.42 48.09 47.52 47.90 50.58 51.86 52.19 53.05 53.57 54.26 54.42 55.84 56.61 56.60
42.66 42.88 42.97 42.46 42.44 42.26 42.49 41.85 41.11 41.10 40.51 39.04 37.88 37.96 38.35 37.57 37.45 36.68 36.77 34.80 32.89 34.70 35.57 38.81 41.25 42.44 45.72 47.12 48.37 48.11 47.98 46.66 46.29 47.65 49.57 50.54 50.65 50.90 52.29 53.88 54.89 55.12 55.86
41.67 41.93 42.19 42.18 42.15 41.90 41.25 40.04 39.45 39.42 40.90 40.18 39.67 39.20 38.80 39.59 37.96 37.28 35.46 35.25 32.78 33.99 33.34 34.10 38.94 40.97 42.00 43.98 45.72 45.76 46.68 45.55 45.22 45.19 46.56 48.11 48.33 46.30 46.66 46.92 48.67 50.95 52.74
42.88 41.14 41.06 40.57 40.68 40.95 42.15 41.64 40.19 39.96 38.87 38.07 38.05 38.45 40.27 40.09 39.17 39.74 39.32 38.73 35.49 30.63 30.75 32.58 33.78 38.67 42.07 43.32 43.85 45.38 45.94 45.87 44.14 43.44 44.68 45.44 47.29 46.03 45.24 45.10 45.47 46.12 47.03
40.35 39.57 39.11 38.95 39.19 39.58 39.62 38.98 37.72 37.44 37.18 36.83 38.18 37.83 36.76 38.34 39.80 39.62 38.64 37.72 36.84 34.75 30.91 33.04 34.75 36.85 38.42 40.96 43.42 43.43 44.49 44.83 43.67 42.63 43.20 43.18 43.48 44.35 44.32 44.60 44.79 44.50 44.19
38.74 39.13 39.44 38.82 38.33 37.84 37.66 37.68 37.24 37.06 36.98 36.26 36.43 36.03 34.76 35.57 36.08 37.13 37.71 36.43 35.44 34.77 31.37 32.55 32.92 33.98 34.02 35.09 37.38 40.96 42.58 41.81 42.06 42.77 41.92 41.85 41.67 42.14 42.58 43.01 43.08 42.83 42.63
38.75 38.30 37.64 35.64 35.28 34.42 33.89 33.56 33.73 33.66 32.07 30.82 30.84 30.63 30.91 33.09 30.98 32.21 33.59 33.22 32.63 32.83 32.30 28.67 29.40 30.82 31.81 33.67 34.16 34.72 38.57 39.88 41.20 42.65 42.36 41.63 41.54 41.19 40.92 41.00 41.09 41.14 41.10
36.04 35.45 34.85 34.25 34.24 34.41 33.70 32.82 32.20 31.55 30.85 30.23 29.88 29.07 28.86 28.98 28.07 29.70 30.76 30.22 29.95 32.25 28.45 27.40 26.24 29.41 29.73 31.92 32.37 33.04 35.50 36.38 39.09 41.86 41.36 41.13 41.25 41.44 41.12 40.78 40.93 40.65 40.71
34.93 34.13 34.40 34.42 34.57 34.09 32.75 31.87 31.07 29.15 28.46 28.87 29.26 28.78 28.54 28.13 27.73 28.17 29.50 29.77 30.47 27.85 26.81 25.60 25.49 26.43 27.65 30.65 30.53 29.00 29.91 31.59 32.20 37.23 38.42 38.36 39.61 40.55 41.12 40.70 40.28 40.58 40.55
34.88 34.30 34.00 33.59 33.30 32.91 31.80 29.25 28.55 26.92 26.43 26.44 27.09 27.64 27.55 28.90 31.37 31.87 30.73 29.33 28.26 26.36 25.13 24.87 23.73 24.32 24.41 25.99 26.34 28.31 26.75 28.03 29.66 32.08 31.61 32.18 33.30 35.08 36.62 38.73 40.32 40.54 39.99
33.42 32.81 32.78 32.57 31.41 32.29 31.47 30.72 28.89 25.62 26.25 25.61 24.12 24.73 25.66 28.05 28.87 30.13 31.57 31.49 30.90 27.70 25.15 23.16 23.09 21.98 22.59 23.91 25.39 24.19 24.45 24.07 24.33 30.41 28.52 27.65 30.80 30.43 33.36 34.91 38.31 38.98 38.35
32.10 31.61 31.17 31.12 30.15 28.94 33.02 32.69 30.33 26.66 24.93 24.01 23.25 23.93 24.56 26.85 27.06 27.52 29.30 30.14 29.42 30.39 29.21 27.75 25.92 24.35 23.74 24.88 24.95 23.29 23.39 23.64 23.91 27.66 27.65 24.06 24.37 27.32 30.47 35.61 37.73 38.10 37.60
30.86 29.76 29.35 29.63 29.15 30.93 32.78 33.04 31.25 26.22 24.35 24.54 24.75 24.96 24.40 24.94 26.41 27.15 26.05 25.89 26.13 26.82 27.35 28.06 27.62 26.94 26.82 27.36 27.10 27.62 27.08 28.20 26.80 27.60 28.46 23.93 23.31 23.87 25.87 28.80 35.99 37.85 37.89
29.21 29.49 29.73 28.94 27.89 27.78 31.79 31.46 28.89 24.67 24.61 24.19 25.74 25.56 25.12 24.33 26.83 28.85 26.74 25.74 25.72 26.29 29.61 30.92 31.87 31.41 31.54 32.49 32.19 30.45 26.89 25.67 22.76 24.27 26.39 23.66 22.18 22.42 23.57 25.67 28.73 35.40 36.79
29.96 29.54 29.14 28.47 29.84 26.69 30.05 29.74 28.32 25.40 21.58 22.96 23.74 24.49 25.81 26.07 28.67 28.40 25.32 23.17 22.42 23.32 25.82 25.36 25.01 26.13 27.93 28.11 29.65 29.69 28.35 26.52 24.90 19.38 24.79 25.30 24.43 23.23 20.89 23.12 26.08 27.82 27.54

GFSMA_sfc_wetblb_012.txt.gz
Wetbulb
55.36 55.32 54.89 54.63 54.09 53.81 53.35 53.07 52.70 52.92 53.18 53.84 53.95 52.96 51.76 50.70 50.86 51.10 49.94 56.80 59.41 60.19 60.70 60.80 60.80 60.65 60.89 62.98 63.64 63.90 63.54 64.49 65.05 65.36 66.51 66.14 65.60 65.40 65.55 65.48 65.76 65.54 65.44
55.44 55.44 54.51 54.80 54.60 54.47 54.86 53.74 53.21 52.98 53.47 53.88 53.92 54.00 53.00 50.95 50.03 50.41 50.53 50.35 57.64 59.39 60.26 60.20 60.56 60.78 60.75 61.40 62.81 63.39 62.97 63.05 63.80 64.93 65.66 65.30 64.80 64.46 64.52 64.94 65.34 65.41 65.18
54.82 54.70 53.90 52.87 53.48 54.12 53.73 53.72 53.35 53.38 52.93 53.39 52.45 52.97 52.99 52.97 51.44 50.41 50.27 50.27 50.82 57.20 58.17 60.02 60.91 61.17 60.66 60.80 62.11 62.81 63.15 62.96 62.94 63.46 64.98 65.28 64.55 64.41 63.79 64.01 65.01 65.17 65.16
54.39 52.54 51.05 50.62 51.75 52.30 52.20 51.59 51.78 51.21 50.52 50.20 50.15 50.47 50.71 51.37 51.52 50.95 50.49 49.79 50.37 51.26 54.17 57.88 59.15 60.28 60.94 61.12 60.28 60.75 61.40 61.85 61.27 61.77 63.52 64.15 64.55 63.78 64.10 64.03 64.22 64.19 64.39
52.76 50.66 50.13 50.06 50.89 50.32 49.54 49.69 48.65 48.86 47.98 47.29 48.36 47.94 48.46 49.49 49.97 52.27 50.75 50.48 49.78 50.06 50.09 52.86 56.94 57.86 59.19 60.52 60.00 60.35 60.57 60.43 60.30 59.95 60.58 62.58 63.20 63.56 63.47 63.57 63.66 63.77 64.06
53.03 50.38 49.72 49.64 49.72 48.48 47.42 46.88 46.06 46.06 46.24 46.15 48.08 47.80 46.36 47.60 47.88 47.27 47.82 49.84 49.84 50.59 50.12 49.57 49.07 51.85 55.97 58.75 60.24 59.95 59.99 60.21 60.15 59.74 59.53 60.45 61.93 62.31 62.92 63.41 63.61 63.18 63.79
51.59 49.20 48.44 48.45 48.45 46.77 45.59 45.49 45.17 44.85 44.88 45.13 43.38 44.26 43.91 45.06 44.56 44.30 45.35 46.23 46.31 48.73 47.43 47.29 48.45 50.58 50.46 56.22 58.58 59.46 59.64 59.86 59.74 59.49 60.30 60.20 60.39 60.98 62.09 63.04 63.24 63.39 63.08
49.02 48.98 46.90 45.87 46.61 45.39 44.26 43.74 44.13 43.94 44.25 44.24 42.01 41.39 38.72 41.37 41.73 43.02 41.71 43.45 41.27 44.04 43.95 45.63 48.16 48.64 50.88 49.88 51.07 56.94 58.82 59.16 59.37 59.63 60.07 59.20 59.41 59.43 59.97 61.85 62.10 62.21 62.60
47.23 46.27 45.50 45.13 44.76 44.49 43.55 43.04 43.87 42.90 41.68 42.80 42.28 41.09 37.29 35.29 37.48 40.53 40.32 39.34 39.51 39.60 40.85 43.22 45.12 46.13 49.64 49.88 49.79 49.85 53.22 55.02 57.84 58.78 59.55 59.01 58.74 58.06 58.76 59.76 60.51 59.99 59.97
45.76 45.78 45.15 44.15 43.98 44.15 42.87 43.15 44.78 42.66 41.84 40.23 41.23 42.87 40.10 39.59 37.02 34.84 37.00 38.07 38.26 39.37 38.95 41.01 40.97 42.84 47.87 48.99 50.58 49.63 48.82 48.94 52.02 55.58 57.34 58.18 57.44 56.27 56.27 57.58 59.48 58.92 58.26
45.94 46.11 45.71 44.40 43.15 42.79 41.97 41.36 41.83 40.49 40.46 39.71 39.24 39.11 38.03 37.70 37.86 35.30 32.48 33.18 36.17 37.36 38.25 38.71 39.15 41.52 45.56 46.52 47.24 47.97 48.15 47.76 48.32 51.03 53.74 54.88 54.51 54.80 55.30 56.18 57.21 58.08 57.72
43.47 44.03 43.87 42.10 41.38 41.06 40.60 40.02 39.58 39.57 39.92 40.60 40.30 39.34 37.92 36.41 35.10 34.01 33.68 34.17 33.69 34.85 35.99 37.70 38.30 40.05 42.50 44.21 47.35 48.37 48.10 47.27 47.31 48.31 49.38 51.34 52.80 54.00 54.51 54.85 55.05 56.90 57.06
42.56 42.26 41.07 40.57 40.37 40.54 40.19 39.33 38.73 38.43 39.26 40.06 39.76 39.55 40.02 39.31 37.77 38.16 36.91 35.82 33.25 33.89 33.49 36.50 37.71 38.58 42.12 42.22 44.57 45.68 46.43 45.86 46.47 47.68 47.70 48.85 51.72 52.67 53.29 53.66 54.01 54.61 55.20
39.89 40.73 40.22 39.82 39.62 39.82 39.35 38.78 37.55 37.10 37.31 36.78 36.33 36.21 38.31 38.20 39.47 38.79 37.42 34.30 32.11 33.37 33.05 32.35 35.37 37.34 39.47 39.91 43.87 45.16 45.52 44.66 44.70 45.25 46.23 46.51 48.08 47.60 47.91 48.12 48.99 50.09 51.45
41.26 39.16 38.84 38.32 38.28 38.69 38.78 38.21 37.05 35.93 35.67 35.17 35.29 35.81 36.72 37.63 38.88 38.43 37.82 35.99 32.52 28.27 30.52 34.83 32.37 36.36 37.28 38.22 41.19 41.77 41.90 43.76 43.43 42.83 44.11 44.19 46.49 45.85 45.49 46.41 46.41 46.73 47.45
38.83 38.14 37.61 37.44 37.48 37.78 37.43 36.81 35.94 35.86 34.74 34.70 35.90 33.96 32.84 33.16 34.25 35.17 36.94 36.96 35.21 32.72 29.05 32.01 32.04 33.50 34.25 36.05 38.41 39.60 41.50 42.58 42.32 41.97 42.22 43.61 43.28 45.68 44.52 44.45 44.62 45.00 44.73
37.71 38.12 38.28 37.30 35.44 34.59 34.10 33.19 33.39 34.39 32.26 30.63 30.19 29.99 29.92 30.06 29.08 29.53 30.38 31.35 32.43 33.77 30.75 31.67 32.77 31.78 31.04 31.64 33.11 34.54 37.15 41.67 42.43 41.13 41.43 42.70 42.38 42.49 43.29 43.19 43.02 43.09 42.77
37.69 37.17 37.89 34.93 33.77 32.93 32.42 31.63 31.24 31.08 29.84 29.06 28.88 28.43 28.17 29.99 27.14 27.46 27.83 27.99 28.74 30.04 29.18 26.39 28.08 29.35 29.28 30.90 31.58 30.74 34.64 37.49 39.34 40.51 40.76 41.81 42.49 42.20 41.15 41.30 41.40 41.80 41.39
37.35 38.10 34.80 33.97 33.28 32.89 32.14 31.01 30.05 29.29 28.00 27.67 27.52 27.23 26.89 26.78 25.64 25.95 26.32 27.08 27.65 30.01 28.93 26.69 26.01 27.81 28.43 29.58 29.96 31.05 31.40 32.18 36.00 39.43 39.32 39.03 41.20 41.91 41.49 40.91 41.12 41.10 41.01
39.30 37.97 34.71 34.04 34.37 32.51 31.35 30.15 29.16 27.24 26.83 27.10 27.70 27.13 26.23 25.42 24.49 24.88 26.07 26.38 27.79 26.78 26.94 25.33 24.90 25.42 25.77 28.05 29.01 28.16 26.48 28.41 28.91 33.83 37.12 36.62 37.93 39.87 40.50 40.56 40.30 40.60 40.80
38.99 35.74 33.72 33.58 32.36 31.10 30.76 28.23 28.13 27.04 26.10 25.78 26.24 26.35 25.69 26.56 28.68 27.80 27.78 26.32 28.48 26.95 26.48 25.37 24.86 23.87 23.54 23.44 24.08 26.50 24.88 25.09 26.01 30.02 30.68 30.37 31.86 32.96 35.45 36.78 39.10 40.44 40.21
34.37 34.74 32.69 31.60 29.70 31.46 32.01 31.64 30.03 26.05 26.14 25.33 23.82 24.82 24.67 26.46 26.59 28.08 28.55 29.31 29.00 27.57 26.46 26.59 25.20 23.38 22.09 22.60 23.89 23.36 22.83 21.82 22.03 27.54 27.40 26.89 29.65 30.00 31.72 34.45 37.99 38.34 38.82
35.56 30.61 29.55 29.22 28.60 28.12 32.54 33.27 31.22 27.51 25.69 24.22 23.67 23.58 24.22 25.93 26.16 25.66 27.16 28.35 28.06 29.06 27.80 27.60 26.08 24.11 23.12 23.89 24.15 22.87 22.10 22.41 22.54 26.55 26.28 24.07 25.14 26.60 29.00 33.16 36.05 38.00 37.60
30.85 28.79 28.78 28.32 27.43 29.09 31.86 31.22 30.29 25.69 24.24 24.56 24.38 24.12 23.45 23.74 24.86 25.23 25.53 26.82 26.49 26.89 26.78 26.87 25.65 26.05 26.09 26.11 25.80 26.07 25.10 24.76 27.08 27.65 27.61 21.29 21.99 22.51 24.92 26.58 34.13 37.46 37.80
28.87 29.07 28.83 27.58 26.57 26.13 29.22 29.23 27.09 23.06 23.46 22.55 24.16 24.21 24.45 24.19 26.20 28.07 25.79 24.54 24.10 25.03 27.67 29.67 30.52 30.29 30.81 31.36 30.54 28.89 26.70 25.70 23.97 24.57 25.59 23.04 22.60 21.00 22.02 23.48 26.76 34.35 36.10
29.57 28.69 27.15 26.05 27.12 23.62 26.92 27.60 26.30 22.45 17.88 21.57 22.21 23.33 24.60 24.41 26.31 27.80 26.47 24.87 22.33 22.79 23.43 23.87 24.50 25.59 26.40 26.24 27.94 26.91 24.77 23.19 23.06 19.79 24.02 23.33 23.28 22.03 17.99 21.53 23.76 24.62 24.67

GFSMA_sfc_wetblb_015.txt.gz
Wetbulb
54.56 54.38 53.15 53.78 53.53 53.73 53.34 53.03 52.74 52.59 52.92 53.28 53.19 52.90 52.50 51.53 50.47 49.81 49.85 55.46 56.94 59.18 61.09 61.74 62.16 62.16 62.69 62.82 63.10 63.47 63.04 62.94 63.43 64.03 65.29 65.49 65.25 65.27 65.07 65.13 64.75 65.49 65.39
54.52 53.75 53.37 52.99 52.08 52.66 52.41 52.05 51.97 51.54 51.16 51.49 51.06 51.51 51.73 51.96 51.09 49.95 49.58 49.67 55.43 57.32 59.10 60.66 61.43 61.79 62.52 63.16 62.73 63.13 63.29 63.19 62.60 62.59 63.63 64.83 65.27 64.83 64.45 64.38 64.59 64.17 65.73
54.37 53.33 51.22 50.03 50.68 51.15 50.58 50.47 50.20 49.56 48.64 49.43 48.58 50.02 50.58 50.23 50.92 50.65 50.05 49.82 49.75 53.48 55.93 57.71 59.09 60.33 61.65 62.24 62.54 62.68 62.77 63.09 62.59 62.29 62.42 63.70 64.19 64.67 64.14 63.81 63.66 64.39 64.41
51.98 49.78 49.07 48.86 49.62 49.73 49.34 48.53 48.31 46.73 46.21 46.10 46.07 46.64 46.93 48.58 48.82 49.60 49.50 48.91 48.74 49.51 50.89 53.80 54.94 56.18 57.47 59.29 60.64 62.30 62.60 62.33 62.78 61.35 62.27 62.73 63.16 63.57 63.83 63.40 63.19 63.74 63.74
51.45 49.48 48.78 48.64 49.13 48.08 47.21 46.98 45.90 45.60 44.96 44.96 45.73 44.70 45.12 45.22 46.41 48.50 46.91 47.73 48.27 48.12 48.22 49.72 50.67 52.29 54.17 56.02 57.87 59.63 60.67 62.10 62.59 62.00 61.59 61.56 61.83 62.37 62.72 63.02 63.26 63.33 63.72
51.31 49.25 49.25 48.12 47.65 45.95 45.05 44.36 43.66 44.22 44.17 44.36 46.27 45.26 43.44 44.56 43.97 43.54 44.37 46.02 45.70 45.95 44.55 44.91 45.52 47.25 51.06 54.02 55.55 57.30 59.40 60.27 61.36 62.30 62.02 61.33 61.11 61.46 61.89 62.26 62.65 62.76 62.94
48.56 46.33 46.15 46.39 45.72 44.02 43.08 43.44 43.34 43.24 43.16 43.59 41.93 42.73 42.20 42.05 42.71 41.91 42.03 42.93 42.42 44.17 42.60 43.51 44.57 45.77 45.68 50.39 52.06 55.41 57.20 58.99 60.15 61.57 61.58 61.22 60.64 60.33 60.85 60.83 61.63 62.71 62.69
46.42 45.84 44.40 44.10 43.89 43.62 43.11 42.27 42.53 42.16 42.31 43.01 40.93 39.83 37.05 39.75 40.30 41.85 40.38 41.05 38.80 40.34 41.26 41.64 43.68 42.21 42.15 45.80 49.13 52.43 54.04 55.09 56.73 58.63 59.90 60.28 60.18 60.20 60.04 60.03 59.90 61.69 62.06
45.14 44.54 43.90 43.44 43.18 43.39 41.97 41.91 41.86 41.07 40.03 41.29 41.17 39.52 36.34 34.09 36.23 38.90 38.98 38.30 37.46 37.79 38.53 39.62 41.98 40.93 41.68 44.88 48.05 49.11 50.10 49.94 52.16 54.19 56.25 58.52 59.50 59.74 59.53 59.03 58.59 59.40 60.37
44.20 44.85 43.88 43.26 42.73 42.12 40.98 41.69 41.43 39.33 38.89 37.73 39.52 41.43 38.52 39.38 36.55 33.97 35.87 37.12 36.99 37.57 37.05 37.58 38.83 39.62 41.53 44.47 46.26 47.82 48.90 47.94 49.02 51.60 53.51 55.06 56.70 58.87 58.72 57.18 57.05 57.45 58.98
45.16 43.56 44.12 43.42 42.35 40.98 40.10 39.59 38.66 38.14 38.22 37.54 39.15 38.99 39.51 38.13 36.54 35.20 32.67 32.18 35.40 36.55 36.69 37.12 37.13 37.90 40.48 42.92 43.61 46.35 48.30 47.94 48.06 49.32 50.94 52.62 55.21 57.60 56.85 55.79 55.86 56.49 57.54
42.73 44.47 43.28 41.25 40.98 39.86 38.71 38.25 37.55 36.95 36.78 37.52 38.42 39.54 37.51 36.57 36.36 35.44 34.88 33.97 34.03 36.33 35.23 36.36 36.22 37.33 38.50 40.37 43.85 45.18 46.54 45.99 46.03 47.18 49.36 49.98 51.80 53.36 54.06 54.38 55.24 55.98 57.12
41.19 40.10 39.86 38.79 38.47 39.14 38.90 38.30 36.95 36.14 35.45 34.87 34.97 35.38 35.80 35.75 36.05 37.00 35.07 33.57 33.95 33.47 35.69 35.06 36.32 36.47 38.42 39.07 39.94 42.92 45.72 44.59 44.04 44.87 46.24 48.83 48.40 50.77 53.01 53.84 54.30 55.10 55.07
39.66 39.91 38.98 38.59 38.13 38.37 38.05 37.45 36.20 35.62 35.25 34.06 32.91 33.27 33.75 34.68 35.95 36.35 34.02 32.19 29.53 29.40 33.30 35.74 37.61 38.07 36.75 36.87 39.15 42.78 42.31 42.87 43.04 42.58 42.95 44.51 47.22 47.04 46.66 49.14 51.76 53.12 53.69
39.95 39.24 38.79 38.78 38.52 37.78 37.82 37.09 35.69 34.66 34.22 33.88 33.02 33.21 33.08 33.22 32.18 33.10 33.12 34.54 32.86 26.34 26.05 29.92 31.00 35.05 35.92 35.89 36.14 35.93 39.48 42.18 41.98 41.25 40.87 41.71 43.71 46.60 46.72 45.60 47.54 49.88 50.69
40.39 39.21 39.12 38.89 38.26 38.17 36.53 35.67 34.76 33.53 33.59 33.54 33.13 29.48 28.81 29.51 29.51 29.37 29.22 29.91 30.81 31.10 26.66 30.81 30.72 32.80 33.95 35.07 36.22 33.57 34.25 39.74 41.65 40.13 40.10 40.30 42.25 43.74 45.94 45.52 44.76 45.91 47.22
37.11 37.98 39.14 38.54 37.18 34.89 33.20 32.35 32.37 32.34 31.26 29.30 28.54 28.52 28.26 28.47 27.12 26.84 27.25 27.36 27.48 27.95 26.09 28.03 31.23 31.86 31.39 31.27 31.94 32.43 33.70 33.62 37.85 40.27 39.80 39.72 39.53 41.20 42.82 44.72 43.60 43.41 43.59
38.11 36.78 37.26 37.64 34.64 33.95 32.29 31.97 30.55 30.54 28.75 27.48 27.55 27.11 26.98 28.92 25.72 25.41 25.41 24.95 25.42 26.64 26.38 24.39 26.97 27.78 28.29 30.56 30.27 29.42 33.34 35.30 32.78 38.65 39.88 38.53 39.06 39.41 40.99 41.64 41.97 41.98 41.90
35.36 36.56 36.95 35.22 33.11 33.16 32.87 31.28 29.44 28.31 27.54 27.27 27.08 26.54 26.39 25.72 24.04 23.55 23.86 24.06 24.93 27.18 26.30 25.53 25.54 26.63 26.78 27.46 27.25 29.01 30.07 29.66 32.37 35.37 37.63 39.34 39.27 39.40 39.97 41.22 41.67 41.62 41.29
36.66 36.07 37.13 34.48 33.50 33.59 31.32 29.29 28.39 27.92 26.95 27.11 27.29 26.78 25.95 25.25 23.44 23.15 23.88 23.83 26.59 26.42 27.03 27.20 25.88 25.37 26.49 26.53 26.17 25.55 25.24 26.80 26.08 30.55 33.81 35.23 37.80 38.24 39.50 40.96 40.88 41.03 41.25
37.27 37.86 33.97 33.91 32.26 30.80 29.87 28.17 28.53 27.37 26.41 25.79 26.54 26.42 26.18 26.79 29.07 27.22 25.42 24.40 23.88 24.17 26.57 26.10 26.02 26.41 25.59 23.15 22.88 24.44 23.91 23.72 24.44 25.90 29.05 30.80 32.01 33.47 35.53 36.79 38.20 40.67 40.60
36.01 33.28 34.48 30.07 28.65 30.74 32.41 32.68 32.14 27.52 27.22 26.19 24.83 25.20 25.03 26.38 26.17 27.25 27.45 27.75 26.88 24.89 24.33 24.69 24.06 25.02 24.92 22.83 22.97 23.00 22.53 21.19 20.30 26.04 25.77 25.37 30.23 29.22 30.83 33.42 36.75 38.34 39.32
35.94 31.38 28.13 28.31 27.78 28.33 32.32 32.29 31.17 28.02 25.83 24.57 23.93 23.48 23.73 25.08 25.21 24.66 25.99 26.95 27.10 27.93 27.16 25.73 24.06 23.90 24.96 25.47 23.79 22.72 21.73 21.71 21.47 24.32 25.16 22.77 23.83 26.85 29.71 31.62 34.47 36.77 37.98
30.87 27.65 27.72 28.07 27.40 28.38 29.63 29.70 28.09 23.96 22.69 23.29 22.66 22.61 22.58 22.99 24.65 25.06 25.60 25.10 25.54 25.82 26.38 27.04 26.63 25.40 25.48 26.34 25.66 25.36 24.28 23.85 24.47 25.77 26.26 24.19 19.79 22.56 23.56 26.75 32.91 35.53 37.12
28.34 27.90 28.27 27.05 24.42 23.65 27.46 27.92 26.21 22.69 22.40 21.77 22.95 22.68 23.45 23.27 25.04 27.91 26.02 25.02 25.03 25.28 27.40 27.92 27.94 28.93 29.73 30.40 30.35 26.86 25.59 24.76 23.16 24.60 24.56 22.61 21.24 20.90 21.11 22.15 26.97 33.69 35.45
29.22 28.04 26.12 25.27 26.01 22.61 25.39 25.94 25.00 20.37 15.83 21.11 21.71 22.34 23.83 24.35 26.23 26.57 25.59 24.05 22.12 23.43 24.46 24.15 23.70 25.37 26.26 25.72 27.18 25.75 22.84 22.07 22.19 18.33 23.49 23.01 23.21 21.17 16.91 19.66 21.49 23.23 24.68

GFSMA_sfc_wetblb_018.txt.gz
Wetbulb
53.78 53.28 52.79 53.08 52.64 52.58 51.90 51.67 51.75 51.39 50.67 50.89 50.47 50.83 51.27 51.50 51.48 50.95 50.23 54.57 55.99 57.87 59.55 60.97 61.64 61.83 62.11 63.32 64.01 63.66 63.63 62.89 62.50 62.42 63.60 64.13 64.94 64.83 64.67 64.56 64.28 64.97 65.05
53.53 53.18 51.56 50.57 50.61 50.44 50.42 50.55 50.27 49.06 48.40 48.66 48.15 49.17 49.41 49.31 50.31 50.46 50.52 50.23 54.13 55.34 56.33 57.97 58.95 59.89 60.65 60.91 61.58 62.38 63.42 63.55 63.42 62.39 62.97 63.27 63.83 64.52 64.64 64.23 64.19 64.10 64.74
52.50 50.23 48.96 48.34 49.13 49.60 48.90 48.54 48.39 46.98 46.11 46.92 46.42 46.89 47.21 48.01 47.66 48.79 49.38 49.54 49.49 51.94 53.46 54.04 54.58 55.74 57.30 58.80 59.17 59.80 60.92 62.56 63.38 62.93 62.91 62.94 62.98 63.53 63.92 63.96 63.65 63.83 64.23
50.03 48.72 48.32 48.16 48.90 48.28 48.75 46.65 46.57 44.72 44.68 44.89 44.52 44.44 44.85 46.04 46.07 47.65 47.80 48.12 48.16 47.62 47.79 50.43 50.94 51.81 52.93 55.03 58.00 59.14 59.74 60.17 61.59 62.82 62.97 62.46 62.51 62.69 62.87 63.01 63.15 63.28 63.33
50.49 48.91 49.65 49.55 49.24 46.84 44.81 44.75 44.38 44.04 43.63 43.60 44.91 44.58 43.87 43.62 44.86 46.59 46.66 45.98 46.32 45.47 44.39 46.74 48.12 48.84 49.92 51.43 53.53 55.86 58.57 59.43 60.02 60.87 62.32 62.28 62.04 61.86 61.95 62.56 62.41 62.71 62.85
50.50 48.98 48.77 47.14 45.19 43.82 43.09 42.95 42.72 43.38 43.12 43.30 45.20 44.57 42.97 43.41 44.20 43.58 44.22 44.69 44.00 44.26 43.25 43.65 43.25 45.62 46.61 48.17 50.01 53.20 55.28 57.76 59.27 59.67 60.62 61.92 61.73 61.47 61.36 62.02 62.10 62.19 62.43
45.75 44.68 44.43 44.00 43.96 42.87 42.12 42.73 42.54 42.27 42.50 42.97 41.30 41.89 41.74 42.00 42.14 41.96 42.32 42.59 41.63 42.49 42.55 42.19 41.93 44.10 41.98 45.83 48.62 51.02 53.46 55.13 56.08 57.22 57.87 59.49 60.33 60.77 60.84 61.13 61.08 60.80 62.21
44.60 44.55 43.26 42.65 42.66 42.30 41.95 41.77 41.85 40.87 41.37 41.93 39.97 39.08 35.89 38.25 40.49 41.74 41.44 41.14 39.48 40.28 41.02 41.59 41.34 42.44 41.14 41.90 45.36 49.28 50.35 51.95 53.19 54.21 55.59 56.06 56.69 59.08 60.22 60.58 60.54 59.66 60.35
43.73 43.27 42.86 42.31 41.83 41.34 41.96 41.31 40.30 39.17 38.28 39.57 39.46 38.90 35.41 33.09 36.90 39.16 39.37 39.16 38.23 38.25 38.82 39.65 40.36 41.06 41.05 41.67 44.54 46.16 47.76 49.00 50.07 51.85 53.12 54.21 55.37 56.16 57.93 59.42 60.13 59.32 58.43
43.26 43.15 43.82 42.05 42.27 41.38 40.45 40.73 40.12 38.29 37.86 36.17 37.99 40.58 38.67 38.74 34.21 32.38 36.76 38.86 37.59 38.41 38.65 38.57 39.20 39.47 40.62 41.68 43.89 44.87 46.37 47.65 48.01 49.35 50.90 52.35 53.76 55.19 56.31 57.56 58.78 58.58 57.51
44.62 44.85 43.44 41.67 40.55 39.95 38.74 38.02 36.93 36.28 36.60 35.73 36.48 36.70 36.37 36.84 36.37 35.78 31.22 34.36 37.78 37.87 37.96 38.60 38.00 38.44 39.45 40.61 41.25 43.64 44.33 46.62 46.29 47.17 48.85 50.03 51.47 53.24 54.97 56.64 57.60 57.34 57.05
41.59 42.08 41.31 39.64 39.38 38.61 37.81 37.19 36.31 35.63 35.07 35.36 35.47 35.69 35.39 34.25 32.76 32.87 31.36 32.03 33.39 35.70 35.64 37.44 37.23 37.75 38.74 39.19 40.54 41.82 42.87 45.46 44.45 44.82 46.27 47.98 49.62 50.49 52.71 54.85 55.73 56.02 56.15
40.46 39.56 38.81 39.33 37.60 38.44 38.07 37.70 36.05 35.09 34.06 33.52 33.26 33.45 34.46 33.96 34.49 34.12 33.15 30.93 30.09 31.72 34.34 36.25 37.12 38.52 38.14 37.78 38.18 41.05 41.99 44.42 43.27 43.47 44.02 45.10 46.47 48.44 49.57 50.54 54.12 54.97 55.78
39.28 38.90 38.45 37.97 37.57 37.27 37.46 37.67 36.58 36.14 35.56 34.44 33.16 32.48 32.39 33.24 34.12 33.82 32.65 30.34 26.78 28.55 30.03 31.86 35.46 37.64 38.37 38.91 38.33 39.74 37.57 41.97 42.36 41.95 42.00 42.82 44.13 45.25 46.87 47.42 49.26 52.77 54.78
39.58 38.32 37.70 37.56 37.42 37.60 37.68 37.76 36.18 35.36 34.56 34.84 33.64 32.54 32.65 32.31 30.07 30.80 29.95 30.30 28.59 22.74 23.67 28.21 31.06 35.54 36.42 37.49 37.58 37.43 35.70 37.89 41.53 41.25 40.92 41.47 42.10 43.77 45.25 46.14 46.43 48.19 51.92
37.95 37.52 38.56 37.05 37.51 37.81 36.86 35.69 35.26 33.82 33.13 32.70 33.02 30.00 28.44 28.72 28.74 28.92 28.23 28.30 28.13 25.66 22.18 27.74 29.24 32.39 34.75 36.26 36.98 37.29 35.19 38.08 37.52 40.90 39.94 40.31 40.45 40.93 41.26 42.32 46.02 44.89 45.67
37.28 37.00 36.86 36.79 37.42 36.67 33.94 32.66 31.58 31.76 31.70 29.79 28.83 28.46 28.10 28.07 27.26 27.14 27.07 26.31 25.47 25.77 22.46 24.97 28.28 30.72 30.94 32.01 33.92 34.26 34.56 35.70 35.65 37.87 40.25 39.50 39.23 39.63 39.70 39.99 43.08 44.44 43.55
36.64 36.16 36.40 37.73 37.36 34.36 32.20 30.66 31.06 30.63 29.01 27.74 27.71 27.38 27.17 28.70 26.20 25.61 25.20 24.22 24.12 24.64 23.74 22.23 25.84 27.21 28.34 30.83 30.77 30.79 32.66 34.93 33.20 35.49 37.36 39.37 38.43 38.91 39.40 39.14 40.00 42.13 42.57
34.63 35.64 37.84 36.11 35.50 33.12 31.67 31.96 29.57 28.59 27.49 27.39 27.10 26.58 26.36 26.39 24.83 24.52 23.87 23.39 24.07 25.33 25.14 25.45 25.20 27.62 28.27 29.14 29.30 29.31 29.97 31.28 32.08 33.89 34.63 36.57 38.72 39.21 39.18 39.40 39.38 41.79 41.73
34.72 37.13 36.38 35.91 32.92 32.33 31.37 29.00 28.22 27.53 27.30 27.32 27.40 26.85 26.49 25.88 24.88 24.23 24.37 24.51 24.42 24.06 24.33 23.51 24.53 26.98 27.45 28.73 27.83 27.36 27.03 28.52 28.12 30.59 31.63 34.57 35.94 38.61 38.42 39.14 39.88 41.02 41.57
36.22 38.60 36.24 33.29 31.13 30.32 29.80 28.36 28.62 28.18 27.07 26.57 26.84 27.05 26.88 27.40 29.13 27.56 25.58 24.64 24.94 24.50 24.37 24.01 23.58 24.85 25.41 26.40 26.29 27.08 26.30 26.23 26.72 27.62 28.54 31.21 32.06 34.39 36.14 38.34 38.50 39.38 40.81
34.04 34.19 31.68 30.01 28.52 29.87 32.67 32.98 30.78 27.93 26.82 25.73 24.17 24.11 24.38 25.30 25.48 26.63 26.56 27.06 26.63 24.86 24.06 23.55 23.14 22.33 23.12 25.87 26.32 25.43 25.09 23.28 22.50 27.60 27.58 26.95 30.10 31.00 32.45 33.71 36.08 38.03 39.48
32.24 29.62 27.63 27.49 27.18 28.76 30.67 30.44 29.80 26.23 23.87 23.04 22.27 21.99 22.41 24.21 24.30 24.16 25.64 26.62 26.85 27.55 26.88 26.38 23.60 24.06 24.05 25.90 26.80 25.53 25.20 23.53 23.44 26.45 26.88 25.92 27.60 28.61 30.73 32.09 33.62 36.24 38.57
30.16 27.81 27.36 27.23 27.02 26.32 28.18 28.59 28.18 24.57 23.00 22.83 22.59 22.29 22.00 22.31 23.93 24.50 25.50 25.43 25.17 26.04 26.69 26.44 25.93 25.92 27.03 27.83 26.92 26.60 26.15 25.63 25.49 26.41 27.89 24.09 26.17 27.14 28.91 30.03 32.80 34.96 37.13
27.59 27.81 27.85 26.08 23.20 22.97 26.89 26.77 25.75 22.60 22.31 21.89 22.87 22.95 23.19 22.72 24.85 27.46 25.69 24.70 24.26 25.40 27.47 28.20 28.47 28.51 28.37 28.62 28.86 27.81 24.54 24.60 23.31 24.32 27.52 26.55 25.68 25.44 26.47 28.46 30.98 33.52 35.36
27.81 26.93 26.04 24.69 25.61 22.43 24.73 26.15 25.33 20.72 16.45 20.73 22.37 22.70 23.24 23.64 25.58 26.13 24.87 23.11 22.33 23.20 24.64 26.06 26.57 26.59 27.05 26.44 26.84 25.86 25.03 23.23 23.19 21.78 26.41 25.52 24.98 25.07 23.26 25.69 26.74 28.45 29.89

GFSMA_sfc_wetblb_021.txt.gz
Wetbulb
61.50 60.78 60.03 59.08 58.81 58.81 58.26 58.11 57.48 56.67 55.89 55.52 55.14 54.72 54.09 54.77 54.71 54.69 55.46 55.67 55.94 57.65 59.36 60.25 60.85 60.85 60.94 60.92 60.88 61.18 61.39 62.40 62.64 62.56 63.26 63.63 63.90 64.66 64.88 64.55 64.42 64.42 65.13
60.91 59.72 57.61 57.23 57.49 57.42 56.88 56.69 55.72 54.60 54.05 53.98 53.55 53.41 52.99 53.29 52.95 53.80 53.85 55.04 53.45 53.62 54.49 55.53 56.35 56.74 57.51 58.40 59.20 59.82 60.43 60.89 61.37 62.43 63.24 63.24 63.40 63.76 64.08 64.21 64.08 64.00 64.28
57.89 56.81 56.65 56.74 56.52 56.11 55.66 55.80 54.31 53.62 53.08 52.54 52.01 52.04 52.03 52.47 51.64 53.03 53.70 54.66 54.02 51.05 50.42 51.92 52.51 52.85 53.83 54.60 55.49 56.82 58.77 59.84 60.41 60.96 62.71 63.40 63.16 63.12 63.34 63.68 63.66 63.73 63.58
56.66 56.82 54.85 54.87 54.20 53.12 53.02 51.37 52.23 51.40 50.82 50.45 50.42 50.63 51.35 50.96 51.23 52.23 53.94 52.74 52.20 51.26 50.87 49.54 49.87 50.55 50.99 51.63 52.97 54.06 55.72 57.03 59.34 60.13 61.38 62.17 63.15 62.72 62.59 62.83 63.04 63.14 63.14
55.42 54.08 51.71 52.13 52.58 51.81 51.23 50.87 50.76 50.30 49.06 49.25 48.74 49.47 50.15 49.15 50.32 51.82 51.81 50.50 50.47 50.32 49.77 48.81 48.20 48.41 48.82 49.50 50.75 52.44 54.06 54.98 56.55 58.46 59.39 60.57 62.14 62.36 61.96 62.09 62.66 62.59 62.61
53.06 52.84 51.46 51.65 51.45 50.74 50.24 50.61 50.04 50.09 49.33 48.23 46.84 47.51 48.05 48.48 50.39 51.13 49.81 49.45 49.27 49.10 48.74 48.32 48.12 47.98 46.84 47.49 48.85 50.36 52.58 53.94 54.91 55.91 56.72 57.73 58.90 60.23 61.54 61.68 62.14 62.48 62.11
51.27 51.46 50.70 50.54 50.75 50.19 49.53 49.34 49.18 47.67 46.98 47.82 45.23 44.82 45.42 48.62 49.62 48.67 48.95 47.90 47.92 47.67 47.69 47.65 47.27 47.04 46.76 46.28 46.91 49.18 51.26 52.18 52.89 53.94 54.50 55.21 56.38 57.20 58.69 60.27 61.39 61.48 60.77
50.58 50.08 50.78 50.51 50.13 49.47 49.05 47.91 47.44 45.89 45.69 46.60 42.53 41.81 39.66 42.49 47.29 46.45 46.58 46.72 46.20 46.48 46.32 46.31 46.35 46.16 46.36 46.03 46.35 47.24 48.79 49.26 51.00 51.51 52.26 53.28 54.13 55.57 56.65 58.37 60.38 60.83 60.64
49.84 49.86 49.79 49.74 49.12 48.59 47.39 46.49 45.69 44.06 41.56 43.79 43.95 41.46 37.63 36.47 39.02 43.18 43.61 44.20 44.79 44.35 44.91 45.24 45.03 45.14 45.46 45.89 45.63 46.04 45.87 46.25 48.34 49.63 50.29 51.23 52.56 53.71 55.10 56.61 58.20 59.71 60.32
49.26 49.10 49.04 48.64 48.23 47.55 46.23 45.75 44.51 43.24 41.86 38.93 41.11 42.97 41.86 40.44 35.33 34.23 40.01 40.75 41.97 41.61 42.94 43.00 43.22 43.76 44.71 44.96 44.41 43.70 44.05 44.58 46.00 47.56 48.37 49.73 50.71 51.80 53.50 55.15 56.51 57.90 59.22
49.16 48.84 48.44 47.54 46.68 46.60 45.84 44.55 43.79 43.06 43.05 40.72 39.34 38.91 38.83 38.94 38.78 35.79 32.33 35.42 38.70 40.06 41.31 40.47 41.90 41.95 43.60 44.57 43.82 42.89 42.39 43.08 45.11 46.17 46.09 46.81 48.72 50.17 51.52 52.71 55.17 57.07 58.00
49.22 48.61 47.48 46.72 46.25 45.42 44.62 44.22 43.64 41.99 41.60 40.74 40.21 39.24 37.49 35.93 35.02 34.99 33.20 33.85 34.14 36.49 38.47 39.83 40.36 40.87 41.80 42.85 42.10 41.18 41.69 41.32 45.06 44.70 44.77 44.85 46.34 47.62 49.86 51.26 52.26 55.55 57.09
48.48 47.95 47.02 45.24 44.13 44.16 43.86 43.61 42.92 42.16 41.35 40.04 39.75 39.01 39.59 38.69 38.65 37.16 35.15 33.46 32.59 34.90 35.73 38.52 39.05 39.96 39.34 40.93 41.68 40.87 41.27 40.39 40.91 43.58 43.32 43.26 44.07 45.46 46.72 49.35 50.55 51.37 54.67
46.27 46.29 46.06 44.53 43.74 43.52 43.59 43.68 42.95 42.43 42.10 41.18 40.25 39.63 38.62 38.88 39.32 38.15 35.40 33.28 30.51 31.74 33.84 34.35 37.58 37.97 38.93 39.71 40.35 40.66 40.89 40.74 39.86 41.11 42.46 42.22 42.50 43.51 44.67 46.52 48.16 48.46 51.08
44.66 45.48 45.12 44.00 43.76 43.55 43.26 42.97 42.20 41.97 41.74 40.98 40.02 39.66 38.76 38.53 37.83 36.71 35.83 34.26 31.04 26.59 28.23 32.51 32.91 36.91 37.14 37.78 38.49 39.89 40.71 40.50 39.26 39.54 42.03 41.21 41.17 41.50 42.50 43.32 45.03 46.62 47.36
44.59 44.66 44.70 44.28 43.60 42.75 42.04 42.14 41.29 41.17 39.65 39.60 38.80 38.51 37.12 36.60 35.87 35.85 35.05 34.19 32.75 29.69 26.75 31.05 31.73 33.36 34.55 34.95 36.65 37.87 38.46 39.78 38.63 38.48 39.90 40.66 40.10 40.00 40.76 41.82 42.29 45.58 45.37
43.48 42.88 43.02 42.59 42.00 40.30 40.15 40.98 39.72 38.66 37.17 37.59 37.36 35.90 34.96 35.30 34.33 34.35 33.87 32.69 31.12 30.27 26.48 29.39 31.30 32.44 32.29 32.90 34.28 35.97 37.02 38.85 39.73 37.61 38.24 38.62 39.85 39.35 39.60 40.21 40.80 42.26 43.97
42.33 41.76 41.60 41.52 40.65 39.31 41.41 39.13 37.33 36.99 36.20 35.45 34.81 34.05 33.56 33.39 32.72 33.06 32.08 30.60 29.99 30.09 27.64 25.32 28.68 29.74 31.24 33.08 33.46 34.22 35.20 37.80 38.53 38.02 35.86 35.92 37.73 39.38 39.27 39.60 39.62 40.07 41.85
42.04 41.97 40.75 40.44 40.36 40.93 37.78 37.13 36.04 34.97 34.11 33.93 33.65 32.99 32.46 32.15 31.04 30.92 30.41 29.46 29.23 28.40 28.24 26.34 26.28 29.65 30.28 31.31 32.23 33.75 34.68 35.93 37.02 36.43 35.35 35.37 36.37 38.19 39.41 39.55 39.18 39.54 40.53
41.44 41.39 41.39 40.68 38.36 37.28 36.01 34.86 34.03 34.35 34.09 33.63 33.04 32.31 31.28 30.11 29.19 28.97 27.87 27.53 27.16 26.33 26.08 25.83 25.72 26.43 27.89 30.34 30.62 30.32 30.88 34.45 34.45 35.67 35.02 33.88 34.44 37.30 38.92 39.17 38.96 39.65 40.62
41.04 40.69 39.19 37.59 35.48 35.01 34.16 34.63 34.51 33.46 32.35 31.18 30.66 29.52 29.01 28.13 27.64 27.68 27.11 26.58 26.04 25.11 25.37 25.33 25.29 25.42 25.63 26.64 25.91 28.91 28.64 30.83 33.61 34.52 34.04 34.98 36.19 37.98 39.35 37.35 39.27 38.77 39.50
39.62 39.47 36.87 34.75 34.20 33.76 32.41 31.77 31.61 31.29 29.92 28.44 27.36 27.71 27.61 26.73 27.18 26.57 26.42 26.80 26.87 26.16 26.24 24.78 24.43 25.49 26.53 27.09 28.11 27.43 28.13 26.55 27.15 35.51 32.68 32.88 35.27 34.66 37.11 35.78 34.82 35.63 38.62
38.53 37.42 34.82 33.31 32.57 32.23 29.56 29.66 28.95 30.34 28.37 27.48 26.69 26.24 25.86 26.52 26.28 26.34 26.57 27.14 27.84 27.66 27.23 26.95 25.34 25.82 25.64 27.11 27.55 27.60 27.71 27.85 27.05 31.18 31.52 29.61 33.72 32.66 35.44 35.58 34.33 34.55 37.20
37.33 36.29 33.46 32.49 31.55 29.54 27.98 27.72 27.24 28.60 27.60 26.87 26.33 26.04 25.83 25.54 26.12 25.43 27.00 26.66 26.70 27.16 28.01 28.21 28.39 28.28 28.52 28.79 28.66 28.72 28.60 28.47 29.58 31.13 32.15 27.21 31.96 31.46 34.45 35.44 33.54 34.33 34.94
35.26 34.11 33.26 31.02 29.64 28.90 26.64 26.91 27.29 27.49 26.44 25.96 26.18 26.55 25.80 24.93 25.16 26.75 25.64 24.99 24.72 25.46 27.97 27.97 28.67 29.27 29.27 29.37 29.30 28.43 26.76 26.55 25.75 27.92 30.96 27.35 28.73 30.80 32.94 33.82 35.68 33.55 34.93
33.70 33.14 30.61 30.13 26.99 27.94 25.04 26.10 27.09 27.90 25.90 25.57 26.15 25.57 24.27 24.16 24.80 25.09 24.46 24.05 22.48 24.31 25.11 26.08 27.04 28.60 29.10 29.07 28.34 29.02 27.98 25.93 25.89 27.05 30.84 27.86 28.59 30.16 28.95 34.59 34.55 35.33 35.97

GFSMA_sfc_wetblb_024.txt.gz
Wetbulb
66.77 65.38 65.32 64.72 63.60 63.52 62.04 61.56 60.95 59.98 58.88 58.41 58.15 57.21 56.48 56.72 56.65 56.03 56.20 55.77 55.57 56.07 57.28 58.29 58.33 58.08 58.04 57.98 58.48 59.69 60.75 61.15 61.72 62.44 63.51 63.53 63.58 63.71 64.01 64.07 64.34 64.18 64.14
64.44 65.19 64.03 63.09 63.10 61.56 61.00 60.13 58.99 57.85 57.42 57.33 56.72 56.59 56.14 56.24 56.17 55.82 55.85 56.85 52.91 52.22 53.43 54.21 54.68 55.04 55.18 55.00 54.98 55.59 57.07 58.76 60.49 61.24 61.91 63.70 63.53 63.43 63.57 63.68 63.74 63.83 63.99
61.87 62.80 62.15 62.26 60.80 60.15 59.08 58.38 57.66 57.18 56.28 55.72 55.36 55.51 55.22 55.84 55.42 55.15 55.47 55.89 55.68 51.48 50.86 51.24 51.75 52.03 52.41 52.77 53.25 53.88 54.48 55.55 56.91 59.50 60.48 61.95 63.00 63.36 63.24 63.22 63.33 63.17 62.95
59.44 60.51 58.69 57.61 57.52 56.98 56.39 55.97 55.51 54.66 54.59 54.40 54.15 54.28 54.24 55.22 54.79 54.46 54.96 55.48 55.02 54.49 52.94 50.31 49.85 49.95 49.94 50.57 51.27 52.19 53.21 53.94 54.78 56.24 58.03 59.59 60.73 62.16 62.58 62.80 62.93 62.89 62.67
57.24 56.80 56.78 56.25 56.41 55.93 55.26 54.61 54.56 54.19 53.44 53.49 52.94 52.31 52.43 52.66 51.83 50.85 53.05 54.11 53.72 52.95 52.42 52.88 50.54 50.07 48.79 49.18 49.98 50.87 51.86 52.79 54.03 54.92 55.85 56.68 57.89 59.23 60.39 62.10 62.52 62.58 62.71
56.76 57.32 56.45 55.40 55.44 54.86 54.79 54.58 53.81 53.74 52.43 51.62 49.77 48.43 49.84 49.86 50.36 51.33 52.42 52.02 51.70 51.54 51.40 50.93 50.71 50.18 49.59 48.48 49.01 49.48 51.18 52.06 52.81 53.50 54.09 54.84 55.61 56.45 57.89 59.12 61.08 62.19 62.56
55.40 55.57 56.00 55.53 55.16 53.91 53.13 52.62 51.60 50.58 49.61 50.49 48.24 47.55 48.00 49.47 50.74 51.11 51.12 50.29 50.60 50.05 50.04 49.49 49.43 49.10 49.08 49.08 48.49 48.48 49.83 51.31 51.00 51.54 52.14 52.75 53.30 54.37 55.57 57.30 58.63 60.11 61.65
54.65 54.48 54.13 53.49 53.33 51.63 51.66 51.48 50.43 48.95 48.82 48.84 45.24 44.24 42.01 44.79 47.27 48.47 47.78 48.33 47.88 48.48 47.85 48.11 48.14 47.98 47.90 47.76 48.41 47.63 47.63 48.76 48.94 49.45 50.21 51.05 51.40 52.35 53.79 55.14 56.94 58.44 60.41
54.20 53.47 52.73 52.39 51.63 51.07 49.46 50.28 49.44 47.60 45.23 45.99 45.60 42.91 39.98 38.68 41.53 44.63 45.59 45.37 46.35 45.47 45.82 45.92 46.22 46.00 46.41 46.82 47.14 47.26 45.85 44.60 46.16 47.41 48.75 49.39 50.11 50.98 52.05 53.28 54.79 56.79 58.40
52.81 51.93 52.10 52.31 51.77 50.92 49.85 49.20 47.56 46.63 45.16 42.99 44.09 44.36 43.93 42.48 37.87 36.90 42.51 43.39 44.12 43.53 44.12 43.84 44.73 44.20 44.99 45.28 45.37 45.53 42.36 42.75 42.57 45.42 47.74 48.03 48.18 49.35 50.77 51.46 52.52 54.72 56.64
52.70 52.45 52.09 52.00 51.54 50.61 49.40 47.33 46.28 45.68 45.02 43.43 42.87 41.81 41.73 41.23 41.11 37.76 34.61 37.91 41.05 42.27 43.00 42.73 42.53 42.86 43.37 43.85 44.30 43.72 42.34 42.09 41.82 44.58 46.75 46.61 46.76 47.26 48.54 49.88 51.62 52.47 54.51
51.42 51.91 51.50 51.48 50.88 49.77 47.91 47.21 46.98 45.79 44.84 43.53 42.51 41.64 39.87 38.11 37.55 36.70 35.38 36.45 36.78 39.17 41.19 41.77 41.66 42.03 42.46 42.62 42.10 43.01 42.60 42.41 42.29 41.68 43.34 45.31 45.39 45.45 46.16 47.74 49.65 51.54 52.04
48.12 48.51 49.06 48.64 49.16 49.08 47.40 47.73 46.19 45.16 44.38 42.82 42.08 41.19 41.13 40.02 39.45 37.96 37.10 35.81 34.90 37.68 38.36 40.41 40.96 41.41 41.22 41.76 41.72 41.95 41.19 40.55 40.98 41.77 41.07 42.24 44.18 44.30 44.12 45.29 47.57 49.96 50.85
46.31 46.91 46.84 47.67 48.70 48.46 47.75 47.01 45.83 43.93 43.66 42.24 42.00 41.80 40.97 40.28 39.70 39.34 37.06 35.15 32.75 34.04 36.15 36.52 39.78 40.18 40.37 40.54 40.56 39.72 40.24 39.96 41.14 41.62 40.55 40.74 42.59 43.02 42.90 43.10 44.36 45.75 48.04
45.30 45.78 46.32 46.54 47.28 46.55 47.02 46.36 45.10 43.75 44.17 42.57 42.63 41.21 40.06 39.43 40.35 39.70 38.75 37.28 33.88 29.97 30.83 34.94 35.11 38.94 38.81 39.03 38.68 38.86 38.73 38.95 39.59 40.19 39.68 39.53 41.49 42.35 42.09 41.97 42.60 43.50 45.05
45.67 45.04 45.00 45.24 45.90 46.32 46.26 45.40 43.83 44.01 42.43 42.38 40.76 39.48 39.75 40.02 39.51 39.19 38.26 37.29 35.72 33.06 30.68 34.40 35.01 36.62 37.40 37.06 37.50 37.60 37.95 38.09 37.52 37.73 39.18 39.04 41.07 41.47 41.21 40.90 41.40 42.16 43.60
44.96 44.17 44.47 44.29 44.27 44.40 44.21 43.90 43.41 43.33 41.68 40.67 39.88 39.51 39.27 39.49 38.39 37.95 37.58 36.79 35.18 34.39 30.59 33.19 34.68 35.86 35.29 35.22 35.46 36.66 37.17 38.05 38.80 38.16 38.95 38.10 37.90 38.18 39.87 39.98 40.23 40.82 41.81
44.81 44.16 44.20 43.64 43.45 43.14 43.25 41.79 42.05 40.89 39.76 39.08 39.06 38.59 38.00 37.76 37.04 37.04 36.20 35.12 34.20 33.60 30.20 28.67 31.67 31.77 32.12 33.68 33.68 34.61 35.07 36.67 37.99 38.25 38.27 36.46 35.93 37.07 39.76 39.71 40.05 40.24 40.42
43.78 43.81 43.49 43.06 42.29 42.21 41.18 39.38 40.17 39.33 38.94 38.55 38.26 37.51 36.69 36.01 34.71 34.59 34.06 33.14 32.25 31.27 31.11 29.63 28.49 30.64 31.39 32.33 32.31 33.69 33.62 35.73 36.79 38.15 37.17 36.03 36.37 36.27 37.56 39.56 39.91 39.87 40.03
42.86 42.84 43.02 42.51 41.90 41.27 40.24 39.59 38.20 38.74 38.36 37.95 37.18 36.23 34.79 33.52 32.46 31.71 31.10 31.48 30.18 29.92 29.81 28.05 27.30 27.74 29.49 32.14 32.41 30.29 30.91 33.81 33.80 36.85 37.49 35.41 35.87 36.90 36.71 39.40 39.65 39.78 39.44
42.64 42.68 42.14 42.02 41.14 39.90 38.58 38.10 38.12 37.66 36.70 35.69 35.05 33.97 33.54 31.13 28.23 28.59 28.90 28.53 27.87 26.89 26.47 27.14 26.61 27.37 27.50 28.79 28.25 30.63 29.31 31.22 33.29 34.45 35.48 36.66 36.43 37.73 38.56 38.61 38.67 38.51 37.75
42.09 41.72 41.05 40.59 39.36 38.22 31.38 31.07 31.29 35.35 35.32 33.64 32.49 32.67 32.63 30.64 30.38 27.80 27.91 27.71 27.89 26.70 26.55 26.28 25.94 25.96 27.16 28.36 29.48 29.23 28.75 28.18 27.33 34.38 34.13 33.98 36.46 35.31 36.57 38.48 35.80 34.79 35.87
41.37 40.69 40.63 39.46 38.06 37.54 29.36 29.02 28.62 33.64 33.19 32.59 31.74 31.38 30.61 30.72 29.79 29.17 27.94 27.64 28.79 28.78 28.18 28.80 26.03 27.48 28.21 29.22 29.64 28.55 28.64 28.10 28.72 32.27 31.95 31.19 35.01 33.98 35.76 37.00 35.14 34.60 35.18
40.09 39.89 39.72 38.42 37.55 35.02 28.00 27.64 27.72 33.19 32.61 31.89 31.42 30.97 30.59 30.13 29.55 27.00 26.45 27.50 28.79 29.72 29.35 28.92 28.63 28.72 29.54 30.39 30.05 29.85 29.66 29.61 30.76 32.12 32.75 28.38 33.59 32.70 34.88 36.66 35.84 34.27 35.07
39.34 39.02 38.69 37.70 36.35 35.18 27.53 26.89 28.08 32.21 31.50 30.70 31.03 31.00 29.39 28.26 26.56 26.03 25.83 25.59 26.65 27.86 29.21 28.55 28.38 28.45 28.96 29.80 30.15 29.97 27.78 26.73 26.80 28.67 32.72 30.52 31.12 31.27 32.88 34.64 37.10 34.83 34.52
37.94 37.97 37.18 36.97 31.16 33.73 26.93 26.26 27.85 31.58 30.03 29.93 30.56 29.92 26.92 25.92 24.43 24.78 24.74 24.66 24.14 25.10 25.83 26.77 27.98 29.05 30.40 31.08 29.54 30.46 28.93 26.48 26.71 27.04 31.80 29.83 29.79 29.84 29.23 35.33 36.00 37.47 37.08

GFSMA_sfc_wetblb_027.txt.gz
Wetbulb
66.35 64.96 64.97 63.72 63.44 62.95 62.66 62.14 61.80 61.03 60.10 59.64 59.04 58.16 57.47 57.70 57.65 57.08 56.93 56.62 56.14 55.62 55.67 56.24 56.61 56.65 56.51 56.21 55.82 56.34 57.50 58.77 60.06 61.22 61.64 62.50 63.88 63.81 63.49 63.60 63.74 63.89 64.29
65.30 62.90 61.97 60.48 62.36 62.31 62.12 61.05 59.80 58.63 58.11 58.09 57.25 57.65 56.71 56.77 56.83 57.13 56.34 56.54 54.91 54.65 54.19 53.55 53.66 54.35 54.78 54.42 53.84 54.36 55.19 55.84 56.97 58.10 59.72 60.74 62.26 62.92 63.47 63.25 63.23 63.32 63.39
62.56 60.66 59.32 59.83 61.16 59.30 59.46 58.64 58.08 57.32 56.66 56.69 56.12 56.16 56.01 55.60 55.19 56.04 55.28 55.04 55.98 53.55 52.83 51.95 51.54 51.79 51.92 52.36 52.65 53.01 53.22 53.69 54.87 55.86 57.06 58.21 59.56 60.47 61.82 62.69 63.19 63.17 62.97
58.58 59.15 58.33 57.29 57.46 57.89 57.50 56.83 56.21 55.58 55.63 55.18 54.92 54.92 54.37 53.33 53.42 53.87 53.02 53.65 54.95 54.65 53.08 50.79 50.18 50.79 50.57 50.70 51.11 52.01 52.49 52.81 53.32 54.37 55.47 56.56 57.27 57.87 58.95 60.00 61.03 62.88 62.69
58.46 58.14 58.00 57.75 57.94 57.06 56.87 56.45 56.04 55.48 54.35 53.82 52.53 52.31 52.27 50.63 51.27 50.45 51.20 52.27 54.36 53.46 52.51 53.30 52.95 52.11 49.53 50.09 50.29 51.21 51.44 52.41 52.66 53.17 53.71 54.59 55.49 56.10 56.63 57.42 58.91 60.15 62.49
58.56 59.09 57.73 57.29 57.28 56.35 56.06 55.60 54.34 53.81 52.57 51.27 49.24 49.43 51.02 50.25 51.00 50.79 52.11 52.43 52.60 51.93 51.96 51.06 50.43 49.98 51.75 49.81 49.81 50.68 50.67 51.52 51.80 51.89 52.09 52.43 53.25 53.81 54.80 55.34 56.49 58.16 59.87
57.16 57.52 57.33 56.88 56.32 54.87 53.81 53.92 52.61 50.82 49.17 50.12 48.08 47.45 47.74 49.84 50.82 49.86 50.47 50.63 49.41 49.91 49.55 49.35 49.32 48.55 48.62 50.30 49.08 49.38 50.20 50.45 50.19 50.06 50.37 50.56 51.00 51.50 52.40 53.38 54.51 55.90 57.65
56.63 55.92 55.55 54.74 53.95 52.47 51.75 50.90 50.90 48.83 48.39 49.03 45.17 44.25 40.87 43.35 46.65 48.33 47.79 47.66 48.31 47.51 47.54 47.15 46.94 46.89 46.82 46.80 47.34 47.93 48.53 47.53 48.13 47.76 48.08 48.97 49.71 50.06 50.84 51.85 53.03 54.10 55.55
55.29 54.69 53.99 53.03 52.46 51.60 49.93 50.20 49.88 48.34 45.43 47.06 47.63 43.81 39.21 37.72 40.81 43.96 45.14 45.43 47.17 45.66 46.47 45.85 45.71 45.27 45.77 45.11 46.05 45.70 45.26 43.99 44.96 45.84 46.67 48.04 48.87 49.14 49.38 50.24 51.42 52.72 53.62
53.96 53.08 52.45 52.59 52.13 51.35 50.43 49.93 49.31 47.95 46.61 43.99 45.67 45.74 45.15 42.79 37.55 36.48 41.68 43.03 44.41 43.89 45.47 44.79 44.38 44.20 43.98 44.07 45.19 45.45 43.09 42.55 42.52 43.85 45.11 47.34 48.35 48.14 48.26 48.87 49.75 51.12 52.19
52.96 52.73 52.79 52.35 51.61 50.63 50.28 49.53 48.46 47.47 47.06 44.60 43.02 43.10 42.28 41.58 41.33 37.68 34.60 37.56 40.71 42.38 43.57 43.83 43.49 43.20 43.24 43.56 44.01 44.49 43.51 42.83 41.89 42.11 43.43 44.72 46.42 47.58 47.24 47.07 48.04 49.24 50.41
51.18 50.74 50.02 49.91 49.41 49.09 49.31 48.82 48.80 47.65 45.84 44.63 44.57 42.59 40.68 38.54 37.59 36.54 35.26 36.18 37.19 39.65 41.26 42.66 43.22 43.12 43.67 43.61 43.67 43.99 43.02 42.37 40.89 40.99 41.75 42.57 44.11 44.68 46.38 46.45 46.31 46.93 49.08
47.78 48.06 47.99 47.49 47.22 47.87 48.49 48.95 47.65 46.54 45.56 44.40 43.84 42.39 41.68 40.41 40.71 39.03 36.86 35.65 35.76 38.16 39.22 41.54 42.22 42.63 41.45 42.86 42.94 42.71 40.97 40.52 40.78 40.95 40.91 41.72 42.50 42.87 43.83 44.60 45.30 45.46 45.93
46.65 47.31 47.03 46.79 46.87 47.48 47.59 47.83 46.72 45.53 45.75 45.16 43.73 42.91 41.62 41.31 41.08 40.06 37.36 35.96 33.64 34.35 36.35 36.38 40.69 41.30 41.53 41.57 41.47 41.31 39.99 39.99 39.64 39.93 40.33 40.37 41.28 41.33 41.69 43.11 43.53 43.81 44.24
46.36 46.51 46.60 45.69 45.91 46.18 46.52 47.10 46.01 44.94 44.96 44.88 44.11 43.60 41.80 41.73 41.51 40.27 39.34 38.33 35.03 30.95 31.47 35.78 36.57 39.94 40.27 40.62 40.41 40.25 39.83 39.30 39.12 38.87 38.69 38.63 39.11 40.20 40.36 42.14 42.78 42.71 43.12
46.52 45.96 45.51 45.25 45.27 45.25 45.46 45.37 44.61 44.77 43.89 43.86 43.03 42.04 41.36 41.02 40.20 39.93 38.92 39.14 37.27 34.77 30.78 35.60 36.35 38.01 38.47 37.51 38.53 38.96 38.62 38.98 38.28 38.25 38.55 38.30 38.95 39.26 39.85 41.34 41.85 41.50 41.97
46.05 45.31 44.64 44.37 44.17 43.99 44.35 44.21 43.76 43.58 42.64 42.35 42.27 41.04 40.14 40.34 38.85 38.75 39.15 38.15 37.00 36.25 32.68 34.76 36.21 36.57 35.60 35.32 35.93 37.11 37.57 37.68 38.25 38.01 38.23 38.85 38.78 39.69 39.00 38.37 39.84 40.57 40.79
46.14 45.14 44.08 43.78 43.60 43.42 42.99 42.03 41.59 41.63 39.60 39.70 39.72 39.25 38.67 38.53 37.76 37.40 36.63 35.41 35.35 35.22 33.47 30.50 32.62 33.22 32.93 34.01 34.60 34.69 35.33 35.59 36.44 37.50 38.12 38.13 38.42 37.94 37.81 37.52 39.01 40.21 40.23
45.43 44.62 43.78 43.27 42.78 42.75 41.66 40.89 40.08 39.69 39.59 39.48 39.11 38.29 37.31 36.83 35.13 34.96 34.33 32.99 32.97 33.10 32.82 30.18 29.22 31.88 32.36 33.33 33.11 33.95 34.13 34.58 35.61 37.12 37.24 37.36 37.45 37.63 37.76 37.34 38.12 39.43 40.16
44.45 43.62 43.34 43.14 42.84 41.99 40.83 40.26 39.41 39.28 38.94 38.42 38.37 37.26 36.12 34.95 33.82 32.12 31.00 31.05 31.04 29.74 29.22 28.13 28.36 28.90 30.39 32.11 32.21 31.01 30.52 33.64 32.94 34.86 36.19 36.15 37.25 36.81 37.48 37.43 37.94 38.76 40.04
43.59 43.53 43.02 42.52 41.86 40.81 39.45 38.66 38.38 37.32 36.74 36.76 37.04 35.84 35.55 32.64 29.89 29.84 29.35 29.08 28.52 26.97 26.96 25.99 26.36 27.63 28.12 28.57 28.65 30.79 29.97 31.25 32.16 34.25 34.15 35.53 36.40 37.87 37.83 37.78 37.00 39.11 38.15
42.77 42.85 42.20 41.57 40.21 39.55 31.62 31.48 31.23 35.33 35.77 35.24 34.24 34.37 34.40 33.87 32.89 30.81 30.15 28.77 28.47 26.47 26.12 27.21 26.68 25.79 26.31 27.89 29.54 29.44 29.23 28.16 26.30 34.49 31.98 33.03 34.49 35.63 36.57 37.96 38.24 36.09 35.28
42.66 41.80 41.47 40.89 39.84 38.76 31.30 30.10 29.32 33.25 34.52 34.50 33.92 33.07 32.71 33.00 31.55 31.54 30.07 28.87 28.84 30.06 28.64 28.79 26.38 26.92 26.99 28.12 28.64 27.94 28.20 28.27 27.96 31.27 31.61 29.69 33.79 32.84 35.66 36.60 36.16 35.80 35.13
41.68 41.13 40.64 40.10 39.20 36.35 30.32 28.94 28.60 32.40 34.48 34.19 33.65 33.17 32.26 31.65 30.21 27.39 26.98 27.05 28.02 29.01 29.89 29.60 28.59 28.07 28.38 28.96 28.56 28.98 28.82 28.93 30.17 31.64 32.48 27.70 32.88 32.47 35.04 36.15 36.34 36.80 35.42
40.59 40.13 39.95 38.89 37.85 35.80 29.84 28.78 28.12 32.79 33.17 32.75 33.16 32.77 31.55 30.08 27.30 26.06 25.31 24.77 25.86 27.31 30.16 29.92 28.88 29.05 29.65 30.04 30.35 29.49 28.33 27.29 26.80 28.05 32.11 30.10 31.31 31.67 33.75 34.84 36.61 36.05 35.64
39.75 39.52 38.32 38.90 34.25 36.68 29.46 28.86 28.00 31.90 31.21 31.33 32.19 31.81 28.51 26.74 25.11 24.85 24.24 23.83 22.94 25.41 25.65 25.81 26.83 28.63 30.04 30.75 30.65 30.42 30.01 27.31 26.88 26.51 30.99 29.44 29.89 30.55 28.87 34.95 35.88 37.31 37.21

GFSMA_sfc_wetblb_030.txt.gz
Wetbulb
63.46 63.35 61.88 59.79 59.38 59.82 59.70 58.70 57.82 57.15 55.69 55.16 55.91 54.96 54.58 54.25 54.01 53.69 52.86 57.21 57.13 55.71 55.69 56.25 56.35 55.94 55.85 55.34 55.04 55.19 55.68 56.13 56.99 57.74 58.60 60.11 61.45 62.26 63.05 63.66 63.09 63.13 63.24
62.65 61.43 59.88 59.15 59.49 57.52 56.87 55.98 54.77 54.21 54.42 54.99 54.11 54.61 54.43 53.62 52.48 51.97 52.05 52.23 56.19 56.59 55.12 54.59 54.01 53.72 53.41 53.36 52.96 53.38 54.15 54.41 54.84 55.63 56.40 57.23 58.43 59.98 60.39 61.39 62.73 63.13 63.15
60.29 59.41 58.59 56.48 55.87 56.26 54.82 54.51 54.45 54.32 53.54 54.00 52.80 52.83 52.45 51.65 49.43 49.69 50.59 49.84 51.42 55.48 54.50 52.94 52.01 51.91 52.34 51.66 51.92 51.92 52.75 53.03 53.98 54.46 55.13 55.78 56.59 57.36 58.42 59.06 59.77 60.91 62.76
58.97 56.34 56.35 55.88 55.72 55.71 54.74 53.59 53.59 52.50 51.89 51.65 50.37 49.40 48.94 48.41 48.03 48.41 47.94 48.29 47.92 51.28 52.80 52.70 51.07 51.46 51.71 50.03 51.60 51.75 52.34 51.83 52.45 53.03 53.40 53.81 54.42 55.10 55.99 56.62 57.15 58.36 59.94
57.74 56.88 56.39 55.82 55.35 54.39 54.00 53.98 52.31 51.22 49.07 48.14 47.71 45.90 46.56 46.23 46.80 48.22 47.61 48.72 50.06 50.57 49.95 53.47 53.77 53.11 50.00 50.87 50.86 51.74 52.12 51.81 51.81 52.14 52.66 52.24 52.72 53.13 53.67 54.26 55.06 55.91 57.15
57.65 56.88 55.27 54.33 54.43 53.53 52.18 51.55 50.54 49.66 47.34 45.97 47.46 46.60 45.68 45.39 45.27 45.91 46.92 49.05 47.82 48.18 48.89 47.61 47.46 46.85 50.30 50.33 50.16 50.94 51.63 51.87 52.03 51.49 50.80 50.15 50.87 51.23 51.75 52.12 52.93 53.78 55.20
56.12 55.46 54.66 53.96 53.28 51.13 50.17 48.99 47.38 46.43 45.47 45.94 43.36 42.48 42.46 43.01 42.78 43.89 43.46 43.38 44.24 45.98 44.95 45.32 43.52 42.60 43.43 47.81 48.18 48.89 49.85 50.35 49.98 49.62 48.83 48.67 48.79 49.78 50.31 50.88 51.51 52.36 53.36
54.93 54.84 52.98 51.73 50.52 48.77 47.99 48.00 46.77 44.98 44.48 44.72 41.27 40.34 37.15 38.97 41.25 41.97 41.19 42.34 41.35 43.40 43.49 43.59 43.09 43.35 41.31 41.73 42.68 46.80 47.39 46.54 47.14 47.42 47.32 47.17 47.90 48.91 49.63 49.83 50.38 50.85 52.06
53.92 52.67 51.56 50.15 49.27 48.65 47.12 47.11 45.96 44.68 41.43 42.34 43.32 39.60 35.85 33.52 36.62 38.98 39.04 39.97 39.59 39.26 40.20 41.70 42.04 42.60 41.67 41.05 41.47 43.02 45.75 43.51 43.66 44.67 45.71 45.76 46.42 47.64 49.42 49.60 49.47 49.73 50.49
52.66 51.58 50.81 49.96 49.52 48.59 47.28 46.66 46.54 43.96 42.76 40.35 41.36 43.35 40.52 38.08 33.68 32.32 36.24 37.29 38.10 38.83 38.03 38.80 39.77 40.69 40.76 39.63 42.90 45.50 44.10 42.53 41.83 42.25 43.56 44.44 45.06 45.96 47.15 48.50 49.01 48.47 49.07
52.15 51.05 50.25 48.44 47.16 46.92 46.75 46.52 45.58 43.74 43.04 40.88 39.51 39.17 39.03 37.04 36.13 32.74 30.46 32.45 35.94 37.06 37.55 37.42 37.88 38.21 39.56 39.36 38.78 41.09 44.08 43.63 41.39 41.73 42.52 43.26 43.98 44.45 45.61 46.44 47.62 48.18 47.69
48.70 48.27 47.56 45.74 45.68 45.12 44.73 44.75 45.22 45.39 41.85 41.31 40.90 39.82 38.15 35.01 33.75 32.34 30.79 31.77 32.62 34.41 35.75 36.45 36.69 36.92 37.78 37.85 41.68 43.71 42.31 41.59 41.41 41.03 41.32 41.78 42.45 43.38 44.18 45.17 46.03 46.86 47.09
45.30 45.30 44.94 44.35 43.71 44.16 44.58 44.71 44.21 42.83 42.09 40.79 40.22 39.64 39.49 38.39 38.22 36.01 33.73 32.12 30.61 33.86 34.07 34.93 35.62 36.13 38.32 36.85 37.35 42.78 41.98 41.51 41.51 40.47 40.22 40.38 40.60 41.44 43.09 43.81 44.52 45.62 45.71
44.18 44.66 44.05 43.98 43.80 43.80 43.48 43.57 43.41 42.84 42.40 40.88 40.28 40.05 40.13 39.63 40.24 37.29 34.54 31.58 30.20 30.72 32.44 31.99 34.60 35.07 35.47 36.48 38.60 41.62 36.48 39.82 40.36 40.30 40.20 39.35 39.52 39.70 40.02 41.16 42.63 43.26 44.69
45.05 44.70 43.80 43.31 43.26 42.88 42.87 42.59 41.80 42.02 41.68 40.92 39.86 39.78 39.86 40.48 40.17 36.95 36.20 35.54 32.25 27.44 27.56 31.15 31.12 34.58 35.30 34.55 35.78 35.16 34.82 38.35 39.20 38.99 39.06 39.00 39.22 39.54 39.70 39.76 40.53 41.46 42.88
44.63 43.79 43.44 42.76 42.44 42.51 42.13 41.22 41.06 41.07 40.35 40.06 40.49 39.24 38.96 38.22 36.62 36.20 35.83 35.81 33.83 31.26 26.93 31.25 31.83 31.87 32.89 34.90 35.64 34.19 34.16 37.43 37.21 37.62 38.02 38.31 39.15 39.81 39.92 40.03 39.38 40.40 41.58
43.96 43.87 43.38 42.28 41.69 41.38 41.32 40.14 39.38 38.96 38.69 38.41 38.04 38.52 38.50 37.11 35.03 34.62 35.18 32.95 31.44 30.45 27.08 29.39 31.41 31.55 30.58 30.40 32.14 32.93 33.79 32.99 33.51 36.89 37.75 37.96 38.15 38.54 38.96 39.55 39.95 39.80 39.54
44.61 43.92 43.19 41.85 41.95 41.35 40.60 39.07 38.50 38.39 38.40 37.73 37.01 37.58 36.29 37.20 33.49 32.41 30.87 29.67 29.04 29.27 27.48 25.80 27.99 28.48 28.65 29.99 30.30 30.31 32.51 34.44 32.99 35.88 37.09 37.68 37.73 37.76 38.15 39.06 38.63 38.23 38.25
43.89 43.54 42.60 41.51 41.35 40.64 39.47 38.97 38.02 37.51 37.12 37.09 35.94 34.96 34.41 32.85 29.55 29.20 27.92 26.81 27.37 29.43 27.21 25.33 24.76 27.33 27.84 29.00 28.69 30.05 30.65 31.04 33.84 36.27 36.35 36.79 36.99 37.41 37.45 37.83 37.94 38.21 37.98
43.36 42.41 41.84 41.77 41.55 40.55 39.55 39.05 38.22 36.82 36.02 35.55 35.30 34.36 32.97 31.24 28.43 26.67 26.93 25.27 26.30 24.85 25.00 24.13 24.26 24.68 25.76 27.75 28.19 26.57 26.72 29.01 29.03 33.18 34.49 34.82 36.18 36.80 37.47 37.96 38.08 38.03 37.81
42.76 42.21 41.32 41.09 40.39 40.43 38.58 36.23 35.52 33.20 32.88 32.70 33.10 33.63 31.90 31.08 31.35 28.82 26.92 24.69 24.18 23.41 23.19 22.68 22.90 23.76 24.32 24.08 23.63 26.86 27.18 26.95 27.67 29.56 29.46 30.11 32.94 33.20 34.28 36.20 37.42 38.05 37.61
41.80 41.03 40.62 40.17 39.47 39.22 33.65 32.64 32.03 29.79 31.59 31.35 29.84 30.22 30.48 32.94 32.01 31.28 31.55 29.48 27.90 23.10 22.57 22.57 23.06 22.73 23.33 25.07 26.58 25.10 24.14 23.35 22.13 28.41 27.90 27.14 31.07 30.86 33.64 34.18 36.73 37.07 35.79
40.86 40.23 39.78 39.03 37.94 33.02 33.19 32.09 30.00 29.07 29.23 29.95 29.31 28.72 29.55 31.91 29.20 26.63 28.01 27.80 27.31 28.69 27.77 25.80 24.26 25.00 24.88 23.89 24.22 22.88 22.82 23.16 23.30 26.61 26.20 24.53 27.20 28.33 32.61 34.84 35.98 36.74 36.88
39.41 39.28 38.38 38.37 37.70 34.71 32.84 31.37 29.68 27.35 28.46 29.61 29.59 29.25 27.92 27.14 24.70 24.99 24.00 22.85 23.95 24.81 25.82 27.24 23.77 23.29 24.32 25.46 25.33 25.59 24.79 24.82 26.17 27.42 28.31 23.18 25.50 27.65 29.78 30.06 35.58 36.66 36.45
38.35 38.34 38.18 37.13 36.13 31.26 32.13 30.68 28.53 27.77 28.74 28.58 30.25 29.94 29.09 26.66 26.31 26.70 23.22 22.29 22.15 23.24 28.11 28.21 27.48 28.09 29.33 30.48 30.17 27.88 25.00 23.76 22.85 24.71 27.35 25.05 26.09 27.94 27.29 26.91 30.03 35.77 36.12
38.26 38.27 36.89 36.19 33.22 31.96 31.39 30.76 28.72 27.32 27.02 27.71 28.37 28.13 27.86 25.80 25.57 25.18 21.60 20.86 19.25 21.67 22.06 22.04 23.43 26.15 27.57 28.56 30.12 29.63 28.53 25.71 26.08 24.49 27.26 25.30 26.44 27.11 23.20 27.17 32.19 32.55 30.24

GFSMA_sfc_wetblb_033.txt.gz
Wetbulb
59.90 59.01 57.50 57.22 55.97 55.83 55.45 53.34 53.93 52.13 52.23 52.92 52.56 52.63 52.47 51.63 49.94 49.52 48.66 57.46 57.58 56.58 56.40 56.99 56.08 54.97 54.46 53.84 53.48 53.99 54.36 54.82 55.33 56.01 56.24 56.64 57.20 58.08 58.75 59.31 60.24 61.34 62.12
58.37 57.20 56.02 54.87 53.90 53.54 53.87 52.56 52.91 51.95 51.11 51.29 51.32 51.38 50.39 49.14 46.96 46.58 47.91 47.66 56.60 56.82 55.86 55.09 54.16 53.69 53.34 52.69 52.46 52.50 53.01 53.22 53.87 54.23 54.69 54.99 55.47 55.96 56.59 57.14 57.82 58.61 59.83
56.30 55.54 53.77 53.23 52.86 52.75 52.45 51.76 51.34 50.77 50.26 51.28 49.80 48.64 47.93 46.30 46.18 46.39 45.84 46.18 51.09 55.69 55.51 53.61 51.91 52.53 52.09 51.68 52.04 52.06 52.28 52.19 52.32 52.91 53.91 54.04 53.73 53.88 54.40 54.86 55.40 56.31 57.30
54.62 53.92 53.22 52.35 52.52 53.27 51.04 51.12 50.25 49.16 48.02 46.62 45.26 44.25 44.63 44.95 45.28 44.64 45.26 45.61 45.96 50.20 53.93 53.72 52.00 51.78 51.58 51.82 52.13 52.09 52.00 51.90 51.75 53.05 52.74 52.60 52.20 52.20 52.34 52.95 53.63 54.14 54.89
55.61 53.66 52.57 51.48 52.25 51.38 50.66 50.06 48.62 47.57 44.85 43.78 44.28 42.84 43.01 42.83 42.24 45.17 43.84 44.55 44.99 45.76 48.23 53.62 50.35 50.46 49.49 50.18 50.42 51.29 51.82 51.36 52.37 51.73 51.39 50.63 50.42 50.10 50.54 51.49 51.97 52.54 53.32
55.09 52.64 51.66 51.26 50.79 49.36 47.37 47.00 46.19 45.69 44.16 42.96 45.63 43.56 40.77 41.22 41.09 40.80 40.62 43.23 42.88 43.16 44.33 44.93 44.86 45.21 49.80 48.33 48.68 49.38 50.29 50.50 50.12 50.30 49.80 49.23 49.25 49.05 49.57 50.20 50.90 51.28 52.01
52.72 51.40 50.36 48.77 47.86 46.89 45.16 45.34 44.01 42.96 42.52 42.13 39.87 39.43 39.92 40.04 40.67 39.15 39.49 39.59 40.89 41.32 41.32 41.47 42.41 42.70 42.20 47.20 46.58 46.96 48.25 47.81 47.77 47.68 47.88 47.67 47.50 47.48 48.14 49.68 50.74 50.92 50.94
51.67 51.35 48.85 47.33 46.60 45.62 44.82 44.34 43.16 42.02 41.42 40.72 37.75 37.39 34.30 36.45 38.33 39.00 38.02 38.82 37.04 38.62 39.84 40.82 40.76 40.68 40.36 39.19 40.68 44.89 45.64 45.83 45.88 46.38 46.33 45.72 45.73 46.26 46.65 47.83 49.30 50.55 50.62
50.61 49.56 47.98 46.68 45.95 45.47 44.08 43.45 42.58 40.86 38.68 39.79 40.08 37.44 33.20 31.14 33.36 35.81 36.51 35.99 35.91 35.83 36.01 37.60 39.12 39.31 39.25 38.36 39.94 40.79 45.24 45.17 45.35 44.76 44.76 44.70 44.71 45.24 45.48 46.03 47.38 48.85 50.12
49.48 48.57 47.62 46.46 45.60 45.00 43.53 43.53 44.13 41.21 39.65 37.89 38.85 41.17 37.49 35.55 31.20 29.40 33.31 34.80 35.47 36.37 35.12 35.26 35.76 37.38 37.78 37.35 40.58 42.87 44.89 44.21 41.45 42.34 43.32 44.15 44.35 44.53 44.66 45.21 45.67 47.21 48.50
49.25 46.16 44.81 43.02 42.11 42.29 41.54 41.60 41.71 41.76 40.42 38.78 37.57 37.16 36.33 35.37 33.73 30.47 27.42 30.12 33.18 34.60 34.92 34.38 34.40 35.05 36.56 36.99 35.57 38.29 44.10 43.45 42.06 41.42 42.17 42.95 43.41 43.72 43.83 44.07 45.05 45.79 47.13
43.89 43.67 43.15 41.77 41.40 40.85 40.71 40.74 40.50 41.12 39.55 38.94 40.38 39.55 36.51 34.49 32.56 30.91 29.01 29.20 29.71 31.95 33.35 34.16 33.92 34.29 35.05 34.78 39.50 42.92 42.98 42.21 42.11 40.68 40.83 41.50 42.20 42.66 42.88 43.00 43.57 45.31 45.86
41.83 41.05 42.27 41.94 40.26 40.44 40.39 40.30 40.41 40.24 40.01 38.74 38.20 37.97 38.18 36.88 36.27 35.56 35.31 32.87 28.46 30.70 31.13 32.62 33.64 33.91 36.36 34.38 35.31 40.31 40.04 40.12 40.19 39.69 39.92 40.35 40.81 41.15 41.44 42.03 42.36 43.25 44.58
43.30 42.40 42.12 40.42 40.39 40.52 40.03 39.71 39.25 39.58 39.84 38.73 37.73 37.58 37.86 37.99 37.88 37.76 37.51 33.65 29.14 28.12 29.21 29.53 32.13 32.98 33.24 33.33 35.49 39.06 33.96 38.43 39.25 39.46 38.52 38.68 39.23 39.59 39.83 40.19 40.86 41.45 42.18
43.90 41.93 40.25 40.12 40.03 39.84 39.90 39.49 38.27 38.20 38.09 37.67 37.33 37.70 37.34 38.82 39.73 39.36 37.11 35.31 33.06 27.52 27.60 28.62 27.72 31.60 31.46 31.80 33.36 32.49 31.99 36.06 38.25 37.95 37.42 37.33 37.67 38.21 38.78 39.24 39.92 40.45 41.28
42.61 41.85 41.85 41.08 39.90 39.47 39.76 38.70 38.01 37.63 36.98 36.87 37.63 36.01 35.98 37.22 38.59 38.25 36.06 33.41 32.41 29.93 24.41 27.06 27.18 28.46 29.86 32.51 33.58 32.00 31.87 36.12 35.82 36.60 36.97 37.59 38.05 38.25 37.60 38.10 38.69 39.06 39.84
42.46 41.16 41.43 40.14 39.18 38.92 38.49 37.70 36.61 36.47 36.40 36.18 36.22 35.64 36.07 37.59 35.49 34.91 31.53 29.29 27.23 26.06 22.71 25.11 26.91 27.52 26.89 27.47 29.71 30.28 31.61 31.28 31.70 35.76 36.57 36.97 37.35 37.67 38.23 38.22 38.18 38.45 39.00
41.48 41.09 40.90 39.68 39.51 38.96 37.88 36.83 36.10 36.38 35.53 34.81 34.31 34.20 35.32 35.71 30.19 28.27 26.76 25.11 24.59 24.71 23.19 22.20 23.59 24.86 24.89 26.38 28.03 27.57 30.50 32.47 31.38 34.39 36.43 36.36 36.86 36.52 36.68 36.91 37.63 38.25 38.47
41.97 40.47 40.04 39.06 39.22 38.77 37.67 37.26 36.16 35.91 35.59 34.69 34.13 33.63 33.04 31.00 26.64 25.49 24.92 23.95 24.04 26.55 23.32 22.19 22.43 24.46 24.55 25.88 25.99 27.42 28.30 27.89 31.47 34.11 34.30 35.16 35.71 36.37 36.61 36.95 36.92 37.69 38.09
40.40 39.39 39.38 40.22 39.88 39.31 38.32 38.06 36.77 35.03 33.38 33.07 33.20 32.44 31.71 28.44 26.27 25.16 25.38 23.46 24.31 22.61 22.54 21.84 22.15 22.36 23.58 25.48 25.35 23.57 24.93 27.04 26.92 30.28 31.73 32.85 34.29 34.91 34.90 35.71 36.12 36.00 37.15
39.99 40.12 40.56 39.90 39.72 38.66 37.79 35.35 34.50 32.23 31.19 31.08 31.11 31.33 30.05 30.38 32.82 28.22 25.72 23.13 22.98 21.84 21.54 21.51 21.27 21.99 22.57 22.98 23.14 26.37 23.35 23.61 24.81 26.14 26.60 27.89 28.92 29.89 31.25 33.87 34.59 34.95 37.02
39.48 40.39 38.80 38.66 37.79 37.73 34.99 34.63 32.43 30.03 30.71 29.72 27.85 28.86 28.33 31.05 31.00 31.45 30.02 29.01 26.57 22.07 20.32 18.75 21.41 20.99 22.20 24.71 24.99 22.14 21.68 20.42 19.15 24.94 24.64 24.67 27.66 27.12 29.08 31.37 34.81 34.22 36.41
38.19 37.64 38.07 38.25 37.14 34.22 34.06 33.76 32.20 29.16 28.57 27.90 27.95 27.38 28.18 29.69 27.27 25.21 25.98 26.22 25.46 26.51 25.85 22.75 21.06 21.97 20.54 21.70 21.82 21.75 21.91 21.49 21.34 24.37 24.45 23.21 26.53 24.63 28.02 32.17 34.04 35.60 36.07
37.01 36.94 37.02 37.25 36.52 33.98 33.99 33.30 31.16 27.24 26.92 27.68 27.83 27.49 26.33 24.71 24.76 24.49 23.16 22.14 22.25 22.84 23.77 24.47 22.01 21.06 22.00 23.44 23.75 24.93 24.40 24.34 25.03 25.68 27.29 23.67 25.31 24.78 26.64 29.00 32.96 34.47 35.43
36.12 36.40 37.33 36.13 34.26 31.87 33.45 32.44 29.28 26.86 27.54 27.63 28.53 28.12 27.84 24.66 26.77 26.65 23.13 21.81 21.12 22.01 25.72 27.22 26.66 27.61 28.10 28.97 28.89 27.94 25.51 24.60 22.59 24.03 25.93 24.98 23.22 24.54 24.50 24.46 28.24 34.38 34.62
36.43 36.37 35.08 34.96 34.53 30.94 33.03 32.08 29.77 26.06 26.37 26.48 26.84 26.59 28.56 24.74 26.15 25.55 21.71 20.04 18.16 20.11 21.91 21.84 22.34 23.77 25.78 26.19 28.73 26.83 24.95 23.14 23.06 22.99 25.59 26.89 24.99 23.60 21.15 24.62 27.13 29.25 30.38

GFSMA_sfc_wetblb_036.txt.gz
Wetbulb
57.35 56.80 55.88 54.81 53.79 53.42 51.94 51.32 50.97 51.33 51.20 51.11 50.82 49.59 48.73 46.72 45.46 45.44 45.85 53.90 56.44 55.75 56.06 56.96 55.64 54.72 54.02 53.67 53.38 53.65 53.94 53.91 54.17 54.35 54.82 54.95 54.77 54.92 54.87 55.28 56.16 57.00 57.70
56.47 55.35 53.49 52.49 51.88 51.49 51.54 51.04 50.25 49.77 49.18 49.14 48.25 47.47 46.05 45.08 45.13 44.45 44.13 43.81 54.10 56.50 56.40 55.46 53.67 53.64 52.65 52.61 52.49 52.65 52.58 52.74 52.52 53.55 53.91 53.59 53.48 53.18 53.07 53.23 53.79 54.62 55.47
55.58 53.45 52.03 51.37 51.52 51.49 50.37 50.27 49.48 48.55 46.85 46.93 45.23 45.31 44.93 44.30 43.83 43.24 43.36 44.01 45.85 55.80 55.78 52.93 52.29 52.31 51.50 51.61 51.68 51.62 51.84 51.87 52.32 53.40 53.01 52.57 52.10 51.43 51.37 51.67 52.59 53.05 53.68
54.05 52.76 51.60 51.24 51.62 50.91 50.28 48.90 47.96 46.59 44.45 43.79 42.65 41.41 42.74 42.51 42.12 42.34 42.10 42.81 43.76 49.75 52.74 51.88 51.63 50.98 50.63 51.59 51.57 51.37 51.61 51.35 51.11 51.04 51.24 50.16 50.68 50.50 50.42 50.52 50.93 51.91 52.40
53.88 52.33 50.82 50.61 50.45 48.89 47.91 48.28 46.65 45.32 42.79 42.41 43.34 41.46 40.37 40.11 40.26 42.43 40.77 41.30 42.32 44.66 44.09 49.52 48.64 48.82 48.38 48.64 48.94 49.52 49.82 49.99 50.41 49.98 50.48 49.97 49.60 49.31 49.09 49.35 50.06 51.04 51.57
53.84 51.43 50.51 49.23 48.20 46.04 44.80 43.96 43.66 43.30 42.52 41.52 44.31 41.66 39.59 39.27 38.56 37.94 38.51 41.29 39.83 40.18 40.65 40.55 39.83 41.18 48.80 47.65 47.69 47.69 48.57 49.28 48.29 48.24 48.22 47.92 47.77 47.83 47.97 48.05 48.52 49.44 50.89
52.48 49.99 47.72 46.61 45.98 44.83 44.52 44.35 42.72 41.75 41.20 40.03 38.16 37.88 38.07 38.34 38.43 37.35 37.59 37.05 38.01 38.66 38.44 38.41 38.42 38.81 39.78 45.61 46.17 46.89 47.41 48.11 47.93 47.69 46.91 46.78 46.45 46.11 46.53 46.96 47.04 47.99 48.79
50.16 48.93 46.83 45.66 45.19 44.55 43.86 43.08 42.00 40.86 40.13 39.29 37.01 35.73 32.95 35.41 37.00 37.98 35.87 37.35 34.70 36.35 37.34 38.20 37.56 37.58 36.59 37.00 40.59 45.59 46.17 46.23 45.97 46.26 46.26 45.74 45.31 45.14 45.82 46.30 46.48 46.63 47.35
50.10 48.50 46.77 45.84 44.94 44.59 43.16 42.10 41.25 39.91 38.15 38.39 38.59 36.69 32.23 30.43 32.32 34.42 34.73 34.53 34.15 34.48 34.36 35.39 36.66 37.02 36.69 35.77 38.10 39.75 43.45 44.38 44.70 44.40 44.21 44.63 44.84 45.16 45.42 45.73 45.86 46.02 46.32
48.29 47.12 46.48 45.63 44.47 43.11 41.93 42.10 42.83 40.51 38.43 36.96 37.63 39.74 36.39 35.56 30.91 29.36 32.31 33.73 34.07 35.28 33.56 33.50 33.87 34.98 35.83 35.44 38.62 40.80 43.48 43.78 42.53 42.69 42.61 43.51 44.05 44.50 44.88 45.18 45.31 45.33 45.67
45.67 44.94 43.42 41.88 41.41 41.05 40.55 40.17 40.45 38.88 39.14 37.79 36.68 36.16 36.18 34.80 33.10 30.62 28.62 29.51 32.33 33.58 33.62 33.35 33.46 33.59 35.06 34.88 34.05 36.99 42.92 43.56 43.32 41.60 42.45 42.79 43.01 43.52 43.97 44.33 44.41 44.57 44.70
42.94 42.84 41.84 41.53 40.84 41.03 40.61 40.46 39.61 39.57 38.46 37.97 37.80 37.72 36.40 34.16 33.10 30.93 28.14 28.39 29.26 31.93 32.39 34.27 33.06 33.24 33.79 34.16 38.16 40.69 42.08 40.77 39.49 39.68 40.48 41.34 41.99 42.41 42.95 43.48 43.79 44.20 44.37
42.44 41.86 42.29 41.51 42.04 40.94 39.28 38.96 37.93 37.48 37.90 37.29 36.58 36.79 37.01 36.42 35.65 33.81 31.93 33.16 30.39 30.04 30.67 31.51 32.51 32.78 34.92 32.94 33.59 38.87 38.43 38.73 37.88 38.29 38.95 39.51 40.00 40.69 41.17 41.67 42.36 43.02 43.54
42.30 42.67 42.39 42.03 40.77 40.11 39.16 38.00 37.32 38.36 37.33 36.72 35.82 35.77 36.10 36.67 37.33 36.90 36.75 35.36 31.36 27.92 28.16 29.32 30.95 30.91 30.76 31.46 33.96 37.53 32.28 35.65 36.46 36.95 37.45 37.63 37.93 38.39 38.84 39.51 40.02 40.84 41.56
43.26 42.42 41.78 39.99 41.02 39.78 38.57 37.34 37.54 37.17 36.17 36.17 35.59 35.14 35.29 36.19 37.13 37.64 38.55 37.70 33.85 27.25 25.58 27.00 26.09 29.33 29.25 29.75 31.21 31.15 30.20 34.23 35.76 35.80 35.77 36.23 36.83 37.45 37.87 38.53 39.18 39.44 40.16
43.04 42.07 41.66 40.99 40.39 38.94 38.29 37.23 37.14 36.45 36.02 35.47 35.78 34.51 34.41 35.50 37.81 37.59 36.75 35.10 32.79 30.06 23.64 24.85 24.82 25.95 27.51 29.94 31.04 30.23 29.77 34.08 33.93 34.79 35.56 35.59 36.18 36.76 36.93 37.55 37.83 38.24 38.67
42.82 42.48 42.25 39.65 39.49 38.42 37.85 36.81 36.00 35.74 35.34 34.82 35.08 35.49 35.02 35.93 34.80 33.41 30.58 29.46 27.79 26.02 21.95 23.20 24.67 25.04 24.15 24.74 27.04 27.98 29.60 28.87 29.60 33.65 34.53 34.87 35.85 35.96 36.75 36.46 36.28 36.49 37.29
43.81 41.59 41.12 39.13 38.51 37.64 37.05 36.03 35.89 35.97 35.08 34.86 33.96 33.55 33.61 35.28 30.72 28.26 26.50 25.44 24.56 24.28 22.74 20.74 22.03 22.53 23.12 24.67 25.43 24.91 28.24 30.70 28.83 32.28 33.45 33.82 33.66 34.12 35.81 36.23 36.32 36.68 37.10
41.07 39.86 39.25 38.00 37.86 37.82 37.37 36.48 36.41 35.69 35.17 35.58 34.45 32.57 32.10 31.86 27.90 26.20 25.21 24.39 24.03 26.15 22.68 21.76 21.51 22.61 22.52 23.80 24.31 25.63 26.08 26.25 30.02 31.91 31.23 31.58 32.20 33.24 34.15 34.60 34.98 35.50 36.08
39.51 39.87 38.82 38.63 38.64 38.65 38.39 37.79 36.69 35.35 34.49 33.60 32.45 31.52 31.15 29.25 27.28 25.94 25.32 23.58 23.68 22.26 22.36 21.46 21.70 21.72 21.70 23.78 23.88 22.89 24.06 25.35 24.80 27.62 28.92 29.48 31.26 32.49 32.96 33.10 33.70 34.10 35.40
39.88 39.77 38.38 38.44 39.11 38.79 38.29 37.06 35.93 33.52 31.80 31.16 31.16 30.82 29.51 29.90 32.52 28.57 25.06 23.04 22.60 21.42 21.15 20.80 20.58 21.13 21.40 21.37 21.87 23.83 23.20 22.53 23.35 24.41 23.98 25.50 26.87 26.98 28.25 31.07 32.20 33.55 34.83
39.30 38.03 38.56 38.55 38.24 38.22 36.35 36.38 34.02 31.22 31.28 30.14 28.26 28.72 28.43 30.75 31.48 31.62 30.56 28.95 25.81 21.26 19.57 17.44 19.85 19.12 19.79 20.60 22.31 21.09 20.68 19.99 19.59 23.57 23.06 23.67 26.09 25.69 27.59 28.32 31.41 33.38 35.08
37.51 37.13 37.15 37.04 36.67 36.62 35.56 35.85 33.91 29.98 28.94 28.13 27.17 27.43 27.64 29.08 28.41 26.00 27.49 26.60 25.24 25.96 24.24 20.85 19.13 19.51 19.31 20.32 20.81 20.71 21.63 21.61 22.03 24.57 24.22 23.11 24.66 24.18 27.45 29.74 32.08 33.22 34.36
37.06 36.29 35.82 35.79 35.73 35.47 34.66 34.83 32.87 28.34 27.37 27.80 27.51 27.65 26.22 25.53 25.17 24.75 23.40 22.37 22.50 22.38 22.93 23.56 21.47 20.73 21.18 23.06 24.31 25.46 25.81 26.26 25.44 25.41 24.89 22.37 23.98 24.35 26.81 27.07 31.88 33.56 34.74
35.74 34.93 35.30 35.01 34.16 33.66 34.27 33.96 30.94 27.26 26.64 27.33 28.89 28.67 27.41 25.42 26.78 28.56 23.65 22.49 21.57 21.69 25.03 26.30 26.65 27.30 27.27 27.57 27.84 26.47 22.86 22.30 20.06 22.08 24.05 24.55 24.22 24.24 26.07 26.66 27.19 33.33 34.17
34.41 34.20 33.82 33.58 34.05 31.67 33.74 34.16 31.49 27.83 26.91 27.27 27.43 27.11 29.38 25.90 27.86 27.00 22.55 20.97 18.21 20.08 21.28 21.94 22.39 23.15 24.53 24.53 26.98 25.12 23.87 21.30 21.46 20.29 25.08 23.84 24.55 26.30 21.88 22.96 24.73 26.14 26.66

GFSMA_sfc_wetblb_039.txt.gz
Wetbulb
56.10 56.30 54.59 53.54 52.41 51.69 50.73 50.16 50.41 50.21 49.40 48.21 47.24 45.67 44.64 44.08 43.38 43.03 42.43 51.23 54.63 55.67 55.12 56.98 55.29 54.60 53.98 53.45 53.31 53.13 53.27 53.53 53.60 54.36 53.81 53.40 53.07 52.83 52.69 52.81 53.24 54.02 54.49
55.36 53.32 51.88 51.11 50.47 50.55 50.32 49.94 48.83 47.17 46.02 45.49 45.18 44.83 43.72 42.69 41.99 42.11 42.40 43.30 53.35 56.56 56.66 55.21 53.81 53.44 52.87 52.28 51.93 52.28 52.37 51.79 53.37 53.33 53.21 52.50 52.08 51.55 51.51 51.45 51.73 52.49 53.38
54.14 51.90 50.81 50.46 50.18 50.07 49.73 48.59 47.19 45.58 44.43 44.69 42.64 43.13 42.37 41.27 41.00 40.93 41.38 42.43 49.21 55.41 54.52 52.84 52.75 52.68 52.42 52.15 51.78 51.88 51.97 51.94 51.35 51.26 51.04 50.57 50.25 50.35 50.22 50.41 50.55 51.37 51.95
53.17 51.37 50.95 50.87 50.16 49.68 48.53 47.19 46.25 43.97 42.83 42.50 40.51 40.46 40.74 40.35 40.28 39.96 40.50 42.01 45.22 46.22 48.95 49.50 49.14 48.80 48.80 49.57 50.19 50.67 51.11 50.70 51.15 51.21 50.78 50.43 49.72 49.45 49.29 49.29 49.23 49.87 50.66
52.98 50.82 50.39 49.57 48.58 47.31 46.62 47.02 44.64 43.16 41.21 41.16 41.95 39.93 38.96 38.40 38.34 40.49 39.25 39.24 40.63 40.33 39.85 45.69 47.64 48.01 48.66 47.74 48.19 48.87 49.50 49.92 50.03 49.70 49.22 48.96 48.58 48.20 47.75 47.89 48.13 48.19 48.92
52.22 50.72 49.24 47.59 45.91 44.58 43.69 43.27 41.85 41.56 41.22 40.29 42.57 40.19 37.85 37.67 37.34 36.67 37.50 39.51 38.20 38.01 37.98 38.11 38.04 40.31 46.94 46.55 45.91 46.87 48.07 48.68 49.15 49.09 48.71 47.84 47.31 47.12 46.56 46.91 47.15 47.58 47.54
51.25 48.81 47.17 45.67 44.89 44.32 42.89 42.68 41.76 40.79 39.40 38.68 37.59 37.72 37.00 37.09 36.11 35.83 36.09 35.58 36.77 37.06 36.73 36.62 36.56 36.34 37.78 44.26 44.99 45.64 46.43 46.97 47.48 47.37 47.22 46.97 46.74 46.15 45.87 45.99 46.48 46.95 47.11
49.25 47.43 45.72 44.62 44.39 43.57 42.85 41.90 41.14 40.16 39.94 38.74 36.53 34.73 32.13 34.89 36.27 36.37 34.85 35.95 33.73 35.12 36.16 36.99 35.87 36.00 34.86 34.85 39.66 43.66 44.03 44.76 45.70 46.13 46.38 46.21 45.96 45.76 45.77 46.10 46.33 46.40 46.74
48.88 47.19 45.54 44.52 43.59 43.31 42.11 41.25 40.48 40.19 38.05 38.29 38.50 37.24 31.80 29.75 32.01 34.34 34.17 33.77 33.48 33.23 33.64 34.63 35.28 35.55 35.17 34.14 36.74 38.34 42.58 42.75 43.01 44.27 44.67 44.63 44.78 45.10 45.35 45.50 45.92 46.21 46.28
48.01 46.50 45.29 44.41 43.21 42.24 40.85 41.47 41.19 39.07 38.17 37.17 37.30 39.22 35.65 34.46 31.19 29.71 31.80 33.01 33.48 34.45 33.23 33.04 33.44 34.08 34.76 33.97 37.61 39.78 41.40 43.51 42.11 42.71 43.62 44.02 44.22 44.73 44.95 44.99 45.16 45.56 45.94
45.44 45.02 43.17 41.59 41.88 41.21 41.86 40.63 38.78 38.46 38.32 36.85 36.02 35.52 34.94 33.93 32.70 30.94 29.19 29.91 31.69 33.22 33.29 33.00 32.88 32.89 33.95 33.71 33.28 35.77 41.46 42.14 41.44 41.83 42.61 43.07 43.27 43.72 44.06 44.09 44.02 44.62 45.09
41.94 41.91 41.54 42.19 42.06 41.94 41.62 38.69 38.28 38.62 38.30 37.32 36.83 36.39 35.46 34.34 32.84 31.41 28.60 28.40 28.11 31.46 32.86 33.05 32.46 32.86 32.64 32.60 36.73 39.61 39.55 38.59 38.54 39.14 39.97 40.67 41.47 42.43 42.97 43.18 43.58 43.70 44.09
40.60 40.76 41.34 42.11 42.15 40.94 40.27 39.84 37.63 37.45 38.63 37.48 37.05 36.33 36.11 36.12 35.67 33.69 31.59 30.63 31.15 33.91 33.34 32.29 33.24 32.21 33.02 30.81 32.27 37.19 37.20 36.62 36.68 37.37 38.13 39.11 39.70 40.29 40.63 41.02 41.60 42.32 42.80
42.42 42.56 42.30 42.01 42.15 41.29 40.61 39.77 38.78 38.87 37.14 36.32 35.85 35.35 35.60 35.60 36.00 35.66 34.62 34.41 31.87 33.33 31.42 32.08 32.66 29.83 29.31 29.38 32.23 35.65 30.73 34.28 34.73 35.75 36.66 37.16 37.36 37.74 38.23 38.82 39.62 40.36 41.22
42.89 42.15 42.34 41.58 41.44 41.08 40.33 39.28 38.97 36.60 36.64 36.24 35.44 35.56 36.08 36.76 37.47 38.12 38.54 37.78 34.10 29.57 28.00 28.50 26.76 27.54 28.21 28.66 29.09 29.04 27.95 32.30 34.03 34.24 34.79 35.33 36.19 36.80 37.18 37.87 38.23 38.99 39.94
43.17 42.86 41.71 41.39 41.08 40.58 39.81 37.73 36.61 36.74 36.55 36.02 36.27 35.28 35.12 35.78 35.96 36.52 35.93 34.63 34.92 31.36 24.08 25.70 24.75 25.68 26.01 28.28 28.62 27.42 27.10 32.55 32.31 33.28 33.65 34.33 35.06 35.66 36.19 36.85 36.84 37.57 38.11
42.70 41.79 41.93 41.24 40.82 39.51 36.90 36.02 36.47 36.17 36.28 35.21 35.41 34.81 34.59 34.72 34.49 34.36 31.52 29.76 27.01 25.52 22.90 24.58 24.61 24.20 23.09 23.20 25.10 25.34 27.20 26.65 27.51 32.09 32.98 33.36 33.77 34.13 34.15 34.71 35.32 36.32 36.77
40.85 42.40 42.96 41.48 39.66 38.35 36.71 35.90 35.46 35.76 34.95 33.43 33.52 33.58 34.27 35.64 32.74 29.79 27.47 26.08 25.26 24.68 23.27 21.00 21.48 22.14 22.40 23.24 23.58 23.48 26.78 28.97 26.98 30.77 31.87 31.89 31.82 32.11 32.53 33.15 34.04 35.41 35.49
42.40 41.32 40.49 39.34 38.86 37.59 36.07 36.26 35.29 34.93 34.20 33.90 33.94 33.32 33.01 31.35 29.84 27.09 26.23 24.99 24.15 25.86 22.73 21.13 21.06 22.00 21.97 22.31 23.13 24.13 24.82 25.55 28.07 30.51 30.16 30.34 30.87 31.50 32.38 32.92 34.02 34.20 34.02
41.12 39.87 40.31 39.57 39.06 38.06 38.18 37.75 35.97 34.30 33.64 34.11 33.86 31.97 31.01 29.85 28.33 26.45 25.66 24.29 23.57 21.96 21.72 20.95 20.86 21.13 21.21 22.71 22.51 21.99 22.54 24.36 23.81 26.38 28.10 28.66 30.01 31.12 32.03 32.27 32.61 33.40 33.85
40.20 40.18 39.50 39.09 38.60 39.01 38.62 37.17 35.55 34.04 32.73 31.77 31.48 30.47 29.81 29.91 32.00 28.59 25.27 22.94 22.17 21.25 20.71 20.14 19.53 19.73 20.22 19.83 20.26 21.41 20.85 21.52 22.57 24.15 23.97 24.46 26.37 26.56 27.12 29.57 30.96 32.35 32.89
38.83 39.22 39.23 38.64 37.89 37.84 36.92 36.93 35.39 31.97 31.43 30.58 29.02 28.28 28.26 31.37 31.92 33.92 31.87 29.59 25.27 21.67 19.65 16.96 18.20 18.07 18.32 19.51 19.73 19.29 19.75 19.62 19.22 23.49 23.12 23.80 26.32 25.34 27.04 27.53 30.44 32.04 33.08
38.67 38.73 38.07 36.38 35.23 35.00 36.27 36.76 35.61 31.02 29.54 28.87 27.43 27.27 27.64 28.65 29.54 27.85 30.68 29.55 27.70 27.04 24.42 20.18 18.05 18.59 18.41 19.64 20.16 20.49 21.32 22.22 22.07 24.35 23.88 22.94 24.85 23.70 27.09 28.69 31.35 32.55 33.42
38.01 35.25 34.33 34.25 33.56 33.83 35.51 35.58 34.44 28.57 27.95 28.11 26.97 27.25 26.34 26.63 27.00 25.71 23.96 23.14 22.97 23.26 23.11 22.70 20.82 20.82 20.95 21.90 22.45 23.76 24.64 24.61 23.92 23.98 23.79 20.53 23.79 23.86 26.55 27.29 30.71 32.24 33.22
34.38 33.60 33.43 32.49 31.83 31.68 34.66 34.76 32.38 27.08 26.76 26.67 28.37 28.86 27.48 26.19 28.41 30.07 24.34 23.09 22.59 22.97 25.43 26.46 26.92 27.30 27.25 27.03 26.08 21.19 20.53 20.82 18.44 20.34 23.20 22.75 22.49 23.44 25.22 26.09 27.70 31.15 33.20
34.02 32.45 31.97 31.77 32.80 31.12 33.28 34.60 33.12 25.92 25.89 27.00 26.78 27.84 30.88 28.09 28.41 29.37 23.76 21.61 19.56 21.43 21.33 21.34 22.39 23.38 24.10 23.96 25.62 23.31 21.80 19.45 19.38 18.04 23.53 20.51 22.36 24.86 22.63 22.90 23.35 25.25 26.04

GFSMA_sfc_wetblb_042.txt.gz
Wetbulb
56.59 55.99 53.88 52.29 50.88 50.50 50.33 49.93 49.09 47.65 46.61 46.13 45.18 44.50 43.52 42.86 42.79 42.67 43.20 51.67 55.10 55.55 55.57 57.09 55.74 54.61 54.02 53.39 53.17 53.17 53.24 53.30 54.18 53.85 53.13 52.60 52.49 52.23 51.92 52.03 52.06 52.38 52.91
55.28 52.60 51.09 50.25 50.04 50.21 49.45 48.39 46.85 45.55 44.10 44.26 43.96 43.24 42.22 41.45 41.46 42.00 43.08 47.36 56.92 57.72 57.04 55.09 53.87 53.52 53.01 52.42 51.53 52.10 52.07 52.59 52.39 52.28 52.06 51.57 50.75 50.55 50.68 50.66 50.61 50.87 51.68
53.11 51.16 49.83 49.33 49.55 49.20 48.19 47.00 45.21 44.30 43.33 43.30 42.45 41.81 41.28 40.85 40.87 41.88 43.18 46.82 48.51 53.29 53.42 53.36 53.39 52.79 52.51 52.95 52.53 52.04 52.11 51.25 51.45 51.39 51.16 51.11 50.48 49.60 49.36 49.36 49.69 49.57 49.85
51.78 50.44 50.04 49.22 49.32 48.80 47.84 46.26 44.31 42.75 42.24 41.52 40.52 39.95 39.83 40.19 40.04 40.50 41.41 43.20 43.53 42.57 46.06 49.40 49.75 49.54 48.86 49.11 49.36 49.72 50.22 50.46 50.35 49.87 50.06 49.84 49.49 48.87 48.47 48.21 48.34 48.58 48.74
52.04 50.84 50.16 49.53 48.75 47.52 46.45 45.96 43.37 42.66 41.03 41.16 40.99 39.31 38.83 38.14 38.82 40.35 39.39 39.77 40.78 40.07 40.09 45.88 47.70 48.72 48.02 47.67 47.95 48.20 48.73 49.30 49.46 49.74 49.53 49.43 48.57 47.91 47.39 47.07 47.07 47.40 47.86
51.45 50.60 49.09 47.67 46.32 44.55 43.70 42.49 41.74 41.64 40.77 40.48 42.00 39.47 38.28 37.84 37.46 37.74 38.05 39.42 38.62 38.51 38.93 39.80 40.08 41.72 46.58 47.02 46.96 47.53 47.86 48.50 48.76 48.57 48.29 48.21 47.83 47.43 46.84 46.69 46.35 46.79 47.27
50.64 49.12 47.15 45.21 44.64 43.28 42.14 42.14 41.21 40.64 39.36 38.80 37.92 37.69 37.18 37.32 37.30 36.59 37.57 36.80 37.54 37.63 38.13 37.85 37.85 37.57 38.02 43.52 44.67 45.17 46.15 46.61 46.88 47.32 47.32 47.55 47.47 47.36 47.01 46.60 46.62 46.85 46.77
49.72 47.74 45.56 44.20 43.79 42.75 42.08 41.68 41.06 40.04 39.22 38.51 36.66 34.94 32.73 35.25 37.18 37.24 35.74 36.91 35.87 36.26 37.64 38.53 37.76 37.91 37.26 36.71 39.99 43.27 43.73 44.04 45.00 45.62 45.52 45.81 46.01 46.09 46.14 46.38 46.49 46.48 46.46
48.16 46.63 45.01 43.85 43.06 42.62 41.72 40.70 40.08 39.35 37.70 38.35 38.58 36.30 32.23 30.75 32.64 35.53 35.06 35.14 35.12 35.26 35.35 35.77 36.87 37.19 37.36 36.32 37.85 38.79 42.00 42.81 43.20 44.11 44.50 44.75 45.38 45.59 45.52 45.88 46.38 46.12 46.04
47.25 45.55 44.43 43.64 42.72 42.05 40.85 40.44 40.88 39.58 38.40 36.97 37.36 38.77 36.21 35.76 33.07 31.40 34.02 34.38 34.85 35.42 34.96 35.03 35.94 35.70 35.95 35.70 37.43 38.75 40.44 42.22 42.31 42.81 43.64 43.95 44.41 44.94 45.05 45.01 45.30 45.58 45.37
45.63 44.91 43.91 41.17 40.37 40.12 39.55 39.76 39.49 39.86 38.58 37.53 36.57 36.12 35.59 34.58 33.48 32.13 29.90 32.01 33.61 35.36 35.53 34.92 34.95 34.74 35.42 35.31 35.00 37.71 40.63 39.64 39.64 40.67 41.54 42.46 42.74 43.24 43.68 44.20 44.43 44.74 45.03
42.57 42.08 41.47 40.51 39.93 40.26 40.58 40.14 41.01 39.64 38.08 38.01 37.08 36.66 36.49 34.75 33.71 32.57 30.23 30.23 29.52 32.12 34.54 35.79 34.91 35.44 34.56 33.90 36.17 38.14 38.20 37.73 37.87 38.81 39.69 40.65 41.46 42.19 42.74 43.18 43.75 44.05 44.26
40.04 39.89 40.38 39.49 39.72 40.48 41.25 40.95 39.61 39.23 37.39 37.10 36.89 36.31 36.57 36.39 37.02 35.09 32.75 32.26 30.45 32.87 34.61 36.41 34.36 33.29 33.84 32.86 33.00 35.68 36.12 35.06 35.81 36.54 37.62 38.37 39.42 40.09 40.80 41.10 41.56 42.08 42.48
40.80 40.63 41.42 42.14 41.24 42.21 41.88 40.36 39.23 39.55 38.38 36.89 35.95 35.50 36.20 36.38 36.23 35.80 34.52 33.88 31.39 33.03 32.77 32.73 33.47 31.35 31.51 31.34 32.15 33.96 30.67 32.81 33.39 34.30 35.55 36.27 36.69 37.35 37.94 38.65 39.43 40.15 41.11
42.83 42.30 42.69 42.82 43.10 41.74 40.98 39.94 39.62 39.31 37.86 36.21 36.02 35.07 34.51 35.29 36.51 36.90 36.78 38.02 33.29 29.00 28.24 30.81 30.16 30.05 29.74 29.77 29.95 30.63 28.80 31.13 33.13 33.76 33.85 34.61 35.40 36.09 36.65 37.52 38.15 38.85 39.67
43.27 41.93 42.29 43.50 41.63 41.04 40.56 39.35 38.50 37.72 35.87 36.43 35.79 34.52 34.36 35.27 35.42 35.65 35.15 35.26 34.89 31.67 26.93 28.82 27.75 28.04 28.40 28.83 29.23 29.19 28.06 31.93 31.50 32.26 33.08 33.35 34.04 34.63 35.06 35.84 36.35 36.62 37.29
41.98 41.09 41.43 41.29 40.74 40.22 39.27 38.40 37.58 36.55 36.41 35.59 35.52 34.15 33.96 34.36 33.87 33.78 33.68 32.44 31.11 30.16 26.17 26.13 26.61 26.59 25.48 25.76 26.58 26.54 27.60 27.47 28.33 31.38 32.14 32.54 32.82 33.07 33.28 33.52 33.83 34.71 35.34
41.62 41.58 41.40 40.75 40.55 39.48 39.19 36.98 35.82 37.42 35.43 33.99 33.49 33.90 33.86 35.48 33.07 32.63 30.77 28.59 26.59 25.95 24.35 22.33 23.53 24.04 24.07 25.20 25.04 24.52 26.39 28.26 28.24 30.13 31.29 31.70 31.56 31.73 32.19 32.59 32.74 33.24 33.99
41.77 41.93 41.32 41.03 40.76 40.64 37.65 36.68 36.97 35.89 34.95 34.21 33.43 32.66 32.77 32.38 30.21 29.04 27.51 26.30 25.45 26.40 24.40 22.71 22.23 23.83 23.99 24.24 24.12 25.15 25.49 26.42 27.82 29.92 29.92 30.11 30.78 31.51 32.08 32.65 33.02 33.55 33.83
41.01 40.69 41.09 40.32 39.64 38.67 38.15 37.78 36.68 35.77 34.08 33.78 33.23 33.11 33.08 31.13 29.49 28.46 27.18 25.73 25.02 23.49 22.83 22.13 22.03 22.28 22.18 23.48 23.53 22.43 22.36 24.38 24.14 26.45 27.92 28.71 30.14 30.85 31.34 31.54 32.07 32.79 33.32
39.60 39.84 40.08 40.68 40.97 39.52 38.56 38.35 37.16 35.05 33.22 32.31 32.60 32.23 30.95 30.84 32.82 30.13 26.68 25.04 23.64 22.30 22.11 21.68 20.89 20.86 20.40 20.18 19.79 22.37 20.64 22.11 23.54 25.31 25.35 26.29 27.86 28.14 28.61 30.05 30.71 31.67 32.16
40.77 41.04 40.68 40.15 39.69 40.05 38.29 37.28 36.00 33.28 32.60 31.55 30.74 29.41 29.39 32.53 32.94 34.18 33.28 30.96 26.01 22.85 21.75 19.69 19.97 19.05 18.71 19.71 21.57 20.20 20.28 20.08 18.98 26.28 25.10 24.87 27.55 26.62 28.19 29.44 30.36 31.63 32.60
40.42 40.25 39.51 39.32 37.74 35.66 35.58 36.53 36.18 33.14 30.95 30.15 29.11 28.95 28.41 29.15 30.49 28.18 31.69 32.26 30.28 29.07 24.70 22.71 19.88 19.38 18.97 20.93 21.31 20.56 21.57 21.88 21.90 24.81 24.88 22.63 26.04 24.65 27.65 28.65 30.52 31.52 32.33
39.46 38.74 36.51 34.69 33.52 33.45 34.97 35.64 34.75 31.81 29.36 29.15 28.42 27.96 27.73 27.90 28.79 27.66 26.65 25.97 25.26 24.74 24.85 24.37 22.33 21.15 21.72 22.97 22.90 23.29 23.21 22.89 23.79 24.51 25.16 19.87 24.86 24.57 27.11 27.92 30.32 31.56 32.22
36.89 35.65 33.88 32.49 31.46 31.59 33.97 34.66 33.65 29.43 27.76 27.64 27.79 28.02 28.04 28.66 29.90 31.09 25.62 24.18 23.59 23.86 26.99 28.43 27.42 26.94 27.43 27.63 27.03 23.63 20.54 19.93 18.07 19.83 23.67 22.13 24.25 23.48 25.93 27.27 29.55 31.15 32.57
33.89 32.96 31.81 31.34 32.15 30.99 33.03 34.45 33.92 27.89 26.98 27.42 26.97 28.57 31.48 29.11 29.93 30.70 27.19 23.85 21.58 22.77 23.46 22.33 22.69 23.95 25.63 24.75 26.03 24.06 22.44 19.00 18.88 17.50 24.40 21.18 22.02 23.42 21.81 27.30 27.57 30.24 30.93

GFSMA_sfc_wetblb_045.txt.gz
Wetbulb
60.89 60.55 59.10 58.92 57.54 57.38 56.89 55.36 54.79 53.89 53.21 52.47 51.56 51.00 50.47 50.44 50.73 51.84 53.63 55.80 55.53 55.80 57.55 57.77 56.21 55.32 54.15 53.26 52.93 52.53 52.95 53.53 52.37 52.93 52.44 51.75 51.23 51.40 51.26 51.16 51.04 50.98 51.59
62.32 60.14 57.78 56.59 56.61 56.95 56.24 54.92 54.21 53.47 51.97 51.51 50.38 50.06 49.34 49.74 50.30 52.25 55.23 56.06 56.67 57.80 57.44 55.66 55.07 53.80 53.36 52.57 51.75 52.95 52.59 52.43 52.00 52.18 51.83 51.65 51.08 50.39 50.12 49.96 49.72 50.00 50.22
60.75 58.85 56.71 56.16 56.23 55.93 54.85 53.77 52.55 52.48 51.32 50.35 49.12 48.90 48.79 49.09 50.16 52.49 54.11 54.38 54.23 52.93 53.36 54.07 53.90 52.95 52.55 52.60 51.19 50.87 51.19 51.51 51.26 50.80 51.10 50.89 50.86 50.14 49.50 48.90 48.45 48.92 49.22
58.63 57.14 56.03 55.96 55.74 55.16 54.44 51.96 52.49 50.85 50.35 50.56 49.46 48.97 48.94 48.63 49.15 51.17 52.42 52.02 50.59 50.85 50.58 50.06 49.90 49.56 49.01 48.95 49.22 49.70 50.17 50.32 50.38 50.63 50.39 50.17 49.52 49.09 48.60 48.00 47.68 47.94 48.56
57.28 56.98 56.36 55.85 55.97 54.49 52.83 52.84 51.18 51.08 49.86 49.49 48.61 48.76 49.00 48.18 47.73 47.51 47.82 48.42 48.18 48.55 49.38 47.40 47.92 48.12 47.87 47.48 47.56 48.03 48.69 49.22 49.43 49.79 49.51 49.24 49.22 48.70 48.22 47.73 47.37 47.34 47.21
57.24 57.05 56.34 55.60 53.55 51.26 51.64 51.10 50.50 50.43 50.02 50.22 47.65 48.10 48.74 47.18 47.42 47.21 46.61 46.53 47.59 47.27 47.90 47.80 48.42 47.70 45.89 46.07 46.42 47.03 47.36 48.07 48.29 48.19 48.19 48.13 48.32 48.26 48.30 47.81 47.68 47.40 47.69
56.96 56.46 55.08 53.63 52.74 52.19 51.19 51.10 50.08 49.51 48.90 49.41 48.45 47.29 47.38 45.64 45.97 46.69 46.18 46.70 46.32 45.74 46.43 46.54 46.17 46.15 45.86 42.64 43.59 44.99 46.03 46.63 46.59 46.88 47.08 46.83 46.80 46.95 47.14 47.04 47.18 47.27 47.38
56.16 54.42 53.47 52.37 52.15 50.83 50.63 50.49 50.57 48.88 49.11 48.88 46.43 44.94 42.25 43.06 44.82 45.97 45.57 45.20 45.66 45.61 45.06 44.99 45.12 44.85 44.85 44.91 43.58 43.62 44.16 45.00 45.60 45.90 45.85 45.83 46.10 46.34 46.77 46.81 46.77 46.83 47.41
54.25 52.64 52.57 52.22 51.63 51.36 50.13 50.17 49.89 48.36 46.40 47.16 46.43 44.26 41.02 40.09 43.08 45.26 44.47 44.71 45.19 44.82 45.33 45.78 44.48 43.65 43.32 43.85 42.79 42.50 41.79 42.48 44.06 45.02 45.02 45.28 45.64 46.02 46.23 46.34 46.63 46.77 46.52
53.06 51.13 51.37 51.82 51.05 50.69 49.76 49.35 48.51 48.17 47.03 44.13 45.62 45.19 45.63 44.99 40.85 39.39 43.77 44.22 45.22 44.20 45.17 45.42 44.24 43.61 42.71 43.14 40.88 39.45 41.08 41.01 41.16 42.62 43.71 43.95 44.31 44.51 44.94 45.14 45.47 45.81 45.91
52.11 50.45 50.87 50.72 50.39 49.97 48.95 48.32 47.18 46.64 44.30 42.80 44.28 44.85 44.62 44.50 44.03 40.69 37.47 40.29 42.55 43.35 43.95 44.07 44.45 43.62 42.39 40.96 41.63 40.69 39.41 38.90 38.85 40.15 41.41 42.30 43.00 43.32 43.78 44.04 44.39 44.87 45.22
51.51 50.46 50.33 50.12 49.23 47.78 47.14 46.87 47.17 45.48 44.34 44.52 45.42 45.40 44.05 42.19 41.63 40.52 38.42 38.64 38.27 40.10 42.04 42.99 43.53 43.20 42.46 41.17 37.59 36.78 37.08 36.92 36.44 37.60 38.75 39.76 40.72 41.55 42.35 42.92 43.55 43.99 44.27
49.97 49.57 49.18 47.74 46.88 46.91 45.83 45.77 43.63 43.20 43.88 43.31 44.19 44.50 45.03 44.17 43.84 41.73 39.38 37.90 36.71 38.82 39.95 42.14 42.72 41.87 40.42 41.63 38.08 35.47 36.09 34.40 34.46 35.27 36.28 37.12 38.23 38.96 39.65 40.44 41.16 41.80 42.24
50.63 49.56 47.63 46.55 45.97 45.07 44.84 43.86 43.48 43.23 44.92 45.23 44.74 44.66 44.46 44.03 43.47 42.09 39.86 37.85 35.31 36.02 37.83 38.09 41.71 41.18 40.00 39.37 35.86 34.84 36.21 33.49 33.12 33.92 35.07 35.68 36.28 36.91 37.56 38.20 39.08 39.93 40.62
47.68 47.82 46.41 46.55 46.95 44.49 45.23 43.10 43.42 44.19 44.69 44.72 45.18 44.95 43.42 43.41 43.05 42.70 41.65 40.97 37.45 31.79 33.35 37.35 36.85 39.81 39.28 38.19 36.39 36.29 35.80 33.75 32.85 33.42 33.44 34.04 35.07 35.63 36.04 36.70 37.27 37.79 38.48
47.83 46.53 46.25 46.37 45.45 45.38 44.10 42.71 43.94 43.96 44.00 43.67 43.45 43.21 42.53 42.44 42.57 42.64 42.02 41.02 39.62 35.51 32.24 36.82 36.93 37.62 37.34 35.70 35.33 35.05 34.37 32.23 32.29 31.86 32.33 33.01 33.64 34.28 34.83 35.11 35.52 36.12 36.56
47.41 45.91 45.87 45.72 44.89 42.52 42.75 41.46 42.04 43.06 42.24 43.27 42.83 42.29 41.84 42.17 41.34 41.24 41.28 40.52 38.99 37.71 33.76 35.89 36.27 36.32 34.82 34.23 34.45 34.44 33.15 32.80 33.55 32.14 31.81 32.06 32.51 32.92 32.91 33.08 33.49 34.06 34.67
46.25 45.39 45.12 43.63 42.37 42.25 43.00 41.97 41.86 40.05 42.08 41.90 41.81 41.75 41.19 40.57 40.79 41.08 40.44 39.41 38.52 38.21 35.06 32.35 34.89 33.42 32.65 33.79 33.29 31.82 31.17 31.84 32.62 31.68 31.04 31.54 31.81 31.61 32.12 32.63 33.05 33.61 34.12
46.07 43.85 43.30 42.06 41.81 42.17 43.25 41.26 42.17 42.95 42.14 41.76 41.89 41.18 41.13 40.70 39.82 40.22 39.55 38.34 37.60 35.75 35.02 32.46 31.80 33.49 32.35 32.75 31.48 31.28 30.62 31.56 31.50 30.91 30.58 30.63 30.96 31.67 31.96 32.30 32.67 33.12 33.60
44.19 43.69 43.58 43.18 42.60 41.00 42.56 42.38 42.00 41.21 41.15 40.97 41.11 40.80 40.58 39.91 39.72 39.98 38.64 37.55 36.09 34.56 33.59 31.83 31.40 31.19 31.42 31.85 30.33 27.88 28.20 30.46 29.77 30.82 30.96 30.45 30.65 31.33 31.73 31.68 31.83 32.38 33.13
41.91 42.40 41.46 42.37 42.44 42.05 41.17 40.67 41.59 41.92 42.11 41.11 40.73 39.85 40.07 40.03 38.66 38.39 36.78 36.86 35.07 33.44 32.40 31.27 30.31 30.37 29.55 29.36 27.42 28.01 26.91 28.26 29.58 31.02 30.62 31.21 31.52 32.20 32.72 32.24 32.48 32.43 32.51
42.02 43.04 41.82 41.19 41.21 41.10 39.33 39.10 39.22 41.25 39.86 39.07 39.18 39.61 39.57 36.15 36.17 35.00 34.53 33.37 33.83 33.31 31.47 30.77 30.11 28.63 28.68 29.01 27.66 26.96 26.40 25.26 24.02 31.72 29.16 28.49 31.24 30.54 32.11 33.45 32.08 31.49 32.00
42.34 41.72 41.66 41.51 40.42 41.21 38.34 37.48 36.23 38.93 39.11 39.24 38.90 38.94 38.21 35.84 34.39 36.00 33.79 33.61 33.15 30.97 29.24 32.30 29.55 29.35 28.60 28.54 27.57 26.34 26.52 26.05 25.61 28.66 28.23 26.23 29.98 29.01 32.15 32.48 31.65 31.64 32.28
40.81 40.83 40.71 41.13 41.52 40.03 35.74 35.50 34.95 38.65 38.40 38.23 37.91 38.06 37.94 37.15 34.36 33.96 33.57 33.37 33.63 33.83 32.46 30.67 31.12 30.90 30.57 29.06 28.45 28.05 27.41 27.14 27.76 28.76 29.31 23.54 28.76 28.47 31.14 32.06 32.07 32.45 32.74
40.77 41.78 40.98 39.99 38.81 38.40 34.99 34.60 35.11 37.80 36.96 36.76 37.53 36.92 36.54 36.01 33.94 32.33 33.56 31.91 31.66 31.80 31.31 29.90 29.52 29.39 27.96 27.28 28.63 28.69 26.41 24.97 23.68 25.41 28.61 26.26 27.43 26.83 29.01 30.38 33.48 32.07 31.82
38.95 38.60 37.78 38.38 36.56 37.30 35.88 34.57 35.03 36.99 35.79 36.03 36.94 36.03 32.44 34.03 32.56 32.37 33.78 31.84 29.65 30.82 30.95 29.84 29.82 29.30 28.68 29.30 27.77 28.42 27.85 24.25 24.03 22.99 28.51 24.48 24.96 25.78 23.66 29.78 31.65 32.14 33.35

GFSMA_sfc_wetblb_048.txt.gz
Wetbulb
63.34 63.46 63.79 63.22 62.57 62.47 61.58 60.50 59.33 58.42 57.87 56.86 56.22 55.31 53.88 53.70 53.66 54.39 56.35 57.40 55.98 56.51 59.30 57.91 56.42 55.32 54.06 53.24 52.62 52.39 53.08 52.92 52.46 52.49 51.88 51.53 51.28 51.09 50.61 50.47 50.04 50.34 50.76
63.84 63.69 63.35 62.98 62.27 62.12 60.79 60.14 59.06 58.34 57.53 56.69 55.15 53.72 52.99 53.04 53.31 54.71 55.89 56.81 55.72 57.43 57.58 56.04 55.21 54.15 53.74 52.74 52.37 53.13 52.47 51.76 51.80 51.81 51.66 51.34 51.44 50.76 50.15 49.46 48.98 49.29 49.73
65.04 64.20 63.14 62.03 61.96 61.61 60.87 59.47 58.31 58.02 56.82 55.49 53.51 53.26 53.19 53.66 53.86 54.91 56.43 56.53 55.62 53.23 53.65 54.22 54.36 53.05 52.76 52.76 51.67 51.53 51.40 51.39 51.65 51.61 51.60 51.20 51.11 50.13 49.40 48.80 48.01 48.11 48.41
65.71 64.36 62.53 61.78 61.13 60.28 59.64 58.53 57.29 57.15 56.24 55.13 54.33 53.95 54.08 53.52 53.01 53.97 55.59 55.16 55.72 55.19 51.44 50.51 50.13 49.83 49.26 49.30 49.99 50.76 50.92 50.68 50.57 50.76 50.79 50.69 50.72 50.41 49.65 48.92 48.50 48.26 48.13
64.17 63.66 62.28 61.39 60.93 59.73 58.89 57.47 57.30 56.78 54.61 53.48 52.81 54.03 54.07 53.26 52.73 51.53 52.73 53.32 53.37 53.08 51.50 48.52 47.70 47.47 47.35 47.52 47.90 48.79 49.57 49.92 50.13 50.14 49.96 49.50 49.42 49.35 49.37 49.16 48.90 48.39 48.27
62.97 62.57 61.74 60.59 60.56 59.29 58.00 56.67 56.35 55.26 54.95 54.51 50.80 51.90 53.29 52.11 51.72 51.13 50.39 50.15 51.14 50.36 49.99 49.72 49.89 49.38 45.93 45.72 46.53 47.30 48.21 48.76 49.09 48.88 48.56 48.39 48.13 48.03 48.24 48.41 48.50 48.27 48.29
62.24 62.11 61.26 60.69 59.76 57.71 57.89 57.04 55.17 53.54 52.52 54.06 52.51 52.20 52.29 50.87 49.86 50.00 50.21 49.78 49.43 49.46 49.09 48.70 48.87 48.78 48.92 45.02 44.69 45.02 46.57 47.62 48.11 47.81 47.58 47.42 47.24 47.24 47.48 47.59 47.93 47.88 47.81
62.49 62.04 61.44 59.19 58.53 58.19 56.90 55.59 54.65 53.16 53.75 53.56 52.03 50.00 47.56 48.32 48.76 49.47 49.76 48.86 49.43 49.42 47.82 48.09 48.66 48.62 48.17 47.73 46.96 43.14 44.13 45.20 46.18 46.78 46.77 46.60 46.50 46.73 47.14 47.35 47.55 47.83 47.59
60.23 61.30 59.28 57.12 57.17 57.64 55.75 55.50 54.91 53.39 51.60 51.64 50.34 49.61 46.74 46.12 47.88 49.41 49.08 48.98 48.56 48.24 48.51 48.40 48.61 47.84 47.45 47.19 46.59 45.93 41.64 41.89 43.52 44.93 45.68 45.63 45.78 46.03 46.12 46.33 46.63 47.00 47.14
60.25 59.51 58.04 56.21 56.72 56.85 56.13 55.08 54.20 53.04 51.79 50.39 50.25 49.43 49.50 47.78 44.95 44.47 47.80 47.71 48.35 47.61 48.00 47.80 47.34 47.45 47.43 46.71 44.89 40.82 41.21 40.47 40.45 41.97 43.35 43.94 44.60 44.97 45.31 45.32 45.50 45.77 46.10
59.74 58.05 56.80 55.61 55.66 55.22 55.98 54.64 52.69 52.09 52.08 51.39 47.74 48.58 47.62 48.24 47.52 43.89 41.50 44.36 46.76 47.18 46.65 46.10 46.47 46.64 46.71 46.14 45.58 43.32 38.30 38.28 38.53 39.39 40.40 41.43 42.46 43.22 43.52 43.94 44.51 45.00 45.28
57.62 56.78 55.89 56.23 55.03 55.47 54.79 53.08 52.86 52.64 49.69 46.75 46.36 48.17 47.62 46.00 44.84 44.43 42.65 43.10 42.59 44.16 45.29 45.64 45.86 46.18 46.27 45.31 41.68 36.53 37.19 37.00 36.48 36.96 37.94 38.53 39.67 40.67 41.45 42.07 42.73 43.30 43.75
53.65 53.70 54.70 55.32 54.90 55.12 53.57 52.56 49.79 49.72 48.07 47.22 48.21 47.96 47.56 46.51 46.65 45.12 43.09 41.98 40.90 42.70 43.41 45.29 45.41 45.39 44.64 44.63 44.17 35.62 38.34 37.23 35.26 35.71 36.25 36.87 37.77 38.59 39.33 40.10 40.79 41.60 42.09
53.66 54.82 54.10 53.94 54.33 52.24 50.08 47.00 47.31 49.09 48.17 48.13 47.11 46.92 47.13 47.15 46.79 45.41 43.18 41.20 39.07 40.39 41.58 41.50 44.38 44.38 44.30 43.31 41.35 35.26 39.75 38.73 36.21 34.76 34.96 35.65 35.94 36.40 37.31 38.13 38.81 39.30 40.20
54.33 54.91 53.32 52.26 49.64 50.44 48.62 46.52 47.26 44.48 44.86 46.91 47.10 46.78 46.85 47.14 46.49 45.66 44.92 43.72 40.71 36.95 37.44 40.77 40.33 43.47 43.11 42.90 41.66 40.46 39.50 38.42 35.28 34.29 33.93 33.97 34.71 35.56 36.11 36.47 37.10 37.61 38.32
54.81 53.18 50.71 50.45 49.43 47.31 46.25 46.26 43.97 44.53 45.16 45.85 44.93 45.58 46.69 46.37 45.73 45.59 44.66 44.18 43.01 40.12 36.74 40.63 40.82 42.19 42.31 40.93 40.80 39.29 38.82 36.61 36.14 35.28 33.66 33.26 33.74 34.23 34.49 34.86 35.27 35.65 35.99
55.25 50.62 51.62 50.79 47.93 45.75 44.62 42.56 43.55 43.66 43.26 43.63 44.29 44.66 44.73 46.03 44.70 44.69 44.73 43.87 42.57 41.65 37.98 40.00 41.42 41.97 40.53 39.28 39.21 39.52 38.74 37.73 36.96 35.79 34.22 33.21 32.71 32.74 33.13 33.36 33.42 33.98 34.56
51.44 50.42 48.71 45.76 46.36 43.39 43.02 42.68 42.92 41.99 42.19 42.23 44.14 44.44 44.14 44.10 44.42 44.60 43.96 41.80 41.11 42.12 39.73 37.32 39.44 39.35 39.54 39.55 38.65 37.28 36.73 36.24 36.22 35.87 33.85 32.57 32.19 32.04 32.08 32.42 33.05 33.40 33.80
48.61 46.02 45.91 46.53 44.01 43.25 42.02 42.63 43.20 43.47 42.86 44.19 43.82 43.68 43.83 43.87 43.47 43.74 42.90 41.42 41.90 41.16 39.93 38.04 37.03 39.12 38.84 38.85 37.19 37.19 36.13 35.74 35.85 35.16 34.57 33.98 32.54 32.49 32.51 32.53 32.76 33.01 33.14
46.23 45.57 44.50 43.35 42.97 42.49 43.44 43.31 43.48 42.95 43.58 43.62 43.22 43.08 43.97 43.90 43.21 43.09 42.35 41.32 40.60 39.62 38.90 37.74 37.01 36.53 37.03 37.88 36.74 34.04 33.24 34.62 34.20 35.00 35.13 34.11 33.00 33.03 33.04 33.17 33.10 32.99 33.14
45.51 44.90 43.81 42.11 43.24 43.19 43.09 43.28 42.14 41.79 41.97 42.84 43.79 44.69 44.37 43.15 41.19 41.36 42.26 42.37 40.52 38.45 37.72 36.80 35.35 35.28 35.03 35.06 33.68 34.63 31.94 32.64 33.83 34.90 34.40 34.88 35.02 35.19 35.59 35.13 34.63 33.77 33.24
44.57 43.36 44.25 43.70 43.15 43.27 39.37 38.75 39.94 41.88 42.41 43.52 41.94 42.50 43.34 41.45 40.46 37.71 37.00 36.49 37.91 39.26 37.44 35.59 34.24 32.88 34.44 34.71 34.67 33.09 31.23 29.78 28.19 35.40 33.10 32.16 34.34 33.77 34.79 35.60 34.71 32.73 32.39
44.60 44.05 43.12 43.15 42.77 42.79 39.14 39.22 38.13 42.65 41.99 41.99 42.01 41.92 41.35 41.49 39.90 41.57 36.87 34.80 34.07 33.31 30.64 35.96 33.98 34.53 34.31 34.88 34.37 31.85 30.79 30.51 29.95 32.79 31.76 29.49 33.27 32.13 34.54 34.96 34.40 33.19 32.93
43.11 42.53 41.91 42.82 43.20 42.79 38.47 37.02 35.45 40.52 41.47 41.67 41.91 41.62 41.18 41.13 41.58 40.93 40.13 39.50 38.59 38.90 36.78 35.91 35.52 36.02 36.25 36.07 34.54 32.40 31.34 31.11 31.91 32.96 33.42 27.54 32.15 31.10 33.84 34.49 33.82 33.72 32.95
41.29 42.59 43.56 43.45 43.27 43.18 36.82 35.63 35.56 40.60 40.50 40.87 41.24 41.33 41.03 40.66 37.97 36.12 37.42 36.84 37.21 37.09 36.78 34.06 33.59 32.74 30.55 29.13 29.50 31.28 29.13 28.39 27.92 29.75 32.71 30.05 30.17 29.90 31.34 32.22 34.57 33.73 32.94
43.65 43.04 41.67 41.91 39.37 40.90 37.99 36.31 36.28 39.49 38.44 39.00 40.03 40.18 36.28 37.56 35.32 33.61 36.41 35.60 34.55 35.92 35.96 35.89 34.06 31.97 30.95 32.46 29.26 30.62 30.72 27.53 28.08 27.47 32.14 28.57 28.78 28.88 26.65 31.44 32.71 33.56 33.41

GFSMA_sfc_wetblb_054.txt.gz
Wetbulb
61.81 60.89 60.63 60.06 59.49 60.16 58.63 59.25 58.40 57.56 56.83 55.79 54.84 53.27 51.99 51.07 51.29 53.32 52.30 56.90 56.79 57.15 59.96 59.01 57.63 56.32 55.35 54.07 53.31 53.85 53.58 53.07 52.77 52.96 52.61 52.87 52.19 52.37 51.62 50.94 50.37 49.93 50.16
62.77 62.23 62.73 61.68 61.07 61.17 60.69 59.84 58.23 57.28 56.34 55.09 52.92 51.79 51.04 50.69 51.08 51.47 52.02 54.56 57.83 59.67 60.31 58.78 57.86 56.67 55.55 53.92 53.10 52.78 52.29 52.03 52.03 52.17 52.43 51.96 52.07 51.90 51.46 51.18 50.44 49.88 49.94
62.50 61.85 61.82 61.38 61.20 61.35 60.82 59.45 58.03 57.77 55.71 55.48 52.25 51.17 50.74 50.54 50.76 50.85 52.28 52.45 53.89 56.65 57.28 56.84 56.22 55.11 54.05 53.51 52.26 51.49 51.41 51.44 51.40 51.28 51.39 51.41 51.46 51.09 50.92 50.80 50.67 50.63 50.26
62.88 62.14 61.63 61.80 62.02 61.42 59.77 58.56 57.16 55.82 55.51 53.66 50.98 49.86 49.48 49.82 49.70 50.14 51.16 51.11 52.27 52.55 55.00 55.90 54.17 52.60 50.91 49.52 49.52 50.02 50.45 50.52 50.52 50.62 50.97 50.87 50.81 50.35 49.89 49.73 49.81 49.93 50.09
63.33 62.61 62.71 61.96 62.08 60.49 59.09 58.13 56.95 56.70 54.48 52.32 51.27 50.14 49.68 49.35 49.16 50.50 50.53 50.12 48.89 49.17 50.66 54.53 53.95 52.36 50.66 49.25 48.37 47.82 48.63 49.61 50.08 50.16 50.35 50.20 49.66 49.42 49.32 49.24 49.12 49.31 49.34
64.09 63.20 62.57 62.27 60.72 59.52 58.71 57.79 56.44 56.55 54.69 52.28 52.96 50.68 50.35 49.74 48.74 47.54 47.92 49.84 48.44 47.29 46.60 47.45 46.71 46.62 51.22 49.20 48.46 48.18 48.08 48.70 49.00 49.62 50.00 49.87 49.43 49.07 48.84 48.59 48.59 48.75 49.01
63.60 63.16 62.48 61.65 60.34 59.24 58.07 58.07 56.37 54.62 52.13 51.26 49.16 49.00 49.85 49.69 48.38 47.74 47.96 47.57 47.52 47.23 46.56 46.21 44.99 44.47 45.83 49.99 49.17 48.15 47.29 47.45 47.74 48.13 48.67 48.80 48.35 48.29 48.31 48.25 48.47 48.63 48.64
63.65 63.22 61.70 60.65 59.72 59.20 58.58 57.16 55.91 52.62 51.90 52.02 48.38 48.38 44.80 46.52 47.35 48.27 47.57 47.82 46.44 46.79 47.43 47.05 45.32 45.31 44.63 44.83 45.17 47.79 47.42 46.45 45.66 45.77 46.52 46.94 46.86 47.15 47.42 47.60 47.65 47.55 47.51
62.76 62.42 61.96 60.81 59.97 59.28 57.30 56.85 55.88 53.55 50.34 52.08 49.95 47.65 44.63 43.14 43.82 46.37 47.32 46.59 46.39 45.17 45.70 45.92 46.50 46.25 45.93 43.97 46.02 45.62 45.19 44.02 43.60 43.77 44.50 45.24 45.86 45.86 46.14 46.46 46.58 46.98 47.10
62.71 62.49 61.69 61.10 60.10 58.81 57.19 56.50 55.90 54.46 53.75 50.24 50.52 50.07 48.57 45.87 41.64 42.52 44.50 45.68 46.75 46.39 45.38 44.86 44.99 44.88 44.24 43.34 47.06 44.73 43.96 42.28 41.47 41.25 42.31 43.60 44.58 44.87 45.03 45.22 45.11 45.04 45.20
62.50 61.73 60.86 60.21 58.99 58.14 57.10 56.07 54.55 54.39 53.52 51.61 50.17 48.83 45.23 45.48 46.71 43.89 39.47 43.37 44.38 44.78 44.93 45.99 42.95 42.42 44.00 43.55 41.91 42.70 42.29 40.58 39.42 39.41 40.81 41.45 42.36 42.61 42.69 42.77 43.11 43.57 43.92
61.24 61.04 60.72 59.90 58.65 57.40 57.19 56.35 55.58 54.31 52.54 50.80 47.62 46.11 46.32 45.53 45.06 44.75 41.59 40.86 41.35 43.33 44.28 43.48 42.03 42.02 43.02 42.51 44.50 43.07 41.27 39.74 39.27 39.44 39.89 40.13 40.87 41.21 41.43 41.72 42.13 42.69 42.85
60.42 60.32 59.60 58.27 57.68 57.32 56.07 55.02 54.21 52.36 50.58 46.97 46.63 46.87 46.73 44.91 45.22 44.04 42.59 40.97 39.57 41.50 42.64 43.12 42.62 42.18 43.94 41.84 41.26 41.05 40.91 40.27 40.04 39.90 39.80 39.41 39.51 39.91 40.02 39.94 40.71 41.17 41.57
60.56 60.51 59.48 58.62 56.47 55.35 54.64 53.41 50.67 48.31 48.32 47.81 47.43 44.37 45.01 44.57 45.14 45.60 43.61 41.16 38.46 38.89 38.52 39.90 42.76 41.18 40.69 40.74 40.63 43.57 39.51 40.83 41.11 40.77 39.16 38.60 38.75 39.09 37.99 37.94 38.91 39.36 39.90
60.30 58.56 58.38 55.31 54.41 54.19 53.21 49.86 48.64 48.44 47.54 46.27 45.67 44.49 44.28 44.46 45.58 45.84 44.85 43.61 38.52 31.65 33.69 37.51 38.71 41.84 40.96 40.50 40.22 37.96 37.42 42.34 40.71 39.67 38.59 38.84 39.28 38.39 37.35 37.13 37.37 37.66 38.02
57.48 56.23 55.61 55.06 53.96 53.41 49.53 48.39 47.34 45.10 44.75 44.44 44.63 43.21 43.64 44.44 44.62 45.59 44.90 42.31 41.17 37.80 33.13 37.97 38.44 38.76 39.60 40.55 41.07 37.99 37.77 42.11 40.86 40.07 39.68 39.85 39.64 37.68 36.76 36.65 36.58 36.25 36.56
57.99 56.42 55.35 54.68 52.40 49.07 48.71 45.72 44.69 43.84 43.03 43.28 43.16 42.54 42.95 43.66 43.22 44.45 43.81 42.05 39.37 38.42 35.40 36.08 37.26 37.65 37.15 37.69 38.38 38.10 38.62 36.30 36.27 40.31 39.73 39.40 38.69 37.14 36.28 36.04 35.37 35.27 35.51
56.79 55.63 53.27 50.39 48.52 47.06 44.89 43.84 43.05 43.32 42.98 42.28 42.27 42.74 42.93 43.92 43.23 44.01 42.66 40.91 39.65 39.09 37.67 35.00 36.03 35.86 36.45 37.22 37.04 35.40 37.98 38.70 35.18 39.34 39.48 38.72 37.88 36.93 36.60 36.04 35.31 35.14 34.99
50.29 49.61 48.04 46.95 44.98 45.02 43.27 43.21 42.95 42.28 42.17 41.97 42.58 42.73 42.33 42.84 42.10 42.44 41.55 40.92 39.81 41.19 39.41 35.19 35.35 36.27 36.48 35.89 34.54 35.28 34.88 34.30 37.29 40.27 39.12 38.24 38.41 37.87 37.40 36.76 36.08 35.94 35.51
47.15 46.84 46.40 45.29 44.20 43.77 43.23 43.12 42.56 42.02 42.17 42.60 43.04 42.70 42.77 42.82 41.83 41.77 41.38 41.27 40.55 39.06 39.06 37.22 36.30 35.72 34.24 34.95 33.91 31.81 30.71 32.18 31.79 37.07 37.01 35.60 36.64 37.53 38.21 37.47 36.55 36.60 36.86
46.22 44.98 44.12 43.41 43.32 42.99 42.98 42.74 42.69 42.15 42.06 42.21 42.61 43.04 42.94 42.80 42.02 41.53 42.31 40.62 37.39 35.85 35.49 35.07 34.74 33.69 32.79 31.63 30.21 32.00 31.39 30.36 30.40 31.96 28.75 29.25 29.86 30.40 30.88 34.75 36.49 36.72 36.30
45.06 44.60 44.14 43.37 42.38 43.68 40.19 40.14 41.71 41.67 41.74 41.19 40.58 41.37 42.23 41.77 41.43 39.87 40.27 39.26 37.58 35.62 34.61 33.81 34.34 34.09 32.81 33.98 31.61 30.25 30.04 27.13 25.53 30.99 27.54 26.26 29.12 27.53 29.40 30.35 35.39 35.36 34.98
45.78 45.25 44.29 43.87 43.77 42.65 39.22 39.61 38.82 41.36 40.69 40.27 39.99 39.98 39.78 41.22 38.69 38.77 37.79 36.78 35.74 36.15 34.18 35.74 33.54 33.73 33.45 33.57 31.83 30.35 29.51 28.50 28.48 28.42 26.40 24.24 26.32 26.12 29.59 33.83 35.28 35.55 35.33
44.57 44.62 43.71 42.95 42.82 43.04 39.16 39.16 37.85 38.86 37.02 37.71 37.68 37.93 37.23 37.46 38.08 37.26 35.84 34.57 35.81 36.88 36.25 35.18 33.57 34.57 34.55 33.80 32.03 32.23 31.09 29.60 27.17 26.99 28.24 23.13 25.95 26.05 27.85 28.96 34.95 35.23 35.19
42.69 43.45 43.79 42.60 41.82 41.68 39.05 37.48 35.31 36.21 36.11 35.25 37.57 37.02 36.74 35.32 36.14 36.10 33.88 32.69 33.63 34.88 38.10 37.66 37.32 37.08 36.63 36.01 34.04 30.01 27.06 25.95 21.94 24.83 26.67 25.86 25.65 24.79 26.39 25.83 27.15 34.47 34.42
44.17 43.51 41.83 40.70 37.54 36.98 35.95 34.90 35.42 33.33 31.34 29.58 31.47 33.08 33.65 33.97 33.14 32.91 30.54 30.18 29.77 31.66 33.92 34.76 34.78 33.78 34.72 31.67 31.92 30.72 28.97 27.86 27.55 23.37 26.87 25.83 24.96 24.47 20.66 25.53 25.99 26.90 27.37

GFSMA_sfc_wetblb_057.txt.gz
Wetbulb
58.42 58.25 58.19 57.34 56.98 57.15 54.95 55.81 56.06 55.41 53.59 53.09 51.57 50.28 49.24 48.24 48.89 49.24 49.47 57.35 58.09 60.88 59.85 59.04 58.03 56.67 55.58 54.64 54.17 54.30 53.51 53.14 53.16 53.18 53.05 52.50 52.44 52.50 51.75 51.55 51.09 50.72 50.74
58.89 58.97 59.05 57.30 57.28 57.89 56.34 57.34 55.45 54.51 53.56 51.97 49.75 49.12 48.85 48.57 50.11 50.00 51.33 53.07 57.50 58.17 60.65 59.27 58.44 57.13 55.69 53.97 53.92 52.94 52.10 51.93 52.11 52.11 51.86 51.79 51.89 51.80 51.66 51.45 51.45 51.38 51.17
60.71 60.17 60.72 59.24 58.72 58.99 57.81 56.60 55.66 54.80 53.70 52.39 49.66 48.61 48.51 48.20 48.46 49.73 50.46 51.86 54.88 58.41 59.21 59.86 58.07 56.57 55.09 54.51 53.57 51.84 51.09 51.08 50.94 50.87 50.98 50.98 50.97 50.83 50.65 50.53 50.26 50.43 50.45
61.13 60.11 59.45 59.50 58.83 59.15 57.80 55.98 54.97 53.69 52.99 50.08 47.70 47.27 47.74 47.75 47.70 48.38 50.42 50.81 51.19 53.03 56.32 57.61 56.80 55.14 53.99 52.83 51.84 50.61 50.19 50.19 50.09 50.38 50.40 50.35 50.03 49.73 49.70 49.62 49.39 49.56 49.64
61.88 59.44 59.94 59.64 59.76 58.39 56.88 56.14 54.90 53.98 52.66 50.74 48.38 47.35 46.60 46.73 46.53 49.15 48.26 49.54 50.00 50.11 50.02 55.70 55.57 54.78 53.57 52.22 51.28 49.86 48.34 48.69 49.07 49.30 49.79 49.97 49.73 49.27 49.28 48.92 48.79 48.81 48.98
61.45 60.87 60.43 60.25 59.16 57.61 56.55 55.49 54.24 54.36 53.15 50.17 51.48 48.97 46.43 46.83 46.01 44.96 46.63 48.41 46.34 48.56 48.59 49.04 49.07 48.31 52.90 51.16 49.87 49.29 49.29 49.19 48.33 48.56 49.06 49.60 49.92 49.36 48.76 48.63 48.66 48.80 48.77
62.23 61.61 60.85 59.81 58.74 57.23 56.26 55.59 54.01 53.27 51.33 49.89 46.90 46.06 46.32 46.40 45.97 45.03 45.06 45.20 45.65 44.91 44.76 45.06 43.85 42.94 45.95 51.66 50.12 50.15 49.99 49.03 48.02 47.78 47.39 47.56 47.81 47.79 47.81 47.97 48.32 48.32 48.46
61.88 61.30 60.57 59.40 58.46 57.07 56.23 55.27 53.88 51.51 50.42 49.01 45.92 46.47 45.02 45.22 45.38 45.45 44.77 45.62 45.52 44.61 44.73 44.89 43.71 43.27 42.58 42.69 44.40 50.75 50.29 49.06 46.90 45.91 45.88 45.90 46.14 46.63 46.65 46.72 46.85 47.21 47.36
61.49 61.39 60.48 59.24 58.38 57.53 56.31 54.83 53.72 51.46 49.05 49.33 48.10 47.35 43.34 41.52 42.15 44.01 45.06 47.07 45.62 43.15 43.63 44.46 43.96 43.59 43.11 42.56 46.21 48.94 49.34 47.25 46.35 45.14 44.27 44.25 44.92 45.57 45.98 45.95 46.09 46.05 45.92
61.19 61.55 60.91 59.39 58.31 58.15 55.84 55.13 54.70 52.24 50.06 49.29 48.15 50.37 48.66 45.95 41.94 41.53 44.33 44.51 46.09 44.09 42.72 42.89 43.48 44.21 43.13 41.75 44.54 45.17 46.26 45.46 44.67 44.30 43.42 42.73 43.79 44.01 44.12 44.05 44.18 44.19 44.53
61.06 61.04 60.52 59.28 58.06 57.69 55.94 54.95 53.56 52.38 53.21 51.08 48.25 47.77 46.51 45.48 45.45 43.26 40.35 43.46 44.96 45.11 43.97 43.74 42.59 41.36 42.08 41.21 41.29 44.06 45.38 44.02 43.69 43.84 42.95 41.96 42.01 42.27 42.74 43.23 43.14 43.37 43.55
60.40 60.22 59.53 58.09 57.51 56.28 55.51 55.29 55.41 54.31 54.26 51.44 49.34 48.25 46.68 44.92 44.76 45.13 42.19 41.41 41.74 42.98 43.21 42.73 41.59 40.43 42.40 42.07 43.59 45.09 44.41 43.16 42.94 42.69 42.53 41.84 41.67 41.83 42.21 42.58 42.28 42.22 42.57
58.37 59.19 59.75 57.25 56.22 56.28 56.81 55.80 54.64 53.22 52.10 47.78 46.71 47.29 47.69 45.91 45.59 44.31 42.88 41.23 40.30 41.41 41.97 42.62 42.44 41.22 42.69 40.28 41.65 44.20 43.89 42.11 42.11 42.28 42.24 41.70 41.68 41.60 41.44 40.92 40.59 40.86 41.19
59.82 59.97 59.23 58.39 57.45 56.79 55.25 54.24 53.64 51.25 48.85 47.88 47.82 46.09 44.78 45.01 45.85 45.85 44.33 41.99 39.57 39.84 38.95 40.28 42.19 41.66 40.29 39.31 41.13 44.40 40.80 41.77 41.70 42.19 41.90 41.51 41.30 40.96 40.53 39.82 39.29 39.06 39.45
58.88 58.31 58.33 57.58 56.50 55.63 54.85 52.47 49.91 48.28 47.98 46.59 44.89 45.09 44.56 44.99 45.27 45.51 45.67 44.54 41.22 36.74 33.30 36.84 37.31 40.29 38.69 39.09 40.36 40.23 37.45 41.78 41.65 41.55 41.41 41.61 41.01 40.90 40.55 39.52 38.72 38.41 38.32
55.58 55.40 55.08 55.72 54.75 53.51 50.56 49.34 48.05 47.28 46.20 45.08 44.18 44.26 44.08 44.66 44.77 45.02 45.05 44.76 43.41 40.14 35.71 35.94 36.64 37.51 37.55 39.41 38.90 38.60 36.46 40.93 41.66 40.85 40.27 40.40 40.92 40.93 40.20 39.10 38.32 37.97 37.62
55.98 55.72 55.35 53.88 52.80 50.20 48.70 47.31 45.65 45.16 44.62 43.82 43.77 43.83 43.37 43.85 43.44 43.64 43.85 43.69 42.70 39.13 37.67 34.81 36.27 36.49 34.74 35.52 37.33 37.44 37.50 37.51 37.39 40.43 39.80 39.89 40.15 40.34 40.17 39.21 37.87 37.39 37.10
56.40 55.43 54.41 52.87 49.41 47.68 46.29 45.24 44.45 43.69 43.41 42.75 42.64 42.48 42.53 44.09 43.22 43.35 43.26 42.25 41.48 40.49 37.46 34.28 34.53 35.21 35.75 36.31 35.34 34.67 37.06 38.49 35.76 38.92 40.73 40.32 39.94 39.19 38.62 37.94 37.38 37.50 36.66
51.54 50.92 49.78 48.36 46.76 45.45 44.45 43.95 43.74 43.54 43.00 42.66 42.54 42.22 42.89 42.75 41.59 42.02 42.05 41.42 41.12 41.79 38.89 36.96 37.04 34.83 36.73 34.71 34.79 33.91 33.90 33.75 36.22 39.51 39.52 39.19 39.27 39.30 38.71 37.93 37.66 37.66 37.30
48.35 47.53 47.08 45.77 45.16 44.09 43.77 43.73 42.98 42.13 41.99 42.13 42.57 42.84 42.72 42.27 41.74 41.85 41.65 41.23 40.95 39.97 39.89 38.23 38.26 38.29 34.27 37.32 35.67 35.61 33.34 32.43 33.77 36.13 37.82 35.77 36.70 37.74 38.99 38.74 38.15 38.16 37.90
46.83 45.69 44.61 43.95 43.75 43.41 43.16 42.51 42.49 41.59 41.52 41.80 42.25 42.84 42.86 42.89 42.07 41.21 41.54 38.54 37.71 36.91 34.30 33.42 33.81 31.85 30.34 30.89 31.21 33.26 31.92 30.65 30.58 31.00 28.83 28.61 30.83 28.87 29.85 34.78 35.87 37.62 37.78
44.57 44.32 43.81 43.01 42.14 42.63 39.30 40.05 40.85 41.73 42.06 41.50 40.48 40.67 39.76 40.75 40.42 39.40 39.10 39.01 39.10 37.60 35.04 33.14 33.12 32.36 32.74 29.86 30.47 30.02 29.16 29.76 28.71 30.69 30.12 26.06 27.92 26.86 28.24 27.92 33.61 35.61 36.25
42.59 41.42 40.80 40.78 40.13 39.81 39.37 39.79 39.42 41.42 40.21 38.11 37.12 37.70 38.79 39.67 36.26 34.89 34.53 34.66 34.34 35.55 33.30 34.81 33.12 32.62 32.56 32.98 30.85 29.50 29.56 28.90 29.46 29.96 26.21 23.83 24.82 24.51 27.11 31.76 35.23 36.04 35.41
41.33 41.29 42.75 43.13 42.51 41.76 38.82 38.65 36.95 36.58 35.83 34.72 34.40 34.02 32.88 32.11 33.21 32.53 30.44 29.63 30.78 32.26 33.39 34.32 33.92 34.24 34.58 34.89 33.62 34.65 33.75 32.51 29.96 28.15 27.07 22.08 23.88 24.09 25.87 27.29 33.23 35.78 34.71
42.48 42.42 42.49 40.23 39.70 40.10 37.73 37.40 35.64 32.88 32.45 30.44 32.01 31.54 31.38 30.35 32.06 31.71 27.15 25.19 24.71 25.52 30.32 32.31 33.88 34.82 34.74 35.02 35.91 34.33 30.48 27.27 25.85 24.46 26.27 25.50 23.84 24.46 24.71 24.60 26.71 33.22 34.01
42.08 41.80 39.87 37.28 35.23 32.84 34.03 34.78 31.96 27.42 25.63 25.34 27.15 28.82 29.96 29.24 30.59 29.93 26.45 24.99 24.16 24.85 25.37 26.21 27.67 29.81 31.73 31.90 33.49 33.41 33.31 28.96 27.78 22.31 26.11 26.56 25.03 22.79 19.93 23.89 25.39 25.15 25.00

GFSMA_sfc_wetblb_063.txt.gz
Wetbulb
58.13 57.72 57.05 55.66 54.58 54.50 53.23 53.68 52.63 51.73 50.30 49.07 47.29 46.84 45.51 45.61 48.46 51.69 54.40 60.37 60.55 60.38 59.76 59.41 58.44 57.61 56.93 55.90 55.59 54.46 53.94 53.27 52.86 52.71 52.41 52.33 52.36 52.08 51.84 51.54 51.12 51.06 51.00
57.60 56.92 55.93 54.67 53.63 53.41 53.58 53.93 52.62 51.17 50.46 48.85 46.80 46.52 46.30 45.20 45.73 47.32 50.93 55.66 59.68 60.53 59.89 58.95 58.53 57.66 56.47 55.66 55.29 54.08 52.65 52.03 51.57 51.29 51.19 51.49 51.35 51.19 50.67 50.38 50.38 50.33 50.57
57.28 56.54 55.62 54.65 54.05 54.74 53.29 54.28 52.72 51.41 49.01 48.42 47.35 46.77 46.83 47.77 46.64 46.93 48.08 50.37 54.46 59.20 59.88 60.45 59.00 58.18 57.07 55.95 55.51 53.68 52.07 50.92 50.15 49.90 50.29 50.55 50.34 49.90 49.79 49.67 49.80 49.75 49.84
57.04 56.57 55.76 54.97 55.04 55.09 53.61 54.07 53.00 51.63 49.79 48.13 46.06 45.23 46.28 47.71 48.10 46.89 47.99 49.29 51.44 53.95 58.21 60.02 59.93 58.76 57.90 56.75 55.99 54.26 52.37 50.99 49.24 49.30 49.71 49.82 49.34 48.79 48.95 49.18 49.33 49.37 49.46
58.09 57.00 56.66 56.10 55.71 55.45 55.11 54.81 53.29 52.25 50.30 48.37 46.69 45.33 45.08 45.66 46.71 48.73 47.30 48.70 50.41 52.24 53.54 58.19 58.92 57.98 57.77 56.07 54.68 54.14 53.40 50.13 49.67 49.34 49.68 49.34 49.25 49.36 49.16 48.89 48.91 48.95 49.16
59.16 57.75 57.58 57.58 57.43 56.40 55.43 54.37 53.15 52.09 50.92 49.28 49.56 47.09 44.90 44.75 44.09 44.63 46.62 48.47 49.28 51.11 50.94 52.29 53.01 52.94 56.12 55.85 53.72 53.59 53.13 51.53 50.43 49.95 49.39 48.58 48.37 47.44 46.84 47.09 47.45 47.89 47.99
59.72 58.59 57.93 57.45 57.54 56.88 56.13 54.44 52.28 51.74 51.08 49.76 46.33 44.67 44.37 44.10 43.93 42.98 43.70 46.78 47.41 48.64 49.14 49.54 49.23 47.95 50.28 55.52 53.70 53.25 53.36 52.63 51.94 50.74 49.41 48.54 47.69 46.30 45.90 46.21 46.48 46.88 47.40
58.39 58.91 58.24 57.93 57.90 56.66 55.05 53.33 52.28 51.03 51.22 48.24 46.28 43.74 41.80 43.59 44.87 44.67 42.48 43.83 44.92 45.06 47.65 47.89 47.30 46.24 43.59 45.47 48.21 53.42 53.07 52.88 52.87 51.89 50.33 48.87 47.70 46.28 45.33 45.20 45.71 46.11 46.33
58.12 58.85 58.66 58.07 57.52 56.86 55.51 53.68 52.77 52.24 50.81 49.56 47.08 47.54 42.32 41.13 41.93 43.29 43.19 42.30 44.17 42.83 44.69 46.40 44.99 44.42 43.05 43.56 47.06 50.15 52.57 52.80 52.70 52.02 50.75 49.45 48.00 46.76 45.37 44.71 44.65 44.81 45.21
57.21 58.26 58.71 58.48 57.66 57.18 55.23 54.70 54.86 53.17 52.43 49.98 49.19 48.51 47.72 46.24 43.44 42.70 43.71 45.53 43.81 44.65 44.06 44.65 44.50 44.94 44.42 43.14 45.06 46.34 47.91 49.88 51.15 51.67 51.16 50.16 48.84 47.70 46.20 45.04 44.44 44.49 44.67
56.88 57.79 57.75 57.32 57.54 57.26 57.06 55.83 54.23 53.12 53.45 52.33 51.53 47.78 47.68 46.90 46.00 44.39 43.76 44.24 46.94 46.55 45.92 44.48 44.88 44.55 43.95 43.18 42.56 42.97 47.67 48.05 49.10 51.25 50.78 50.34 49.78 48.40 47.06 45.94 45.26 44.69 44.67
54.60 56.42 57.77 57.66 57.95 57.71 57.00 56.66 56.34 55.03 54.54 54.07 51.70 50.75 48.52 46.67 45.73 43.41 43.71 44.61 44.59 45.10 45.60 46.04 44.84 44.28 44.22 42.59 43.61 45.44 47.12 47.19 47.51 49.72 50.29 49.67 49.56 49.00 47.92 46.76 46.09 45.49 44.55
54.15 55.20 56.84 57.71 58.01 58.01 57.81 57.10 56.19 55.97 54.18 53.07 51.49 51.51 50.86 49.78 48.47 46.87 44.71 43.90 42.82 43.80 42.57 44.00 43.87 43.85 44.38 42.62 43.01 46.14 47.05 45.77 46.15 47.57 48.78 49.35 48.84 48.22 47.71 47.03 46.42 45.67 44.81
54.98 55.37 55.96 57.57 57.94 57.63 56.58 56.30 56.10 54.73 53.62 53.11 51.97 50.04 49.79 49.24 47.65 47.08 46.19 44.44 41.02 41.05 41.86 42.45 43.08 41.60 43.00 42.61 43.24 45.33 44.49 45.35 44.81 45.44 46.58 47.68 48.19 47.69 46.88 46.14 45.90 45.17 44.41
55.25 55.33 56.12 56.74 57.02 56.98 56.98 56.44 56.75 55.78 52.96 51.80 50.81 50.07 49.15 47.35 46.81 46.51 46.07 45.22 43.31 38.92 39.79 41.05 40.95 41.77 41.65 38.75 40.60 41.96 42.45 43.27 44.63 43.83 44.16 45.27 46.41 46.74 46.62 45.96 45.08 44.35 43.94
56.80 57.08 56.21 56.64 57.34 57.04 56.79 57.43 56.58 52.64 50.30 48.60 48.11 47.03 46.31 45.78 45.91 45.84 45.57 45.09 44.12 41.84 38.96 41.02 40.21 39.87 39.84 39.17 39.28 38.78 39.31 43.64 43.17 43.03 42.71 43.10 43.97 44.90 45.14 45.12 44.86 44.30 43.17
57.17 56.69 56.91 56.92 57.19 56.87 55.24 54.29 51.85 49.37 48.34 46.20 45.64 45.93 44.59 45.48 44.84 44.72 44.45 44.28 43.28 42.68 39.83 41.19 40.81 39.30 37.71 38.29 37.21 36.09 38.32 37.45 38.23 41.37 42.17 42.09 41.76 42.07 42.58 43.03 43.15 43.39 43.34
57.19 57.05 55.58 55.48 54.96 54.05 52.59 50.89 48.98 47.78 46.16 45.20 44.83 44.85 44.41 45.10 43.92 43.69 43.19 42.19 42.08 42.40 40.68 38.65 39.68 37.99 36.84 35.71 35.98 36.71 39.32 39.69 36.72 40.10 40.88 41.49 41.83 41.14 41.02 40.83 41.19 41.49 40.99
56.80 55.22 54.51 53.39 52.63 50.56 49.75 48.16 47.28 46.13 45.50 44.98 44.64 44.39 43.81 43.49 42.22 42.49 41.94 41.23 41.28 41.72 40.20 38.47 38.50 38.42 36.08 36.43 36.10 35.54 35.02 36.46 37.52 40.55 40.17 39.83 40.29 41.14 41.19 40.66 40.32 40.38 40.30
55.89 55.13 54.46 52.26 49.93 47.75 47.01 45.65 45.20 44.47 43.91 43.79 43.51 43.46 43.23 42.89 42.13 41.75 41.04 40.48 40.44 38.71 35.98 34.69 36.60 36.16 34.60 35.19 33.06 32.48 33.99 34.76 34.20 37.38 38.70 38.26 38.87 39.66 40.41 40.63 40.09 40.23 40.23
54.50 53.07 49.19 47.02 46.56 46.54 46.04 44.84 44.61 43.49 42.88 42.18 42.25 42.59 42.77 42.76 41.81 39.94 40.64 39.04 37.43 36.27 35.72 34.95 34.35 33.63 33.24 33.56 29.32 30.91 31.19 32.58 33.39 31.30 33.10 34.24 34.20 34.95 36.11 39.15 40.12 39.49 37.82
49.36 47.19 46.45 45.46 45.49 45.82 39.99 40.63 42.22 42.30 41.88 41.35 40.95 41.46 38.42 36.81 35.70 34.85 34.46 33.91 31.97 28.04 26.27 25.94 26.03 25.69 26.31 27.74 27.96 28.42 29.31 28.91 27.35 31.92 30.20 31.32 30.66 30.85 31.41 32.04 36.62 37.57 37.80
47.48 45.76 44.44 44.61 44.82 43.21 38.96 39.29 39.17 41.59 41.26 40.50 38.47 36.65 34.02 32.62 30.69 28.67 28.94 28.40 27.98 28.93 27.91 25.86 23.73 24.42 24.14 25.28 25.63 25.87 25.79 25.79 25.25 27.84 29.62 28.46 29.30 29.91 32.60 34.14 36.90 37.00 36.25
44.36 43.45 43.99 44.04 43.20 41.08 38.09 38.04 36.99 37.35 34.70 33.04 31.58 31.16 29.31 27.66 28.67 27.31 25.62 24.96 25.73 26.16 26.85 26.59 24.11 24.13 24.54 25.79 25.74 26.91 26.60 27.54 28.64 29.12 30.33 25.78 29.62 29.99 32.25 32.82 35.36 36.18 35.73
42.77 42.37 42.95 41.24 40.57 39.02 36.18 35.81 34.64 31.35 29.08 28.04 27.85 27.04 26.75 26.57 28.68 29.00 26.25 25.64 25.43 26.60 29.43 29.62 29.75 30.41 30.83 31.22 30.73 28.55 26.29 25.77 24.70 25.31 26.43 27.00 28.73 28.86 25.29 28.01 28.88 34.87 35.25
42.35 41.20 39.42 39.71 38.27 36.88 35.49 34.61 31.47 28.07 25.59 25.30 25.84 26.15 28.35 26.82 27.47 28.27 26.16 25.39 24.46 24.22 23.51 23.69 24.05 25.77 27.43 28.11 28.99 27.62 26.35 23.39 23.57 23.50 26.68 24.80 26.77 28.10 26.15 26.17 27.71 28.28 31.09

GFSMA_sfc_wetblb_066.txt.gz
Wetbulb
57.04 56.00 55.73 54.45 53.54 52.47 53.43 51.52 50.24 49.78 49.42 48.35 48.62 49.90 50.37 51.79 53.59 54.99 56.46 60.32 60.52 60.36 59.96 59.05 59.26 58.57 57.53 56.46 55.49 55.01 54.25 53.84 53.64 53.42 53.00 52.74 52.53 52.24 51.74 51.36 51.23 50.98 51.06
56.87 55.76 55.02 54.12 53.39 52.64 53.33 52.23 50.92 49.52 47.88 47.47 46.61 46.63 46.32 47.69 50.56 52.85 54.75 57.66 59.82 60.67 60.28 59.59 58.62 58.25 57.35 56.51 55.78 54.61 53.56 52.93 52.46 52.08 52.32 52.06 51.68 51.16 50.71 50.40 50.30 50.08 50.09
56.02 55.52 54.24 53.48 53.67 53.20 54.31 52.63 51.10 50.11 47.58 47.77 46.51 46.74 45.71 45.74 46.12 48.86 52.17 54.38 56.99 59.29 59.67 60.36 59.09 57.99 57.12 56.71 55.87 54.23 52.93 52.00 51.15 50.95 51.66 51.33 50.74 50.33 49.78 49.45 49.37 49.35 49.29
56.46 55.15 54.67 53.87 54.48 53.74 54.79 53.13 51.51 49.88 48.16 46.90 45.50 45.70 46.75 48.47 47.21 46.91 48.18 50.85 53.17 55.77 58.57 59.93 60.02 58.96 58.00 57.12 56.91 55.33 53.47 51.89 50.29 50.25 50.87 50.65 49.98 49.48 49.23 48.88 49.11 48.99 48.92
56.90 55.85 55.17 54.53 55.25 54.96 54.01 54.02 52.58 51.61 49.64 48.47 46.41 45.48 45.66 46.72 48.17 47.90 47.18 48.15 50.62 52.99 54.59 58.37 59.40 59.22 59.35 58.25 56.87 56.35 54.65 53.04 50.25 50.29 50.91 50.32 49.97 49.82 48.96 48.04 47.76 48.01 48.25
57.59 56.97 56.49 56.01 55.75 55.42 54.38 53.73 52.61 52.03 51.51 50.15 49.19 47.14 45.61 45.62 45.64 46.43 46.97 48.16 49.07 51.05 52.75 53.90 56.85 56.13 57.64 58.04 56.52 54.69 54.59 53.58 51.89 51.02 51.02 50.27 50.12 49.30 47.80 46.56 46.58 46.64 46.93
58.14 57.66 57.27 57.14 57.07 55.70 54.87 54.26 52.85 52.14 51.19 50.04 47.31 46.28 46.00 45.36 44.48 44.04 44.83 46.54 47.73 49.59 51.12 51.90 52.45 51.73 53.84 57.18 56.17 54.26 54.46 54.37 53.49 52.50 51.57 50.56 50.08 49.04 47.42 46.64 46.14 46.12 46.47
59.43 58.85 57.79 57.30 57.14 56.84 56.06 54.36 52.93 51.38 51.54 49.32 47.44 44.73 44.13 45.10 45.15 44.76 43.77 43.98 46.02 47.62 49.05 50.16 50.46 50.10 49.36 50.44 51.68 54.59 54.50 54.50 54.01 53.75 52.78 51.49 50.35 49.28 47.98 46.68 45.95 45.63 45.72
58.48 58.50 58.42 57.53 57.38 56.92 55.54 53.63 52.82 52.42 50.77 49.73 48.01 49.35 43.73 42.16 43.09 44.83 45.09 43.91 43.86 45.24 47.31 48.81 48.78 49.07 48.02 46.28 49.30 51.93 53.48 53.65 54.39 53.80 53.91 52.61 51.12 49.86 48.78 47.34 46.43 45.53 45.36
56.97 57.61 58.26 57.82 57.09 56.66 56.00 55.17 54.14 52.51 51.63 49.89 49.16 48.73 47.39 45.93 43.55 43.93 45.25 45.58 45.16 44.80 44.70 46.14 47.47 47.56 46.31 46.14 45.84 47.75 48.70 50.31 52.27 53.38 53.35 53.29 52.19 50.86 49.69 48.45 47.13 46.33 45.79
56.05 56.13 56.56 57.01 57.04 56.94 56.58 55.30 53.78 52.92 52.73 51.86 50.42 48.09 48.13 47.48 46.66 46.83 44.64 44.55 45.89 45.24 45.71 45.53 45.62 45.12 45.37 44.60 44.14 45.55 47.83 48.05 49.62 52.40 52.86 52.95 52.67 51.91 50.77 49.63 48.25 47.22 46.70
52.67 54.61 55.90 55.88 56.08 55.52 55.56 55.76 55.22 53.90 54.10 53.77 52.07 50.95 48.97 47.00 46.10 46.15 45.09 45.31 45.63 46.55 46.92 46.62 45.85 45.80 45.24 44.27 44.84 45.94 46.04 46.37 47.59 49.90 51.97 52.86 52.41 51.82 51.38 50.77 49.57 48.54 47.75
51.64 52.54 54.29 54.80 55.22 55.72 55.68 55.76 54.40 53.69 53.85 53.71 53.82 52.52 52.35 51.33 50.40 49.10 47.17 45.61 44.77 45.54 44.91 45.38 46.40 45.82 45.42 44.62 43.92 46.07 46.49 45.14 46.29 47.96 49.75 51.14 51.66 51.63 51.31 50.84 50.34 49.51 48.60
51.28 52.11 52.99 54.57 55.12 55.48 55.24 54.60 54.65 55.21 55.23 54.65 54.25 53.51 52.95 52.28 50.58 49.10 48.53 46.30 42.54 42.72 42.82 43.74 44.05 43.56 42.99 43.05 44.06 44.98 44.66 44.86 45.50 46.15 47.58 48.89 49.73 49.88 50.00 49.94 49.38 48.86 48.39
52.67 52.38 52.92 53.11 54.23 54.78 54.78 55.82 56.16 55.45 55.41 54.73 53.52 52.93 51.75 50.86 50.64 49.47 48.26 47.39 46.15 40.86 40.96 43.02 42.66 43.14 43.56 42.05 42.09 42.37 42.81 44.16 44.49 44.81 44.97 45.82 47.18 48.35 48.38 48.48 48.12 48.10 47.60
53.50 53.17 53.47 53.76 54.13 54.34 54.74 55.84 56.20 56.42 56.40 54.63 52.40 50.56 49.85 48.77 48.45 47.58 46.90 46.06 45.14 43.37 39.87 42.45 41.43 42.04 42.30 41.87 42.65 41.21 40.26 42.47 43.00 42.88 43.05 43.90 44.41 45.44 46.17 46.76 46.82 46.62 46.62
56.53 55.99 56.36 56.47 56.50 56.94 55.52 55.64 56.44 54.27 52.82 51.58 50.15 49.26 48.18 47.15 46.46 45.55 45.12 44.95 43.94 43.11 40.14 41.64 42.23 41.51 40.75 40.57 40.62 40.89 39.64 39.08 39.47 41.31 41.94 42.26 42.68 42.78 43.42 43.82 43.98 44.61 44.51
57.23 57.38 57.69 57.03 56.64 56.30 56.12 55.64 53.91 50.87 50.80 48.34 47.06 46.97 46.03 46.20 44.90 44.49 44.00 43.22 42.60 42.81 41.05 38.87 40.36 39.95 38.92 39.11 38.46 37.22 39.46 40.15 38.72 39.82 41.03 41.40 41.61 41.68 41.81 41.65 41.64 42.00 42.42
56.26 56.70 57.10 56.64 55.98 54.73 53.71 53.18 52.42 50.45 49.15 47.85 46.52 45.87 45.24 44.83 43.32 43.39 42.87 42.02 41.61 41.89 40.67 38.81 38.34 38.79 38.12 37.92 37.27 36.72 36.70 37.50 37.93 40.43 40.43 40.12 40.42 40.83 40.86 40.92 41.24 41.37 41.41
57.68 57.40 57.23 56.66 54.76 52.98 51.50 50.09 49.46 46.86 46.01 45.46 45.33 45.07 44.58 44.09 43.11 42.38 41.69 40.96 40.72 39.04 37.24 37.05 36.44 36.10 36.52 37.10 35.17 33.14 32.58 34.30 33.89 36.52 37.76 37.74 38.46 39.15 39.61 39.77 40.02 40.56 41.06
57.90 57.81 55.58 52.08 49.50 49.21 48.25 47.53 46.91 45.50 44.37 43.57 43.46 43.49 43.33 43.18 41.59 41.04 41.01 39.22 37.93 36.52 35.91 34.70 33.57 31.56 30.30 30.29 29.27 30.75 28.50 28.58 29.41 31.15 31.65 33.97 34.81 35.25 35.64 36.82 37.43 38.65 39.74
56.66 54.77 52.48 51.86 47.85 47.51 44.57 42.76 44.66 44.37 43.34 42.28 41.35 39.45 38.39 37.03 35.90 35.30 34.85 33.56 32.96 29.62 27.88 27.01 27.19 25.08 24.95 27.83 27.69 26.21 25.90 25.54 24.12 30.46 28.64 28.09 30.67 30.00 31.62 33.28 35.64 36.14 37.43
51.61 49.44 48.02 48.09 45.66 43.66 41.47 41.95 40.42 43.14 41.89 41.08 37.99 35.32 33.88 33.16 31.64 29.83 29.51 29.31 29.41 29.68 27.14 26.60 24.12 24.83 24.71 25.60 25.63 24.69 25.33 25.03 24.67 27.77 28.55 26.41 30.16 28.80 31.34 32.55 35.22 36.34 36.87
48.09 46.98 46.64 44.85 43.72 41.12 39.76 39.58 39.20 38.75 36.45 35.35 34.53 33.27 30.62 29.13 29.04 27.71 25.94 26.39 26.59 27.42 27.92 27.71 25.93 26.01 26.66 27.19 27.49 28.19 27.19 26.91 27.41 28.34 30.00 24.77 28.81 27.53 30.27 32.53 34.31 35.70 36.67
44.67 43.97 43.66 43.16 40.53 38.74 36.84 36.21 35.33 32.93 30.94 29.58 29.71 29.76 29.05 28.06 29.27 29.37 26.81 26.39 25.92 26.72 27.32 27.24 27.01 27.36 27.84 28.49 28.93 27.10 24.43 23.46 21.39 23.66 27.28 26.18 26.67 27.30 29.69 30.35 32.25 33.31 34.08
42.07 40.98 40.14 40.00 37.21 36.35 35.42 34.52 32.79 30.37 27.40 26.94 27.69 27.88 28.11 26.88 28.54 28.89 26.75 25.73 23.41 23.20 22.84 22.65 23.19 24.09 25.14 25.45 25.99 24.82 23.43 20.19 20.15 20.09 26.53 23.52 24.42 26.08 25.01 30.30 28.60 29.34 30.82

GFSMA_sfc_wetblb_069.txt.gz
Wetbulb
57.95 59.63 59.28 57.93 58.47 60.08 60.11 59.50 59.12 58.18 57.86 58.26 59.01 59.08 59.21 59.76 60.53 60.45 60.64 60.43 60.58 60.43 60.60 60.58 59.63 58.33 57.73 57.04 56.00 55.21 54.89 54.55 54.38 54.20 54.01 53.41 53.14 52.47 52.15 51.95 51.69 51.46 51.31
60.01 59.01 58.46 57.84 57.80 58.38 58.06 57.69 57.26 56.61 56.60 57.06 56.87 57.90 58.38 59.25 60.13 60.53 60.71 60.59 60.17 60.75 60.19 60.00 59.81 59.35 57.99 56.98 55.71 54.92 54.26 53.42 53.36 53.40 53.48 52.84 52.57 51.82 51.22 50.84 50.37 50.06 50.16
60.58 60.18 58.43 57.63 58.29 57.90 57.12 56.19 55.78 55.19 54.07 53.99 53.98 55.04 56.41 58.15 59.07 59.91 60.39 60.64 60.26 59.53 60.21 60.52 59.32 58.75 58.06 57.53 56.54 54.87 53.88 52.77 52.17 52.44 52.88 52.15 51.93 51.37 50.79 49.95 49.51 49.22 49.27
60.46 59.74 58.13 58.05 58.72 58.83 57.42 55.92 54.58 53.42 53.36 53.23 52.86 52.45 52.51 53.53 55.53 58.17 59.41 60.02 60.21 59.65 59.45 60.26 60.38 59.47 58.19 57.64 57.29 55.98 54.51 52.99 51.71 51.99 52.22 51.84 51.42 51.02 50.52 49.58 48.81 48.52 48.67
60.38 59.65 58.67 58.19 58.97 58.85 58.00 57.07 56.18 55.13 53.18 52.52 52.12 52.26 52.80 53.36 53.98 52.73 54.65 57.83 59.59 60.06 59.81 59.57 59.69 59.42 59.39 58.37 58.21 57.77 56.43 54.49 52.42 52.03 52.40 51.67 51.25 50.93 50.54 49.20 47.94 47.44 47.71
59.48 59.54 59.10 58.66 58.97 58.90 58.32 57.85 56.97 56.83 55.51 53.96 51.35 51.20 52.57 52.86 53.93 53.94 52.86 52.86 54.75 58.15 59.72 59.97 60.20 59.33 58.52 59.63 58.62 57.92 57.23 56.25 53.68 52.92 53.00 52.36 51.82 51.33 50.21 48.36 47.41 47.26 47.09
59.16 58.73 58.54 58.94 59.16 58.32 58.19 58.64 58.15 56.68 56.11 55.65 53.11 53.31 53.04 52.71 52.79 52.81 53.72 54.00 53.60 53.80 55.70 58.01 59.81 59.95 59.42 58.90 58.70 57.27 56.17 56.19 55.64 54.03 53.53 52.70 51.85 51.33 50.13 48.96 48.13 47.25 47.10
59.37 59.11 58.15 58.92 58.66 58.83 58.77 57.76 57.65 56.80 57.26 55.50 54.96 53.51 52.74 53.52 52.99 52.65 52.51 51.98 53.39 53.82 54.20 55.56 55.08 58.30 57.43 56.62 56.80 57.66 56.11 56.01 56.16 55.44 54.56 53.53 52.51 51.94 50.84 49.62 48.77 47.92 47.26
59.40 59.12 58.99 59.91 59.66 59.96 59.00 58.59 58.01 58.02 56.96 55.66 55.51 56.36 51.27 51.85 53.07 53.28 52.34 51.98 51.42 50.23 50.20 51.86 53.12 53.79 54.88 55.17 53.44 54.79 54.53 54.57 56.12 55.52 55.41 54.77 53.80 52.89 51.87 50.64 49.46 48.47 47.57
59.32 60.04 60.04 59.91 59.44 60.21 59.94 59.04 59.80 59.05 58.59 56.71 54.79 54.22 54.55 54.34 52.96 52.31 52.95 51.87 48.26 49.92 49.83 50.71 51.74 52.37 52.58 53.44 53.04 51.46 50.28 50.88 52.50 54.49 54.67 54.53 54.89 54.09 52.78 51.52 50.56 49.40 48.36
58.00 58.70 59.84 59.35 59.87 59.30 59.51 60.54 59.24 58.50 58.43 58.01 56.49 55.22 54.54 53.39 53.44 52.86 52.06 51.17 50.28 50.73 49.07 49.08 51.89 52.20 50.33 49.72 48.71 48.16 48.31 48.20 49.08 51.73 53.11 53.60 53.84 53.99 53.93 52.68 51.81 50.90 49.82
57.13 57.89 58.45 60.40 60.88 60.64 60.80 60.73 60.38 59.92 59.23 58.69 58.56 57.44 55.99 54.25 52.05 49.35 48.73 50.23 50.57 51.62 49.61 49.91 49.58 50.61 47.81 46.94 46.79 47.29 47.06 46.74 47.73 49.49 50.49 51.77 52.58 52.58 52.96 53.56 52.92 52.56 51.68
55.24 57.06 59.11 59.33 59.54 59.95 60.12 60.64 60.32 60.05 59.74 59.12 58.84 57.86 56.42 54.66 52.56 52.07 50.03 49.60 49.16 49.79 48.08 49.93 53.01 52.98 51.23 51.58 48.84 47.80 47.44 45.52 45.90 47.24 48.54 49.59 51.18 51.92 52.64 52.33 51.50 52.44 52.15
57.23 57.96 58.35 58.97 59.29 59.66 59.90 60.34 60.39 60.38 60.28 60.04 59.37 58.60 55.43 54.67 54.52 54.17 51.77 49.93 44.92 46.40 45.75 48.30 50.99 50.79 50.75 48.77 47.02 45.82 47.55 44.97 45.20 45.76 46.88 48.31 49.76 50.53 50.86 50.85 51.58 51.71 50.86
57.53 57.87 58.15 58.19 58.95 59.38 59.79 60.38 59.95 59.91 59.79 60.18 59.69 56.37 56.69 57.31 56.79 53.61 52.95 51.46 50.14 43.24 43.53 49.42 48.81 48.44 47.10 48.09 46.22 47.86 47.85 46.04 44.51 44.41 44.74 45.59 46.67 46.87 48.05 48.23 49.32 50.08 50.21
57.25 57.43 57.77 57.94 58.30 58.80 59.31 59.61 59.80 60.19 59.36 59.96 59.08 55.63 56.67 56.48 54.01 52.71 52.03 50.99 51.07 48.27 44.78 48.38 48.40 47.44 45.69 43.82 45.58 45.47 46.95 42.54 43.13 42.48 42.70 43.18 43.97 44.91 45.68 46.32 46.91 47.58 48.15
57.31 56.71 57.60 57.90 57.73 58.13 58.94 59.03 59.22 59.52 58.30 58.08 55.59 55.21 54.84 54.56 51.70 49.54 49.30 47.80 46.98 48.25 45.21 44.03 44.74 44.72 45.44 47.99 45.58 46.61 46.71 46.57 46.79 42.16 41.38 41.75 42.10 42.39 43.20 43.66 43.97 44.68 45.36
57.06 57.44 56.57 57.19 58.58 58.48 59.14 57.93 56.31 55.49 55.28 54.80 53.46 52.71 52.93 50.19 48.73 47.54 47.41 45.41 45.35 44.76 44.76 42.31 43.09 45.53 44.16 43.14 44.34 44.59 44.09 44.04 44.58 42.55 41.11 41.25 41.30 41.23 41.20 41.26 41.58 41.79 42.15
57.86 57.99 57.79 57.87 57.61 55.98 56.20 56.11 56.01 55.59 54.04 54.16 53.16 50.09 48.85 47.88 46.35 45.26 45.25 43.63 44.27 43.63 43.60 42.23 40.55 41.67 40.64 41.35 42.44 43.07 42.47 42.19 41.42 40.13 39.16 39.55 40.04 40.44 40.47 39.95 40.01 40.17 40.48
57.12 57.29 56.36 57.72 58.23 57.72 56.06 55.87 55.49 54.94 53.02 51.58 49.73 48.95 47.22 46.11 44.94 44.92 44.17 43.52 43.21 42.04 40.54 38.97 38.45 38.65 39.20 42.53 41.41 38.82 37.43 38.31 36.09 36.32 36.57 35.93 36.83 37.75 38.28 38.04 37.76 37.73 37.96
57.09 57.70 57.68 58.28 58.17 56.29 54.54 53.56 52.83 51.93 48.30 46.95 46.51 46.35 45.84 45.26 43.08 43.08 43.22 41.86 41.37 40.00 38.44 37.54 37.62 36.64 37.56 37.42 35.35 36.14 32.69 33.89 34.90 35.42 35.55 36.04 36.13 35.84 36.25 35.68 35.92 36.44 36.19
58.03 59.08 58.98 58.05 52.89 52.29 44.64 44.46 47.92 48.34 46.08 45.30 42.99 41.88 40.97 39.63 38.06 37.28 37.16 36.87 38.69 37.18 35.08 37.27 35.72 34.99 34.62 33.38 33.60 32.28 31.45 30.38 29.76 36.08 33.07 32.48 35.16 34.15 35.09 36.18 34.96 34.97 35.14
58.33 58.64 57.32 55.57 52.45 51.23 42.10 43.01 43.72 46.34 44.25 42.81 39.37 37.22 35.58 34.45 33.86 32.55 31.32 31.06 30.75 30.07 30.11 33.56 33.85 32.53 31.33 32.93 31.65 30.25 29.91 29.97 29.91 32.77 31.75 29.71 33.17 32.20 35.13 34.69 34.55 34.72 34.97
56.05 54.48 51.75 50.00 46.86 43.51 40.46 41.18 40.98 42.80 40.43 38.36 36.60 34.95 33.20 31.35 30.94 29.67 28.99 28.50 29.30 30.09 31.37 31.56 33.08 32.89 32.13 32.01 31.73 31.45 31.08 30.43 30.99 31.65 31.81 26.51 31.73 31.08 33.62 34.79 34.34 34.74 34.90
47.34 46.60 46.17 44.51 41.90 40.24 38.14 37.57 38.05 36.21 33.97 32.56 31.90 31.64 30.97 30.19 30.15 30.86 29.22 28.50 29.67 30.26 28.30 27.36 26.94 26.71 26.88 27.30 28.43 29.91 27.77 26.09 25.47 27.11 29.80 28.56 30.00 29.66 30.11 31.54 34.75 34.69 33.72
43.80 43.16 41.59 41.04 38.35 37.11 36.17 36.02 35.53 32.99 30.09 29.04 29.57 29.00 29.68 29.14 29.25 29.68 30.46 30.71 28.48 28.07 27.41 27.07 27.26 27.09 26.48 27.58 25.09 27.38 26.73 23.49 23.72 23.80 30.09 26.12 26.81 27.61 25.50 31.10 33.58 34.59 36.17

GFSMA_sfc_wetblb_072.txt.gz
Wetbulb
62.94 62.46 63.94 65.03 64.41 64.72 64.02 62.89 62.14 61.64 60.73 60.67 61.43 61.52 61.53 62.27 62.44 62.10 61.93 60.89 61.43 61.37 61.10 60.56 59.72 58.89 58.08 57.05 56.55 56.07 55.73 55.51 55.23 55.26 54.48 54.17 53.23 52.79 52.34 52.12 51.79 51.58 51.62
62.42 60.78 61.46 63.06 64.35 65.02 64.44 62.80 61.40 60.29 59.91 60.20 60.31 60.87 61.02 61.64 62.20 62.47 61.83 61.48 60.34 60.93 61.29 60.82 60.12 59.23 58.43 57.19 56.23 55.57 54.93 55.01 54.78 54.82 54.24 53.71 52.78 52.15 51.54 51.04 50.79 50.52 50.50
61.35 61.61 60.73 60.71 61.85 62.98 62.92 61.93 61.05 60.11 59.37 59.46 59.31 59.70 60.20 60.97 61.26 61.68 62.32 61.97 61.01 59.60 60.18 61.32 60.67 59.65 58.66 57.67 56.68 55.62 54.74 53.97 53.77 54.27 53.83 53.59 52.59 51.78 51.15 50.53 49.78 49.38 49.24
61.59 60.74 60.14 60.38 61.39 61.47 60.36 59.89 59.15 57.92 58.04 57.55 57.25 57.62 58.65 59.64 60.45 61.21 61.61 61.91 61.82 61.26 59.84 60.31 60.62 60.55 59.12 58.61 58.10 56.52 55.51 54.20 53.36 53.64 53.75 53.14 52.80 52.10 51.32 50.54 49.58 48.90 48.82
62.17 61.08 60.49 61.05 61.90 59.96 59.74 59.67 58.97 58.48 56.83 56.61 56.30 56.31 56.34 56.52 58.03 59.01 60.11 60.97 61.63 61.40 61.61 59.84 60.07 59.71 59.78 59.06 58.69 58.01 56.82 55.30 53.75 53.28 53.55 53.21 52.61 52.22 51.87 51.12 49.80 48.66 48.17
60.81 60.69 60.24 61.28 61.63 60.32 60.02 59.68 59.10 59.09 58.31 56.85 55.70 55.68 56.65 57.22 57.62 57.14 57.16 58.48 60.20 60.98 61.26 61.36 60.79 59.62 58.66 59.68 58.92 59.17 58.88 57.60 56.07 54.08 54.02 53.79 53.09 52.64 52.27 51.32 50.01 49.03 48.40
60.70 60.85 60.38 60.83 61.51 60.50 61.13 61.13 60.19 59.18 58.20 58.13 56.49 56.30 56.29 57.64 57.55 57.65 57.59 56.95 57.25 57.77 59.96 60.63 60.78 60.99 59.75 59.32 60.03 59.50 59.19 58.84 58.03 55.98 54.72 54.50 53.81 53.16 52.79 51.61 50.21 49.78 48.93
60.70 60.52 59.52 60.08 60.98 60.69 61.81 61.14 60.17 58.41 59.49 59.53 57.57 58.29 55.09 56.71 57.69 57.49 58.12 57.52 58.15 57.83 56.73 57.54 57.61 59.82 60.60 61.11 59.37 59.80 59.15 57.96 57.32 57.45 56.05 54.95 54.42 53.64 53.24 52.24 50.97 50.21 49.30
60.79 59.71 58.71 58.47 59.35 60.77 60.19 60.73 60.36 60.02 58.80 59.28 59.83 58.77 55.53 54.46 58.43 59.57 58.25 57.78 57.30 56.33 56.81 54.45 55.83 56.72 57.82 59.24 58.23 58.12 56.65 56.29 57.15 56.80 56.87 57.28 55.23 54.60 53.89 53.21 52.15 51.19 50.07
59.20 59.08 58.28 58.51 59.28 60.70 60.77 61.42 60.89 61.16 61.57 59.37 59.01 59.32 60.66 59.70 55.64 54.32 57.36 57.47 57.36 55.74 52.88 55.08 56.23 55.96 56.84 57.60 57.59 55.03 52.70 52.20 53.49 55.29 55.91 56.09 56.03 56.10 55.48 54.50 53.56 52.43 51.50
59.42 59.26 59.28 59.37 59.10 59.73 61.35 62.03 61.20 61.51 61.86 60.84 60.40 59.65 58.28 58.10 58.12 56.42 54.56 56.32 56.32 55.75 53.30 51.69 52.72 53.63 54.67 55.94 57.70 55.61 50.67 49.44 50.05 52.09 53.24 54.06 54.69 54.87 55.14 55.05 55.00 53.92 52.96
57.83 58.99 59.09 60.36 61.24 60.73 61.89 61.99 61.70 62.07 61.90 61.60 61.05 61.17 59.88 58.29 57.31 56.78 55.81 56.29 55.40 55.45 54.37 52.07 51.07 52.99 53.61 55.09 55.03 49.92 48.81 47.89 48.51 50.09 50.69 51.56 52.33 53.10 53.59 54.09 54.13 55.11 54.80
56.68 57.04 58.85 58.93 59.65 60.74 59.11 60.75 60.54 61.44 61.95 61.82 61.20 60.95 61.56 60.93 60.86 59.00 55.22 52.75 53.08 53.52 51.95 53.26 52.95 53.34 53.99 54.35 55.16 48.82 48.53 46.13 46.26 47.46 48.31 49.17 50.11 50.66 51.12 51.54 52.26 52.94 53.78
58.86 60.20 60.05 58.94 59.38 59.36 59.11 60.59 60.92 61.28 61.94 61.77 61.64 61.53 61.18 61.35 61.61 59.55 56.15 52.00 48.77 49.72 51.30 50.64 53.28 55.96 54.71 55.70 53.49 47.64 50.85 45.47 45.37 45.98 46.79 47.67 48.34 48.77 49.36 49.73 50.18 50.93 51.47
60.49 60.77 60.88 60.55 60.40 60.56 61.57 61.96 61.22 61.13 61.55 61.78 61.75 62.06 61.37 61.90 62.02 59.76 57.46 56.48 52.64 47.53 46.58 52.87 52.07 53.34 50.15 51.37 49.91 51.73 52.32 46.10 44.64 44.32 44.43 44.69 45.49 46.26 46.69 47.11 47.60 47.97 48.27
61.43 61.47 61.43 61.23 61.34 61.01 61.02 61.18 61.19 61.46 60.97 61.98 61.33 61.50 61.12 62.00 60.49 59.37 58.20 55.58 55.62 51.01 49.25 53.39 50.52 48.80 51.07 48.22 46.38 49.66 51.05 43.82 43.86 42.73 42.72 42.95 43.64 44.22 44.81 45.02 45.37 45.86 46.13
61.27 60.65 60.22 60.65 60.08 60.67 60.39 60.67 60.53 60.41 60.12 60.75 61.52 60.57 59.80 60.66 56.53 56.00 56.25 55.07 52.45 52.13 48.93 46.63 48.73 47.77 47.30 48.96 48.10 51.26 50.29 49.49 49.65 43.13 42.06 41.74 41.79 42.00 42.42 42.69 42.87 43.18 43.16
61.89 61.50 60.30 59.63 59.74 59.79 60.64 60.89 60.17 60.01 60.08 60.07 60.20 59.33 57.05 56.04 55.00 54.28 52.79 50.46 49.31 51.11 48.86 45.07 44.72 46.47 46.60 48.88 49.88 48.06 46.15 48.56 48.36 44.42 41.47 40.67 40.61 40.69 40.60 40.50 40.84 41.17 41.21
60.50 60.68 60.43 60.41 59.96 60.34 59.77 59.70 60.67 59.95 59.93 59.43 58.95 56.18 55.12 54.98 52.78 49.53 49.44 48.47 48.07 47.59 45.68 45.64 44.50 46.78 48.00 44.48 42.87 44.43 45.89 45.79 45.84 42.79 39.65 39.29 39.39 39.53 39.97 39.57 39.10 39.05 39.40
58.97 59.08 59.80 59.90 60.21 59.44 58.65 58.86 57.09 56.58 56.23 55.61 55.60 55.80 54.96 53.94 52.61 48.75 47.62 46.70 45.17 44.80 44.94 46.35 46.59 41.57 42.40 42.45 43.35 42.69 42.28 43.94 41.65 40.28 39.49 37.13 36.93 37.89 37.79 38.11 38.25 37.46 37.22
59.42 59.47 59.68 60.22 60.16 58.37 56.56 56.99 57.94 57.65 55.11 54.26 52.85 52.24 52.50 49.98 46.81 46.49 47.17 46.40 45.13 43.28 42.51 44.18 39.96 39.71 39.09 39.13 38.75 42.21 39.24 38.99 39.39 40.09 39.20 39.36 39.54 39.55 39.58 38.78 38.22 37.67 37.29
59.21 59.62 60.00 59.62 59.18 58.24 49.58 46.79 54.27 56.25 54.12 51.64 48.94 46.91 46.37 44.95 43.09 40.47 40.59 40.38 42.49 41.32 40.42 39.20 38.39 37.28 39.05 38.99 38.92 37.72 36.82 35.17 33.91 41.04 37.85 36.83 38.48 37.21 38.80 39.21 37.39 35.86 35.64
59.53 59.38 58.89 58.84 59.48 59.76 43.87 44.41 44.23 55.56 52.22 48.99 45.34 42.40 39.39 38.00 37.88 35.76 33.50 32.72 32.13 32.47 33.34 39.59 37.76 37.16 36.13 36.85 37.11 35.55 35.04 34.67 34.50 37.26 36.31 33.48 37.25 36.21 38.59 37.49 36.55 36.07 35.65
58.91 59.22 59.27 59.37 59.09 57.02 42.60 42.60 40.60 48.34 44.05 42.52 41.56 39.26 35.53 34.17 33.34 32.72 30.93 30.14 30.06 30.75 32.36 33.23 34.57 34.90 34.89 37.04 35.99 35.43 35.11 34.42 34.71 35.47 36.12 30.62 35.81 34.65 36.89 37.18 35.29 35.31 34.87
57.58 56.92 55.84 53.98 52.69 47.00 40.78 40.55 41.22 39.29 36.10 34.77 35.27 34.77 33.72 31.76 32.35 33.34 30.48 29.87 29.14 28.56 28.96 28.70 28.37 28.18 28.08 27.78 29.13 33.29 30.88 30.51 29.38 31.52 34.68 31.83 33.62 32.97 33.38 33.97 36.89 35.69 35.40
50.39 45.47 42.98 43.22 39.94 39.94 38.66 38.40 38.87 35.49 32.14 31.51 31.90 31.97 32.39 32.03 31.67 31.70 30.84 29.81 28.84 28.16 28.77 28.60 29.74 27.24 27.78 29.41 25.91 29.28 30.44 27.76 28.37 28.43 33.79 29.43 30.28 30.42 28.38 33.35 34.16 34.75 36.74

GFSMA_sfc_wetblb_075.txt.gz
Wetbulb
63.72 64.31 65.03 64.45 62.87 63.54 62.36 61.21 62.21 61.79 61.84 61.61 61.82 62.16 62.35 62.60 62.58 61.71 61.23 61.41 61.61 61.67 60.90 60.63 59.97 59.25 58.40 57.73 57.20 56.72 56.38 56.51 56.12 55.79 55.17 54.32 53.55 53.10 52.66 52.33 51.92 51.89 52.11
62.57 64.63 64.63 64.35 64.23 64.53 63.12 62.39 61.96 61.31 60.68 61.06 61.33 61.91 62.10 62.64 62.56 62.17 61.37 61.00 60.96 61.57 61.33 60.51 60.21 59.69 58.70 57.64 56.70 56.45 56.18 55.93 55.68 55.49 54.88 54.19 53.34 52.70 52.17 51.57 50.91 50.72 50.79
63.49 64.20 64.91 64.77 64.42 65.01 65.07 63.63 61.82 60.94 60.13 60.35 60.60 61.10 61.61 62.16 62.50 62.31 61.17 60.71 60.35 60.06 61.10 61.32 60.78 59.62 59.11 58.19 56.89 56.25 55.54 55.66 55.23 55.38 54.74 54.35 53.41 52.70 52.09 51.29 50.58 49.88 49.56
62.68 63.55 63.24 64.05 64.91 64.61 63.71 61.70 60.49 59.48 59.42 59.42 59.48 59.96 60.47 61.10 61.63 62.04 61.80 61.97 60.52 59.91 59.46 60.64 61.21 60.92 59.44 58.56 57.98 57.00 56.07 55.16 54.78 55.21 54.90 54.48 53.68 52.99 52.48 51.73 50.83 50.00 49.49
62.72 62.67 62.17 62.71 64.07 62.71 62.95 61.51 60.48 59.43 58.28 58.32 58.48 58.86 59.35 59.49 60.54 60.59 61.07 61.64 62.68 61.56 60.63 59.32 59.86 60.19 60.32 60.06 59.29 58.58 57.50 56.18 54.98 54.69 55.00 54.60 54.10 53.43 52.87 52.20 51.45 50.46 49.72
62.67 62.56 61.76 61.72 61.22 60.99 60.78 60.45 61.04 60.16 59.19 58.23 56.75 56.80 57.35 57.99 58.71 59.37 59.71 60.39 61.04 61.33 61.79 61.22 59.69 59.14 59.05 60.11 59.93 59.56 59.36 58.40 56.82 55.43 55.01 54.95 54.42 53.76 53.35 52.73 52.06 50.82 50.11
61.91 61.78 61.75 62.77 62.72 61.09 60.90 62.28 60.59 60.30 58.81 59.52 56.86 56.42 56.95 58.99 59.06 57.88 58.65 58.58 59.64 60.54 61.53 61.03 61.06 60.11 59.30 58.98 59.92 59.77 60.22 60.69 59.59 58.09 56.13 55.47 55.18 54.33 53.72 53.39 52.56 51.45 50.87
60.74 61.03 61.32 61.43 62.30 60.85 61.95 62.19 62.03 59.75 59.92 60.38 56.50 56.69 53.82 55.39 57.90 59.19 59.56 58.55 59.45 58.72 58.90 60.20 61.21 61.49 61.27 59.39 59.12 59.86 60.03 60.66 59.93 59.58 58.12 56.08 55.56 55.26 54.68 54.34 53.63 52.52 51.87
60.21 60.95 61.47 61.90 62.17 61.94 61.16 61.61 62.27 61.16 59.07 59.61 60.42 59.24 55.07 53.72 58.08 59.40 59.31 59.35 59.60 59.27 59.49 59.08 59.07 59.66 60.27 60.60 59.18 58.99 57.32 57.89 59.94 59.16 59.22 58.77 56.96 55.97 55.48 55.03 54.69 53.84 52.88
60.38 60.35 60.93 61.11 61.73 62.15 60.46 62.83 62.81 62.27 60.82 57.70 58.67 59.73 61.11 60.72 54.77 54.36 59.01 59.40 60.41 58.79 59.44 59.12 57.44 56.26 58.10 58.76 58.14 56.21 54.33 54.30 55.92 58.39 57.89 58.08 58.14 57.46 56.45 56.11 55.55 55.25 54.27
59.34 60.06 60.34 59.54 58.67 59.87 59.94 61.46 61.51 61.57 61.07 59.19 58.39 60.67 59.41 59.20 60.30 56.44 53.44 56.72 58.52 59.22 59.19 58.54 56.79 55.59 55.39 54.30 55.81 57.02 52.63 51.85 52.93 55.67 56.56 56.28 55.98 55.81 55.97 56.43 56.39 56.27 56.02
57.74 58.76 58.90 59.05 58.38 58.94 58.06 60.42 62.13 61.40 61.44 61.08 58.43 60.94 58.72 57.85 57.13 57.41 56.47 57.17 57.33 58.22 58.24 56.02 54.86 54.97 52.74 52.80 54.64 52.79 51.42 50.12 50.21 51.97 53.31 53.65 53.98 54.17 53.94 54.21 54.78 54.93 55.01
57.13 57.47 58.62 58.30 57.35 57.20 58.89 58.99 60.58 61.33 58.92 57.81 59.53 59.69 60.64 60.38 60.84 59.55 58.40 57.50 56.55 58.84 57.58 56.50 56.02 55.12 54.25 55.31 54.46 52.52 49.32 47.48 47.96 49.45 50.75 51.15 51.35 51.62 52.01 52.28 52.66 53.12 53.40
58.17 58.55 58.18 57.62 57.03 57.56 59.67 59.64 59.05 60.36 58.79 60.54 60.87 61.62 60.53 61.17 61.54 60.48 58.69 57.69 54.53 53.96 55.07 55.27 56.20 56.54 56.04 54.48 56.37 49.50 51.02 46.08 46.05 46.52 47.31 48.59 49.27 49.78 49.65 49.53 49.92 50.18 50.73
60.90 60.48 59.39 57.81 57.60 57.68 59.10 60.83 57.92 58.49 59.00 59.21 59.63 61.84 60.85 61.33 61.44 61.47 61.18 59.34 56.97 52.21 51.42 55.04 53.87 55.54 57.39 57.69 52.41 53.44 52.91 47.03 46.41 45.61 45.37 46.19 47.19 47.06 47.13 46.99 47.08 47.46 47.90
61.75 60.44 60.17 59.60 59.06 58.59 59.65 61.02 60.39 60.16 57.81 58.47 60.86 61.43 61.70 61.91 61.63 62.03 61.48 59.88 58.30 54.18 51.46 55.08 54.81 54.78 55.58 54.19 50.06 51.87 52.73 47.29 44.89 43.44 43.50 43.44 44.02 44.65 45.09 45.18 45.08 45.12 45.43
62.12 61.89 61.28 60.77 60.36 60.27 60.87 60.58 60.13 60.76 59.85 60.18 60.60 60.83 60.76 61.77 61.12 61.42 60.19 59.01 57.80 54.85 51.39 51.41 49.85 51.84 50.01 50.15 48.16 50.21 51.30 50.99 50.41 43.66 43.23 42.67 42.05 41.76 42.10 42.48 42.50 42.44 42.25
63.04 62.39 61.99 61.35 61.08 60.76 61.16 61.02 60.28 60.00 60.00 59.78 60.52 60.88 60.16 60.25 59.93 61.05 58.48 55.72 54.91 53.20 51.80 50.35 45.93 47.37 46.54 48.68 48.11 47.69 50.25 50.97 50.77 45.88 43.75 42.18 40.90 40.24 39.85 40.02 39.88 40.44 40.74
62.81 61.95 61.64 61.30 60.88 60.84 60.69 60.93 60.60 60.71 60.61 60.43 60.75 60.53 60.07 60.39 59.01 57.41 55.40 53.88 53.67 52.00 51.28 49.62 45.23 45.98 46.09 46.62 47.30 45.99 45.68 46.70 47.37 45.32 41.05 40.16 39.92 39.75 39.38 39.29 39.39 39.03 38.75
62.47 62.25 61.94 61.72 61.36 61.27 61.02 61.00 60.66 60.60 60.65 60.07 60.32 59.96 60.17 58.64 56.56 55.60 53.11 52.47 51.31 48.98 47.37 46.63 45.36 44.26 44.22 44.84 42.95 43.56 43.19 44.59 43.44 45.15 42.35 38.50 39.10 39.84 39.31 38.44 38.15 38.45 38.60
62.23 62.39 62.11 61.97 62.19 61.31 60.67 60.60 60.28 58.99 57.77 57.78 57.60 57.36 57.00 54.69 50.15 52.53 53.35 51.55 49.17 47.94 45.57 45.02 42.44 42.48 41.90 41.04 41.02 42.46 40.25 41.35 42.88 42.50 40.78 41.41 40.83 41.11 40.90 38.78 38.67 39.40 39.20
61.52 61.74 61.15 61.37 61.20 60.57 51.13 46.66 53.01 56.55 55.46 55.37 55.16 56.31 55.47 48.62 48.07 43.71 43.89 44.18 46.63 46.15 44.78 43.54 41.23 39.86 39.96 40.54 40.12 39.87 38.82 37.01 34.87 42.35 40.15 38.45 40.46 38.92 39.46 40.64 38.72 36.91 36.39
61.35 60.74 60.57 60.77 60.48 61.15 46.48 45.50 44.70 57.00 55.70 56.07 56.26 53.43 46.79 44.67 44.53 40.97 37.06 35.68 35.22 35.29 36.22 40.83 38.65 37.87 37.76 38.34 38.74 37.47 35.10 36.04 35.46 39.06 38.32 35.93 39.03 36.94 38.89 39.01 37.69 36.90 36.21
60.67 60.59 60.78 61.12 60.79 60.38 43.73 44.91 42.97 56.11 57.07 55.42 51.12 46.52 41.84 38.81 38.68 36.92 34.92 32.64 32.07 31.86 32.49 34.79 35.41 34.46 33.59 36.18 36.94 36.70 36.80 36.42 36.97 36.77 37.21 32.19 37.03 35.86 38.43 38.81 37.59 36.93 36.43
60.66 60.22 59.99 59.36 58.55 58.08 41.71 42.98 45.05 43.95 39.19 36.97 37.31 37.71 37.53 35.11 34.97 35.91 33.05 31.96 31.79 29.93 30.98 30.99 30.56 30.15 29.78 29.63 29.56 34.84 32.42 31.54 31.78 32.52 36.03 34.14 34.16 34.04 35.78 35.25 35.89 36.33 35.08
59.25 56.43 48.47 47.31 42.73 45.34 39.72 40.79 41.38 38.37 33.87 33.30 33.76 33.64 33.94 33.15 32.66 33.29 32.02 30.44 27.35 26.76 27.04 26.39 26.89 27.60 28.33 27.49 26.46 30.24 31.45 29.03 29.21 28.81 33.60 30.92 30.77 30.90 28.09 33.90 34.78 35.07 35.43

GFSMA_sfc_wetblb_078.txt.gz
Wetbulb
62.11 62.69 62.42 59.22 58.64 58.69 58.22 57.23 57.81 58.90 58.73 57.82 59.33 59.25 59.45 59.89 58.82 58.87 58.72 61.36 61.54 61.68 61.25 61.11 60.33 59.61 59.21 58.16 57.61 57.40 57.17 56.97 56.76 56.03 55.53 54.49 54.27 53.86 53.35 53.06 52.63 52.76 52.99
62.84 62.38 61.97 58.61 59.24 58.99 58.12 57.74 58.97 58.55 58.02 58.41 58.62 59.28 59.77 59.67 58.90 58.38 58.58 59.07 60.71 61.34 61.58 60.69 60.52 59.85 59.08 58.34 57.53 57.14 57.14 56.86 56.45 55.91 55.37 54.35 53.88 53.31 52.84 52.19 51.74 51.55 51.45
62.29 62.07 61.59 60.08 60.55 59.89 58.68 59.19 59.04 58.11 57.26 58.32 57.98 58.51 58.99 60.27 59.19 58.62 58.03 58.20 58.73 60.09 60.56 61.27 60.86 59.77 59.15 58.28 57.38 56.97 56.69 56.42 56.23 55.92 55.43 54.49 53.84 53.17 52.62 51.99 51.27 50.69 50.39
61.77 61.96 61.49 61.04 61.74 60.38 60.15 59.48 57.78 56.48 56.37 56.38 56.17 56.61 57.41 58.14 58.90 58.30 58.30 58.07 57.86 58.67 59.80 60.71 60.95 60.76 59.80 58.73 58.09 57.20 56.49 56.35 56.06 56.14 55.71 55.26 54.35 53.48 52.88 52.29 51.51 50.74 50.39
61.16 61.06 61.12 61.95 62.56 61.29 60.60 58.79 58.00 56.34 55.86 55.39 56.19 56.07 56.18 56.44 57.61 59.28 58.70 57.37 57.50 57.78 58.13 59.71 60.15 60.06 60.14 59.86 58.98 58.67 58.00 56.63 56.08 56.06 56.17 55.41 55.10 54.30 53.62 52.93 52.39 51.66 50.95
60.97 60.45 60.58 61.34 60.40 59.93 59.07 57.84 57.35 57.12 55.30 55.57 56.19 55.60 54.52 55.61 56.44 56.37 57.19 58.90 58.16 57.93 57.47 57.61 58.23 58.27 59.03 60.04 60.23 59.86 59.73 58.85 57.38 56.42 56.10 56.06 55.43 54.97 54.43 53.83 53.28 52.60 51.73
60.14 59.97 58.82 59.31 59.04 58.16 56.85 57.53 57.78 56.17 55.30 55.88 53.61 53.04 52.54 54.01 53.99 53.88 56.38 56.91 57.11 58.34 57.92 58.33 57.10 57.46 57.69 59.67 60.45 60.25 61.01 60.83 59.75 58.40 57.03 56.37 56.00 55.39 54.98 54.61 54.10 53.53 52.60
59.82 59.46 58.84 58.37 58.01 57.19 57.17 58.37 57.53 56.16 55.95 56.01 52.90 52.26 50.22 51.99 54.04 55.30 54.21 54.86 54.49 56.33 57.51 57.92 57.42 56.99 57.10 56.87 57.04 60.19 60.47 61.00 60.90 60.62 58.91 57.73 57.02 56.18 55.75 55.23 54.87 54.50 53.68
59.68 59.38 59.81 59.22 58.76 58.13 58.74 58.38 58.44 57.29 55.33 55.58 56.68 54.97 51.66 50.24 52.11 54.03 54.59 54.77 53.77 54.56 54.13 55.90 56.94 57.97 57.86 57.03 57.10 57.30 57.10 57.82 60.40 61.77 61.30 60.20 58.59 57.26 56.63 56.18 55.77 55.52 54.95
58.67 58.22 59.42 59.52 59.40 59.44 58.65 58.89 59.97 58.69 58.40 55.62 55.97 57.35 57.35 56.61 51.65 51.03 55.01 55.32 55.40 55.47 54.93 55.03 54.60 55.15 55.65 55.29 57.50 56.01 54.38 54.23 56.18 59.87 60.92 60.70 60.32 58.93 57.95 57.32 56.52 56.44 56.11
58.49 58.83 58.48 59.76 59.27 59.50 59.63 59.65 59.29 59.62 58.59 57.21 55.85 56.45 56.05 56.01 55.63 52.98 50.81 53.89 55.49 56.31 55.02 54.87 54.68 53.26 53.52 53.39 53.63 54.06 53.02 52.80 53.72 56.82 59.16 59.94 59.35 59.09 58.87 58.17 57.55 57.25 57.11
57.42 58.17 58.99 59.07 59.35 59.08 59.15 60.27 60.32 59.38 58.05 57.48 56.76 56.32 55.22 54.36 53.95 53.48 51.82 52.86 52.75 54.59 55.80 54.64 53.83 52.27 51.90 51.54 53.67 52.85 51.90 50.45 52.10 54.48 56.65 58.09 58.07 57.82 56.91 56.43 56.11 55.89 55.89
56.37 56.86 57.91 57.89 57.75 57.86 57.94 58.48 58.11 58.03 57.78 56.52 56.42 56.16 56.52 57.02 56.15 55.67 54.03 52.78 52.37 54.38 54.56 52.78 52.72 52.40 53.04 52.07 52.15 51.88 51.90 49.27 49.84 51.95 53.46 54.22 54.80 55.08 54.85 54.86 54.87 54.63 54.48
56.59 57.36 57.47 57.57 57.15 56.99 57.05 57.02 56.82 57.05 57.15 57.17 56.52 56.37 56.22 56.62 56.92 57.16 55.34 53.76 50.33 51.85 52.90 52.48 53.84 54.07 53.64 53.91 53.50 51.33 51.67 47.90 47.91 48.55 49.63 50.39 50.93 51.00 51.36 51.36 51.37 51.43 51.80
57.17 56.56 57.16 57.38 57.06 56.34 56.30 56.28 56.33 56.48 57.09 57.18 56.86 56.62 57.02 57.65 57.17 57.76 56.51 55.41 52.75 48.52 49.34 50.78 52.47 54.87 54.95 55.27 53.27 52.73 51.08 47.19 46.63 46.88 46.65 47.25 48.40 49.17 49.04 48.98 48.71 48.39 48.38
58.21 56.80 56.60 57.23 57.28 56.17 56.01 55.80 55.85 56.73 56.65 56.98 57.39 57.12 56.89 56.89 57.52 57.78 57.25 56.28 55.96 53.93 51.06 52.09 52.21 52.97 54.19 54.91 51.12 50.47 50.47 47.34 45.60 45.04 44.59 45.16 45.69 46.38 46.45 46.39 46.53 46.38 46.34
58.85 58.21 57.76 57.23 56.94 56.21 56.07 55.63 55.85 56.51 56.25 55.95 55.98 55.76 56.59 57.02 57.48 57.91 57.27 57.12 56.10 55.45 53.11 53.68 52.07 52.00 50.30 50.44 48.32 48.80 48.00 46.73 44.47 43.57 43.66 43.46 43.08 43.26 43.30 43.29 43.31 43.58 43.35
59.79 58.93 58.95 57.95 57.42 56.98 56.36 55.77 55.69 56.46 56.16 55.71 55.80 55.67 55.87 57.12 57.56 57.42 57.15 56.39 56.64 56.42 54.74 52.51 50.61 48.99 49.20 50.26 47.30 46.22 49.09 49.96 48.64 45.03 44.07 43.19 42.67 41.57 41.05 40.72 40.45 40.48 40.31
59.74 59.47 59.20 58.46 57.89 57.34 56.94 56.49 56.01 56.03 56.41 56.37 56.41 56.22 56.28 56.35 55.84 56.54 56.54 56.19 56.66 54.25 53.89 53.43 51.57 48.16 48.01 47.35 46.14 46.05 46.26 46.26 47.00 45.79 44.13 42.21 41.58 41.33 40.80 39.27 39.00 39.35 39.55
60.17 59.75 59.52 59.37 59.01 58.68 58.15 57.59 57.03 56.50 56.63 56.96 56.95 56.85 56.87 56.49 56.08 56.42 56.03 56.22 54.39 53.58 53.18 52.48 51.70 47.12 45.67 45.61 46.35 44.35 42.20 43.72 43.90 46.15 44.23 41.61 41.07 40.74 39.64 39.21 38.77 38.81 38.97
60.66 60.36 59.60 59.10 58.95 58.61 58.49 57.91 57.43 56.91 56.52 56.79 57.17 57.00 57.10 55.86 51.09 53.64 56.14 54.67 54.07 52.57 51.98 50.11 48.92 43.46 42.58 40.47 42.24 43.16 41.81 40.95 41.69 42.19 38.61 38.03 35.55 34.73 35.40 39.11 38.94 39.50 39.20
59.67 59.92 59.74 59.28 58.09 58.66 50.68 47.38 53.54 57.02 56.68 56.31 55.90 56.00 54.07 49.28 48.44 45.30 46.39 46.85 50.88 51.95 50.63 48.83 47.59 43.96 43.82 43.34 42.30 39.27 37.78 35.73 32.97 39.52 36.04 34.26 36.28 33.86 35.82 35.46 38.37 38.10 38.20
58.78 58.77 59.01 59.11 58.64 58.76 47.39 46.14 45.11 56.57 56.35 55.58 53.84 54.24 51.34 49.74 47.21 50.04 37.23 37.93 35.97 35.47 33.84 46.16 44.86 38.45 36.36 38.11 37.10 33.91 32.64 32.31 32.01 35.73 34.75 30.21 32.60 30.36 34.93 37.29 37.97 37.74 36.61
58.37 58.20 58.22 58.45 58.24 58.53 46.35 44.29 42.97 54.11 56.24 53.64 52.49 52.93 52.76 45.74 41.58 38.57 35.05 33.35 33.23 33.20 33.94 35.41 33.98 32.77 34.03 34.83 34.80 34.28 33.20 33.47 34.32 34.65 34.38 26.77 30.11 30.20 33.41 34.19 37.07 37.86 37.04
58.26 58.12 58.10 57.40 56.91 57.00 44.87 42.65 43.66 52.63 49.15 39.22 38.43 39.16 38.75 36.79 36.89 37.50 34.85 32.41 29.51 29.30 32.87 33.80 33.43 32.89 31.89 31.44 31.98 33.16 30.33 30.18 29.85 29.07 31.88 29.47 29.60 29.12 30.08 29.04 31.15 35.64 35.79
58.37 57.97 56.50 52.04 48.66 53.00 39.87 40.38 45.03 42.58 35.16 33.13 33.05 33.82 34.18 34.30 34.52 34.89 33.86 31.57 28.59 27.01 27.42 26.86 27.34 28.91 28.94 28.55 28.04 29.07 28.52 27.92 27.89 26.41 27.79 27.37 26.87 26.51 24.87 28.14 28.42 27.85 28.84

GFSMA_sfc_wetblb_081.txt.gz
Wetbulb
62.67 62.02 61.44 60.10 59.21 59.18 57.37 55.84 55.89 55.50 55.22 55.93 57.16 57.29 57.58 57.66 57.79 58.06 58.46 61.01 61.61 62.04 61.78 61.68 61.00 60.15 59.55 59.13 58.31 57.96 57.93 57.60 57.03 56.55 55.61 55.39 55.07 54.51 54.13 53.76 53.72 53.98 53.95
63.13 61.48 59.10 57.83 57.44 57.66 56.25 56.27 56.77 55.49 55.08 55.85 56.43 57.26 57.67 57.47 57.73 57.53 57.74 58.74 60.52 61.43 61.60 61.16 60.81 60.45 59.57 58.75 58.13 57.94 57.68 57.63 56.61 56.54 55.32 54.79 54.12 53.72 53.08 52.93 52.84 52.49 52.30
62.53 60.67 57.50 56.51 56.43 56.35 55.24 56.64 57.00 56.64 55.68 56.74 56.09 57.02 57.77 57.23 57.40 57.52 57.09 56.89 58.35 59.88 60.73 61.28 60.69 60.08 59.89 59.13 58.13 57.92 57.91 57.26 56.83 56.39 55.61 54.72 54.03 53.64 52.84 52.24 51.62 51.22 50.88
62.33 61.08 57.34 58.04 57.14 57.38 55.60 57.33 57.20 55.26 54.97 55.18 54.52 55.30 56.38 57.04 56.72 56.96 57.22 56.90 56.62 57.38 59.26 60.67 61.03 61.05 60.01 59.06 58.49 58.35 57.91 57.38 57.11 56.76 56.34 55.27 54.51 53.95 53.28 52.66 52.00 51.34 50.65
61.83 61.51 58.81 59.28 58.27 58.27 56.68 57.96 56.49 55.41 54.43 53.90 54.32 53.97 54.64 56.54 56.39 57.13 56.56 56.43 55.96 56.29 56.84 59.51 60.17 60.06 60.10 59.74 59.04 58.82 58.36 57.85 57.38 57.17 56.83 56.24 55.44 54.72 53.96 53.40 52.77 52.21 51.61
60.91 61.30 60.47 60.53 59.95 58.39 57.50 56.45 55.90 54.76 54.61 55.26 56.62 55.00 53.75 54.88 56.31 55.86 56.07 56.83 56.59 56.76 57.18 57.44 58.22 57.92 58.99 60.23 60.36 59.66 59.67 59.12 57.94 57.52 57.44 57.07 56.43 55.76 55.08 54.54 53.98 53.30 52.74
60.22 60.34 59.84 59.96 59.84 58.79 56.80 56.23 54.63 54.39 53.07 53.93 52.14 51.06 51.34 52.18 53.09 53.74 55.26 55.80 55.86 56.31 56.61 57.23 57.29 57.45 57.52 59.39 60.36 60.35 60.96 60.74 60.06 58.58 57.75 57.32 57.10 56.36 55.81 55.29 54.94 54.42 53.88
58.94 58.61 58.96 59.01 58.15 57.21 55.98 54.93 55.05 54.53 53.44 54.08 51.29 50.45 47.30 50.02 51.56 52.01 51.50 54.39 55.45 56.59 56.28 56.33 56.53 57.03 56.99 57.32 57.51 60.43 60.87 61.45 61.39 60.64 59.13 58.67 58.37 57.79 56.54 56.06 55.71 55.29 55.06
58.61 58.80 58.23 58.48 57.17 57.48 55.67 55.70 55.76 54.71 53.34 53.92 53.73 52.56 49.85 47.84 49.48 51.33 51.74 51.01 51.90 52.90 55.38 56.45 56.37 56.20 56.43 56.16 57.22 57.79 57.68 58.01 60.98 62.14 61.70 60.44 59.30 58.60 57.59 56.96 56.38 56.04 55.75
58.28 58.40 57.60 57.56 56.64 56.57 56.01 56.68 56.96 55.99 55.33 53.03 53.96 56.23 55.26 54.32 49.81 49.25 52.52 52.43 52.50 52.17 52.21 52.35 56.16 56.28 56.22 56.19 56.27 55.35 54.23 54.18 56.25 60.09 61.58 61.64 60.92 59.78 58.86 58.41 57.96 57.03 56.78
57.71 56.48 57.50 57.36 56.61 57.18 57.20 57.08 57.10 57.25 56.89 54.68 53.01 53.58 53.50 53.66 53.77 51.23 49.51 52.52 54.45 54.25 53.67 53.53 53.90 53.98 55.82 56.18 56.27 55.45 53.18 52.43 53.59 56.91 59.28 60.67 61.25 60.73 60.24 59.22 58.89 58.59 57.95
55.14 56.16 57.42 58.17 58.01 57.54 57.50 57.49 58.02 58.08 57.92 56.62 55.51 55.12 53.79 53.08 52.49 51.60 49.87 50.13 51.51 54.04 55.39 54.54 53.59 53.63 51.99 52.25 53.66 53.66 52.51 51.51 51.98 54.53 56.67 58.31 59.52 60.19 60.04 59.78 59.46 58.51 58.18
55.59 56.07 56.56 57.83 58.37 58.55 58.32 58.79 58.30 58.24 57.46 56.68 56.65 55.63 55.83 55.50 55.65 54.72 52.94 51.51 50.56 52.36 53.07 53.21 54.03 54.58 52.53 51.20 51.81 51.58 51.60 49.26 50.05 52.40 54.28 55.66 56.94 58.24 58.76 58.50 58.20 57.41 56.95
56.61 56.38 56.87 57.79 58.12 58.36 58.06 57.78 57.89 57.91 56.86 56.70 55.46 55.46 55.39 56.07 56.40 56.30 54.40 52.74 49.39 51.17 52.55 51.88 52.70 52.29 52.34 51.79 51.81 50.13 51.17 48.17 48.05 48.97 50.79 52.64 54.53 55.16 54.71 54.87 55.20 54.99 54.61
57.50 57.07 56.22 56.38 57.22 57.16 57.28 56.75 56.73 55.83 56.26 56.52 55.89 54.94 55.63 55.90 55.97 56.15 55.70 55.26 52.58 48.94 48.78 50.84 51.93 53.49 53.30 52.63 52.60 52.75 52.39 50.99 48.14 47.54 48.19 49.75 51.12 51.59 51.33 51.13 51.37 51.68 51.43
56.32 56.50 56.32 56.65 56.85 56.60 56.48 56.07 56.02 55.78 55.72 56.05 56.03 55.55 55.50 55.91 56.03 56.54 56.12 56.25 55.65 53.40 50.32 50.81 52.17 53.49 53.77 54.28 53.63 52.81 52.80 50.75 46.85 46.17 46.23 47.24 47.32 48.31 48.66 48.77 48.88 48.78 48.49
57.30 55.77 55.69 55.62 56.04 55.97 55.51 54.64 54.73 54.69 55.07 55.56 56.07 55.93 55.65 56.13 55.76 56.04 56.24 56.06 55.57 55.26 52.72 53.87 52.85 52.32 50.45 53.35 54.00 53.09 52.03 50.39 47.42 44.83 44.47 44.87 44.87 45.22 45.47 45.63 45.60 45.93 46.07
58.44 57.21 56.40 54.95 55.19 55.75 55.48 54.72 54.05 54.61 54.16 54.51 55.24 55.28 55.23 55.86 55.12 55.63 55.98 55.78 55.63 56.00 54.32 52.71 54.12 48.81 50.15 50.67 51.88 49.19 49.68 49.77 47.88 44.96 43.76 43.84 43.71 43.08 42.79 42.54 42.38 42.05 42.15
58.84 58.45 57.50 56.42 55.02 55.24 55.17 54.92 54.62 54.30 54.11 54.24 54.92 54.84 54.52 54.64 53.58 54.21 54.90 55.03 55.91 55.62 55.61 54.23 53.10 50.55 51.51 47.66 47.28 46.96 48.00 48.13 48.40 46.78 43.25 43.31 42.63 42.57 42.07 41.27 40.95 40.45 39.88
58.08 57.65 57.56 57.16 56.83 56.24 55.83 55.40 55.01 54.21 54.26 54.36 54.56 54.89 54.91 54.39 54.14 54.21 54.49 55.11 55.65 55.24 54.98 54.38 53.75 51.75 48.02 46.25 48.66 47.39 43.83 45.66 45.87 47.09 45.65 43.14 42.53 42.17 41.61 40.77 39.52 39.19 39.51
58.67 58.61 58.06 57.72 57.43 57.08 56.80 55.97 55.59 54.65 54.00 53.79 54.19 54.83 55.22 54.18 50.51 52.60 54.97 55.19 55.16 54.58 54.44 53.01 51.99 50.99 43.66 41.90 44.21 46.15 45.46 44.81 42.24 43.35 42.03 41.42 40.11 39.99 39.55 39.85 38.71 39.78 39.58
58.82 58.75 58.16 57.86 57.26 57.59 50.85 47.04 52.53 55.22 54.77 53.91 53.34 54.18 54.90 49.52 49.40 45.72 45.72 47.02 51.21 54.35 53.07 52.61 52.22 50.37 48.12 46.47 46.25 44.46 40.51 36.78 35.71 40.18 37.16 36.71 37.26 35.89 36.24 36.87 38.56 38.15 38.61
58.01 58.19 58.44 58.15 57.63 57.70 47.09 46.26 45.21 56.05 55.44 54.85 54.41 54.39 54.22 53.88 48.40 52.35 40.66 38.44 37.06 37.31 35.24 49.25 51.05 50.72 42.62 40.72 38.18 34.71 33.53 33.46 32.39 35.77 35.27 32.10 34.01 33.70 35.74 37.11 37.58 38.03 37.74
57.23 57.14 57.50 57.74 57.85 57.77 46.44 44.47 43.10 54.13 55.94 55.24 54.86 54.51 53.46 49.75 47.37 42.72 37.44 34.87 33.23 33.56 34.53 36.74 37.77 35.64 35.97 37.18 37.35 36.17 34.98 33.55 33.56 34.98 34.78 30.13 31.54 30.50 33.12 34.81 37.04 37.81 37.19
57.36 56.85 57.52 57.32 56.78 57.01 45.63 44.29 43.62 51.86 53.63 54.47 43.32 42.98 49.30 44.95 39.11 39.28 36.03 32.06 31.00 31.06 34.25 34.70 34.48 34.24 34.46 35.07 35.06 34.31 31.59 30.88 29.41 30.14 30.83 30.53 29.99 29.42 29.85 30.08 32.04 35.13 33.56
57.43 57.52 56.91 56.66 52.49 56.78 44.16 43.50 44.52 52.86 45.23 35.89 34.57 34.77 35.87 37.60 35.97 35.86 34.24 32.01 29.26 28.97 29.32 28.94 28.71 29.62 31.04 31.17 31.20 32.50 31.57 29.46 28.92 26.90 27.28 27.51 26.65 26.42 24.76 27.77 27.38 27.69 28.24

GFSMA_sfc_wetblb_084.txt.gz
Wetbulb
63.13 62.60 62.25 61.53 60.36 59.25 57.27 54.65 54.31 54.34 54.55 56.02 57.88 57.50 56.75 56.98 57.15 57.62 57.93 61.27 61.67 62.41 61.99 62.06 61.49 60.82 60.08 59.63 59.19 58.64 58.23 58.23 57.90 56.86 56.45 56.33 55.96 55.46 55.00 55.04 55.13 55.03 54.36
62.32 61.42 60.76 59.98 59.23 58.37 57.14 56.17 55.11 53.14 54.05 55.28 57.05 57.01 56.97 57.08 57.25 56.77 58.08 59.21 60.75 61.71 62.19 61.59 61.26 60.95 60.45 59.45 58.87 58.47 58.29 57.79 57.31 56.40 56.05 55.61 55.06 54.55 54.09 53.86 53.95 53.64 52.88
61.84 60.17 58.68 57.64 57.98 56.80 55.76 55.65 54.53 54.14 53.97 55.59 56.37 56.42 56.80 56.75 56.86 56.72 56.71 56.69 58.64 59.98 60.75 61.50 61.11 60.29 59.96 59.63 59.00 58.46 58.54 57.64 57.17 56.46 55.77 54.98 54.45 53.73 53.17 53.09 52.76 52.35 52.05
61.48 58.71 57.22 56.90 56.91 54.24 54.98 54.67 55.00 54.26 54.50 54.38 54.98 55.83 56.05 56.44 56.60 56.72 56.71 56.35 56.15 57.51 59.47 60.64 60.78 61.05 60.12 59.58 59.32 59.13 58.81 58.06 57.57 57.30 56.03 55.45 54.68 54.13 53.55 52.83 52.46 51.90 51.59
61.19 57.84 56.51 56.80 56.41 53.48 54.25 55.80 54.43 54.61 54.37 54.27 54.57 55.26 55.52 55.30 55.98 56.90 55.89 55.42 55.60 55.58 56.19 59.60 60.09 59.95 60.42 60.30 59.50 59.64 59.55 58.77 58.34 57.99 57.35 56.48 55.69 54.97 54.49 53.73 53.19 52.63 52.16
61.67 58.67 57.16 57.65 57.41 53.70 54.94 55.55 54.93 54.68 55.22 54.38 55.64 54.66 55.23 55.08 54.67 55.28 55.50 56.18 55.59 55.51 55.99 56.20 57.35 57.55 58.82 60.23 60.18 59.76 60.12 59.68 59.16 58.64 58.32 57.56 56.89 56.10 55.41 54.81 54.25 53.83 53.25
61.51 60.09 58.75 58.41 58.03 55.65 55.87 55.69 54.27 54.52 53.41 53.93 51.68 50.58 50.86 53.98 54.23 53.91 54.51 54.76 55.10 55.57 55.51 56.04 56.51 56.21 57.05 59.46 60.38 60.27 60.74 60.75 59.96 59.23 58.67 58.48 57.79 57.06 56.42 55.81 55.46 54.96 54.52
60.57 60.60 58.88 59.13 58.05 58.05 55.83 55.23 53.65 52.38 52.03 52.67 52.07 49.43 46.83 49.06 51.89 52.66 53.71 54.19 54.20 55.70 55.71 56.25 56.15 56.49 56.27 56.34 57.43 60.55 60.89 61.29 61.40 60.72 59.38 59.35 59.12 58.77 57.26 56.88 56.46 55.96 55.65
59.27 60.38 59.32 58.74 59.02 57.72 55.63 54.44 54.42 54.16 52.22 52.49 53.06 51.34 48.08 46.08 48.05 50.15 50.88 53.84 53.46 54.16 54.82 55.52 55.98 56.33 56.30 56.14 56.83 57.45 57.50 57.94 61.15 62.53 62.00 60.55 59.66 59.38 59.09 57.79 57.01 56.76 56.59
57.94 58.11 58.86 57.99 58.14 57.15 55.96 55.52 55.15 54.42 53.20 52.30 52.12 55.12 54.06 52.71 47.37 46.62 51.06 50.38 51.03 53.38 54.44 54.85 55.24 55.27 55.93 56.29 56.58 55.53 54.28 54.32 56.40 60.27 61.87 62.12 61.15 60.29 59.56 59.24 58.71 58.22 57.37
57.59 57.35 57.80 57.23 57.00 58.75 56.45 56.22 55.10 54.74 54.26 53.07 51.79 53.63 52.98 53.71 52.05 49.92 47.73 50.40 51.86 51.80 52.00 53.54 55.18 55.36 55.54 55.55 55.51 55.03 53.00 52.60 54.04 57.09 59.38 61.07 61.81 61.18 60.55 60.10 59.52 59.37 59.16
56.51 56.24 56.91 57.13 56.80 57.82 57.96 56.28 56.62 55.77 55.81 53.81 53.09 53.99 53.32 52.51 51.90 50.72 48.32 49.07 50.19 52.11 54.10 52.97 51.84 53.58 55.00 55.64 55.99 54.13 52.28 51.13 52.10 54.57 56.78 58.36 59.80 60.88 60.99 60.74 60.36 59.97 59.82
55.16 56.02 55.86 56.99 56.70 57.27 57.38 57.10 56.90 56.49 56.21 55.23 54.39 54.17 54.75 54.44 54.31 53.06 50.99 49.46 49.93 51.28 52.49 53.43 54.05 54.33 53.51 53.50 54.39 53.01 52.94 50.05 50.51 52.38 54.18 55.72 56.91 57.95 58.99 59.92 60.27 60.53 59.97
56.42 56.90 56.42 57.14 57.79 57.68 57.74 57.63 57.39 57.04 56.88 56.24 55.04 54.53 54.90 55.07 55.25 54.34 52.36 50.81 48.98 50.41 51.45 51.97 53.12 54.59 53.84 53.78 52.90 50.35 52.51 48.94 49.27 50.09 51.52 53.14 54.32 55.18 56.01 57.11 58.10 58.50 58.64
56.61 56.65 56.14 56.86 57.46 57.81 58.23 58.31 57.88 57.36 57.34 57.03 56.04 55.73 55.46 55.53 55.79 55.84 55.85 54.26 50.79 48.24 49.26 50.19 51.83 53.57 53.79 53.12 52.62 52.22 51.94 50.03 47.70 47.35 47.93 49.92 51.88 53.27 53.92 54.69 55.61 56.15 55.94
56.45 56.44 55.97 56.27 57.17 57.37 57.63 57.17 57.56 57.41 56.96 57.14 56.89 55.88 55.59 55.90 55.63 55.86 55.61 55.69 54.65 52.58 49.85 51.20 52.37 53.92 54.02 53.77 52.83 52.64 53.10 50.96 48.29 46.41 46.08 46.71 48.03 49.81 51.26 52.49 52.44 52.02 51.92
57.37 56.67 56.62 55.22 55.90 55.94 56.10 56.00 56.78 56.79 55.88 56.48 56.35 55.69 55.38 55.42 54.98 55.33 55.47 55.26 54.77 54.57 51.86 53.31 54.94 55.01 52.69 54.00 54.24 53.72 54.06 52.99 52.79 47.09 45.48 45.93 45.80 46.75 47.63 47.70 47.84 48.35 48.72
57.96 57.18 56.65 55.96 54.99 55.20 55.67 55.25 55.36 56.03 54.40 54.71 55.16 55.11 54.70 55.06 54.64 55.18 54.93 54.61 54.63 54.98 53.71 51.85 53.30 51.38 50.55 53.37 54.04 54.43 53.68 53.29 53.23 49.59 45.72 45.51 45.45 45.22 45.03 44.66 44.86 44.52 44.67
58.21 57.73 56.53 55.82 55.34 55.17 54.76 54.98 55.02 54.48 53.94 53.55 53.72 53.89 54.25 54.62 54.34 54.42 54.86 54.29 54.49 54.51 54.26 53.51 53.01 54.55 54.27 49.04 48.93 48.35 48.72 50.49 50.28 48.59 44.03 43.30 43.71 43.77 43.47 42.99 43.11 42.78 42.39
58.29 58.13 57.71 56.60 55.38 54.87 55.08 55.14 54.71 54.09 53.70 53.77 53.46 53.49 53.77 53.79 53.60 53.93 53.83 53.73 54.20 53.77 53.55 53.26 52.90 53.59 53.53 50.08 50.33 49.73 46.85 47.61 48.70 49.09 45.63 43.78 43.44 43.04 42.93 42.23 41.85 41.47 41.02
57.69 57.88 57.50 57.16 56.92 55.51 54.47 54.17 54.42 54.02 53.47 53.18 53.36 53.45 53.68 53.03 50.43 51.89 53.60 52.97 52.70 52.21 52.57 52.35 52.72 53.39 50.37 43.57 46.89 49.76 49.91 48.98 44.68 44.33 44.41 43.66 42.41 42.65 42.57 41.63 41.31 39.73 39.23
57.21 57.27 56.92 56.66 56.37 56.31 50.00 46.00 51.00 53.80 53.57 52.86 52.28 52.77 53.22 48.58 48.28 44.69 45.19 46.32 51.32 52.46 52.13 52.02 52.44 52.09 52.74 49.60 50.28 49.54 46.64 38.47 38.07 40.77 39.21 37.27 39.77 38.47 39.13 38.97 38.77 38.54 39.07
56.99 56.93 56.87 57.07 56.58 56.75 47.37 46.01 44.54 54.83 54.60 53.92 53.30 53.18 52.74 52.93 47.79 52.20 44.48 42.30 40.35 39.09 39.67 53.38 52.89 53.14 52.75 52.73 50.32 44.85 42.82 39.74 35.37 36.44 36.24 32.67 34.55 34.80 38.03 38.56 38.20 38.43 38.66
56.99 57.27 57.38 57.52 57.33 57.31 46.77 44.81 43.27 53.47 55.42 55.38 54.53 53.59 52.99 52.76 51.63 50.53 46.82 42.78 40.79 36.48 36.78 38.37 41.86 43.31 39.01 40.31 42.52 41.00 37.68 33.62 33.74 34.04 35.06 31.06 31.98 31.80 34.38 35.65 36.90 37.73 37.24
57.26 57.02 57.27 57.25 57.34 57.61 46.30 44.68 44.46 53.02 54.45 54.83 55.17 54.60 53.92 52.91 48.96 44.42 44.12 38.96 32.36 31.78 35.19 35.59 35.46 35.28 35.06 35.57 36.75 36.43 33.31 33.29 29.71 29.77 29.85 31.30 30.44 30.61 31.23 31.38 33.56 33.92 32.77
57.17 57.79 57.03 57.07 53.65 56.82 48.43 44.94 45.72 54.10 52.23 52.37 53.24 40.89 37.25 45.72 44.55 39.83 47.80 39.49 33.76 30.66 30.98 30.67 29.79 30.03 31.08 31.20 31.63 33.07 32.92 30.31 28.48 25.74 26.02 28.27 26.99 26.84 25.68 28.21 27.95 27.97 27.53

GFSMA_sfc_wetblb_087.txt.gz
Wetbulb
63.15 64.09 63.23 62.49 60.77 59.90 58.69 56.83 54.16 54.74 55.75 56.57 56.77 56.55 56.80 57.40 56.62 57.80 58.45 61.44 61.93 62.90 62.54 62.56 62.20 61.53 60.79 60.19 59.47 59.22 59.13 59.04 58.77 58.17 57.72 57.35 56.70 56.51 56.32 56.16 56.12 55.45 55.07
63.63 63.04 61.84 60.66 60.17 59.62 57.12 55.76 53.82 54.01 55.37 56.66 55.74 56.38 56.78 57.02 56.29 56.11 57.89 59.13 60.86 61.79 62.51 62.13 61.73 61.26 60.73 60.12 59.31 58.75 58.62 58.62 57.97 57.40 57.08 56.56 55.91 55.43 55.26 55.31 55.21 54.37 53.69
62.75 62.19 60.99 59.58 58.98 58.80 57.41 56.45 53.14 53.50 54.99 56.80 55.39 55.84 56.60 56.59 56.04 56.23 56.47 57.08 58.98 60.22 61.12 61.94 61.61 60.85 60.35 59.94 59.22 58.94 58.47 58.20 57.41 56.95 56.64 56.09 55.41 54.74 54.51 54.41 54.14 53.46 53.03
62.16 60.78 59.36 58.40 57.73 56.65 56.13 55.71 54.28 53.35 54.92 55.59 54.92 55.66 55.88 56.21 55.75 55.62 56.09 56.11 56.51 57.36 59.47 60.77 60.85 61.10 60.42 60.05 59.46 59.37 59.06 58.02 57.75 56.84 56.48 55.78 55.37 54.48 54.00 53.82 53.26 53.03 52.70
60.94 59.23 58.25 57.22 55.60 54.93 55.10 55.19 53.82 54.14 53.80 54.13 54.98 54.51 54.63 55.00 55.18 56.24 55.26 55.26 55.62 55.84 56.07 59.64 60.03 59.93 60.21 59.87 59.82 60.08 59.72 59.16 58.26 57.94 56.89 56.14 55.56 54.98 54.44 53.70 53.51 53.16 52.62
59.83 57.67 57.08 56.40 55.67 53.61 54.38 53.75 53.71 53.32 53.64 54.45 55.63 54.60 53.88 54.39 54.99 54.57 54.83 55.58 55.16 55.38 55.50 56.23 56.69 56.68 58.92 60.45 60.00 60.04 60.57 60.30 59.66 59.05 58.47 57.68 56.80 56.09 55.49 54.91 54.37 54.12 53.64
59.08 57.18 57.37 56.07 54.92 53.60 54.61 54.78 53.65 52.93 51.78 52.95 51.59 50.70 51.46 53.56 53.62 53.79 54.59 54.43 54.93 55.20 55.26 55.61 55.88 55.32 57.02 59.62 60.71 60.21 60.90 61.29 60.79 59.94 59.43 58.96 58.16 57.39 56.59 56.13 55.52 55.15 55.02
59.49 57.56 57.78 55.79 55.28 53.41 55.10 53.92 53.58 52.33 51.85 52.61 51.78 49.37 47.98 50.17 51.75 53.32 53.66 54.47 54.55 55.19 55.33 55.49 55.42 55.87 55.43 56.38 56.94 60.25 60.73 61.20 61.36 60.84 60.12 60.14 59.66 59.18 57.92 57.39 56.82 56.40 56.05
60.50 58.68 58.30 57.02 56.63 54.23 55.03 54.92 53.73 52.82 51.55 51.97 53.67 50.88 46.87 46.82 48.74 50.84 52.55 53.51 53.37 53.88 55.09 55.32 55.63 55.76 55.84 55.54 56.73 57.59 57.44 57.92 61.05 62.24 62.12 60.81 60.16 60.01 59.80 59.05 58.14 57.58 57.08
60.11 59.70 58.38 58.49 57.50 57.28 55.39 54.96 54.88 54.55 53.45 52.36 51.14 53.49 52.64 51.25 47.98 46.39 50.70 52.27 53.63 53.30 54.00 54.39 55.24 55.55 55.84 56.10 56.16 55.27 54.08 54.39 56.58 60.12 62.02 62.45 61.69 60.53 60.21 60.12 59.59 59.18 58.48
58.23 59.29 59.07 58.22 58.17 57.55 56.56 55.20 53.95 53.58 53.51 52.91 50.90 52.70 52.74 52.62 51.43 49.04 47.16 49.80 50.52 53.09 54.54 54.14 54.48 54.66 54.97 55.71 55.60 55.23 53.17 52.42 53.73 57.15 59.38 61.10 62.07 61.96 61.20 60.47 60.23 59.84 59.43
57.21 57.24 58.40 57.85 57.60 57.64 56.18 55.89 55.02 53.96 53.18 53.65 53.62 53.36 52.82 52.28 51.78 50.83 49.07 49.38 49.56 51.01 52.65 53.17 54.04 54.48 54.70 54.57 55.36 53.96 52.50 51.36 52.17 54.67 56.81 58.37 59.73 60.75 61.53 61.66 61.09 60.66 60.29
55.90 55.74 56.11 56.99 56.95 57.85 57.70 56.63 56.14 55.24 54.73 53.69 53.49 53.03 54.21 54.33 54.28 53.25 51.12 49.40 49.85 51.91 51.93 53.11 52.91 53.21 54.05 55.22 55.34 53.13 52.69 50.01 50.45 52.45 54.34 55.79 57.01 58.38 59.19 60.14 61.20 61.46 61.00
56.01 55.48 55.08 56.34 56.62 56.76 57.82 57.17 56.30 56.39 56.26 55.32 53.96 53.71 53.95 54.81 54.71 54.38 52.75 51.01 48.46 48.94 50.22 51.10 53.47 54.51 54.29 53.91 53.63 51.42 54.42 49.56 49.35 50.02 51.29 52.89 54.14 55.06 56.12 57.02 58.05 59.12 59.93
55.81 56.73 56.32 56.19 56.79 56.62 56.53 57.14 56.97 55.89 56.25 56.06 55.46 54.66 54.01 54.50 54.92 54.85 54.43 53.50 52.00 47.72 47.80 49.82 51.25 53.79 54.77 55.02 53.87 53.44 52.53 51.32 48.63 48.57 49.01 50.15 51.84 53.04 53.57 54.40 55.24 55.98 57.16
54.74 54.51 54.77 55.86 56.59 57.07 57.02 56.77 56.38 56.87 56.38 56.36 56.08 55.23 54.53 54.96 55.12 55.50 55.18 54.93 53.76 52.02 49.69 51.60 51.34 52.99 54.14 53.78 53.95 53.55 52.37 50.41 48.05 46.52 46.50 47.72 48.70 50.46 51.33 52.04 52.59 53.36 54.31
55.62 54.66 55.16 55.18 55.32 56.43 56.96 56.85 56.80 56.86 56.14 56.07 56.27 55.81 55.60 56.12 55.58 55.44 55.56 55.30 54.51 54.06 51.56 53.33 54.17 53.16 52.30 53.69 54.16 53.61 53.59 53.07 53.66 46.94 45.79 45.92 45.65 46.24 47.53 48.51 49.21 50.10 51.16
57.66 56.61 55.19 54.96 54.48 55.28 55.77 55.87 55.96 56.38 55.24 55.61 56.18 55.85 55.40 55.69 55.11 55.53 55.47 54.91 54.38 54.18 52.93 51.63 53.92 53.55 52.11 53.63 54.84 54.25 53.81 54.28 54.57 51.43 47.55 46.44 45.95 45.39 45.18 45.75 46.23 47.09 47.49
57.93 57.50 56.82 55.75 55.22 54.31 54.61 54.97 55.06 55.14 55.02 54.98 55.26 55.25 54.78 54.47 53.83 54.22 54.37 53.75 53.40 53.63 53.98 52.90 52.45 53.76 53.75 52.37 52.01 52.28 52.77 54.00 54.02 51.73 47.50 45.49 45.06 45.29 45.30 44.65 44.68 44.67 44.85
57.82 57.57 57.43 56.89 56.34 55.83 54.79 54.19 54.43 54.43 54.75 54.82 54.25 54.40 54.34 54.00 53.75 53.77 53.06 52.86 53.03 52.95 53.22 52.70 52.69 53.07 53.49 53.14 50.02 50.38 49.49 48.85 51.50 51.80 47.93 45.69 44.40 44.27 44.25 43.87 43.37 43.43 43.28
57.55 57.47 57.19 56.90 56.35 56.05 55.78 55.18 54.61 53.73 53.59 53.75 54.11 53.71 53.49 52.72 49.99 51.35 53.60 53.15 52.79 52.18 52.31 52.12 51.71 52.17 52.18 49.65 49.21 52.27 50.65 51.89 51.20 50.09 48.48 46.37 44.67 44.11 43.86 43.02 43.45 42.66 41.66
57.10 56.94 56.65 56.71 55.99 55.47 48.91 46.04 51.47 54.04 53.89 53.08 52.68 53.13 53.10 48.20 47.97 43.94 44.59 45.87 50.52 51.86 51.06 51.47 51.28 50.72 51.13 51.71 51.86 51.12 51.40 48.73 45.79 43.81 44.90 40.69 42.07 41.15 42.53 42.86 41.11 38.89 38.35
56.65 56.64 56.87 56.90 56.30 56.47 47.74 45.19 44.05 53.76 53.73 53.51 53.53 53.46 52.99 52.90 47.98 51.52 45.04 42.45 42.84 42.62 44.79 51.99 50.76 51.09 51.11 52.14 52.95 50.91 50.24 50.35 48.49 38.47 37.53 32.48 35.30 35.35 38.48 38.91 38.66 38.86 38.55
56.35 56.56 56.58 56.72 56.92 57.34 48.19 46.54 44.86 52.09 53.46 54.08 53.98 53.57 53.20 52.95 52.04 50.33 49.62 49.04 47.00 48.85 46.54 46.57 49.21 51.75 52.86 48.10 48.31 49.92 51.40 40.38 33.81 33.53 35.47 31.73 32.51 31.98 34.91 36.70 37.73 37.52 37.31
47.63 49.47 56.35 57.07 56.76 56.82 47.69 45.27 45.19 52.45 53.25 53.71 54.67 54.78 54.28 53.22 49.94 45.24 49.45 48.60 47.07 33.67 35.60 36.24 35.44 34.93 34.93 35.70 38.62 38.85 34.83 35.94 30.99 29.55 29.28 31.37 30.45 30.58 31.39 31.62 33.25 35.05 34.28
43.24 46.11 47.79 45.80 39.10 40.48 35.58 36.52 42.32 53.87 52.22 52.29 53.39 53.72 46.66 51.13 45.96 42.56 48.22 49.30 46.28 35.79 31.82 29.82 29.50 28.92 29.35 29.98 30.04 31.79 34.64 35.89 28.52 25.57 26.13 27.49 27.01 28.22 25.95 28.40 28.18 27.22 27.37

GFSMA_sfc_wetblb_090.txt.gz
Wetbulb
62.64 63.44 63.67 63.93 63.04 62.19 59.41 55.76 55.81 57.73 56.25 56.44 56.78 56.54 56.51 56.83 57.06 58.47 59.05 61.51 62.10 63.14 62.80 62.89 62.62 62.20 61.30 60.52 59.88 59.46 59.80 59.58 59.15 58.89 58.59 58.07 57.79 57.48 57.63 57.30 56.80 56.18 55.88
62.63 62.75 63.30 62.62 61.06 61.02 59.27 55.67 55.90 56.66 56.22 56.26 55.53 56.25 56.42 56.48 56.61 57.59 58.57 60.10 61.04 62.03 62.62 62.26 62.29 61.77 61.24 60.39 59.72 59.54 59.68 59.26 58.92 58.48 57.90 57.49 56.96 56.94 56.74 56.57 56.06 55.33 54.93
62.41 62.43 62.57 61.34 60.42 59.02 55.96 53.84 54.02 54.99 55.45 56.05 55.08 55.57 56.04 56.21 56.29 57.16 57.30 58.21 59.69 60.26 61.20 62.18 61.75 61.19 60.77 60.62 59.78 59.39 59.41 59.00 58.36 57.96 57.61 56.86 56.29 55.89 56.06 55.90 55.31 54.49 53.91
62.94 62.45 61.06 60.11 59.83 58.27 56.56 54.01 53.92 54.57 55.22 55.11 54.72 55.41 55.37 55.90 56.02 56.74 57.00 56.89 57.46 58.07 60.09 60.75 61.45 60.97 60.86 60.41 59.98 59.70 59.26 58.79 58.02 57.66 57.29 56.43 56.00 55.35 55.20 55.04 54.62 53.82 53.37
62.16 61.20 59.99 58.33 58.00 57.91 56.77 54.52 53.66 55.43 54.62 54.71 54.96 54.95 54.53 55.23 55.66 56.58 55.94 55.98 56.65 57.06 57.42 59.65 59.85 60.00 60.71 60.42 60.08 60.28 60.09 59.00 58.44 57.79 57.37 56.49 56.07 55.28 54.78 54.53 54.14 53.97 53.55
60.45 59.26 58.30 56.44 56.83 56.14 55.71 54.47 53.95 54.55 55.01 55.06 55.33 53.39 53.32 54.39 55.33 55.31 55.09 55.98 55.98 56.39 56.65 57.56 58.19 57.88 58.81 60.45 60.22 60.32 60.81 60.53 59.63 59.02 58.09 57.32 56.63 56.03 55.55 55.12 54.72 54.55 54.18
59.17 57.94 57.23 56.13 55.16 55.00 54.83 53.87 52.95 53.42 52.77 54.53 52.54 50.80 51.58 53.05 54.02 54.30 54.65 55.17 55.41 55.74 56.05 56.65 56.85 56.69 57.76 59.75 60.65 60.48 61.30 61.47 60.97 60.30 59.53 58.95 58.02 57.18 56.74 56.23 55.86 55.44 55.23
58.93 57.81 56.55 55.70 54.24 54.13 54.44 53.53 53.05 52.25 52.15 54.42 51.60 50.49 48.51 50.72 52.65 53.47 54.34 54.76 54.62 55.74 55.80 56.13 56.17 56.49 56.42 57.23 58.03 60.67 60.86 61.60 61.76 61.53 60.68 60.63 60.21 59.44 58.18 57.61 57.14 56.76 56.36
58.99 58.59 57.29 56.02 53.75 53.86 54.29 53.98 52.46 51.90 52.46 52.78 54.55 51.39 47.35 48.23 50.02 51.91 52.81 53.90 54.11 54.28 55.49 55.72 55.83 56.31 56.27 56.12 57.04 57.94 57.34 57.96 61.10 62.41 62.28 61.36 60.92 60.71 60.22 59.51 58.84 58.01 57.59
58.29 58.50 56.87 56.08 54.86 53.65 54.67 54.91 54.41 52.92 53.23 51.58 52.16 53.01 52.61 51.21 49.73 47.56 50.85 52.96 54.11 53.83 54.60 55.39 55.88 55.98 56.14 56.36 56.34 55.24 54.29 53.99 56.04 59.99 62.05 62.50 62.19 61.33 60.86 60.52 60.30 60.11 59.31
58.50 58.60 57.39 55.84 55.69 54.94 55.30 55.25 54.24 53.67 53.74 53.17 52.23 52.59 52.59 52.46 51.62 48.64 47.38 49.67 52.40 53.86 54.64 54.86 55.26 55.67 55.80 56.20 56.38 55.44 52.88 52.33 53.44 56.86 59.36 61.04 62.25 62.34 61.90 61.06 60.80 60.69 60.26
58.37 57.97 57.99 56.94 55.76 55.61 55.56 55.10 55.05 54.01 53.89 53.97 53.78 53.23 52.53 51.43 50.72 50.65 49.22 49.47 50.23 51.74 54.33 54.90 54.61 54.78 55.26 55.31 55.80 53.95 52.48 51.23 52.01 54.34 56.69 58.45 59.80 60.75 61.60 62.03 62.03 61.40 60.97
56.70 57.91 57.78 57.07 56.46 54.21 53.85 56.02 55.11 54.46 54.14 53.45 53.42 52.95 53.50 53.53 53.82 52.80 51.04 49.97 49.94 51.29 51.58 53.15 54.44 55.12 55.26 55.19 55.32 52.99 52.83 50.08 50.72 52.49 54.34 55.66 56.98 58.25 59.07 60.04 61.08 61.95 61.90
57.11 56.93 57.93 57.52 56.91 57.12 56.41 56.36 55.60 55.03 54.70 53.81 53.09 53.17 52.98 54.43 54.83 54.27 52.44 51.02 49.19 49.91 50.89 51.85 53.29 53.55 54.28 55.09 55.23 52.01 54.71 49.45 49.24 50.18 51.69 53.16 54.13 55.09 55.83 57.04 58.16 59.10 59.97
56.53 55.88 55.74 56.32 56.75 56.58 57.73 56.15 56.11 55.68 56.00 55.05 54.28 53.54 53.31 53.69 55.01 55.38 54.75 53.93 51.92 48.33 48.96 51.25 51.89 54.15 54.64 54.38 53.37 54.02 54.07 51.99 48.88 48.60 48.97 50.04 51.69 52.85 53.42 54.27 55.23 56.17 57.31
54.84 54.67 55.11 54.71 55.35 55.44 56.36 57.13 56.56 56.38 56.20 56.32 55.89 54.84 54.46 54.46 54.24 54.64 54.54 54.19 54.36 52.53 49.70 52.20 51.90 53.57 54.40 54.60 54.82 54.56 54.43 51.47 48.87 47.24 47.31 47.78 48.86 50.40 51.27 51.80 52.41 53.14 54.26
53.90 54.04 54.76 54.86 54.89 55.25 55.93 55.21 56.05 56.38 55.33 55.67 55.98 55.42 54.73 55.15 54.25 54.61 54.87 54.67 54.19 53.84 51.44 53.18 53.73 53.82 52.58 53.93 54.23 54.42 54.86 54.16 53.59 46.83 46.49 46.48 46.46 46.88 47.88 48.49 49.43 50.32 51.21
54.58 54.29 54.17 54.18 54.50 54.97 55.59 55.35 54.99 55.22 54.64 54.54 55.13 54.99 54.75 55.29 54.92 55.02 54.88 54.23 54.25 54.68 53.31 51.61 54.09 54.05 52.56 54.82 54.95 54.99 53.99 54.31 54.51 51.06 47.40 46.30 46.19 45.59 45.06 45.23 45.82 46.58 47.49
57.23 55.80 54.75 54.23 53.77 54.25 55.01 55.82 55.87 55.35 55.07 55.05 54.99 54.77 54.82 55.02 54.40 54.79 55.07 54.61 54.73 54.45 54.16 52.92 52.76 54.69 54.47 52.64 53.03 53.60 54.70 55.08 54.38 52.00 48.32 46.56 46.12 46.05 45.40 44.76 44.85 45.25 45.46
57.32 57.17 56.96 56.22 55.46 54.86 54.13 54.36 54.58 54.89 54.91 54.99 55.13 55.34 55.41 55.12 54.60 54.65 53.89 54.01 53.95 53.86 53.58 52.64 52.61 52.75 53.36 53.60 52.79 52.49 52.29 51.98 53.23 54.04 51.29 49.30 48.76 46.87 45.64 45.12 44.47 44.83 45.13
56.55 56.68 56.65 56.43 56.53 55.98 55.29 54.22 54.43 54.46 53.91 53.97 54.48 54.33 54.66 53.89 50.14 52.24 54.47 54.03 53.17 52.38 52.31 51.77 51.50 51.88 51.90 52.17 50.39 52.45 51.12 52.56 53.29 51.85 52.66 51.86 49.09 48.64 47.83 44.48 45.66 44.51 44.15
57.07 57.10 56.58 56.00 55.55 55.76 48.79 45.74 51.02 54.14 53.69 53.47 53.37 53.68 54.08 48.74 48.78 44.25 44.89 46.16 51.55 52.49 51.57 51.45 51.23 50.71 51.52 52.23 52.88 52.34 51.83 50.80 49.10 51.96 50.38 50.70 46.18 47.08 46.67 45.13 43.49 42.43 41.84
56.16 57.00 57.01 56.87 56.42 56.35 47.04 45.94 43.85 53.81 54.75 53.70 53.13 53.13 53.02 53.37 48.43 52.30 45.85 42.23 42.71 42.08 44.03 52.80 51.23 51.02 50.99 52.01 52.36 51.39 51.23 50.74 50.28 51.55 45.63 41.72 37.36 36.82 39.50 41.03 40.60 39.68 38.87
46.67 48.97 50.35 54.50 56.46 56.94 41.79 42.76 43.31 51.17 53.87 54.80 54.44 54.09 53.76 53.86 53.85 52.38 51.34 50.51 47.79 48.81 47.89 47.18 49.99 51.84 52.88 53.37 52.30 51.45 51.13 50.15 37.64 33.94 36.65 36.37 33.40 32.15 35.66 37.94 39.09 38.80 38.51
42.89 44.77 43.68 39.41 38.03 39.60 35.07 35.86 38.14 50.53 52.61 53.23 54.31 54.48 54.50 53.72 50.13 45.86 50.43 49.76 49.03 47.28 36.33 38.06 36.03 34.15 33.86 33.95 35.34 44.15 40.82 36.42 32.96 30.16 28.66 31.89 31.02 30.58 30.28 30.54 32.42 33.93 33.85
40.17 40.25 36.26 34.44 32.78 33.82 33.46 35.40 36.26 41.56 47.75 51.50 52.39 52.56 42.50 37.67 34.73 39.12 48.05 49.98 48.52 47.64 33.02 29.82 29.10 29.35 29.72 29.82 29.66 29.60 33.19 41.33 33.10 27.38 26.75 28.13 27.04 28.77 25.39 27.68 26.67 27.41 27.93

GFSMA_sfc_wetblb_093.txt.gz
Wetbulb
64.70 66.06 64.72 66.22 64.33 62.63 61.20 62.87 63.14 63.62 63.07 62.08 62.06 62.24 62.08 62.37 62.60 62.54 62.67 61.75 62.88 63.49 63.03 63.50 63.45 62.94 62.27 61.63 61.02 60.44 60.16 60.17 59.98 59.69 59.32 58.99 58.73 58.89 58.43 57.78 57.46 57.21 56.76
65.45 65.71 64.72 64.40 64.66 61.73 60.07 61.39 63.10 62.67 62.15 62.14 61.61 61.82 61.83 62.05 62.34 62.48 62.53 62.01 61.41 62.68 63.47 63.49 63.23 62.66 62.19 61.31 60.49 60.06 59.98 59.63 59.69 59.61 59.12 58.50 58.27 58.14 57.94 57.35 56.78 56.41 56.22
64.96 65.07 63.33 63.02 63.75 62.42 59.25 60.35 61.84 61.97 61.57 61.57 60.94 61.21 61.40 61.57 61.63 61.90 62.58 62.74 61.21 60.50 61.69 63.11 63.06 62.42 61.83 61.19 60.09 60.02 59.94 59.68 59.34 59.18 58.62 58.06 57.66 57.52 57.31 56.81 56.13 55.32 55.33
63.61 62.84 62.75 61.95 61.72 58.66 57.46 58.95 60.54 60.23 60.29 60.47 60.12 60.61 60.61 60.93 61.43 61.88 62.45 62.41 61.90 60.98 60.54 61.50 61.90 62.03 61.48 60.77 60.47 60.32 60.20 59.61 59.12 58.93 58.40 57.53 57.09 56.89 56.77 56.73 55.99 55.14 54.81
62.75 62.61 62.24 61.54 60.36 58.53 57.49 59.24 59.55 60.20 59.33 59.65 59.70 59.74 59.84 60.21 61.07 61.15 61.69 61.89 61.77 60.92 60.44 60.33 60.27 60.22 60.99 61.12 60.46 60.57 60.54 60.04 59.05 58.89 58.38 57.49 56.90 56.40 56.22 56.14 55.84 55.10 54.61
62.42 62.39 61.37 60.34 60.35 58.78 58.30 59.22 58.96 59.35 59.86 59.58 58.26 58.35 59.56 60.05 60.58 60.70 61.00 61.18 61.59 61.38 61.37 61.41 61.09 60.39 59.34 60.85 60.90 60.54 60.69 60.66 59.89 59.12 58.63 57.84 57.33 56.61 56.04 55.88 55.50 55.22 55.07
59.86 58.89 59.23 59.64 60.66 59.27 58.59 59.20 58.28 58.86 58.26 59.69 57.53 56.96 57.93 58.82 58.98 59.52 60.68 60.62 60.32 60.46 60.98 61.50 61.28 60.98 60.05 59.80 60.93 60.50 61.30 61.64 60.82 60.14 59.50 58.56 57.89 57.30 56.72 56.34 56.05 55.67 55.56
59.45 59.45 59.04 58.53 59.06 57.90 56.64 57.36 59.02 57.98 58.13 58.50 57.17 56.22 52.48 54.92 56.46 58.02 59.15 59.13 59.65 59.86 59.90 60.46 60.84 60.77 60.49 60.48 59.97 60.70 61.23 61.87 62.06 61.53 60.61 60.44 59.96 58.57 57.93 57.48 57.21 56.81 56.64
59.38 58.68 59.10 58.43 58.39 57.93 56.62 57.57 58.23 57.97 55.48 57.66 58.40 57.25 53.19 52.62 53.91 56.67 57.40 58.23 58.62 58.70 59.20 59.30 59.69 59.73 60.00 60.39 59.62 59.38 57.93 58.30 61.48 62.81 62.47 61.74 61.26 60.80 60.42 59.84 59.13 58.32 57.89
59.45 58.30 57.26 55.81 56.09 57.30 56.35 56.62 57.43 58.53 58.30 56.10 57.13 56.67 58.14 57.38 54.19 51.71 54.68 56.08 57.28 57.39 58.04 58.38 58.61 58.72 59.94 59.90 58.92 56.72 54.69 54.56 56.36 60.04 62.04 62.74 62.44 61.80 61.45 61.19 60.67 60.29 60.14
59.46 58.67 57.43 55.81 54.85 55.67 55.93 55.24 56.03 57.80 58.27 58.16 56.71 55.60 55.67 55.59 55.97 54.47 52.11 53.24 55.46 56.96 57.74 58.02 58.69 58.82 59.42 59.88 60.02 58.48 53.52 52.71 53.52 56.95 59.24 60.89 62.28 62.48 62.15 61.71 61.48 61.26 60.89
58.35 57.86 57.22 56.65 55.35 54.93 55.56 56.01 56.01 55.81 57.30 58.76 57.97 57.48 55.60 54.76 54.14 54.43 53.21 54.10 54.76 55.81 56.77 57.93 58.32 58.64 59.36 59.50 58.29 55.01 52.93 51.34 52.16 54.50 56.76 58.47 59.59 60.68 61.61 62.30 62.50 62.17 61.74
57.40 57.40 57.06 56.48 55.27 54.66 54.57 54.67 55.82 55.19 56.44 56.67 57.79 57.69 57.91 57.67 57.41 56.71 55.48 53.67 53.92 56.04 55.95 58.07 57.93 58.04 57.70 58.90 58.58 54.18 53.27 50.39 50.83 52.47 54.29 55.69 56.99 58.11 59.32 60.15 61.11 62.24 62.46
57.84 58.17 57.50 56.22 55.29 54.85 54.10 54.14 56.58 55.38 56.15 56.72 56.13 56.24 57.28 58.17 58.29 58.08 56.41 55.83 53.67 54.47 55.47 56.43 56.83 57.24 58.69 58.90 57.98 52.63 56.53 49.73 49.48 50.21 51.59 53.04 54.05 54.95 55.75 56.82 58.18 59.23 60.21
58.34 58.24 58.01 56.87 55.76 54.59 54.30 53.21 56.03 55.21 55.59 57.15 56.26 55.60 56.26 57.61 59.01 58.66 58.35 57.55 55.12 51.94 52.52 55.67 55.29 56.68 55.92 56.67 56.56 57.81 57.20 53.96 49.47 48.57 49.14 50.31 51.88 53.09 53.67 54.26 54.99 56.05 57.28
58.55 58.30 57.20 57.44 57.40 55.66 53.71 53.59 55.89 57.28 55.71 55.92 56.16 55.24 56.64 57.04 56.57 57.74 57.08 55.53 55.80 54.31 52.59 55.66 56.13 57.55 55.71 54.33 54.50 54.65 54.92 52.40 49.33 47.59 47.43 48.00 48.99 50.46 51.37 51.86 52.51 53.20 54.21
58.86 59.55 59.37 57.58 57.03 57.78 58.02 57.30 58.04 57.01 55.72 55.57 56.92 55.52 54.89 55.14 54.76 54.54 54.93 55.05 54.48 54.81 51.78 53.65 55.72 59.52 57.82 58.04 58.36 57.60 56.65 56.05 55.96 48.20 46.72 46.70 46.75 47.16 47.71 48.23 49.12 50.27 51.12
59.38 59.30 59.30 58.81 58.55 59.04 59.30 58.93 58.00 57.31 56.35 55.78 56.13 57.83 56.45 56.00 55.27 55.65 54.96 54.51 56.50 57.43 53.49 51.49 54.38 57.94 58.18 58.99 55.35 55.23 54.73 55.16 55.77 52.87 48.49 47.16 46.56 46.22 45.95 46.11 46.58 47.07 47.61
58.50 58.29 58.62 57.85 57.92 58.23 58.18 58.10 57.38 57.04 57.12 57.40 57.37 57.67 58.44 58.85 58.83 58.67 58.56 57.76 56.52 55.68 55.78 54.59 55.68 58.63 59.10 59.28 58.41 56.22 56.04 56.09 57.23 53.79 48.70 46.66 46.84 46.87 46.49 45.67 45.48 45.60 45.83
58.65 57.17 56.80 57.44 58.17 57.72 57.98 57.82 57.31 56.81 56.91 57.25 58.89 59.38 59.15 59.10 59.23 59.71 59.27 58.97 58.52 58.36 57.40 55.28 54.95 56.58 57.58 59.26 59.22 57.57 57.40 59.07 58.31 58.75 54.61 51.50 50.17 48.20 46.43 46.24 45.04 45.02 45.10
59.19 59.32 58.67 57.95 57.47 57.36 57.15 57.22 57.49 57.81 57.71 57.26 57.53 57.41 57.85 57.05 51.99 55.01 58.55 59.05 58.51 56.70 56.29 55.31 54.18 55.90 56.26 56.49 55.83 57.08 55.98 56.82 58.30 59.79 59.08 59.07 58.70 57.58 56.45 47.54 48.59 45.58 45.17
57.56 57.86 58.22 58.68 58.77 58.17 48.44 45.46 52.24 57.42 57.23 57.13 57.47 57.89 58.17 50.98 51.70 45.77 46.07 47.14 54.77 57.21 55.15 54.24 52.99 52.07 52.47 53.42 54.48 54.38 54.52 53.08 50.89 56.91 56.48 56.68 58.21 56.92 56.81 56.57 46.73 43.40 43.11
49.40 50.90 52.76 54.65 56.30 49.17 36.30 38.88 41.76 54.52 55.08 54.88 54.98 55.33 55.34 55.72 51.05 56.89 47.86 43.26 44.20 43.36 44.86 54.50 52.65 52.24 52.16 53.48 53.66 52.88 52.46 52.08 51.73 54.10 53.27 51.85 43.33 41.05 39.56 40.29 40.84 41.45 41.22
45.52 46.00 41.44 39.87 42.64 36.48 35.16 35.70 35.36 45.03 52.60 55.01 55.22 54.67 54.48 54.60 54.37 53.35 53.21 52.97 51.85 52.33 50.13 48.74 51.27 53.19 51.45 45.17 46.41 50.82 51.92 52.24 51.93 39.02 38.43 45.52 34.87 31.68 32.99 33.71 37.03 37.72 37.18
41.57 38.65 36.86 34.96 36.10 34.16 34.10 34.81 35.70 43.16 48.53 51.54 53.51 46.98 38.25 40.86 36.27 39.19 48.16 51.00 50.31 49.42 35.67 38.92 34.24 32.89 32.55 32.21 33.13 38.26 41.51 39.24 44.70 32.42 29.11 33.05 31.89 28.28 27.19 27.52 31.29 32.88 32.84
37.27 35.52 33.04 32.54 31.99 32.55 33.25 33.95 35.54 40.83 42.23 38.07 34.81 33.15 32.55 34.58 34.18 35.02 41.02 42.75 44.99 44.00 32.34 30.88 29.49 29.15 29.51 29.09 28.86 29.18 31.44 34.11 35.06 31.13 27.82 29.15 28.02 29.60 24.31 26.86 27.49 28.40 29.14

GFSMA_sfc_wetblb_096.txt.gz
Wetbulb
67.10 67.00 68.01 68.34 67.90 67.31 66.44 66.04 64.29 65.80 66.09 66.03 65.96 65.45 65.35 64.85 64.68 64.25 64.39 62.42 62.84 64.20 64.01 63.89 63.37 63.69 63.01 62.18 61.52 60.85 60.24 60.24 60.03 60.10 59.94 59.80 59.89 59.49 59.07 58.89 58.28 57.83 57.62
66.90 66.87 67.39 67.33 66.91 65.72 65.47 64.31 65.04 65.62 65.92 65.55 65.24 65.25 64.48 64.48 64.00 63.46 63.65 63.13 61.60 62.76 63.88 63.96 63.70 63.41 62.79 62.48 61.49 60.87 60.64 60.50 60.25 59.94 59.78 59.39 59.49 59.12 58.65 58.03 57.78 57.42 57.24
67.51 66.39 66.92 66.22 64.94 63.38 64.85 63.57 64.67 64.91 65.07 64.75 64.79 64.75 64.48 63.32 63.23 63.33 63.28 62.94 62.65 61.20 62.42 63.60 63.80 63.18 62.62 62.16 61.21 60.48 60.30 60.10 60.17 59.86 59.56 59.12 58.85 58.70 58.32 57.81 57.22 57.10 56.86
66.61 65.87 64.87 65.98 64.46 62.78 63.25 61.50 63.28 63.19 63.79 63.85 63.58 63.73 63.17 62.71 62.96 63.08 63.54 63.57 63.53 62.61 61.62 62.26 62.70 62.92 62.54 61.78 61.02 60.63 60.49 60.31 59.64 59.78 59.31 58.78 58.44 58.38 58.12 57.74 57.12 56.41 56.25
65.39 64.40 64.18 64.01 61.97 61.02 61.42 61.63 63.23 63.57 62.70 62.58 63.01 63.24 62.66 62.42 63.16 62.77 61.63 63.29 63.58 62.53 62.47 61.17 61.19 61.17 61.86 61.83 60.63 61.02 61.12 60.29 59.83 59.61 59.36 58.91 58.16 57.87 57.78 57.74 57.17 56.57 55.95
64.10 63.00 63.05 62.10 60.54 59.05 59.01 60.24 62.10 63.33 63.69 62.76 61.56 61.38 61.95 62.81 62.96 61.48 61.29 62.22 63.07 62.79 62.09 61.72 62.11 60.76 59.69 61.25 61.28 60.77 61.13 61.13 60.43 60.02 59.60 59.01 58.27 57.77 57.43 57.29 57.19 56.89 56.18
62.46 62.62 62.29 61.30 60.24 58.78 58.38 59.72 62.26 62.29 61.82 62.85 60.02 59.17 59.69 60.79 61.05 60.92 61.45 62.27 62.16 62.35 62.75 62.68 62.45 61.94 61.09 60.11 61.23 61.09 61.74 61.88 61.46 60.55 59.99 59.51 58.53 58.22 57.58 57.18 56.99 56.78 56.38
60.52 61.35 61.45 60.57 59.99 58.68 58.49 59.51 61.99 61.01 60.74 61.83 58.70 58.57 54.33 56.46 58.76 60.59 60.51 61.26 61.41 61.68 61.56 61.97 62.33 62.11 62.07 61.79 60.92 61.06 61.50 62.27 62.44 61.60 60.90 60.61 60.00 59.49 58.33 57.78 57.39 57.12 56.95
59.99 59.68 60.50 60.38 59.93 59.32 58.74 61.17 62.32 61.33 59.25 60.99 61.90 59.16 54.43 53.73 57.23 59.87 59.92 60.85 60.91 60.46 60.78 61.25 61.56 61.69 61.93 61.65 60.56 59.52 57.95 58.57 61.69 63.07 62.75 61.59 61.23 60.78 60.13 59.75 59.17 58.55 58.16
59.82 59.72 59.10 59.64 59.30 60.28 60.89 60.41 61.97 62.51 61.38 59.12 61.08 61.56 61.52 60.07 56.01 54.38 58.64 60.16 60.95 59.81 60.17 60.29 60.71 61.51 61.88 61.47 59.72 57.28 54.96 54.74 56.70 60.40 62.34 63.01 62.44 61.86 61.45 60.95 60.61 60.37 60.28
60.97 58.99 59.25 60.31 60.32 60.52 60.35 62.17 62.27 62.73 62.10 61.08 59.21 59.02 59.32 59.45 60.23 57.13 54.35 56.92 59.33 59.70 60.26 60.38 60.30 60.44 61.05 61.56 61.72 59.24 53.84 52.85 54.17 57.24 59.60 61.32 62.21 62.76 62.56 62.19 61.73 61.62 61.43
58.99 58.73 57.62 57.45 58.76 59.92 59.58 59.12 58.78 58.67 59.02 60.60 60.21 60.70 59.30 57.35 57.18 56.33 54.71 56.31 56.23 58.38 59.81 60.11 60.29 59.97 60.64 61.00 59.65 55.62 53.28 51.82 52.50 54.92 57.04 58.47 59.85 60.65 61.52 62.39 62.63 62.67 62.19
58.49 57.37 57.05 56.43 56.69 57.39 57.19 56.95 56.98 56.79 57.63 57.98 59.06 59.96 60.49 59.64 59.16 57.91 57.10 55.44 56.00 58.24 59.24 60.53 60.28 60.70 60.62 61.51 61.45 55.36 54.13 50.53 51.24 52.96 54.45 55.83 56.99 58.18 59.17 60.09 60.87 61.91 62.43
58.84 58.25 57.88 56.94 56.62 56.93 56.99 56.87 56.49 56.59 57.63 58.43 60.26 61.15 60.30 61.05 60.92 59.51 57.94 55.45 53.62 55.04 57.61 58.34 61.02 61.56 61.69 61.61 60.08 53.37 58.18 50.09 49.46 50.23 51.60 53.09 54.21 55.09 55.87 57.06 58.23 59.14 59.95
59.25 58.36 57.90 57.09 56.46 55.55 55.37 54.75 54.22 56.10 57.36 56.92 59.04 60.60 60.24 59.70 60.76 60.57 60.16 58.56 56.01 53.56 53.36 57.39 57.60 60.33 61.38 61.90 59.62 61.01 60.56 55.05 49.74 48.75 48.77 49.94 51.72 52.93 53.56 54.19 54.98 55.94 57.11
59.87 59.06 58.21 56.94 55.81 55.20 55.35 56.09 53.78 53.96 55.61 56.53 56.58 58.68 59.55 59.50 59.15 59.64 59.79 60.21 58.79 57.06 53.81 57.75 57.98 60.35 61.20 59.96 59.08 60.68 61.25 54.26 50.49 48.36 47.45 47.89 48.75 50.47 51.28 51.72 52.41 53.01 54.01
59.89 59.62 58.83 57.12 55.51 55.08 54.58 54.17 54.04 54.06 54.82 57.25 57.63 56.36 57.28 58.90 56.91 58.64 58.52 58.92 57.06 55.04 52.51 54.36 58.11 57.79 59.58 60.58 60.52 61.07 59.81 58.15 55.58 47.93 47.03 46.61 46.77 47.23 48.01 48.67 49.46 50.47 51.34
59.53 59.80 59.92 57.69 57.21 55.68 55.16 54.20 54.08 54.95 55.45 56.72 57.59 55.78 55.60 56.65 57.32 56.00 56.12 57.08 55.59 55.28 53.64 52.19 54.22 56.84 60.08 60.62 60.48 59.65 61.13 61.29 62.18 55.03 48.62 47.71 47.32 46.31 46.38 46.32 46.43 47.26 47.83
60.50 60.61 60.66 59.39 58.58 58.24 57.10 56.85 57.40 57.13 57.98 58.22 56.87 54.90 55.63 56.09 56.25 56.81 55.76 54.81 55.66 56.37 57.34 56.84 57.69 59.15 59.58 61.02 60.55 61.54 62.16 61.95 61.53 54.67 48.38 46.83 47.01 47.27 46.76 46.22 45.85 45.99 46.18
60.30 60.54 60.53 60.89 60.48 60.14 59.97 60.33 60.08 60.22 59.97 58.29 57.92 57.17 56.64 56.52 57.55 59.01 59.73 60.46 60.40 60.47 60.01 57.78 58.57 58.71 59.63 60.95 61.17 59.87 59.75 61.73 61.26 60.80 56.31 53.16 51.83 49.53 46.94 46.91 46.16 45.76 46.08
59.27 59.43 58.99 58.91 59.38 59.59 58.57 58.91 58.80 58.53 57.85 57.60 58.10 58.50 58.75 57.16 52.35 54.73 59.43 60.40 60.65 59.88 59.44 58.27 56.90 58.08 58.64 58.80 58.36 59.91 59.21 60.55 61.11 61.11 59.36 60.69 60.83 61.44 59.80 48.12 50.01 46.36 45.43
56.72 58.90 58.92 59.08 58.68 46.32 36.51 37.66 46.21 58.98 58.51 58.04 58.25 59.53 59.99 52.81 53.18 45.51 45.09 46.27 53.35 57.68 56.61 56.01 56.06 54.88 57.30 58.38 59.30 59.25 58.70 55.07 52.40 58.27 56.72 56.96 61.24 60.26 50.76 42.01 40.38 41.10 42.69
48.61 45.96 45.18 42.11 38.22 37.23 35.50 36.16 35.91 49.61 56.42 58.14 58.68 58.40 57.74 57.47 51.78 58.46 49.07 43.90 44.46 42.92 42.63 54.43 55.08 55.12 54.73 55.24 55.24 54.55 54.92 54.88 54.26 57.02 54.37 53.68 42.49 33.86 34.42 35.53 37.92 39.36 39.81
41.52 39.58 39.05 39.95 37.21 34.97 34.35 34.88 34.60 45.07 48.53 51.64 49.13 42.15 43.92 46.18 42.17 40.18 49.67 54.17 52.72 51.96 50.90 49.89 50.94 46.24 36.55 35.19 37.81 42.28 42.80 44.20 46.42 35.02 36.92 37.88 32.82 28.21 30.16 32.14 34.63 35.16 35.01
37.16 35.67 35.23 35.13 34.68 33.21 33.54 34.27 38.76 45.06 41.81 37.43 34.84 33.78 35.29 34.99 33.96 35.41 41.41 46.09 48.33 43.38 34.53 33.95 33.29 32.16 31.02 30.58 31.34 38.83 38.39 36.23 40.83 35.16 33.38 34.30 31.61 28.02 27.74 27.69 30.14 33.18 33.20
35.39 34.64 33.42 33.57 33.02 33.20 32.19 33.24 39.18 41.75 36.37 33.97 31.38 31.05 30.98 31.77 31.88 32.66 37.07 39.07 39.28 33.29 32.52 30.71 28.53 27.61 27.12 27.06 27.15 27.53 28.39 32.93 35.36 33.36 27.58 30.65 30.97 29.31 24.74 27.65 28.88 31.43 31.56

GFSMA_sfc_wetblb_099.txt.gz
Wetbulb
68.60 69.09 68.74 69.33 68.88 68.39 68.16 67.51 65.02 64.98 63.84 64.62 66.67 65.36 65.27 65.48 65.10 65.16 64.25 62.99 63.54 64.64 63.84 64.18 63.97 64.01 63.47 62.79 61.95 61.35 60.73 60.89 60.84 60.50 60.35 60.48 60.40 60.07 59.86 59.47 58.95 58.90 58.30
68.64 68.28 68.16 67.78 68.35 67.90 67.83 65.22 64.51 63.85 63.71 64.18 65.66 65.18 64.80 64.45 64.24 64.60 64.05 62.69 62.23 63.43 63.96 63.94 64.06 63.98 63.46 62.57 61.58 61.17 60.84 60.65 60.53 60.23 60.09 60.05 60.17 59.70 59.15 58.90 58.22 58.05 57.72
67.83 67.81 68.12 67.94 67.42 67.96 66.67 66.18 64.39 63.64 63.14 64.96 64.29 64.54 64.21 64.00 63.10 63.06 63.37 62.87 62.15 61.40 62.52 63.82 64.10 63.66 63.07 62.59 61.93 60.97 60.53 60.52 60.73 60.20 59.72 59.73 59.69 59.42 58.91 58.31 57.93 57.76 57.43
67.05 65.41 65.93 66.36 67.74 66.92 66.60 64.46 64.44 62.54 62.45 64.18 63.14 63.37 63.38 62.58 62.57 63.06 62.90 63.05 62.62 62.22 61.64 62.27 63.24 63.32 63.25 62.56 61.53 60.80 60.63 60.63 60.13 60.35 59.47 59.52 59.24 59.08 58.75 58.32 57.81 57.47 57.44
67.25 67.33 66.46 66.54 67.21 65.23 65.00 63.60 63.98 62.69 61.78 62.72 62.25 62.50 62.58 61.19 61.94 61.79 62.52 62.44 63.21 62.63 62.11 61.60 61.62 61.71 62.29 62.59 61.43 61.35 61.70 60.97 60.38 60.47 59.79 59.47 59.14 58.91 58.77 58.37 58.01 57.48 56.86
66.67 66.64 66.34 64.69 64.73 63.69 63.58 62.21 62.35 62.10 62.62 61.94 61.09 61.21 61.42 62.41 62.54 62.24 62.06 62.41 62.67 62.78 62.90 62.84 62.32 61.44 60.50 61.94 61.93 61.22 61.79 61.78 60.66 60.46 60.18 59.89 59.37 58.72 58.49 58.31 58.22 57.84 57.31
66.21 65.56 63.57 62.03 61.73 60.77 60.75 61.44 62.40 60.53 60.52 62.92 60.25 59.84 60.60 62.36 61.44 61.20 61.66 62.08 62.59 62.14 62.43 61.20 62.07 61.63 60.79 60.56 61.68 61.53 61.97 62.03 61.88 60.91 60.42 60.09 59.53 59.31 58.88 58.07 58.01 57.90 57.82
66.02 64.14 62.59 61.52 60.44 59.93 59.65 60.18 60.57 60.23 61.97 62.23 59.67 58.02 54.85 56.66 59.49 60.32 60.60 61.25 63.10 61.70 61.38 61.61 61.97 61.97 62.07 61.05 60.39 61.10 61.60 62.09 62.39 61.77 61.19 61.03 60.64 60.21 59.20 58.52 58.16 57.90 57.69
65.31 63.29 61.92 61.33 59.81 59.92 59.05 59.70 60.28 59.89 59.45 61.75 61.13 58.32 54.12 53.00 56.18 58.69 59.92 60.55 61.63 60.90 61.36 61.55 62.15 62.08 62.75 62.44 60.46 59.55 58.23 58.76 61.90 63.20 62.51 61.71 61.14 60.90 60.45 59.68 59.44 58.99 58.39
61.20 60.98 60.81 61.35 60.05 59.64 59.15 59.74 61.32 60.60 61.09 59.28 61.03 61.11 60.68 59.78 55.07 54.15 58.60 59.23 60.38 60.04 61.68 60.90 61.12 61.59 61.97 61.62 60.80 58.01 55.33 54.71 56.92 61.00 62.79 62.91 62.24 61.77 61.30 61.01 60.58 60.39 60.15
61.19 60.22 60.03 60.21 59.63 59.52 59.52 59.97 60.67 61.75 62.33 60.71 60.37 59.69 60.82 60.72 60.28 57.65 54.35 56.03 59.29 60.61 60.72 61.16 61.18 61.24 60.96 62.33 62.56 59.83 53.60 53.34 54.24 57.30 59.81 61.75 62.86 62.99 62.23 61.93 61.69 61.32 61.12
59.68 59.24 60.33 59.63 59.70 59.55 59.94 60.40 62.55 62.29 61.50 61.19 61.27 61.62 59.93 58.51 57.50 57.31 56.51 57.56 57.29 59.28 60.72 61.30 61.19 61.56 62.04 62.03 60.22 55.86 53.41 51.54 52.42 55.13 57.23 58.81 60.42 61.66 62.38 62.89 62.93 62.64 62.21
58.92 58.65 59.16 58.90 59.68 59.92 59.82 60.29 60.57 60.55 61.89 61.64 61.29 60.48 60.26 59.48 60.20 59.59 56.20 54.11 56.60 58.12 59.51 61.85 61.97 62.17 61.28 61.84 61.51 55.53 54.21 50.33 50.79 52.91 54.81 56.09 57.30 58.31 59.38 60.28 61.17 62.06 62.60
59.44 58.72 58.36 57.57 57.64 58.65 59.54 58.95 58.17 57.93 58.27 58.23 58.21 58.60 58.63 59.38 60.29 60.33 59.25 57.12 54.62 55.47 58.29 59.75 61.71 62.05 62.06 62.12 60.48 54.17 59.71 50.88 49.91 50.23 51.73 53.52 54.54 55.26 55.97 56.92 57.88 58.92 59.67
60.37 59.90 58.41 56.78 57.22 57.33 57.33 57.25 57.23 57.21 57.46 57.91 58.66 59.25 58.29 58.75 59.01 60.97 60.27 60.18 57.22 53.17 53.58 58.55 58.24 62.48 62.91 63.19 60.89 62.96 62.49 55.81 49.86 49.10 49.23 50.67 52.31 53.36 53.59 54.20 54.85 55.61 56.62
60.66 59.43 58.75 57.23 56.56 56.96 57.70 57.29 56.65 57.30 56.49 57.64 56.77 58.65 59.10 59.14 58.94 59.04 59.92 60.05 59.80 57.10 54.15 57.50 57.26 58.07 60.83 60.79 60.48 62.37 62.53 54.87 50.95 48.61 47.96 48.41 49.44 50.98 51.64 51.97 52.43 53.08 53.81
60.91 59.37 58.08 57.63 56.06 55.33 55.37 54.73 55.29 55.05 55.35 55.82 56.50 57.46 56.81 59.64 59.35 59.56 59.73 59.29 58.85 58.09 54.85 57.71 59.23 57.57 56.62 57.25 58.71 60.33 61.31 61.70 61.58 48.93 47.60 47.31 47.20 47.77 48.71 49.30 49.62 50.49 51.31
61.76 61.16 59.56 57.87 56.34 55.54 55.25 54.89 54.54 54.21 53.40 53.31 54.62 54.83 55.57 55.44 56.70 59.77 59.08 58.28 58.31 57.43 56.54 56.11 57.29 55.71 57.27 57.65 58.46 58.18 58.94 61.08 61.82 55.42 48.61 47.75 47.69 47.07 46.49 46.49 46.77 47.27 47.78
60.34 61.07 60.58 58.50 57.42 56.34 56.16 55.71 55.04 55.23 55.78 55.78 55.47 57.16 58.05 57.33 57.17 56.35 58.53 58.28 58.35 57.70 56.98 55.17 54.76 57.78 58.91 60.42 60.61 61.26 61.28 61.76 61.83 56.07 48.83 46.97 46.77 46.50 46.29 45.76 45.82 45.89 45.96
60.72 60.61 61.10 60.29 59.34 58.67 57.35 56.50 55.61 55.99 57.31 58.25 58.99 58.95 60.10 57.61 54.91 55.84 55.34 55.78 57.01 56.85 56.62 55.25 56.29 57.61 58.99 60.72 60.73 59.16 59.33 61.11 60.79 62.00 57.37 53.95 50.69 47.82 46.82 46.73 46.35 46.24 45.78
60.69 60.97 60.85 60.96 60.49 59.61 50.41 50.64 56.98 57.22 58.27 57.39 59.38 59.55 58.14 54.99 49.82 51.94 55.38 56.03 57.61 57.11 56.85 55.66 55.85 57.69 58.48 58.82 58.22 59.97 58.86 59.84 60.76 61.58 60.73 61.72 62.06 61.46 46.38 41.19 41.37 41.75 41.94
55.52 55.14 51.53 56.19 45.00 40.86 36.05 36.97 40.76 57.46 58.61 58.28 57.77 58.30 58.40 51.29 51.89 46.13 45.72 46.22 51.60 57.50 56.84 56.72 56.94 56.51 57.84 58.92 59.42 58.92 58.03 56.46 54.10 58.57 56.85 56.27 54.19 36.54 36.75 37.22 38.31 39.58 40.73
43.99 44.07 41.36 39.45 36.92 36.57 34.85 35.95 35.87 50.36 57.47 55.95 50.10 51.36 53.66 46.49 41.04 43.97 45.26 42.89 43.71 41.92 38.49 51.03 52.66 53.66 53.47 42.61 43.04 49.93 52.69 53.04 52.21 43.23 45.09 46.89 36.21 32.61 33.49 35.00 36.44 36.62 36.64
37.81 38.31 37.91 36.81 35.12 33.88 34.27 35.31 35.65 46.65 42.17 37.59 36.46 37.79 38.82 37.25 35.12 36.49 41.77 46.68 46.26 35.40 36.76 38.07 34.70 31.99 31.44 31.76 34.05 39.40 40.20 41.01 43.45 36.78 36.97 37.44 33.18 30.07 31.05 31.90 34.45 35.06 34.99
34.76 34.31 35.35 35.45 33.51 32.64 33.87 35.19 42.64 40.21 35.68 33.39 32.50 32.77 33.69 32.81 32.85 35.13 42.42 44.80 37.10 31.75 32.30 31.74 30.92 30.10 30.31 30.10 30.22 37.15 33.24 34.46 36.73 33.68 29.22 32.53 32.71 29.80 28.65 28.60 31.18 32.66 32.90
34.06 33.87 32.67 32.93 33.54 31.95 32.60 34.13 39.84 38.06 33.96 31.40 30.97 30.93 30.83 30.92 31.50 32.95 35.80 38.42 30.40 29.08 28.48 27.93 27.51 27.61 28.28 28.06 28.95 28.36 28.43 31.52 32.09 32.64 28.08 29.39 31.51 29.97 25.69 29.02 30.59 31.82 32.16

GFSMA_sfc_wetblb_102.txt.gz
Wetbulb
67.16 66.94 66.39 66.61 65.95 65.95 65.22 64.69 64.40 64.03 63.49 63.40 64.41 64.04 64.16 63.38 63.19 62.86 63.11 63.54 64.08 64.73 63.99 63.88 63.90 64.45 64.06 63.58 62.67 62.37 61.55 61.25 60.75 61.09 61.22 60.74 61.04 61.23 60.56 60.00 59.92 59.19 58.93
67.12 66.51 65.75 65.73 66.31 65.53 65.57 65.03 64.53 63.41 62.54 63.40 63.47 63.63 63.55 63.04 63.24 61.92 62.38 62.23 62.71 63.50 63.88 63.88 64.34 64.26 63.72 63.22 62.14 61.92 60.84 61.01 60.85 60.99 60.60 61.00 61.08 60.57 60.53 59.51 58.86 58.78 58.25
67.77 66.33 65.64 65.48 66.00 65.48 65.53 64.69 63.46 63.68 62.91 63.47 63.00 63.17 62.89 61.66 61.47 61.85 61.03 61.10 61.20 61.36 62.61 64.09 64.54 64.53 63.47 62.89 61.73 61.38 61.13 61.47 60.88 60.16 60.06 60.39 60.36 59.81 59.78 59.07 58.43 58.14 57.90
66.95 66.26 65.82 65.68 65.32 65.59 65.06 63.85 62.24 61.77 61.80 62.05 62.05 62.31 60.86 60.59 59.67 60.85 61.07 60.43 60.19 60.93 61.38 62.51 63.53 63.81 63.57 62.64 62.27 61.24 60.79 60.93 60.27 59.95 59.77 60.14 60.09 59.95 59.31 58.77 58.30 58.07 57.87
66.62 66.13 65.11 65.01 64.66 64.41 64.17 63.83 62.36 61.26 60.90 61.19 61.51 61.79 60.42 58.36 59.19 61.21 59.84 59.81 59.95 59.72 60.04 61.42 61.77 61.75 62.51 63.16 62.20 61.05 61.42 61.18 60.60 60.45 59.98 60.14 59.63 59.64 59.33 59.03 58.44 58.03 57.96
66.40 66.08 64.88 64.50 64.17 64.10 63.50 63.33 61.99 62.12 61.26 60.88 62.21 61.04 58.46 58.10 57.87 58.10 59.81 60.83 60.16 59.86 59.65 60.17 60.05 59.61 60.58 62.21 61.90 61.24 61.49 61.38 60.84 60.83 60.51 60.17 59.76 59.60 59.29 59.08 58.84 58.46 57.97
65.46 65.08 64.21 63.79 64.01 63.16 62.48 63.07 61.77 61.04 60.11 61.05 58.99 57.97 58.68 59.50 58.42 58.29 58.42 60.14 60.19 60.14 60.13 60.62 60.00 59.44 59.49 60.87 61.70 62.00 61.71 62.39 61.80 61.28 60.95 60.57 60.30 60.32 59.93 58.99 58.99 58.78 58.56
65.26 64.47 63.61 62.90 63.13 62.39 61.96 62.01 61.00 59.83 59.75 60.52 57.41 55.47 53.12 55.21 57.06 58.07 57.47 58.17 59.37 59.62 59.82 59.94 60.15 59.36 58.97 59.01 58.48 61.57 61.32 62.17 62.11 61.87 61.83 61.40 61.11 60.80 60.28 59.14 58.86 58.65 58.73
64.42 64.05 63.30 62.13 61.56 61.33 60.50 60.64 60.68 59.58 58.05 59.52 59.50 55.73 52.46 50.97 54.03 57.00 57.81 56.76 57.12 58.67 58.75 58.74 58.89 59.45 58.69 58.44 58.44 58.69 58.32 58.73 61.56 63.18 62.72 61.79 61.52 61.29 60.95 60.17 59.81 59.14 58.80
63.94 63.62 62.82 62.32 60.95 60.87 60.24 60.30 60.86 60.13 59.08 57.46 58.84 58.70 56.89 56.60 52.48 51.48 56.41 57.44 57.43 58.03 57.37 58.54 58.43 58.54 58.46 58.91 58.30 56.62 55.10 54.77 57.18 60.95 62.66 62.86 62.41 61.90 61.62 61.23 60.84 60.58 60.41
62.12 61.05 60.79 61.10 60.28 60.34 60.22 59.99 60.18 60.04 60.08 58.41 57.81 57.13 56.61 56.76 55.82 53.21 51.26 53.77 55.93 57.04 56.62 57.02 57.04 56.76 58.22 58.58 58.41 57.33 54.19 53.04 54.03 57.74 60.29 62.01 63.23 62.62 62.27 61.95 61.71 61.58 61.36
60.88 59.75 60.00 60.12 60.81 59.92 59.68 59.79 60.02 59.67 59.77 59.41 58.84 58.14 57.14 55.04 54.83 54.02 52.75 53.68 52.96 54.65 57.00 56.66 56.63 57.06 57.31 57.57 58.47 55.80 52.85 51.86 52.41 55.10 57.34 59.14 60.88 62.14 62.93 62.84 62.49 62.36 62.29
58.55 58.70 59.56 59.08 59.11 59.56 59.67 60.31 60.56 60.12 59.89 59.32 59.12 58.33 58.38 57.48 57.07 56.34 54.52 53.80 53.72 55.10 56.48 57.26 57.59 57.56 58.52 57.82 58.03 54.84 53.20 50.12 50.83 53.00 54.81 56.17 57.58 58.73 59.91 61.33 62.55 63.10 63.28
58.65 58.74 59.22 59.38 59.23 59.59 59.85 59.80 60.35 59.97 59.95 59.67 59.07 58.34 57.70 57.35 57.46 56.39 55.84 52.86 50.47 51.92 55.39 55.22 57.27 57.90 58.36 58.18 57.63 53.81 56.72 50.25 49.26 50.16 51.85 53.56 54.74 55.48 56.18 57.14 58.41 59.46 60.31
59.20 59.08 58.67 58.34 58.71 59.31 58.81 58.25 57.39 57.21 57.83 57.67 57.89 57.68 57.34 57.33 57.28 57.38 56.91 56.95 53.90 49.93 51.05 54.83 54.99 58.44 59.01 59.20 58.06 58.31 58.08 54.22 50.08 49.09 49.19 50.43 52.35 53.68 54.13 54.74 55.36 56.18 57.05
59.29 58.25 57.48 57.70 57.59 57.51 57.65 57.86 57.33 57.43 57.41 57.39 57.75 57.89 57.36 56.28 56.73 56.97 57.22 57.36 56.73 54.25 50.12 53.18 54.85 56.60 58.93 60.01 58.78 58.69 58.84 54.66 50.53 48.22 47.88 48.18 49.39 51.06 51.83 52.26 52.91 53.66 54.31
59.71 58.94 57.75 56.84 56.71 56.86 56.99 57.09 57.08 56.82 56.69 56.77 56.73 56.86 57.13 57.04 55.87 56.73 56.60 56.70 55.85 55.08 52.85 53.34 54.56 55.75 55.77 55.50 57.23 56.90 58.35 59.26 58.71 49.46 48.08 47.69 47.76 47.96 48.56 49.20 49.92 50.94 51.72
59.33 58.60 58.44 56.88 56.43 56.45 56.78 56.23 55.71 56.13 55.89 55.81 56.13 55.73 55.79 57.01 55.72 56.18 56.69 56.19 55.21 55.63 54.10 52.07 53.66 54.10 53.40 54.10 55.07 55.60 56.62 58.11 58.12 54.11 49.54 48.69 48.22 47.08 46.93 46.96 47.10 47.57 48.23
59.61 59.02 58.17 57.16 56.13 55.79 55.15 55.45 55.35 54.32 54.68 55.05 54.78 54.82 54.69 54.19 53.63 53.74 54.70 55.14 55.05 55.88 53.99 52.89 52.67 53.77 54.09 53.89 54.49 55.24 55.61 56.15 57.55 54.08 49.50 47.28 47.36 47.43 47.19 46.45 46.36 46.20 45.98
59.79 59.59 59.06 57.75 57.07 56.26 55.77 55.69 55.47 55.10 54.29 54.30 54.45 54.55 54.78 54.78 53.92 53.62 54.28 53.96 54.49 54.22 53.93 52.67 52.57 53.16 54.03 55.13 55.84 54.76 54.43 57.11 57.55 59.81 55.53 52.13 49.54 46.32 44.04 43.24 41.94 42.31 42.85
59.30 59.50 59.22 58.47 56.82 53.58 44.90 50.24 55.40 55.13 55.13 54.85 55.50 55.76 55.51 54.25 50.46 52.69 54.65 54.43 53.92 52.63 53.12 53.02 52.73 53.55 54.22 54.63 54.66 56.70 56.34 56.27 56.65 57.57 57.87 58.64 52.86 44.07 39.82 39.43 39.55 40.52 41.40
49.81 48.00 48.13 44.74 41.80 38.42 36.15 37.07 41.89 54.74 55.28 55.75 56.49 56.84 57.28 49.40 48.76 43.18 42.82 42.67 48.13 53.12 53.20 53.18 54.13 54.36 54.72 54.90 52.20 52.27 52.54 51.84 50.89 45.14 48.37 49.84 42.19 35.88 35.71 36.50 37.23 37.64 38.11
42.19 40.23 39.16 37.80 36.03 35.80 35.77 36.85 36.74 50.02 45.82 43.96 43.29 45.24 46.18 41.26 38.72 42.46 42.80 40.70 36.94 36.44 35.36 47.27 49.90 48.19 42.92 36.12 37.86 43.74 47.74 46.67 46.16 40.20 43.47 42.78 36.13 32.36 33.24 34.59 35.82 36.00 36.06
37.39 36.27 35.46 35.25 34.57 34.46 35.38 37.13 39.02 40.40 36.57 35.33 35.18 36.43 36.14 35.23 34.42 36.13 40.96 38.24 34.04 32.74 33.80 34.36 32.84 31.33 31.24 31.61 33.25 37.58 39.04 39.81 40.61 32.32 32.51 34.80 33.03 29.42 30.67 32.03 34.30 35.01 34.96
34.13 33.92 34.08 33.28 32.72 32.95 35.14 37.44 36.99 35.62 33.40 32.23 32.64 33.07 33.16 32.76 33.40 36.18 42.62 35.42 31.42 30.16 32.04 32.23 31.51 31.19 31.29 31.30 31.33 36.19 31.64 33.46 34.08 29.76 29.42 30.34 31.47 28.77 28.72 28.93 31.43 33.21 32.97
32.28 32.83 31.59 31.78 32.02 31.63 33.95 36.64 36.30 34.29 32.08 31.08 30.97 31.11 31.60 31.92 32.20 34.07 34.67 32.22 28.16 28.21 28.29 28.22 28.45 29.00 29.63 29.94 30.04 29.49 29.56 30.57 28.76 28.85 28.40 29.04 30.18 30.22 26.53 29.26 30.18 31.09 31.59

GFSMA_sfc_wetblb_105.txt.gz
Wetbulb
65.16 64.78 64.41 65.43 64.66 64.75 63.74 63.20 62.76 62.62 61.87 62.34 62.92 64.12 63.45 63.31 62.95 62.99 63.34 63.45 64.28 65.21 64.68 64.41 63.74 64.25 63.89 63.80 63.36 62.42 61.86 61.49 61.20 61.03 60.86 60.93 61.48 61.40 60.80 60.35 60.01 59.63 59.72
65.36 64.97 64.48 64.83 65.19 64.45 63.80 63.57 63.05 62.48 61.66 61.89 62.46 63.86 63.56 62.90 62.60 62.30 62.56 62.80 62.77 63.81 64.11 63.81 63.85 64.70 63.89 63.63 63.19 62.28 61.69 61.21 61.02 61.55 61.23 60.66 61.48 61.05 60.71 59.80 59.41 59.08 59.04
64.93 64.54 64.27 63.72 64.02 63.87 63.32 63.30 62.99 62.50 61.28 62.02 62.40 63.21 63.19 63.09 61.96 62.28 62.19 61.86 61.66 61.37 62.25 63.66 64.44 64.35 63.49 63.50 62.71 61.55 61.39 61.00 60.65 61.25 61.08 60.81 60.59 60.15 59.93 59.48 59.11 58.88 58.57
64.61 64.29 63.65 63.49 64.00 63.21 63.76 62.74 63.40 61.87 60.79 61.43 61.79 62.04 62.65 62.12 61.53 61.43 61.36 60.90 60.28 60.02 61.10 62.38 63.48 63.80 63.87 63.07 62.37 61.57 61.10 61.18 60.95 60.65 60.28 60.80 60.48 59.95 59.61 59.25 58.82 58.56 58.17
64.87 64.01 63.81 64.05 63.90 62.89 63.12 62.49 61.51 61.90 60.07 60.61 61.47 61.66 61.94 60.36 60.25 60.88 59.93 59.67 59.33 58.73 59.14 61.41 61.90 62.07 62.68 63.11 62.46 62.16 61.90 61.33 61.02 60.34 59.82 60.43 60.36 60.13 59.74 59.29 58.82 58.61 58.33
64.87 63.97 62.71 62.47 61.93 62.51 62.42 62.51 60.96 60.92 60.60 60.23 61.91 61.39 61.22 59.45 59.72 59.00 58.63 59.66 59.23 59.02 59.05 59.47 60.88 60.10 60.77 62.36 62.77 61.69 61.60 61.48 61.31 60.61 60.44 60.22 60.24 59.95 59.85 59.53 59.16 58.61 58.43
64.85 64.20 63.35 61.89 61.68 61.79 61.90 61.96 61.08 59.77 59.05 60.18 59.66 59.27 58.26 58.04 56.72 58.19 58.10 58.42 58.37 58.61 58.84 59.50 59.31 58.70 59.50 61.09 62.10 61.60 61.86 62.10 61.95 60.99 61.01 60.68 60.91 60.60 60.30 59.61 59.53 59.23 58.80
64.04 63.46 62.50 61.98 61.78 62.09 61.58 61.62 61.10 60.13 59.70 60.48 58.23 56.64 53.60 55.25 56.35 56.53 57.86 58.16 57.65 58.75 58.73 59.11 59.25 58.55 58.34 58.81 58.29 61.60 62.02 62.19 62.14 61.74 62.02 61.77 61.33 61.06 60.62 59.61 59.51 59.36 59.31
63.01 62.57 61.75 61.87 62.09 62.81 62.04 61.95 61.50 60.26 58.38 59.90 59.26 55.49 51.91 51.02 52.90 55.07 55.69 57.28 58.20 58.29 58.62 59.03 58.71 58.67 58.20 58.11 58.50 58.97 58.31 58.62 61.99 63.23 62.89 62.07 61.75 61.66 61.40 60.91 60.41 59.83 59.27
61.81 62.40 61.52 61.11 62.09 62.20 61.67 61.74 61.83 60.62 59.74 58.08 58.98 59.42 56.50 55.92 51.89 50.34 54.63 55.37 56.54 57.65 57.97 58.80 58.00 58.31 58.40 58.00 57.73 56.49 55.07 54.63 56.96 61.36 62.96 62.89 62.40 62.05 61.86 61.58 61.21 60.97 60.58
61.46 61.82 62.54 61.47 61.22 61.11 61.26 61.24 61.12 60.44 60.05 59.09 58.45 57.39 55.67 55.59 55.00 52.79 50.63 52.30 54.38 55.93 56.39 57.17 57.27 57.08 57.68 58.22 57.24 56.24 53.81 53.20 53.97 57.80 60.41 62.32 63.23 62.64 62.16 62.12 61.95 61.64 61.40
59.72 60.42 60.28 60.74 61.10 60.72 60.50 60.53 60.90 60.43 59.63 59.71 59.13 57.79 56.35 54.53 53.75 52.80 52.10 52.19 52.37 53.68 55.90 55.51 56.17 57.21 56.31 57.01 57.82 55.29 52.93 51.54 52.50 54.88 57.35 59.35 60.98 62.31 62.97 62.69 62.54 62.54 62.23
58.98 58.86 59.07 58.74 58.85 60.10 60.12 60.34 60.26 60.12 59.88 58.97 58.70 57.95 57.92 57.42 57.04 55.46 54.14 52.94 51.76 53.25 54.16 55.63 55.25 56.06 57.12 55.64 56.46 54.62 53.15 50.64 51.00 52.97 54.96 56.27 57.53 58.87 60.24 61.48 62.61 63.17 63.04
58.48 58.59 58.40 58.09 59.22 59.76 59.78 59.97 60.02 59.74 59.89 59.26 58.69 58.46 58.39 57.92 57.57 56.09 54.98 52.99 50.43 51.85 53.42 54.03 56.65 56.06 56.19 57.28 56.57 53.00 55.51 49.34 49.71 50.40 52.02 53.52 54.59 55.39 56.21 57.49 58.70 59.94 61.14
58.04 58.48 58.61 58.04 59.03 59.29 59.30 59.58 59.69 59.27 59.34 59.30 58.97 58.69 58.37 57.26 56.84 55.40 55.03 55.16 51.37 47.90 51.47 53.48 54.16 57.19 57.36 57.04 55.90 55.96 55.90 52.32 48.85 48.42 48.97 50.39 52.19 53.36 54.01 54.60 55.32 56.16 57.32
58.58 58.31 58.20 58.10 58.39 58.57 59.00 58.34 58.29 59.34 58.97 59.25 58.78 58.16 57.95 56.80 55.62 55.20 55.16 56.06 56.08 54.02 50.93 52.99 54.75 55.11 56.72 57.86 56.85 57.28 57.46 53.52 50.23 48.25 47.71 48.14 49.18 50.98 51.86 52.51 53.06 53.69 54.56
58.62 58.47 58.07 57.46 57.28 57.32 57.32 58.10 57.28 57.58 57.74 57.90 57.92 57.68 57.30 56.68 55.82 55.72 55.51 55.82 55.48 55.13 52.59 53.89 54.68 55.32 54.81 55.84 57.16 57.39 57.88 57.38 57.29 49.48 48.70 48.54 47.51 47.73 48.74 49.44 49.87 50.81 51.64
58.67 58.47 57.73 57.22 56.94 56.80 56.88 56.74 56.70 56.98 56.84 56.62 56.96 57.00 56.68 57.17 55.11 55.20 55.56 55.26 55.55 55.61 54.24 52.66 53.38 53.79 54.15 54.67 54.88 55.17 55.59 57.69 57.61 53.62 48.83 48.19 47.66 47.02 46.47 46.79 46.61 46.77 47.24
58.31 58.75 57.63 56.90 56.72 56.80 56.60 56.82 56.70 56.48 56.60 56.74 56.66 56.28 56.32 56.34 55.48 54.87 55.20 55.14 54.91 55.41 54.34 53.12 52.22 53.14 53.09 54.00 53.72 54.11 54.52 54.81 55.99 52.57 48.75 47.72 46.97 45.28 43.97 42.96 43.32 43.58 44.57
58.03 58.14 57.54 57.06 56.63 56.32 56.40 56.58 56.18 55.98 55.94 56.26 56.44 56.12 56.18 55.74 55.29 54.66 54.44 53.54 53.98 53.98 52.63 51.85 51.46 51.40 51.57 52.56 52.25 52.49 52.72 54.34 54.84 57.55 51.27 44.03 42.16 41.13 40.65 40.42 40.82 41.52 42.03
58.97 58.27 57.69 57.15 56.04 54.35 50.12 55.20 55.58 55.22 54.41 54.26 55.03 54.77 55.25 53.84 49.67 51.43 54.57 54.08 52.51 52.29 50.60 50.33 49.96 50.94 51.13 51.85 52.68 53.70 54.65 55.80 53.60 50.37 54.97 48.51 42.76 40.02 38.60 38.53 38.98 39.37 39.63
46.29 44.80 44.34 43.59 41.43 39.17 36.55 37.98 46.53 55.18 55.05 54.57 53.95 54.53 55.09 47.81 46.26 40.60 41.27 39.82 44.12 52.99 50.78 50.88 51.03 50.43 51.44 53.44 48.71 50.83 50.78 49.84 48.20 41.21 46.48 42.25 38.69 34.81 35.56 36.44 37.17 37.20 37.25
39.16 37.72 37.27 37.06 36.61 37.15 36.76 37.89 38.30 48.46 46.18 43.87 43.24 46.59 44.20 40.00 40.06 44.34 37.45 36.04 35.04 34.77 33.06 44.44 49.91 46.28 41.07 35.79 37.29 41.85 45.21 45.70 44.32 35.66 39.92 39.08 34.03 31.07 33.27 35.30 36.29 36.37 36.35
35.16 34.28 34.17 35.09 36.02 37.52 36.89 37.23 36.57 36.86 35.07 34.57 34.92 35.64 35.83 35.71 35.65 39.90 37.07 34.08 32.67 32.83 32.98 33.50 32.44 31.72 31.60 32.08 33.36 37.35 38.89 39.89 34.59 31.68 32.19 33.59 32.26 29.00 30.76 32.37 34.89 34.95 34.53
32.41 31.91 32.35 32.22 33.18 34.83 35.83 35.69 35.02 33.70 32.04 31.58 32.16 33.12 33.09 33.48 35.01 38.86 35.82 31.91 30.49 30.32 32.87 33.18 33.06 32.74 32.08 32.08 32.55 35.98 32.40 33.99 32.74 28.51 28.96 31.32 30.87 28.22 28.87 29.34 31.75 33.29 33.15
31.69 31.40 30.60 30.91 31.97 32.11 34.65 35.67 35.14 33.51 31.31 30.73 31.35 31.60 32.40 32.40 33.25 34.69 34.79 32.77 29.00 28.40 29.05 29.40 29.74 30.53 30.61 29.84 29.56 29.05 27.83 26.75 30.18 27.37 28.15 28.69 30.32 29.44 25.85 29.47 30.15 30.55 29.95

GFSMA_sfc_wetblb_108.txt.gz
Wetbulb
64.25 64.59 64.79 64.99 64.91 63.77 62.90 61.89 61.17 61.14 60.84 61.33 61.47 62.45 62.69 63.50 63.29 64.00 64.33 63.80 64.85 66.26 65.91 65.26 64.35 63.69 63.45 64.03 63.59 62.31 61.68 61.44 61.38 60.85 60.59 60.26 60.10 60.02 60.11 60.66 60.14 59.86 59.92
64.15 64.06 64.20 64.26 64.12 64.13 63.30 62.43 61.88 61.33 60.62 61.00 60.69 62.51 63.01 63.44 63.15 63.41 63.50 63.31 62.82 64.20 64.78 64.52 64.05 63.88 63.64 63.38 63.01 62.14 61.88 61.51 61.45 60.91 60.87 60.96 60.62 59.66 60.52 59.98 59.61 59.44 59.46
64.47 63.74 63.59 63.44 63.41 64.18 63.37 62.08 61.17 61.45 60.23 61.30 60.53 61.75 62.95 62.93 62.69 62.68 62.76 62.63 62.21 61.81 62.74 63.77 64.03 64.58 64.00 63.61 62.87 62.43 61.86 61.53 61.05 61.44 60.81 60.74 60.91 60.65 60.14 59.77 59.38 59.01 58.99
64.75 63.89 63.37 63.20 63.51 62.88 62.89 62.18 62.24 62.01 61.38 61.14 60.30 60.60 61.43 62.24 62.09 62.36 62.29 61.66 61.28 60.96 61.02 61.99 63.17 64.18 63.81 63.49 62.60 62.64 62.08 60.55 60.72 61.65 61.13 60.71 60.95 60.33 59.99 59.36 59.21 58.95 58.61
64.28 64.16 63.53 63.13 62.99 62.71 62.51 62.16 62.52 62.53 61.30 60.80 60.44 60.32 61.02 61.24 61.35 62.53 61.67 60.93 59.83 58.38 58.49 61.05 61.75 61.82 62.66 63.37 62.74 62.49 61.96 61.44 60.82 61.42 61.05 60.98 60.84 60.22 59.90 59.51 58.98 58.59 58.40
63.99 63.51 63.02 62.83 62.60 61.91 62.43 62.72 62.57 62.00 60.70 60.36 60.78 60.79 60.10 59.91 60.71 60.97 60.73 60.63 59.66 58.47 58.34 59.21 61.23 60.30 60.72 62.47 62.86 62.27 61.77 62.16 61.60 61.22 60.57 60.59 60.71 60.48 59.99 59.60 59.19 58.87 58.70
64.31 63.49 62.80 62.15 61.73 61.63 62.21 61.93 61.49 60.46 59.51 60.37 59.77 59.30 59.10 58.37 58.45 59.31 59.83 59.43 58.68 58.37 57.91 58.73 59.40 60.55 60.30 61.14 62.21 62.19 62.20 62.53 62.21 61.19 60.60 60.59 60.70 60.76 60.82 59.98 59.79 59.34 59.02
64.36 63.87 62.94 62.01 61.21 60.50 60.74 61.42 60.96 59.81 59.62 60.62 58.23 58.16 54.93 55.54 56.60 58.32 57.97 57.71 57.45 58.30 58.09 58.49 58.53 58.65 58.76 59.28 58.83 61.69 62.15 62.01 62.13 62.25 61.89 61.38 61.19 61.02 60.80 60.03 59.86 59.66 59.58
63.71 63.64 62.94 62.44 61.33 61.43 61.13 61.51 61.44 59.93 58.42 59.81 59.22 56.66 52.36 51.45 54.09 55.57 56.50 56.83 56.51 57.08 57.47 58.14 58.39 58.73 58.45 58.28 58.60 58.91 57.89 58.77 61.94 62.94 62.28 61.91 61.80 61.63 61.45 60.91 60.50 60.01 59.86
62.94 62.67 61.76 61.67 61.33 62.30 62.34 61.94 62.24 60.95 59.18 57.62 58.63 59.04 56.00 55.44 52.41 51.60 55.09 56.22 56.93 57.01 56.83 57.70 57.84 58.04 58.17 57.59 57.81 56.46 55.11 54.76 57.29 61.52 62.84 62.76 62.38 62.21 61.98 61.84 61.49 61.04 60.52
61.99 62.80 61.35 60.89 61.01 62.03 62.24 61.56 61.26 61.07 60.15 59.29 58.51 57.85 55.93 55.17 54.89 53.70 51.88 52.87 54.82 57.47 57.18 57.58 57.70 57.39 57.59 57.44 57.04 56.41 53.99 53.38 54.07 57.72 60.91 62.50 63.02 62.47 62.15 62.15 61.95 61.73 61.49
61.70 62.24 61.67 61.55 61.65 61.28 60.77 60.93 61.33 61.04 60.45 60.04 59.70 58.37 56.30 54.38 53.24 53.42 51.72 52.24 53.18 53.69 55.42 57.20 56.86 56.90 57.00 57.13 57.40 54.99 52.85 51.89 52.77 54.97 57.33 59.55 61.30 62.47 62.69 62.63 62.54 62.61 62.37
60.75 61.22 61.67 60.98 60.81 60.97 60.88 60.80 60.68 60.91 60.61 59.78 59.51 58.17 57.68 56.59 56.27 55.17 54.03 52.61 52.19 52.72 53.85 55.05 55.92 56.66 56.63 56.72 57.25 54.21 53.03 50.39 51.07 52.86 54.85 56.29 57.81 59.24 60.44 61.59 62.73 63.22 62.85
60.05 59.85 60.00 59.20 59.02 59.29 60.09 60.53 60.31 60.43 60.45 59.60 59.32 58.39 57.53 57.18 57.20 56.25 55.02 53.42 50.97 51.49 52.62 52.79 55.24 55.24 56.63 56.98 56.34 52.70 56.02 49.67 49.52 50.33 51.85 53.40 54.54 55.58 56.52 57.81 59.07 60.03 61.08
58.72 58.06 58.81 58.22 57.74 58.12 58.96 59.39 59.55 59.53 59.67 59.60 59.12 58.66 57.74 57.70 57.63 56.94 56.14 55.17 52.79 49.35 50.81 52.89 53.06 55.83 56.52 56.87 55.53 55.07 56.15 51.63 49.14 48.60 49.14 50.42 52.18 53.30 53.79 54.56 55.39 56.38 57.53
58.32 57.42 57.32 57.06 57.84 58.21 58.50 58.93 58.99 59.33 59.13 59.31 59.04 58.54 57.97 57.58 57.03 55.83 55.29 56.16 55.31 52.11 49.65 54.09 53.97 55.58 57.07 57.00 55.55 55.80 56.03 52.08 48.38 47.33 47.22 48.06 49.23 50.81 51.78 52.22 52.81 53.44 54.64
57.92 56.88 57.10 57.64 57.65 57.77 58.23 57.99 58.33 58.95 58.53 58.59 58.84 58.26 57.68 57.64 56.60 55.39 55.27 55.35 55.01 54.82 52.18 53.50 54.33 55.10 55.78 56.11 56.64 56.27 56.83 56.74 56.06 47.72 46.92 46.69 46.77 47.25 48.07 49.10 50.00 50.33 50.77
57.80 57.24 57.20 57.22 56.98 56.96 57.33 57.37 57.07 57.81 58.32 58.05 57.77 57.94 57.41 57.42 56.44 56.15 55.65 54.73 54.84 55.41 53.36 51.94 53.70 53.77 53.98 55.62 56.25 55.17 56.78 57.74 56.95 53.04 49.29 48.22 48.21 47.62 45.82 44.85 44.79 44.97 45.51
58.05 57.76 57.77 57.24 56.32 56.38 56.66 56.79 57.35 56.97 57.11 57.72 57.79 57.40 57.34 57.05 56.38 55.96 55.99 55.41 54.96 55.09 54.48 52.99 52.63 53.95 54.39 54.17 54.03 54.22 53.52 53.91 55.20 52.77 48.42 41.94 43.13 42.72 41.75 41.75 42.21 42.71 43.24
57.86 57.86 57.70 57.56 57.30 57.06 56.77 56.80 56.62 56.36 56.48 56.28 56.52 57.12 57.18 57.00 56.66 55.61 55.19 54.82 54.72 54.10 53.86 53.29 53.52 52.84 52.95 53.45 52.90 51.83 50.49 51.81 53.04 50.51 42.76 40.97 40.42 40.41 40.24 40.59 40.93 41.29 41.47
58.34 58.11 57.26 56.88 56.11 55.17 48.44 53.94 56.30 55.94 55.82 55.88 56.20 56.24 56.44 54.91 50.46 52.85 55.71 55.11 53.72 53.12 52.85 52.57 50.92 49.58 49.76 50.10 49.68 51.91 51.88 52.82 49.57 48.88 46.90 43.07 40.25 38.52 38.29 38.56 38.98 39.21 39.22
44.75 44.29 43.31 42.90 42.24 40.93 37.28 38.35 43.36 55.36 55.11 54.80 54.36 54.64 55.23 48.51 43.82 41.64 40.47 38.10 47.04 53.39 52.33 50.97 50.96 48.43 48.44 50.21 48.49 51.07 51.92 51.69 48.76 39.77 46.28 36.83 37.39 34.99 36.12 36.99 37.45 37.27 37.29
40.35 37.91 38.09 39.38 38.68 38.28 37.95 38.91 40.70 46.97 43.86 42.97 43.44 47.80 43.58 40.68 42.48 39.64 36.05 35.56 34.90 34.33 33.78 47.78 49.84 45.40 43.88 38.54 38.94 42.46 44.96 46.03 43.04 34.44 38.45 33.31 32.82 31.04 33.96 35.88 36.46 36.19 35.51
33.91 34.36 34.66 35.86 36.10 35.84 35.73 36.09 36.18 36.86 35.47 34.96 35.47 36.73 37.53 37.36 37.38 39.59 36.79 34.35 33.01 33.34 33.63 34.21 34.29 32.14 32.36 33.19 35.36 38.39 39.59 37.57 33.70 31.89 32.67 32.09 31.23 28.97 30.83 32.65 34.53 34.13 33.87
31.62 31.81 32.69 33.28 33.33 34.30 35.31 35.08 34.89 33.66 32.51 31.92 32.97 34.15 34.73 35.10 36.72 37.89 35.23 32.14 30.76 30.69 33.24 33.45 33.06 32.53 32.25 32.43 34.03 35.88 33.25 34.13 31.93 29.08 29.70 31.79 30.13 27.72 28.75 29.53 31.67 33.64 33.14
31.12 31.17 30.85 31.59 32.86 32.35 34.35 34.75 34.07 32.89 30.87 30.72 31.50 31.98 33.09 33.92 34.77 34.27 33.00 31.09 28.09 28.43 29.66 29.96 30.21 29.95 29.54 29.62 29.47 29.71 31.21 32.39 30.43 27.71 28.66 29.99 30.04 28.32 25.12 29.32 29.78 30.19 26.62

GFSMA_sfc_wetblb_111.txt.gz
Wetbulb
64.83 65.64 65.91 65.67 65.24 64.13 62.59 61.25 60.58 60.36 60.25 60.18 60.73 61.47 62.18 62.89 63.64 64.09 64.40 63.77 64.85 66.73 66.73 66.06 65.15 64.12 63.57 63.87 63.95 62.48 61.93 61.97 61.21 60.99 60.43 60.96 61.25 60.17 59.65 60.07 60.26 60.12 59.85
64.39 64.93 64.57 64.56 64.43 63.28 61.69 61.46 60.52 59.80 59.46 59.81 60.94 62.15 61.99 62.09 63.05 63.53 64.16 63.97 63.05 64.65 65.87 65.47 64.43 64.14 63.65 63.64 63.42 62.18 61.32 61.15 61.31 60.86 60.32 60.24 59.76 59.57 60.35 60.34 59.90 59.66 59.44
63.85 64.01 64.43 63.69 63.60 63.05 61.22 60.40 59.68 59.78 59.06 59.88 59.51 60.67 61.49 61.75 62.24 63.54 63.35 63.29 62.97 61.99 63.13 64.51 64.38 64.06 63.67 64.04 62.96 62.04 61.64 61.20 61.52 60.94 60.51 60.13 59.87 59.51 59.86 59.92 59.54 59.58 59.44
63.82 63.31 63.32 63.19 62.51 62.73 62.26 60.72 60.87 60.60 60.86 60.34 58.53 59.50 60.54 61.10 61.64 62.80 62.98 62.76 62.32 62.04 61.59 62.54 63.24 63.84 63.53 64.04 62.96 62.41 62.02 61.01 61.46 61.45 61.39 60.74 60.04 59.73 60.27 59.81 59.30 59.15 59.17
63.69 63.37 62.84 62.65 62.28 61.99 61.94 61.39 61.57 60.65 60.36 60.14 60.65 60.06 59.88 59.70 61.07 62.68 62.06 62.07 61.63 59.86 59.35 61.07 61.41 61.87 62.68 63.85 63.24 62.78 62.89 61.40 61.10 61.82 61.63 60.84 60.12 60.65 60.16 59.64 59.47 59.15 58.68
63.73 63.32 62.63 61.93 62.04 61.72 61.38 61.24 60.79 61.82 61.37 60.26 60.83 60.69 60.70 58.83 60.38 61.66 61.54 61.98 60.83 59.06 58.32 58.54 59.63 60.31 60.57 62.46 63.08 62.99 62.92 62.29 61.59 61.44 61.28 61.34 60.58 60.78 60.22 59.86 59.43 59.13 58.92
63.39 63.00 62.65 61.73 61.55 61.41 61.44 61.46 61.73 61.46 60.52 60.51 59.11 59.06 59.56 58.87 59.82 60.80 61.25 60.89 60.12 58.54 58.05 58.28 58.63 60.05 60.31 61.04 62.36 63.05 62.77 62.01 62.51 61.61 61.33 60.86 61.23 61.32 60.91 59.96 59.62 59.41 59.07
63.69 63.31 62.46 61.69 61.15 61.21 61.40 61.87 61.04 59.98 60.16 60.35 57.79 57.51 54.59 55.62 57.55 59.09 59.84 59.81 58.92 58.76 58.11 58.35 58.64 58.58 59.83 59.92 59.73 62.16 62.79 62.53 62.89 62.10 61.79 60.26 61.08 61.30 60.85 60.61 60.20 59.98 59.53
64.06 63.71 62.72 62.70 61.56 62.03 61.54 61.59 60.94 60.34 58.68 59.49 59.80 56.86 53.12 52.01 54.76 56.66 57.29 57.87 57.70 57.47 57.88 57.96 57.81 58.14 57.58 58.12 58.72 59.31 57.99 58.97 61.73 62.51 60.73 61.53 61.47 61.37 61.24 60.76 60.35 60.18 60.09
63.02 63.93 63.82 62.95 62.02 62.39 61.87 61.99 61.43 60.87 60.25 58.23 59.08 59.76 56.68 55.41 53.19 50.75 55.82 56.64 57.20 57.04 56.57 57.01 57.54 57.71 57.48 57.48 57.88 56.61 55.15 54.44 56.78 61.06 62.61 62.63 62.09 61.97 61.67 61.54 61.43 61.02 60.46
63.08 63.34 63.15 62.88 62.61 62.74 62.70 62.27 61.71 61.34 60.86 59.82 58.82 58.54 56.68 55.79 55.74 53.22 52.07 53.73 56.14 56.78 57.13 56.70 57.22 57.49 57.51 57.15 56.38 56.26 54.06 53.26 53.93 57.57 60.76 62.19 62.33 62.43 62.24 62.13 62.11 61.73 61.41
62.68 63.05 62.84 62.39 62.17 62.05 61.53 61.90 61.94 61.37 60.99 60.21 59.85 59.38 58.11 55.20 54.17 53.66 52.81 53.66 54.04 55.67 56.91 56.81 56.80 57.16 57.10 57.10 57.41 55.01 53.03 51.95 52.63 55.07 57.41 59.72 61.40 62.57 62.48 62.39 62.50 62.63 62.41
60.07 61.17 62.19 61.57 61.47 61.75 62.01 61.66 60.81 60.70 60.52 59.79 59.44 59.18 59.32 57.38 56.95 55.86 54.56 53.81 53.15 52.94 54.29 55.99 56.99 57.26 57.22 56.90 57.12 54.21 53.31 50.57 51.24 52.87 54.93 56.33 57.76 59.61 61.05 62.16 62.49 62.76 62.80
60.66 60.24 61.31 61.72 61.66 61.33 60.76 60.24 60.18 60.05 60.32 60.37 59.87 59.97 58.99 57.68 57.15 56.52 55.05 53.60 50.83 52.05 52.62 53.21 55.67 56.57 56.83 56.80 56.32 52.57 55.92 49.93 49.66 50.49 52.00 53.44 54.52 55.60 56.60 58.07 59.48 60.60 61.64
59.87 60.20 61.15 60.68 60.43 60.37 60.07 59.97 59.83 59.67 60.01 60.03 59.78 60.09 58.84 57.85 57.47 56.86 56.06 55.60 53.28 49.95 50.65 52.78 52.82 55.65 56.27 56.50 55.43 55.94 55.85 52.66 49.30 48.71 48.96 50.36 52.18 53.46 53.91 54.58 55.49 56.68 57.69
59.36 59.41 59.33 59.12 58.42 58.24 58.27 58.29 58.41 58.83 58.85 59.29 59.44 58.03 57.88 57.52 57.28 56.78 56.38 55.43 54.84 52.71 49.83 54.23 54.21 54.77 56.19 56.16 55.37 55.94 56.00 52.74 48.74 47.45 47.38 47.77 49.05 50.73 51.56 51.93 52.63 53.42 54.38
58.72 58.52 58.02 57.58 57.62 57.18 57.52 57.43 57.58 58.10 58.17 58.63 58.93 58.39 57.48 57.75 56.94 56.58 56.30 56.20 55.03 54.20 51.73 52.94 54.14 55.12 55.25 55.64 55.63 55.23 55.42 54.72 54.83 47.25 46.68 46.59 46.63 47.25 47.22 47.74 47.49 48.91 49.80
59.11 58.65 57.90 57.24 57.32 56.80 57.40 57.12 56.96 57.47 57.83 57.89 58.43 58.11 57.36 57.38 56.42 56.44 55.88 54.94 55.19 54.96 53.29 51.59 53.28 53.29 54.27 55.53 56.22 56.12 56.56 56.95 56.94 52.12 47.31 47.56 47.07 46.60 45.27 43.57 43.92 44.60 45.33
58.44 58.22 57.80 57.04 57.04 56.92 56.74 57.06 57.04 56.92 57.53 58.04 57.83 57.86 57.32 56.98 56.02 55.80 55.49 54.63 54.50 54.73 54.36 52.60 52.44 54.17 54.33 54.11 54.32 54.76 55.13 55.92 55.59 43.96 41.57 41.39 41.83 42.10 41.97 42.20 42.73 42.91 43.14
58.08 57.72 57.58 57.36 56.66 56.62 56.72 56.70 56.68 56.78 56.84 57.52 58.10 58.04 57.82 57.08 56.68 56.22 55.88 55.44 55.30 54.44 54.31 53.81 53.44 53.01 53.59 53.76 53.77 53.14 52.31 52.58 51.30 43.88 41.01 40.13 40.50 40.92 41.04 41.11 41.12 41.45 41.51
58.01 57.93 57.48 57.18 56.98 56.70 53.91 56.48 56.58 56.30 56.14 55.72 56.00 56.40 57.22 55.64 50.99 53.52 56.26 55.96 55.26 54.48 53.92 53.43 52.84 51.46 51.29 50.69 51.67 52.25 51.95 52.19 47.92 47.13 43.55 41.04 39.59 38.63 38.68 39.12 39.54 39.48 39.12
41.34 46.93 47.07 47.76 45.53 42.30 37.83 39.08 45.97 56.10 55.92 55.40 55.26 55.46 55.60 49.21 48.14 44.52 44.34 46.33 52.21 54.43 53.41 53.19 52.83 51.68 50.96 51.66 51.09 51.76 51.60 50.56 47.16 39.98 40.34 35.10 37.16 35.57 36.54 37.11 37.66 37.65 37.43
34.55 35.42 37.05 39.21 38.26 37.72 38.13 39.42 40.71 49.26 47.98 45.93 46.93 51.65 45.85 43.25 43.70 41.29 36.55 36.12 35.38 34.98 34.86 50.94 52.39 51.07 48.66 45.29 45.55 45.34 46.82 47.89 43.54 35.84 40.18 31.82 33.13 31.77 34.74 36.20 36.22 35.81 35.22
32.84 32.28 32.75 34.19 35.36 35.28 35.66 36.44 36.59 37.72 35.96 35.48 36.08 37.82 39.80 40.13 40.18 39.70 37.22 34.31 33.26 33.10 33.49 34.88 34.90 32.72 32.90 34.71 38.27 40.69 42.36 35.68 33.37 31.96 34.07 30.34 30.97 29.19 31.50 32.42 34.49 34.61 34.03
31.65 31.83 31.91 32.02 32.96 33.52 34.88 34.82 34.87 34.01 32.72 32.16 33.11 34.70 35.57 37.24 37.19 37.89 34.82 31.77 30.77 30.85 32.96 33.19 32.85 32.79 32.61 33.22 35.00 36.95 34.15 34.47 31.57 30.12 30.64 31.98 29.17 27.82 29.30 29.70 32.06 32.84 32.37
30.68 31.30 30.36 31.26 32.04 32.03 33.90 34.40 33.70 32.63 30.76 30.76 31.64 32.18 33.74 34.23 34.01 34.29 33.03 31.32 28.45 28.89 29.69 29.27 28.58 28.65 29.46 29.56 29.26 29.36 32.18 32.84 30.51 29.55 29.42 31.00 29.06 27.92 25.24 29.15 29.55 28.83 27.67

GFSMA_sfc_wetblb_114.txt.gz
Wetbulb
65.80 66.38 66.02 64.53 64.93 64.73 63.51 61.58 60.76 60.45 60.06 60.68 61.23 61.52 62.26 62.79 63.63 64.29 64.92 64.11 64.16 66.95 67.78 67.02 65.86 64.84 63.79 63.61 64.27 63.88 62.97 62.49 62.13 61.49 61.04 60.90 60.96 61.17 60.80 60.43 59.61 59.93 60.04
65.65 65.62 65.42 65.24 64.97 64.18 61.38 61.28 60.73 59.81 59.51 59.84 60.05 60.91 61.54 62.16 62.97 63.48 64.11 64.16 63.03 64.42 66.32 66.56 65.69 64.60 63.96 63.99 63.99 63.04 62.29 61.74 61.70 61.23 60.94 60.86 61.17 59.96 60.46 60.32 60.30 60.21 59.16
64.89 65.14 64.86 64.49 64.42 63.58 60.89 60.39 59.67 59.29 59.75 59.76 59.51 60.44 61.17 61.62 62.09 63.19 63.52 63.72 63.50 62.29 63.56 65.02 65.37 64.87 63.95 63.70 63.34 62.43 61.86 61.81 61.90 61.49 60.99 60.48 60.29 59.36 60.02 60.02 60.07 59.71 59.61
63.90 64.39 64.17 63.90 64.19 62.92 61.10 60.21 60.29 59.87 59.47 60.37 59.46 59.16 60.43 61.13 61.57 62.81 63.15 63.25 63.48 63.57 62.64 63.09 63.91 64.24 63.67 64.26 63.33 62.46 62.14 61.88 61.65 61.54 60.73 60.58 59.65 59.49 59.96 60.35 59.81 59.70 59.60
63.36 63.49 64.05 63.66 63.18 62.77 62.21 61.50 60.74 59.30 58.82 59.91 60.08 59.35 59.45 59.71 61.62 62.99 62.64 62.77 62.67 62.00 61.65 61.77 61.75 61.95 62.70 63.83 63.47 63.08 62.50 62.24 62.14 61.80 61.02 61.02 59.86 59.73 59.96 60.16 59.60 59.43 59.30
63.09 62.90 62.32 62.03 62.82 62.34 62.14 61.57 61.20 61.23 59.10 60.20 60.45 60.32 61.04 60.37 61.30 61.20 62.10 62.63 62.39 61.39 60.24 60.40 61.25 60.35 60.38 62.62 63.72 62.89 62.98 62.89 61.82 61.78 61.59 61.25 59.66 60.81 60.91 60.20 59.83 59.55 59.28
63.13 62.75 61.99 61.21 62.37 62.03 61.65 61.08 60.64 60.24 60.12 60.65 59.49 59.21 60.09 60.05 60.09 61.44 62.07 61.91 61.50 60.92 60.12 59.28 59.80 59.76 60.53 61.13 62.62 63.33 63.62 63.54 62.43 61.77 62.40 61.33 60.90 60.86 61.32 60.43 59.94 59.66 59.38
62.93 63.05 62.80 61.95 62.11 62.06 61.53 61.17 61.17 60.54 60.29 60.69 57.88 57.56 54.52 55.87 58.61 60.45 60.99 61.13 60.76 60.26 59.23 59.00 59.14 59.53 60.76 60.69 60.43 62.66 63.59 63.50 63.14 62.23 61.78 62.01 61.12 61.34 61.41 60.91 60.41 59.87 59.66
62.98 62.88 63.01 62.59 61.84 62.25 61.36 61.70 61.53 60.77 58.86 59.65 59.68 57.63 53.78 52.87 54.59 57.34 58.90 59.89 59.48 59.12 59.19 58.78 58.73 59.12 59.62 60.00 59.76 59.76 58.42 59.00 61.99 63.27 62.72 62.16 61.36 60.87 61.32 61.37 60.38 60.59 60.28
64.04 63.58 63.14 62.63 62.29 62.29 61.97 62.02 62.06 61.23 60.40 58.08 59.44 59.91 57.92 56.38 53.87 51.24 56.27 57.92 58.82 58.50 58.03 58.08 58.13 58.47 58.85 58.38 58.35 57.06 55.28 54.57 57.60 61.80 62.77 62.50 61.48 61.48 61.47 61.32 60.98 61.00 60.59
63.81 63.73 63.62 63.08 62.69 62.45 62.63 62.30 61.74 61.18 61.06 60.21 59.03 58.56 58.61 56.30 56.20 53.40 51.87 54.06 56.86 58.01 57.79 57.94 58.11 58.04 58.18 58.06 57.95 56.63 53.82 52.96 53.91 58.11 60.67 61.65 62.12 61.91 61.68 61.56 61.54 61.49 61.47
62.75 63.43 63.49 63.36 63.12 62.84 62.50 62.27 62.20 61.59 61.13 60.97 60.49 59.72 58.41 56.55 54.60 53.93 53.27 54.50 54.60 56.26 57.63 57.43 57.14 57.45 58.04 58.20 57.84 55.10 53.03 51.99 52.52 54.92 57.34 59.59 61.21 62.04 61.86 62.04 62.19 62.34 62.17
61.86 62.30 62.80 62.49 62.83 62.87 62.76 62.29 61.83 61.56 61.38 60.68 60.43 59.82 59.97 59.06 58.45 56.83 55.38 54.25 53.72 54.42 55.97 57.08 57.27 57.68 57.58 57.88 57.87 54.37 53.25 50.72 51.29 52.95 54.67 56.30 57.96 59.51 61.03 61.85 62.23 62.67 62.69
61.79 62.90 62.70 62.54 61.92 62.32 62.31 62.11 61.83 61.72 61.07 60.76 60.29 60.13 59.73 59.74 59.67 58.05 56.10 54.79 52.28 52.20 53.64 54.34 57.24 57.43 57.51 57.35 56.80 52.44 56.70 50.18 50.03 50.82 52.06 53.49 54.67 55.71 56.68 58.24 60.07 61.15 61.61
60.57 59.56 61.60 61.23 61.42 61.48 61.71 61.58 61.03 59.96 59.86 59.92 59.85 60.05 59.69 59.94 59.81 58.47 57.73 57.03 54.53 50.83 51.29 53.20 53.57 57.28 57.67 57.61 56.05 56.80 56.60 52.43 49.37 49.08 49.37 50.57 52.44 53.55 54.06 54.93 55.85 56.80 58.16
58.88 59.06 60.12 60.79 61.21 60.95 61.09 60.54 60.22 59.92 59.44 59.52 59.80 59.48 59.25 59.81 58.58 58.11 57.31 57.00 56.17 54.26 51.36 54.20 53.97 54.77 56.99 56.93 56.16 56.79 56.47 52.64 49.01 47.69 47.60 48.07 49.13 50.89 51.62 52.16 52.45 53.30 54.19
59.65 58.84 59.87 60.15 60.05 59.46 59.46 59.12 58.74 58.18 57.94 58.00 58.26 58.15 57.96 58.84 57.64 56.87 56.77 56.35 55.26 54.43 51.74 52.80 55.14 55.72 54.88 55.73 55.91 55.70 55.99 55.92 55.58 47.51 46.54 46.38 45.95 46.35 47.24 48.03 48.52 49.40 50.11
60.16 59.65 59.63 59.30 58.80 58.38 58.18 57.76 57.14 56.98 56.78 56.47 57.02 57.92 57.98 57.48 56.70 56.47 55.98 55.22 54.87 54.69 53.17 51.30 53.15 53.47 54.45 55.62 56.07 54.91 55.49 56.05 56.41 48.97 46.20 45.91 45.25 45.42 45.06 45.06 44.97 45.10 45.46
59.78 59.14 58.90 58.30 57.94 57.72 57.24 56.82 56.43 56.52 57.17 57.39 57.89 57.95 57.84 57.50 56.56 56.48 56.06 55.52 55.44 54.93 54.67 53.08 52.58 54.28 54.59 55.16 55.18 55.80 55.80 54.43 47.36 43.67 42.06 41.95 42.42 42.76 42.89 42.88 43.20 43.25 43.01
52.73 58.24 58.38 58.29 58.29 57.87 57.12 57.02 56.34 56.70 56.94 57.27 57.83 58.00 58.19 57.27 56.47 56.10 55.78 55.64 55.56 54.73 54.46 53.42 52.77 52.71 53.39 54.14 54.15 53.17 52.09 52.39 45.11 43.22 41.36 40.55 41.17 41.56 41.45 41.53 41.50 41.72 41.43
39.61 41.96 52.71 57.66 57.52 57.02 54.47 56.50 56.60 56.18 56.08 56.13 56.68 57.38 57.82 55.90 51.39 53.71 56.06 55.56 55.24 54.72 54.12 53.29 52.58 52.78 52.20 51.24 52.11 53.32 53.56 51.48 46.07 42.51 40.95 40.70 39.85 39.48 39.72 39.87 40.16 40.05 39.83
36.96 36.82 37.17 39.32 40.26 40.48 38.01 39.79 50.99 56.12 56.05 55.61 55.27 55.69 56.33 49.87 48.08 44.47 45.56 46.83 52.17 54.48 53.80 53.62 53.34 52.46 52.74 53.14 52.74 52.97 52.60 49.12 44.89 44.01 39.23 35.62 37.85 36.29 37.08 37.82 38.01 37.79 37.86
35.94 35.49 35.42 35.30 35.04 35.33 35.99 36.93 39.34 51.95 51.57 47.42 47.64 51.97 49.25 46.36 46.23 42.82 37.07 36.68 35.56 35.53 36.48 53.67 53.59 53.41 52.90 52.64 51.82 49.52 50.70 50.24 45.45 38.19 37.57 31.72 33.97 32.61 35.44 36.16 36.13 35.78 35.39
32.70 33.08 33.29 34.40 34.16 33.77 34.82 35.15 35.45 37.54 36.56 35.89 36.46 38.57 42.11 41.58 41.27 40.97 38.11 35.24 33.60 33.41 34.25 35.64 36.99 34.86 34.32 37.30 44.25 45.85 45.76 35.44 34.04 33.03 36.01 29.42 31.57 30.18 32.32 34.06 35.40 34.59 34.02
30.51 31.01 31.62 31.85 32.18 32.21 34.06 34.46 33.99 33.41 32.54 32.46 33.69 36.18 37.32 37.78 37.17 38.68 35.83 32.91 31.69 30.83 33.08 33.53 33.44 33.38 33.63 34.46 36.13 40.31 36.64 37.77 31.89 31.12 32.23 30.80 29.46 28.51 29.96 30.56 32.31 33.44 32.45
30.13 30.17 29.62 30.47 31.39 30.77 32.81 33.83 33.74 32.46 31.15 31.22 31.85 32.33 33.51 33.79 34.25 34.36 33.51 32.24 29.50 28.89 29.37 29.05 29.09 29.56 29.63 29.89 29.49 31.38 34.29 34.27 31.04 29.63 29.96 29.56 28.40 28.34 25.61 29.10 28.52 28.72 29.57

GFSMA_sfc_wetblb_117.txt.gz
Wetbulb
67.75 69.08 68.80 68.57 68.24 68.15 67.84 67.41 66.64 65.99 66.20 67.18 67.80 67.66 67.11 67.80 68.00 68.09 68.16 64.18 64.97 66.94 67.52 67.46 66.25 65.30 64.36 63.95 64.79 64.09 63.42 63.04 62.34 61.93 61.89 62.11 62.04 61.76 61.14 61.23 61.01 60.86 60.81
67.64 67.53 67.84 67.61 68.09 67.85 66.20 67.25 66.50 66.04 65.91 66.47 66.41 66.88 66.90 67.25 67.70 67.85 68.30 66.99 63.44 64.34 66.12 66.73 66.54 65.63 64.65 63.74 64.36 63.96 63.80 62.89 62.05 61.80 61.45 61.96 61.73 61.56 61.06 61.04 59.47 60.23 59.92
67.09 67.19 67.34 67.11 67.86 67.35 65.68 66.97 66.65 66.30 65.39 65.22 65.48 65.70 65.99 66.47 66.81 66.34 66.89 67.16 65.05 62.66 63.50 65.45 65.47 65.75 64.64 63.96 63.89 63.98 63.21 63.14 62.61 61.90 61.33 61.54 61.58 60.93 60.60 60.68 60.65 60.18 59.19
67.85 66.95 66.18 66.63 68.01 65.63 64.96 65.86 64.53 64.45 65.01 64.49 64.33 64.74 64.92 65.63 65.92 66.50 66.50 66.34 66.76 65.43 63.10 63.49 64.33 64.52 64.73 64.73 63.76 63.06 62.47 62.10 62.43 62.01 61.42 61.15 60.91 60.46 60.39 60.27 60.75 59.88 59.83
68.02 66.93 66.14 65.88 65.99 65.45 64.40 64.48 63.12 64.18 62.92 64.03 63.47 63.90 64.39 64.66 64.90 65.08 65.13 65.35 65.87 66.00 64.49 62.81 62.55 62.58 63.34 63.96 64.39 63.30 62.47 62.49 62.55 62.08 61.50 60.67 60.25 59.99 60.23 60.25 60.57 60.23 60.06
67.23 66.93 66.23 65.83 65.16 64.47 63.33 63.94 63.36 63.95 64.44 64.49 62.20 62.24 63.12 63.56 64.70 63.89 63.79 64.77 65.54 65.61 64.72 62.78 62.92 62.40 60.71 62.98 64.19 63.76 62.80 62.75 62.46 62.45 61.78 61.03 60.61 60.26 60.57 60.68 60.32 59.91 59.63
66.58 66.92 65.32 64.61 64.18 63.41 63.05 63.36 63.14 62.74 62.57 64.41 61.92 60.40 61.63 62.63 62.25 62.57 63.10 63.39 63.77 64.08 64.15 61.91 62.51 63.09 62.30 61.30 63.31 64.09 63.60 63.51 63.10 62.70 62.21 62.02 61.38 60.79 60.75 60.79 60.60 60.08 59.91
66.01 66.18 65.43 63.74 63.40 63.28 63.06 62.73 62.63 61.29 61.76 62.87 59.70 58.96 55.91 58.56 60.34 61.98 63.06 62.62 63.12 63.46 62.27 61.27 61.19 62.52 62.48 62.63 62.42 62.84 63.89 64.00 63.71 62.51 62.53 62.42 61.54 60.66 60.96 61.03 61.09 60.34 60.08
66.39 66.31 65.70 64.79 63.85 63.54 62.82 62.55 62.31 62.35 59.99 60.95 61.54 59.49 55.15 54.10 57.13 59.62 61.03 61.75 62.24 61.61 62.03 62.11 59.91 60.79 62.74 62.40 61.75 60.96 59.06 60.17 62.87 63.42 62.88 62.65 62.16 61.52 61.24 61.09 61.09 61.01 60.47
65.77 66.20 65.56 65.21 64.39 63.92 63.39 62.76 62.57 62.86 62.71 60.34 60.65 61.27 60.95 58.61 55.49 53.94 57.63 60.03 61.35 60.61 61.15 61.76 59.71 59.85 61.78 62.04 60.87 58.53 55.97 55.23 58.00 62.17 63.05 62.52 62.39 61.80 61.16 61.55 61.16 61.04 61.01
65.30 65.84 65.49 64.72 64.70 64.15 64.22 63.92 63.39 62.70 63.54 62.99 60.90 60.11 61.04 60.09 59.72 55.26 53.57 56.37 58.92 60.42 61.27 60.40 60.30 59.95 60.90 61.52 62.06 60.02 54.64 53.76 54.45 58.71 61.35 62.52 62.65 62.00 61.30 61.01 61.26 60.92 60.89
64.39 65.41 65.34 65.28 65.37 64.97 64.99 64.97 64.21 63.49 63.67 62.99 61.71 60.86 60.05 58.34 56.37 55.75 54.90 55.29 56.09 57.97 60.11 59.56 59.36 59.37 59.85 60.85 60.47 56.27 53.38 52.16 52.72 55.11 58.32 60.46 61.48 61.78 61.47 61.60 61.56 61.56 61.72
63.84 64.36 64.40 64.23 64.44 64.66 64.35 65.34 64.64 64.01 63.20 62.29 61.95 60.86 61.10 60.47 61.56 59.50 56.95 55.67 54.61 56.29 57.37 58.73 58.90 59.45 59.32 61.05 61.60 55.56 53.45 51.05 51.56 53.15 55.02 56.92 58.30 59.57 60.69 61.38 61.48 62.06 62.24
63.95 64.48 64.06 64.40 63.98 63.81 63.48 63.95 63.94 63.20 63.20 63.23 62.35 61.67 61.66 63.09 61.87 60.00 57.25 56.71 53.44 54.26 55.69 57.97 58.70 60.38 58.87 60.40 60.34 53.08 59.96 50.14 50.27 51.14 52.38 53.78 54.86 55.96 56.84 58.28 59.71 60.69 61.47
64.15 64.08 63.99 63.51 63.14 63.32 63.14 62.91 62.91 62.55 62.30 62.30 62.02 61.83 61.34 61.56 61.54 61.06 60.35 58.35 55.87 51.74 51.97 56.90 56.13 58.27 58.72 58.88 58.75 60.75 60.43 53.39 49.70 49.62 50.08 51.32 52.83 53.94 54.23 55.08 56.18 57.47 59.04
63.55 63.45 63.20 62.91 62.71 62.61 62.24 62.20 62.25 62.73 61.67 61.64 61.56 61.17 60.71 61.35 61.31 60.52 59.81 58.83 57.82 56.05 52.55 56.18 56.00 57.06 58.39 58.16 58.27 60.46 60.34 54.04 49.08 48.12 47.98 48.66 49.74 51.46 52.15 52.57 53.04 53.85 55.04
61.76 61.38 62.01 62.31 62.09 61.31 61.25 60.91 61.64 61.67 61.05 60.38 60.26 60.27 60.10 61.11 60.11 60.03 59.58 59.62 57.48 56.91 54.25 54.68 56.32 56.47 57.04 57.33 57.36 58.96 60.03 59.60 59.26 47.59 46.92 46.83 46.83 47.15 48.19 48.93 49.61 50.58 51.45
61.63 61.20 60.85 60.69 61.09 61.23 61.46 60.33 59.79 60.06 59.94 59.17 59.11 59.22 59.12 59.01 59.37 59.38 58.85 57.29 56.87 56.85 55.34 52.08 54.27 54.93 55.25 56.62 57.16 57.03 58.38 58.88 59.69 47.62 46.58 46.15 45.84 45.48 45.63 45.57 46.13 46.40 47.06
49.05 57.80 60.54 59.89 60.06 59.83 59.62 59.56 59.75 59.30 58.90 58.98 58.17 57.79 57.95 58.97 58.23 58.79 57.49 56.61 56.31 55.77 55.57 53.67 53.52 54.85 55.23 55.69 55.67 57.13 58.51 58.52 50.68 44.90 42.58 42.67 43.52 43.80 43.68 43.80 43.88 43.61 43.51
42.28 44.12 45.80 56.11 58.85 58.71 58.47 58.45 58.84 58.36 58.11 58.31 59.30 58.46 59.31 59.01 58.37 56.99 56.53 57.28 55.91 55.04 54.74 54.10 53.46 53.66 54.53 55.05 55.85 55.00 55.55 52.65 48.91 46.01 42.80 42.56 42.29 42.31 42.31 41.99 41.97 42.01 41.70
39.95 40.50 40.29 40.35 40.89 40.06 38.94 40.54 49.80 57.15 57.45 57.61 58.33 58.40 59.02 57.12 51.68 54.19 57.03 56.45 55.73 54.62 54.16 53.28 52.89 52.76 53.43 52.59 53.35 55.35 54.80 50.88 46.45 44.43 41.38 41.35 41.16 41.06 41.26 41.27 41.42 40.90 40.57
36.72 37.23 37.62 37.82 36.73 37.40 36.26 37.00 39.68 50.38 57.23 56.59 56.13 57.48 58.35 50.94 50.68 45.07 45.25 47.13 54.24 55.04 54.62 53.35 53.18 52.63 52.95 53.97 53.98 53.43 53.01 47.91 45.27 43.47 40.59 37.15 39.66 38.22 39.11 39.24 39.09 39.05 39.05
34.07 34.09 34.31 35.27 34.73 34.82 35.64 36.23 38.07 38.86 42.93 48.52 49.23 51.91 54.14 49.85 48.66 46.11 38.02 37.33 36.19 36.18 37.80 54.59 53.64 53.72 53.36 54.09 53.79 52.74 52.96 51.48 49.77 42.19 37.87 32.41 35.61 33.80 36.47 36.80 36.87 36.82 36.59
32.55 31.57 31.63 32.56 32.78 33.26 34.55 35.20 35.06 35.31 34.32 34.24 35.49 37.55 40.73 42.40 42.13 42.70 40.48 36.58 34.20 33.99 35.18 36.43 38.31 37.82 37.27 41.05 50.99 53.28 53.58 45.15 35.56 34.70 37.25 31.15 32.48 31.49 33.72 35.40 36.10 35.65 34.84
31.30 30.59 30.46 30.57 31.02 31.40 33.67 34.21 35.29 34.82 33.66 32.26 32.41 33.54 35.34 35.58 35.98 39.01 37.17 33.51 31.42 31.08 33.72 34.02 33.79 33.82 33.85 34.05 34.79 42.20 38.31 39.91 33.07 32.89 33.45 31.33 30.53 29.80 31.08 31.10 33.45 33.31 32.28
31.82 32.49 31.24 30.66 30.96 30.69 32.45 32.81 32.80 33.33 32.25 31.75 31.58 31.33 32.55 33.03 33.57 33.97 34.81 33.78 30.46 30.81 30.38 29.88 29.66 29.31 29.85 29.93 30.44 32.02 35.46 39.17 33.03 32.20 31.83 29.75 29.37 29.27 26.12 28.82 29.13 30.35 29.45

GFSMA_sfc_wetblb_120.txt.gz
Wetbulb
71.00 71.52 71.14 70.26 70.02 69.84 70.13 69.88 69.38 68.93 69.22 69.49 69.52 69.28 69.29 69.68 69.66 70.19 69.47 64.26 65.32 66.60 67.63 67.94 67.00 65.91 64.91 64.94 65.63 64.96 64.53 63.76 63.44 62.82 62.44 62.89 63.00 62.38 62.09 61.95 61.86 61.63 61.35
70.73 71.25 70.51 70.31 69.64 70.01 70.19 69.77 69.20 68.50 68.24 68.49 68.56 68.95 68.64 69.02 69.17 69.29 69.58 68.69 63.93 65.25 66.56 66.67 66.65 66.32 65.19 64.29 64.87 64.34 64.39 63.98 63.31 62.49 62.62 62.65 62.30 61.95 61.45 61.39 61.51 60.97 60.74
69.89 71.17 70.17 70.32 69.58 69.72 69.96 69.98 69.09 69.08 68.27 68.03 67.94 68.58 68.66 68.93 68.85 68.64 69.14 68.69 67.19 62.70 64.02 65.28 65.81 65.68 65.75 64.38 64.20 64.11 64.31 63.82 63.43 62.62 62.56 62.36 62.22 61.68 61.20 61.01 60.40 60.81 60.68
69.86 69.47 68.57 68.26 70.19 68.78 68.55 68.85 68.08 68.01 67.73 67.50 67.03 67.43 67.62 68.02 68.01 67.99 68.66 68.73 68.72 67.35 63.52 63.76 65.00 64.82 65.39 65.41 64.17 63.41 63.09 63.54 63.23 62.88 62.69 62.44 62.16 61.49 60.84 60.72 60.69 60.75 59.51
69.01 68.79 68.13 68.62 69.97 68.52 67.34 67.95 67.43 67.83 66.74 66.57 66.73 67.05 67.24 67.04 66.82 66.49 67.03 67.97 68.20 68.01 67.13 63.06 62.75 63.00 63.72 64.60 65.04 63.86 63.59 62.73 62.74 62.65 61.98 61.81 61.58 61.26 60.64 60.72 60.87 60.72 60.17
68.59 68.48 68.24 68.34 68.20 67.80 66.67 66.29 65.94 67.76 67.08 66.54 65.08 65.32 66.12 66.17 66.64 66.41 66.57 66.79 67.32 67.49 67.22 66.45 64.58 63.22 61.48 63.32 64.55 64.61 63.96 63.22 62.75 62.68 62.36 61.73 61.49 61.08 60.91 60.68 60.78 60.41 60.26
68.43 68.40 67.51 67.43 67.37 66.59 65.77 65.69 65.59 65.55 65.75 66.65 63.97 63.64 63.95 64.74 64.03 64.45 65.34 66.07 65.56 66.36 66.06 66.44 65.79 64.21 62.42 61.53 63.47 65.00 64.03 63.50 63.15 63.09 62.48 62.49 61.66 61.11 60.85 60.65 60.79 60.77 60.16
67.96 67.77 67.37 66.85 66.22 66.20 65.82 65.43 64.07 64.06 64.76 65.55 62.94 61.82 59.79 61.89 62.68 64.30 64.28 64.41 65.65 66.29 65.23 65.76 65.21 63.86 62.44 62.93 63.18 63.33 64.14 64.07 63.48 63.37 63.41 62.40 61.73 61.50 61.00 60.50 60.83 61.03 60.44
67.38 67.48 67.70 66.45 66.04 65.66 65.38 64.94 64.28 64.02 62.74 63.77 64.67 63.51 59.45 57.87 61.07 63.77 64.15 64.66 65.12 65.48 65.51 65.08 64.28 63.75 62.36 62.22 62.30 61.61 59.52 60.26 63.14 63.82 63.47 62.73 62.39 61.98 61.30 61.00 61.07 61.02 61.37
68.55 67.01 67.21 66.88 66.11 65.53 65.21 65.05 64.97 64.24 64.79 61.20 63.40 64.93 65.23 63.15 58.93 57.68 60.57 63.50 63.88 63.66 64.75 64.03 63.89 63.09 64.03 61.95 60.84 59.18 56.56 55.92 58.44 62.45 63.06 62.97 62.93 62.28 61.63 61.25 61.11 61.15 61.24
68.18 68.01 67.39 66.58 66.03 66.27 66.03 65.87 64.32 64.19 64.39 63.86 63.27 62.85 63.53 63.52 63.25 60.07 56.86 58.35 60.93 63.17 64.76 63.92 63.72 64.06 63.59 61.76 62.69 61.40 54.84 54.27 55.21 59.80 61.85 62.38 62.97 62.65 61.93 61.63 61.41 61.48 61.52
66.04 66.52 68.46 67.36 66.83 66.22 65.61 65.72 65.05 64.92 64.59 64.72 64.01 63.90 63.36 61.63 61.04 60.17 58.91 59.16 58.77 59.94 62.21 63.89 63.99 63.22 64.03 61.24 60.64 56.77 53.84 52.74 53.45 56.15 58.99 60.85 61.76 62.00 62.00 61.93 61.35 61.40 61.60
64.27 65.08 66.83 66.72 66.33 66.62 66.23 65.81 65.21 65.37 65.85 65.50 65.77 65.39 65.15 64.26 62.42 60.61 59.35 59.33 59.15 61.16 60.81 61.51 62.43 61.66 62.02 60.76 61.04 56.16 53.52 51.34 51.54 53.74 55.93 57.62 59.12 60.26 60.79 61.03 61.23 61.57 61.47
65.43 66.20 66.09 66.53 66.50 66.38 66.27 67.78 66.88 66.77 66.81 66.73 65.30 64.85 64.16 63.61 63.00 61.99 60.99 60.33 58.23 56.07 57.77 59.39 60.66 60.90 61.53 61.41 60.20 54.05 59.28 50.65 50.30 50.82 52.58 54.51 55.78 56.82 57.59 58.63 59.62 60.16 60.57
65.73 66.16 65.45 64.82 64.89 65.50 65.45 66.14 66.74 64.74 65.71 65.95 66.66 66.23 64.06 63.86 63.27 63.64 64.08 62.72 58.28 54.27 53.50 58.23 58.28 60.64 60.91 62.20 59.19 59.90 59.97 53.99 50.23 49.51 50.08 51.46 53.12 54.25 54.88 55.51 56.53 57.70 58.72
63.08 64.96 64.41 64.26 64.74 64.51 64.11 63.95 64.28 64.03 63.35 63.72 64.08 64.17 63.57 62.77 62.84 63.16 63.73 62.72 60.83 57.73 54.24 56.94 57.79 59.33 60.01 60.34 58.50 59.86 60.55 55.10 49.25 48.38 48.44 49.12 50.34 51.81 52.42 52.94 53.25 54.15 55.37
54.85 63.08 63.69 63.74 63.38 63.33 62.46 61.95 62.31 62.72 62.41 62.44 63.08 62.92 62.92 62.98 61.75 62.83 62.67 62.62 60.45 58.66 55.51 56.91 57.88 59.40 58.13 58.34 58.70 58.85 59.20 60.51 60.81 47.80 47.34 47.64 48.00 48.62 49.48 49.85 50.37 51.27 52.32
50.88 56.39 62.33 63.05 62.99 62.50 62.17 61.20 61.21 61.44 61.40 61.18 62.29 61.82 61.85 61.64 60.81 62.30 61.37 60.60 59.91 59.93 57.49 55.07 55.71 56.33 56.79 58.40 58.04 57.34 58.27 59.51 61.99 51.19 47.35 46.87 46.81 46.40 46.38 46.76 47.30 47.82 48.56
45.90 47.46 48.23 51.77 59.34 60.90 61.53 61.59 61.01 60.69 60.82 61.03 61.48 61.38 61.63 60.64 59.60 60.50 60.40 59.56 61.63 60.38 58.16 55.91 54.21 56.05 56.33 57.09 56.89 57.19 57.25 58.00 53.26 45.64 44.39 45.31 45.10 45.21 45.03 44.81 45.21 45.60 45.82
41.89 42.48 42.57 42.47 42.90 42.59 42.11 43.47 49.26 59.12 60.12 60.23 60.60 61.37 60.76 59.56 59.75 60.46 59.26 60.84 60.16 58.08 56.73 55.45 54.38 54.48 55.28 55.61 56.27 54.97 54.64 52.37 49.74 48.36 44.23 44.63 44.54 45.15 43.67 43.18 42.98 43.31 43.27
38.80 39.18 39.54 38.58 39.01 38.61 37.49 38.38 41.94 47.94 56.67 58.79 59.24 58.99 59.13 57.63 52.55 55.77 60.74 59.98 58.30 56.67 55.49 54.55 53.53 53.72 53.48 52.96 52.85 54.48 54.13 51.14 49.41 47.07 44.48 44.79 45.24 45.10 43.57 42.56 42.64 42.15 41.99
36.22 36.25 36.38 35.53 35.16 35.96 35.53 36.49 39.16 47.51 45.65 52.08 56.21 57.87 58.56 51.96 52.87 44.72 44.91 46.36 53.34 56.01 54.99 54.09 53.44 52.68 53.55 53.53 54.17 53.51 52.94 47.97 44.93 45.95 45.24 41.85 43.54 41.97 41.91 42.38 40.15 40.01 40.01
34.04 34.08 34.31 34.77 34.12 33.60 34.72 35.82 36.01 39.07 37.83 37.40 38.77 41.05 43.82 49.26 46.54 54.76 39.75 38.10 36.79 36.39 37.82 55.14 54.03 54.76 53.54 54.66 54.29 53.72 53.76 51.53 51.20 44.19 40.20 33.94 37.40 36.02 37.66 38.31 38.72 38.92 38.66
33.17 32.02 32.07 33.36 33.09 32.78 33.60 33.96 35.34 37.88 35.48 34.53 34.29 35.04 36.58 37.18 37.36 42.08 44.48 39.44 35.96 34.64 35.15 36.93 38.48 37.84 38.92 42.99 53.86 54.61 54.33 46.98 37.58 39.47 39.19 32.38 33.59 31.98 33.95 35.80 37.00 36.81 36.36
33.92 32.56 32.73 32.29 32.00 31.57 32.85 32.98 33.74 34.81 33.89 32.73 32.66 33.90 34.11 34.05 34.55 37.34 38.68 33.71 31.65 31.55 33.20 33.72 33.12 32.94 32.89 33.20 35.40 47.01 41.99 42.33 34.39 34.39 34.01 32.66 31.34 30.73 31.75 31.93 33.24 34.32 34.11
32.38 33.78 32.40 32.22 31.37 31.72 32.00 31.85 32.16 31.55 30.29 29.01 30.41 30.99 31.89 32.34 33.02 33.62 34.80 34.08 30.57 29.37 31.09 30.68 29.85 29.23 29.41 28.96 29.70 30.81 35.63 47.17 33.67 32.40 32.58 31.36 30.22 29.46 26.02 29.00 30.46 29.98 30.30

GFSMA_sfc_wetblb_126.txt.gz
Wetbulb
70.19 69.69 69.43 69.40 69.21 69.17 68.60 67.27 67.34 67.24 67.40 67.17 67.93 67.62 67.38 67.24 67.65 67.95 65.70 64.95 65.70 66.87 65.88 66.78 67.44 67.52 66.49 66.89 66.82 66.46 66.27 65.91 65.26 64.27 63.85 63.61 63.34 62.62 61.14 61.95 62.19 61.78 61.44
70.21 69.52 69.16 69.03 68.72 69.11 68.40 67.70 67.12 66.86 66.77 66.97 66.35 67.19 66.12 67.09 67.24 67.84 66.80 64.94 64.62 65.44 66.72 67.23 67.47 67.49 67.09 66.50 66.91 66.39 65.96 65.55 65.19 65.01 64.13 63.19 62.76 62.56 62.16 61.90 61.33 59.98 60.02
70.47 69.65 69.09 69.02 68.77 68.84 68.22 68.17 67.60 67.58 66.57 66.90 66.32 66.68 66.63 66.79 66.66 66.97 67.61 65.70 63.78 63.08 64.35 66.49 67.06 67.16 67.13 66.51 66.42 66.34 65.77 65.15 65.17 64.72 63.94 63.18 62.53 62.32 61.74 61.36 60.69 59.78 59.84
71.01 70.39 69.13 68.89 69.25 68.59 67.92 67.10 66.52 66.12 65.46 65.77 65.19 65.44 65.77 66.00 66.25 66.32 66.95 66.58 65.35 64.62 63.00 64.71 65.70 66.45 66.50 66.60 65.60 65.10 65.33 65.18 64.83 64.42 63.59 62.75 62.45 62.17 61.70 60.37 59.80 60.47 59.85
70.59 70.13 69.37 68.76 69.37 67.98 67.59 66.81 66.45 65.78 64.68 65.20 64.88 65.07 65.13 65.23 65.73 65.99 65.69 66.35 65.46 64.99 64.30 63.00 63.36 63.71 64.86 65.74 66.09 65.09 64.88 64.53 64.57 64.38 63.75 63.19 62.53 62.13 61.59 60.94 60.46 60.69 59.50
69.82 69.28 69.13 68.91 69.15 67.64 66.43 66.97 65.95 66.33 65.15 64.25 64.28 63.50 64.69 64.75 64.97 64.28 64.49 65.51 66.33 65.12 64.53 64.01 62.95 62.33 61.99 64.55 65.43 65.73 64.96 64.62 64.26 63.81 63.60 63.26 62.53 62.16 61.44 60.98 60.68 59.86 60.05
69.57 68.63 68.00 68.29 68.22 67.61 66.71 66.29 66.28 65.14 64.64 65.19 62.28 62.81 62.84 63.92 63.84 63.69 63.23 63.87 64.34 65.51 64.48 64.56 63.59 63.36 62.26 62.54 64.33 65.44 65.19 65.00 64.57 64.02 64.15 63.42 62.53 62.00 61.59 61.15 60.88 60.90 59.74
68.84 68.45 67.58 67.29 67.22 66.80 66.49 66.08 65.81 64.73 64.57 65.10 61.53 61.14 57.26 59.87 61.62 62.83 62.75 63.13 63.23 63.78 64.45 64.07 64.15 63.40 62.79 62.29 62.00 63.80 65.16 65.55 65.52 64.35 64.29 63.21 62.41 62.05 61.61 61.17 61.04 60.71 59.78
68.82 68.15 67.50 66.82 66.82 66.24 65.96 65.38 65.13 64.41 63.11 63.98 64.07 60.70 56.10 54.69 58.37 61.39 61.89 62.11 62.09 62.79 62.81 63.23 63.97 64.06 64.08 62.79 61.60 61.21 59.90 60.52 63.84 64.79 64.11 63.61 62.79 62.48 61.85 61.52 61.17 60.79 60.00
68.34 68.05 67.48 66.72 66.04 66.23 65.29 65.71 65.25 64.98 63.89 62.55 63.48 63.91 62.29 61.49 56.32 55.74 60.47 61.48 61.94 61.77 61.77 62.64 63.06 63.88 64.17 63.86 61.69 59.42 56.78 56.50 59.00 62.83 63.98 63.89 63.51 63.01 62.24 61.70 61.35 60.93 60.73
67.89 67.62 67.04 66.66 65.89 65.44 65.44 64.99 64.74 64.59 64.10 63.25 62.47 60.69 61.60 61.57 61.69 58.43 54.89 57.23 59.92 60.64 61.29 62.06 62.58 63.14 63.52 63.65 63.21 60.33 55.66 54.78 55.82 59.41 62.27 63.39 63.62 63.23 62.46 62.11 61.57 61.15 60.82
66.70 66.28 66.66 66.60 66.17 65.24 65.03 64.76 64.77 65.01 64.01 64.00 62.94 62.07 60.80 59.90 59.87 58.63 56.55 56.37 57.03 58.47 60.57 62.23 62.32 62.56 62.81 62.99 62.49 58.46 54.48 52.95 53.88 56.78 59.53 61.39 62.44 62.88 62.55 62.18 61.90 61.78 61.43
66.27 65.47 65.69 65.75 65.55 65.31 64.99 65.11 64.92 64.46 64.06 63.49 63.62 62.47 63.24 62.20 61.90 60.47 58.43 56.95 56.82 58.62 58.54 59.85 61.08 62.73 62.92 63.03 62.55 57.37 54.52 51.59 52.02 54.40 56.58 58.50 59.97 61.09 61.60 61.74 61.92 62.05 61.89
65.25 66.66 65.32 65.47 65.48 65.52 64.88 64.95 64.48 64.70 64.35 63.62 62.89 63.04 63.07 63.33 63.21 61.57 59.81 57.83 56.61 56.47 57.07 58.32 60.83 60.83 62.33 62.60 61.84 55.50 59.96 50.99 50.58 51.65 53.27 55.29 56.93 57.98 58.48 59.69 60.33 60.80 60.92
57.41 58.87 63.68 65.35 65.84 65.21 64.99 64.45 64.36 64.07 64.02 63.85 63.38 63.01 62.89 63.27 63.75 62.74 61.65 60.17 56.97 53.29 54.93 58.02 58.28 61.48 61.36 61.95 60.63 60.46 60.39 54.29 50.50 49.78 50.37 52.09 54.46 55.88 56.08 56.93 57.66 58.46 58.99
50.99 53.22 54.26 61.26 63.72 64.35 64.04 64.42 64.26 64.17 63.62 63.40 63.88 63.14 63.43 63.75 63.79 62.61 61.80 61.41 59.98 58.12 56.00 57.95 58.27 59.52 61.23 60.74 59.23 60.47 60.65 55.33 50.05 48.44 48.19 49.59 51.24 53.37 53.98 54.24 54.83 55.44 56.35
46.15 47.17 48.51 49.21 49.95 54.11 59.04 62.89 63.71 63.73 63.88 63.62 63.44 62.54 62.19 62.33 59.97 59.60 62.25 61.68 61.31 60.08 58.02 58.99 59.40 59.74 59.94 59.41 59.47 59.07 59.91 60.53 59.72 48.83 48.14 47.92 48.18 49.03 50.40 51.21 51.73 52.61 53.37
42.32 42.11 43.34 43.87 43.96 42.78 43.92 46.62 49.27 57.44 61.08 61.54 62.95 62.60 60.60 60.71 59.60 61.05 62.03 61.57 61.31 61.42 59.96 58.03 59.12 58.29 57.84 58.71 59.42 59.23 59.68 60.70 60.89 54.09 48.45 48.23 47.91 47.10 47.37 47.97 48.44 49.19 50.26
39.36 39.04 39.46 39.31 38.81 39.88 40.33 42.07 44.17 46.60 50.45 53.54 59.24 61.20 61.01 60.23 59.56 60.43 60.90 61.09 60.77 60.48 60.38 59.14 58.14 58.22 58.05 58.23 57.32 59.36 59.25 59.30 59.75 55.16 47.91 47.28 47.69 47.35 46.67 46.45 47.04 47.38 47.72
37.16 37.52 36.92 37.09 36.98 37.28 38.57 40.05 44.57 46.53 46.78 47.34 47.88 48.51 50.15 52.18 57.24 61.02 61.20 61.29 61.05 59.96 59.69 58.90 58.43 58.00 56.94 57.48 56.94 56.58 56.08 57.46 51.19 49.63 46.25 47.91 48.40 47.13 46.27 45.82 45.86 45.99 46.38
35.13 35.62 34.96 34.28 34.64 35.70 36.45 38.03 41.08 39.83 39.57 39.59 40.55 40.53 42.73 42.06 40.04 40.08 45.39 55.36 59.92 59.22 58.77 57.84 57.10 55.41 54.81 53.83 54.13 55.62 55.46 55.28 48.24 46.48 44.78 44.60 45.38 46.57 46.41 44.85 46.72 45.49 44.98
33.63 33.79 33.61 32.72 32.33 33.19 34.81 35.39 36.27 36.39 35.63 34.66 34.64 35.92 39.06 38.32 37.74 37.28 39.06 38.99 38.48 50.03 56.92 56.20 55.58 54.26 54.58 54.95 55.18 54.58 54.51 48.09 46.25 46.05 44.22 41.79 43.70 41.76 42.84 43.55 42.97 42.75 43.22
33.15 32.48 32.67 32.50 31.45 32.00 33.54 35.08 34.26 33.93 32.82 31.92 31.93 32.14 33.91 34.57 34.42 36.17 38.56 37.18 34.94 34.19 32.16 40.54 49.66 52.66 53.55 54.31 54.97 53.72 53.90 50.45 51.18 45.52 41.83 36.18 36.69 35.11 38.18 40.13 40.97 41.31 41.69
32.21 31.59 31.29 31.55 31.01 31.54 32.49 33.38 34.38 33.85 32.09 31.26 30.82 31.19 31.15 31.34 32.26 34.61 37.99 35.15 33.17 32.45 32.41 32.88 31.94 31.68 32.07 32.84 35.78 47.38 53.69 51.10 41.38 42.84 41.07 34.20 33.32 31.86 34.61 37.66 39.99 39.96 39.57
32.59 32.22 31.46 30.20 29.81 29.71 32.00 31.91 32.25 32.53 31.42 31.42 31.56 31.20 30.75 30.50 31.78 32.91 33.55 33.73 32.87 32.04 33.25 33.47 32.74 32.39 31.67 32.31 32.43 38.22 42.04 43.20 34.79 36.24 34.44 33.87 31.66 30.73 31.45 31.84 35.14 38.21 37.79
32.03 32.63 31.97 30.80 30.57 28.86 31.05 31.75 30.89 30.24 29.64 29.96 30.45 30.14 30.85 30.35 31.48 31.28 29.20 28.77 27.72 27.90 28.62 29.75 30.78 30.96 31.00 30.85 30.79 30.27 31.71 35.33 34.43 33.16 33.72 32.15 30.87 30.11 26.69 29.64 30.90 32.22 33.10